# Wetter Temperatur Luftdruck Luftfeuchtigkeit Sichtweite Windgeschwindigkeit Windrichtung Zeit
1 Clouds 26 1013 88 10000 5.1 30 22:27 24.01.2020
2 Clouds 28 1013 83 10000 3.6 50 21:57 24.01.2020
3 Clouds 28 1013 83 10000 3.6 50 21:57 24.01.2020
4 Clouds 28 1013 88 10000 3.6 40 21:39 24.01.2020
5 Clouds 28 1013 88 10000 3.6 40 21:18 24.01.2020
6 Clouds 28 1013 88 10000 4.6 40 20:43 24.01.2020
7 Clouds 28 1013 88 10000 4.1 50 20:21 24.01.2020
8 Rain 27 1013 88 10000 3.6 30 19:58 24.01.2020
9 Clouds 27 1013 88 10000 3.1 40 19:39 24.01.2020
10 Clouds 27 1013 88 10000 3.1 40 19:21 24.01.2020
11 Rain 26 1013 94 3200 3.1 30 18:43 24.01.2020
12 Clouds 27 1012 94 10000 4.1 50 18:24 24.01.2020
13 Clouds 26 1012 94 10000 3.1 60 17:56 24.01.2020
14 Clouds 26 1012 94 10000 3.1 60 17:56 24.01.2020
15 Clouds 27 1011 88 10000 4.1 40 17:38 24.01.2020
16 Rain 27 1011 88 10000 4.1 40 17:18 24.01.2020
17 Rain 27 1011 94 10000 4.1 50 16:39 24.01.2020
18 Rain 27 1011 94 10000 4.1 50 16:39 24.01.2020
19 Rain 27 1011 94 10000 4.1 50 16:21 24.01.2020
20 Rain 27 1011 94 10000 4.1 50 16:21 24.01.2020
21 Rain 26 1011 94 10000 3.1 70 15:43 24.01.2020
22 Rain 26 1011 94 10000 2.6 90 15:23 24.01.2020
23 Rain 25 1011 94 10000 2.6 90 14:59 24.01.2020
24 Rain 25 1011 94 10000 2.6 90 14:40 24.01.2020
25 Rain 26 1012 88 10000 2.6 80 14:21 24.01.2020
26 Rain 26 1012 88 10000 2.6 50 13:43 24.01.2020
27 Rain 26 1012 88 10000 4.1 60 13:23 24.01.2020
28 Rain 26 1012 94 10000 4.6 50 12:44 24.01.2020
29 Rain 26 1013 88 10000 3.6 50 12:23 24.01.2020
30 Rain 26 1013 83 10000 3.6 40 11:57 24.01.2020
31 Rain 26 1013 94 10000 3.6 40 11:38 24.01.2020
32 Rain 26 1013 94 10000 3.6 40 11:18 24.01.2020
33 Rain 26 1013 94 10000 3.6 40 11:18 24.01.2020
34 Rain 27 1013 94 10000 4.1 60 10:41 24.01.2020
35 Rain 27 1013 94 10000 4.6 70 10:20 24.01.2020
36 Rain 27 1013 94 10000 3.6 60 09:42 24.01.2020
37 Rain 27 1013 88 10000 4.6 60 09:24 24.01.2020
38 Rain 27 1013 88 10000 4.6 60 09:00 24.01.2020
39 Rain 26 1013 94 10000 4.1 60 08:38 24.01.2020
40 Rain 26 1013 94 10000 4.1 60 08:18 24.01.2020
41 Rain 26 1012 94 10000 3.6 70 07:43 24.01.2020
42 Rain 26 1012 94 10000 3.6 60 07:21 24.01.2020
43 Rain 26 1012 94 10000 3.6 60 06:43 24.01.2020
44 Rain 26 1012 94 10000 3.6 60 06:43 24.01.2020
45 Rain 26 1011 94 10000 3.6 50 06:23 24.01.2020
46 Rain 26 1011 94 10000 3.1 80 05:21 24.01.2020
47 Rain 28 1011 88 10000 5.1 50 03:29 24.01.2020
48 Rain 28 1011 88 10000 5.1 50 02:39 24.01.2020
49 Rain 28 1011 88 10000 5.1 50 02:19 24.01.2020
50 Rain 28 1012 83 10000 5.1 50 01:38 24.01.2020
51 Rain 28 1012 88 10000 5.1 50 00:40 24.01.2020
52 Rain 28 1012 88 10000 5.1 50 00:18 24.01.2020
53 Rain 28 1012 88 10000 4.1 50 23:41 23.01.2020
54 Rain 28 1012 88 10000 4.6 40 23:21 23.01.2020
55 Rain 28 1013 83 10000 4.6 40 22:58 23.01.2020
56 Rain 28 1012 83 10000 4.6 40 22:36 23.01.2020
57 Rain 28 1012 83 10000 4.6 40 22:18 23.01.2020
58 Rain 28 1012 88 10000 4.6 50 21:55 23.01.2020
59 Rain 28 1012 83 10000 4.6 40 21:37 23.01.2020
60 Rain 28 1012 83 10000 4.6 40 21:18 23.01.2020
61 Rain 28 1012 83 10000 3.6 50 20:40 23.01.2020
62 Rain 27 1012 88 10000 3.6 40 20:22 23.01.2020
63 Rain 27 1012 88 10000 3.1 40 19:57 23.01.2020
64 Rain 27 1012 88 10000 3.1 30 19:38 23.01.2020
65 Rain 27 1012 88 10000 3.1 30 19:38 23.01.2020
66 Rain 27 1012 88 10000 3.1 30 19:20 23.01.2020
67 Rain 27 1012 88 10000 3.1 30 18:56 23.01.2020
68 Rain 27 1012 88 10000 3.1 30 18:56 23.01.2020
69 Rain 26 1011 88 10000 3.6 20 18:37 23.01.2020
70 Rain 26 1011 88 10000 3.6 20 18:19 23.01.2020
71 Rain 26 1011 88 10000 3.6 30 17:43 23.01.2020
72 Rain 26 1011 94 10000 3.6 40 17:20 23.01.2020
73 Rain 26 1011 94 10000 4.1 40 16:58 23.01.2020
74 Rain 26 1011 94 10000 3.6 40 16:38 23.01.2020
75 Rain 26 1011 94 10000 3.6 40 16:19 23.01.2020
76 Rain 26 1010 94 10000 3.6 40 15:57 23.01.2020
77 Rain 26 1011 94 10000 3.6 50 15:38 23.01.2020
78 Rain 26 1011 94 10000 3.6 50 15:18 23.01.2020
79 Rain 26 1011 94 10000 3.6 50 14:56 23.01.2020
80 Rain 26 1011 94 10000 4.1 60 14:38 23.01.2020
81 Rain 26 1011 94 10000 4.1 60 14:20 23.01.2020
82 Rain 26 1011 94 10000 3.6 60 13:44 23.01.2020
83 Rain 26 1011 94 10000 3.6 50 13:20 23.01.2020
84 Rain 26 1011 94 10000 3.1 50 12:54 23.01.2020
85 Rain 26 1012 94 10000 3.1 50 12:36 23.01.2020
86 Rain 26 1012 94 10000 3.1 50 12:18 23.01.2020
87 Rain 26 1012 94 10000 3.6 60 11:42 23.01.2020
88 Rain 26 1012 94 10000 3.1 60 11:23 23.01.2020
89 Rain 26 1012 94 10000 3.6 50 10:55 23.01.2020
90 Rain 27 1012 88 10000 3.1 50 10:36 23.01.2020
91 Rain 27 1012 88 10000 3.1 50 10:18 23.01.2020
92 Rain 26 1012 94 10000 3.1 50 09:39 23.01.2020
93 Rain 26 1012 94 10000 3.1 50 09:20 23.01.2020
94 Rain 26 1012 94 10000 2.6 50 08:43 23.01.2020
95 Rain 27 1011 88 10000 1.5 40 08:25 23.01.2020
96 Rain 26 1011 88 10000 2.1 40 07:51 23.01.2020
97 Drizzle 27 1011 88 10000 2.1 20 07:27 23.01.2020
98 Rain 27 1011 88 10000 2.1 30 06:54 23.01.2020
99 Rain 27 1010 83 10000 2.6 30 06:24 23.01.2020
100 Rain 27 1010 83 10000 4.1 40 05:58 23.01.2020
101 Rain 27 1010 88 10000 3.6 340 04:24 23.01.2020
102 Rain 27 1010 88 10000 3.6 340 04:24 23.01.2020
103 Rain 27 1010 83 10000 4.6 310 02:45 23.01.2020
104 Rain 27 1010 88 10000 2.6 320 01:44 23.01.2020
105 Rain 26 1010 94 10000 5.1 300 00:28 23.01.2020
106 Rain 26 1010 88 10000 4.1 290 23:54 22.01.2020
107 Rain 26 1010 88 10000 4.1 300 23:36 22.01.2020
108 Rain 26 1010 88 10000 4.1 300 23:18 22.01.2020
109 Rain 25 1010 94 10000 2.6 270 22:41 22.01.2020
110 Rain 25 1010 100 9000 5.1 300 22:23 22.01.2020
111 Rain 25 1011 100 6000 6.7 290 21:42 22.01.2020
112 Rain 26 1010 94 9000 3.1 300 21:22 22.01.2020
113 Rain 26 1010 94 9000 4.1 320 20:58 22.01.2020
114 Rain 26 1010 94 9000 4.1 320 20:58 22.01.2020
115 Rain 26 1010 94 10000 3.6 340 20:39 22.01.2020
116 Rain 26 1010 94 10000 3.6 340 20:21 22.01.2020
117 Rain 26 1010 94 10000 3.6 330 19:57 22.01.2020
118 Rain 26 1010 88 10000 4.6 340 19:39 22.01.2020
119 Rain 26 1010 88 10000 4.6 340 19:19 22.01.2020
120 Rain 26 1010 94 10000 5.1 350 18:57 22.01.2020
121 Drizzle 27 1009 88 10000 5.1 360 18:38 22.01.2020
122 Drizzle 27 1009 88 10000 5.1 360 18:38 22.01.2020
123 Drizzle 27 1009 88 10000 5.1 360 18:19 22.01.2020
124 Drizzle 27 1009 88 10000 4.1 360 17:54 22.01.2020
125 Rain 26 1009 94 10000 4.1 360 17:36 22.01.2020
126 Rain 26 1009 94 10000 4.1 360 17:18 22.01.2020
127 Rain 26 1009 94 10000 4.1 360 17:18 22.01.2020
128 Rain 26 1009 94 9000 4.1 340 16:43 22.01.2020
129 Rain 26 1008 94 7000 5.1 340 16:22 22.01.2020
130 Rain 27 1008 88 8000 4.1 340 15:58 22.01.2020
131 Rain 27 1008 88 10000 4.1 360 15:39 22.01.2020
132 Rain 27 1008 88 10000 4.1 360 15:21 22.01.2020
133 Rain 27 1008 88 10000 3.6 10 14:54 22.01.2020
134 Rain 26 1008 94 10000 5.1 20 14:36 22.01.2020
135 Rain 26 1008 94 10000 5.1 20 14:36 22.01.2020
136 Rain 26 1008 94 10000 5.1 20 14:18 22.01.2020
137 Rain 26 1009 94 10000 2.6 40 13:38 22.01.2020
138 Rain 26 1009 94 10000 2.6 40 13:20 22.01.2020
139 Rain 26 1009 94 10000 2.1 40 12:57 22.01.2020
140 Rain 25 1010 94 10000 2.1 30 12:39 22.01.2020
141 Rain 25 1010 94 10000 2.1 30 12:20 22.01.2020
142 Rain 25 1010 94 10000 1.5 340 11:58 22.01.2020
143 Rain 26 1010 88 10000 3.6 330 11:39 22.01.2020
144 Rain 26 1010 88 10000 3.6 330 11:19 22.01.2020
145 Rain 26 1010 88 10000 3.6 330 11:19 22.01.2020
146 Rain 26 1010 88 10000 3.6 330 11:19 22.01.2020
147 Rain 26 1010 94 9000 3.6 340 10:54 22.01.2020
148 Rain 25 1010 100 10000 1.5 10 10:36 22.01.2020
149 Rain 25 1010 100 10000 1.5 10 10:18 22.01.2020
150 Rain 25 1010 94 10000 1 100 09:41 22.01.2020
151 Rain 25 1010 94 2100 1.5 330 09:23 22.01.2020
152 Rain 25 1010 94 10000 1.5 70 08:56 22.01.2020
153 Rain 25 1009 94 10000 1 90 08:37 22.01.2020
154 Rain 25 1009 94 10000 1 90 08:19 22.01.2020
155 Rain 25 1009 94 10000 1 90 08:19 22.01.2020
156 Rain 25 1009 94 10000 1.5 100 07:44 22.01.2020
157 Rain 25 1009 94 6000 1 90 07:26 22.01.2020
158 Rain 25 1008 94 10000 1.5 70 06:37 22.01.2020
159 Rain 25 1008 94 10000 1.5 70 06:18 22.01.2020
160 Rain 26 1008 88 10000 3.1 80 04:27 22.01.2020
161 Rain 26 1008 88 10000 3.6 70 03:27 22.01.2020
162 Rain 26 1008 88 10000 4.1 70 02:48 22.01.2020
163 Rain 25 1009 94 10000 4.1 80 00:48 22.01.2020
164 Rain 25 1009 94 10000 1 100 00:28 22.01.2020
165 Rain 25 1009 94 3100 0.5 280 23:59 21.01.2020
166 Rain 25 1009 94 4400 1 60 23:37 21.01.2020
167 Rain 25 1009 94 4400 1 60 23:19 21.01.2020
168 Rain 25 1009 94 10000 2.6 80 22:42 21.01.2020
169 Rain 25 1010 94 5000 2.6 40 22:23 21.01.2020
170 Rain 24 1010 100 2800 1.5 270 21:58 21.01.2020
171 Rain 25 1010 94 4500 1.5 310 21:39 21.01.2020
172 Rain 25 1010 94 4500 1.5 310 21:20 21.01.2020
173 Rain 25 1009 88 6000 2.6 260 20:57 21.01.2020
174 Rain 25 1009 94 10000 1 110 20:39 21.01.2020
175 Rain 25 1009 94 10000 1 110 20:20 21.01.2020
176 Rain 24 1009 94 10000 2.6 80 19:57 21.01.2020
177 Rain 24 1010 94 10000 1 120 19:39 21.01.2020
178 Rain 24 1010 94 10000 1 120 19:20 21.01.2020
179 Rain 23 1009 100 10000 1.5 260 18:55 21.01.2020
180 Rain 23 1009 100 5000 2.1 210 18:37 21.01.2020
181 Rain 23 1009 100 5000 2.1 210 18:19 21.01.2020
182 Rain 24 1008 94 8000 1 160 17:45 21.01.2020
183 Rain 24 1008 94 10000 0.5 270 17:20 21.01.2020
184 Rain 23 1008 100 10000 1.5 230 16:59 21.01.2020
185 Rain 23 1008 100 900 2.1 210 16:37 21.01.2020
186 Rain 23 1008 100 900 2.1 210 16:37 21.01.2020
187 Rain 23 1008 100 900 2.1 210 16:37 21.01.2020
188 Rain 23 1008 100 900 2.1 210 16:19 21.01.2020
189 Rain 24 1007 94 10000 1.5 200 15:54 21.01.2020
190 Rain 24 1007 94 10000 1.5 210 15:36 21.01.2020
191 Rain 24 1007 94 10000 1.5 210 15:18 21.01.2020
192 Rain 26 1008 94 9000 4.1 310 14:38 21.01.2020
193 Rain 26 1008 94 9000 4.1 310 14:20 21.01.2020
194 Rain 26 1008 94 9000 4.1 310 13:40 21.01.2020
195 Rain 26 1008 94 9000 4.1 280 13:19 21.01.2020
196 Rain 26 1008 88 9000 4.6 280 12:45 21.01.2020
197 Rain 26 1008 88 10000 4.6 280 12:27 21.01.2020
198 Rain 26 1009 88 8000 5.1 290 11:58 21.01.2020
199 Rain 26 1009 94 8000 5.7 280 11:40 21.01.2020
200 Rain 26 1009 94 8000 5.7 280 11:21 21.01.2020
201 Rain 26 1009 88 7000 6.2 280 10:55 21.01.2020
202 Rain 25 1009 94 7000 6.7 280 10:37 21.01.2020
203 Rain 25 1009 94 7000 6.7 280 10:18 21.01.2020
204 Haze 25 1009 94 5000 8.7 280 09:41 21.01.2020
205 Rain 25 1009 94 750 12.3 280 09:22 21.01.2020
206 Rain 27 1009 88 10000 7.2 320 08:49 21.01.2020
207 Haze 27 1008 94 5000 4.6 340 08:29 21.01.2020
208 Rain 27 1008 94 6000 4.6 340 07:59 21.01.2020
209 Rain 27 1008 88 9000 5.1 330 07:39 21.01.2020
210 Rain 27 1008 88 9000 5.1 330 07:21 21.01.2020
211 Rain 27 1008 94 7000 3.6 330 06:48 21.01.2020
212 Rain 27 1007 88 8000 3.6 330 06:25 21.01.2020
213 Rain 28 1007 88 7000 3.6 330 05:41 21.01.2020
214 Clouds 28 1007 83 9000 4.1 340 04:39 21.01.2020
215 Clouds 28 1007 83 10000 5.1 330 02:55 21.01.2020
216 Rain 28 1007 83 10000 4.6 340 01:47 21.01.2020
217 Rain 29 1008 79 10000 4.6 340 00:54 21.01.2020
218 Rain 28 1008 83 10000 5.1 350 00:32 21.01.2020
219 Rain 28 1008 83 10000 5.1 340 23:57 20.01.2020
220 Rain 28 1009 83 9000 5.1 340 23:37 20.01.2020
221 Rain 28 1009 83 9000 5.1 340 23:18 20.01.2020
222 Rain 28 1009 88 9000 5.7 330 22:56 20.01.2020
223 Rain 28 1009 83 10000 5.1 340 22:36 20.01.2020
224 Rain 28 1009 83 10000 5.1 340 22:18 20.01.2020
225 Rain 27 1009 88 10000 5.7 350 21:55 20.01.2020
226 Rain 27 1009 88 9000 5.1 330 21:36 20.01.2020
227 Rain 27 1009 88 9000 5.1 330 21:18 20.01.2020
228 Haze 27 1009 88 3100 5.1 340 20:43 20.01.2020
229 Rain 27 1009 88 10000 5.7 350 20:20 20.01.2020
230 Rain 27 1009 88 10000 5.1 350 19:59 20.01.2020
231 Rain 27 1009 88 10000 5.1 350 19:59 20.01.2020
232 Rain 27 1009 88 10000 5.1 350 19:41 20.01.2020
233 Rain 27 1009 88 9000 5.1 340 19:19 20.01.2020
234 Rain 27 1009 88 10000 5.1 340 18:56 20.01.2020
235 Rain 27 1009 88 10000 5.1 340 18:38 20.01.2020
236 Rain 27 1009 88 10000 5.1 340 18:19 20.01.2020
237 Rain 27 1009 88 10000 5.1 340 18:19 20.01.2020
238 Rain 27 1008 88 9000 4.6 330 17:39 20.01.2020
239 Rain 27 1008 88 9000 4.6 330 17:19 20.01.2020
240 Rain 27 1008 88 10000 4.6 330 16:47 20.01.2020
241 Rain 27 1007 88 10000 4.6 340 16:26 20.01.2020
242 Rain 27 1007 88 10000 4.6 330 15:59 20.01.2020
243 Rain 27 1007 88 9000 4.1 330 15:40 20.01.2020
244 Rain 27 1007 88 9000 4.1 330 15:22 20.01.2020
245 Rain 27 1007 88 10000 4.6 330 14:56 20.01.2020
246 Rain 27 1007 88 8000 4.6 340 14:37 20.01.2020
247 Rain 27 1007 88 8000 4.6 340 14:37 20.01.2020
248 Rain 27 1007 88 8000 4.6 340 14:19 20.01.2020
249 Rain 27 1008 88 9000 4.6 340 13:42 20.01.2020
250 Rain 27 1008 83 10000 4.6 340 13:23 20.01.2020
251 Rain 27 1008 83 10000 4.6 350 12:56 20.01.2020
252 Rain 27 1009 83 10000 4.6 350 12:38 20.01.2020
253 Rain 27 1009 83 10000 4.6 350 12:19 20.01.2020
254 Rain 26 1009 88 10000 3.6 350 11:43 20.01.2020
255 Rain 26 1010 88 10000 5.1 350 11:24 20.01.2020
256 Rain 26 1010 88 10000 5.7 340 10:57 20.01.2020
257 Rain 26 1010 88 9000 5.7 340 10:39 20.01.2020
258 Rain 26 1010 88 9000 5.7 340 10:19 20.01.2020
259 Rain 26 1010 88 10000 6.2 340 09:41 20.01.2020
260 Rain 26 1010 88 8000 5.7 340 09:22 20.01.2020
261 Rain 26 1010 88 10000 7.2 330 08:51 20.01.2020
262 Rain 26 1010 88 10000 6.2 330 08:31 20.01.2020
263 Rain 26 1009 88 9000 6.2 330 07:54 20.01.2020
264 Rain 26 1009 88 9000 7.7 320 07:30 20.01.2020
265 Rain 26 1009 88 9000 7.2 320 06:59 20.01.2020
266 Rain 26 1009 88 8000 7.7 310 06:30 20.01.2020
267 Rain 26 1008 88 6000 7.7 300 05:44 20.01.2020
268 Mist 26 1008 94 4500 9.3 300 05:25 20.01.2020
269 Haze 25 1008 94 4100 8.7 300 04:58 20.01.2020
270 Rain 27 1008 88 10000 4.6 360 03:30 20.01.2020
271 Rain 28 1009 83 10000 4.6 360 01:57 20.01.2020
272 Rain 27 1009 88 10000 4.6 10 01:37 20.01.2020
273 Rain 28 1009 88 10000 5.1 10 00:45 20.01.2020
274 Rain 28 1009 88 10000 4.1 20 00:25 20.01.2020
275 Rain 27 1010 88 7000 3.6 360 23:40 19.01.2020
276 Rain 27 1010 88 7000 3.6 360 23:20 19.01.2020
277 Rain 27 1011 88 5000 5.7 330 22:58 19.01.2020
278 Rain 28 1011 83 8000 5.7 350 22:40 19.01.2020
279 Rain 28 1011 83 8000 5.7 350 22:21 19.01.2020
280 Rain 27 1011 88 9000 5.7 350 21:57 19.01.2020
281 Rain 27 1011 88 9000 5.7 350 21:57 19.01.2020
282 Rain 27 1011 88 8000 4.6 350 21:39 19.01.2020
283 Rain 27 1011 88 8000 4.6 350 21:20 19.01.2020
284 Rain 27 1011 88 10000 4.1 360 20:57 19.01.2020
285 Rain 27 1011 88 10000 4.1 360 20:57 19.01.2020
286 Rain 27 1011 88 10000 3.6 10 20:39 19.01.2020
287 Rain 27 1011 88 10000 3.6 10 20:21 19.01.2020
288 Rain 26 1011 88 10000 3.1 10 19:57 19.01.2020
289 Rain 26 1011 94 9000 3.6 10 19:39 19.01.2020
290 Rain 26 1011 94 9000 3.6 10 19:21 19.01.2020
291 Rain 26 1011 88 10000 3.1 10 18:59 19.01.2020
292 Rain 26 1011 88 10000 3.1 10 18:41 19.01.2020
293 Rain 25 1010 94 10000 4.1 360 18:21 19.01.2020
294 Rain 25 1011 88 6000 6.2 320 17:58 19.01.2020
295 Rain 25 1011 88 6000 6.2 320 17:58 19.01.2020
296 Rain 25 1010 94 4100 4.1 350 17:40 19.01.2020
297 Rain 25 1010 94 4100 4.1 350 17:21 19.01.2020
298 Rain 27 1010 94 9000 3.1 20 16:59 19.01.2020
299 Rain 27 1010 88 9000 3.1 360 16:39 19.01.2020
300 Rain 27 1010 88 9000 3.1 360 16:21 19.01.2020
301 Rain 27 1010 94 9000 3.1 20 15:58 19.01.2020
302 Rain 27 1010 94 9000 3.1 20 15:39 19.01.2020
303 Rain 27 1010 94 9000 3.1 20 15:20 19.01.2020
304 Rain 27 1010 94 9000 2.6 10 14:58 19.01.2020
305 Rain 27 1010 94 9000 3.1 20 14:39 19.01.2020
306 Rain 27 1010 94 9000 3.1 20 14:18 19.01.2020
307 Rain 27 1010 94 9000 3.1 20 13:57 19.01.2020
308 Rain 27 1010 94 9000 3.1 20 13:38 19.01.2020
309 Rain 27 1010 94 9000 3.1 20 13:19 19.01.2020
310 Rain 27 1010 94 8000 3.1 20 12:55 19.01.2020
311 Rain 27 1011 94 7000 3.6 30 12:36 19.01.2020
312 Rain 27 1011 94 7000 3.6 30 12:18 19.01.2020
313 Rain 27 1011 94 8000 3.1 20 11:42 19.01.2020
314 Clouds 27 1011 94 9000 3.6 20 11:20 19.01.2020
315 Clouds 27 1012 94 7000 3.6 30 10:56 19.01.2020
316 Clouds 27 1012 94 6000 4.1 30 10:38 19.01.2020
317 Clouds 27 1012 94 6000 4.1 30 10:19 19.01.2020
318 Clouds 27 1011 94 6000 3.1 30 09:45 19.01.2020
319 Clouds 27 1011 94 6000 3.1 30 09:45 19.01.2020
320 Clouds 27 1011 94 8000 3.6 40 09:27 19.01.2020
321 Clouds 27 1011 94 9000 3.1 30 08:58 19.01.2020
322 Clouds 27 1011 94 9000 3.1 30 08:39 19.01.2020
323 Clouds 27 1011 94 9000 3.1 30 08:21 19.01.2020
324 Clouds 27 1011 94 10000 4.1 40 07:42 19.01.2020
325 Clouds 27 1010 88 10000 5.1 50 07:21 19.01.2020
326 Clouds 27 1010 88 10000 5.1 50 06:50 19.01.2020
327 Clouds 27 1009 94 10000 5.1 50 05:21 19.01.2020
328 Clouds 28 1010 88 10000 5.1 50 02:43 19.01.2020
329 Rain 27 1010 94 10000 5.7 50 02:21 19.01.2020
330 Rain 28 1010 88 10000 6.2 50 01:24 19.01.2020
331 Rain 28 1010 88 10000 6.2 50 01:24 19.01.2020
332 Rain 28 1010 88 10000 6.2 50 00:45 19.01.2020
333 Rain 28 1011 88 10000 6.2 50 00:27 19.01.2020
334 Rain 28 1011 88 10000 6.2 50 23:55 18.01.2020
335 Rain 29 1011 83 10000 5.7 50 23:37 18.01.2020
336 Rain 29 1011 83 10000 5.7 50 23:18 18.01.2020
337 Rain 29 1011 83 10000 5.1 50 22:54 18.01.2020
338 Rain 29 1011 83 10000 5.1 50 22:36 18.01.2020
339 Rain 29 1011 83 10000 5.1 50 22:36 18.01.2020
340 Rain 29 1011 83 10000 5.1 50 22:18 18.01.2020
341 Rain 28 1011 88 10000 5.1 50 21:56 18.01.2020
342 Rain 28 1011 88 10000 5.1 50 21:36 18.01.2020
343 Rain 28 1011 88 10000 5.1 50 21:18 18.01.2020
344 Rain 28 1011 88 10000 5.1 50 21:18 18.01.2020
345 Rain 27 1011 88 10000 5.1 60 20:41 18.01.2020
346 Rain 27 1012 88 10000 4.6 50 20:19 18.01.2020
347 Rain 27 1011 88 10000 4.1 50 19:44 18.01.2020
348 Rain 27 1011 88 10000 4.1 50 19:44 18.01.2020
349 Rain 27 1011 88 10000 4.6 50 19:25 18.01.2020
350 Rain 27 1011 88 10000 4.6 50 19:25 18.01.2020
351 Rain 27 1011 88 10000 4.6 50 18:56 18.01.2020
352 Rain 27 1011 88 10000 4.6 50 18:37 18.01.2020
353 Rain 27 1011 88 10000 4.6 50 18:19 18.01.2020
354 Rain 27 1010 88 10000 4.6 50 17:41 18.01.2020
355 Rain 27 1010 88 10000 5.1 50 17:21 18.01.2020
356 Rain 27 1010 88 10000 4.6 50 16:57 18.01.2020
357 Rain 27 1010 88 10000 5.1 50 16:38 18.01.2020
358 Rain 27 1010 88 10000 5.1 50 16:20 18.01.2020
359 Rain 27 1010 88 10000 5.1 50 15:56 18.01.2020
360 Rain 27 1010 88 10000 5.1 50 15:38 18.01.2020
361 Rain 27 1010 88 10000 5.1 50 15:20 18.01.2020
362 Rain 27 1010 94 10000 5.1 50 14:41 18.01.2020
363 Rain 27 1010 94 10000 4.6 50 14:19 18.01.2020
364 Rain 27 1011 94 10000 5.1 60 13:57 18.01.2020
365 Rain 27 1011 88 10000 5.1 50 13:36 18.01.2020
366 Rain 27 1011 88 10000 5.1 50 13:36 18.01.2020
367 Rain 27 1011 88 10000 5.1 50 13:18 18.01.2020
368 Rain 27 1011 88 10000 5.7 60 12:41 18.01.2020
369 Rain 27 1011 88 10000 5.1 60 12:21 18.01.2020
370 Rain 27 1011 94 10000 5.7 60 11:56 18.01.2020
371 Rain 27 1012 94 10000 5.1 60 11:38 18.01.2020
372 Clouds 27 1012 94 10000 5.1 60 11:19 18.01.2020
373 Clouds 27 1012 94 10000 5.1 60 10:42 18.01.2020
374 Clouds 27 1012 94 10000 5.1 60 10:20 18.01.2020
375 Clouds 27 1012 94 10000 5.7 60 09:54 18.01.2020
376 Clouds 27 1011 94 10000 5.7 70 09:36 18.01.2020
377 Clouds 27 1011 94 10000 5.1 60 08:59 18.01.2020
378 Clouds 27 1011 94 10000 5.1 60 08:41 18.01.2020
379 Clouds 27 1011 94 10000 6.2 70 08:20 18.01.2020
380 Clouds 27 1010 94 10000 5.7 60 07:52 18.01.2020
381 Clouds 27 1010 94 10000 5.7 70 07:32 18.01.2020
382 Clouds 27 1010 94 10000 4.6 60 06:48 18.01.2020
383 Clouds 27 1009 94 10000 5.1 60 06:19 18.01.2020
384 Clouds 28 1009 83 10000 5.7 60 05:30 18.01.2020
385 Clouds 28 1009 88 10000 6.2 60 03:39 18.01.2020
386 Clouds 28 1009 88 10000 5.7 60 01:59 18.01.2020
387 Clouds 29 1010 83 10000 5.7 60 01:36 18.01.2020
388 Clouds 29 1010 83 10000 6.7 60 00:38 18.01.2020
389 Clouds 29 1010 83 10000 6.7 60 00:19 18.01.2020
390 Clouds 29 1010 83 10000 7.2 60 23:44 17.01.2020
391 Clouds 28 1010 88 10000 6.7 60 23:20 17.01.2020
392 Clouds 29 1011 83 10000 6.2 60 22:59 17.01.2020
393 Clouds 28 1011 88 10000 5.1 60 22:40 17.01.2020
394 Clouds 28 1011 88 10000 5.1 60 22:18 17.01.2020
395 Clouds 28 1011 83 10000 5.1 60 21:41 17.01.2020
396 Clouds 27 1011 88 10000 4.6 60 21:22 17.01.2020
397 Clouds 27 1011 88 10000 4.6 60 20:58 17.01.2020
398 Clouds 27 1011 88 10000 4.6 50 20:39 17.01.2020
399 Clouds 27 1011 88 10000 4.6 50 20:20 17.01.2020
400 Clouds 27 1011 88 10000 4.6 60 19:55 17.01.2020
401 Clouds 26 1011 88 10000 4.6 60 19:37 17.01.2020
402 Clouds 26 1011 88 10000 4.6 60 19:19 17.01.2020
403 Rain 26 1011 88 10000 5.1 60 18:47 17.01.2020
404 Clouds 26 1010 88 10000 4.6 60 18:29 17.01.2020
405 Clouds 26 1010 88 10000 5.1 60 17:58 17.01.2020
406 Clouds 26 1010 88 10000 4.6 50 17:39 17.01.2020
407 Clouds 26 1010 88 10000 4.6 50 17:20 17.01.2020
408 Clouds 26 1009 88 10000 5.1 40 16:43 17.01.2020
409 Clouds 26 1009 88 10000 4.6 40 16:20 17.01.2020
410 Clouds 26 1009 88 10000 3.6 50 15:49 17.01.2020
411 Clouds 26 1009 88 10000 4.1 40 15:28 17.01.2020
412 Clouds 26 1009 83 10000 4.1 40 14:59 17.01.2020
413 Clouds 26 1009 83 10000 4.1 40 14:40 17.01.2020
414 Clouds 25 1009 94 10000 3.1 50 14:22 17.01.2020
415 Clouds 25 1009 94 10000 2.6 30 13:42 17.01.2020
416 Clouds 25 1010 94 10000 2.1 20 13:22 17.01.2020
417 Clouds 25 1010 94 10000 2.1 20 13:22 17.01.2020
418 Rain 25 1010 94 10000 3.1 30 12:46 17.01.2020
419 Clouds 27 1010 88 10000 4.6 60 12:23 17.01.2020
420 Clouds 27 1010 88 10000 4.6 60 12:23 17.01.2020
421 Clouds 27 1010 88 10000 4.1 50 11:41 17.01.2020
422 Clouds 27 1010 88 10000 4.1 50 11:20 17.01.2020
423 Clouds 27 1011 88 10000 4.6 60 10:55 17.01.2020
424 Clouds 27 1011 88 10000 4.1 50 10:36 17.01.2020
425 Clouds 27 1011 88 10000 4.1 50 10:18 17.01.2020
426 Clouds 27 1011 88 10000 4.1 50 09:42 17.01.2020
427 Clouds 27 1010 88 10000 4.1 50 09:21 17.01.2020
428 Clouds 27 1010 88 10000 4.1 50 08:55 17.01.2020
429 Clouds 27 1010 88 10000 4.6 50 08:37 17.01.2020
430 Clouds 27 1010 88 10000 4.6 50 08:18 17.01.2020
431 Clouds 27 1009 88 10000 4.6 60 07:43 17.01.2020
432 Clouds 27 1009 88 10000 4.6 60 07:43 17.01.2020
433 Clouds 27 1009 88 10000 4.6 60 07:24 17.01.2020
434 Clouds 27 1009 88 10000 5.1 60 06:47 17.01.2020
435 Clouds 27 1008 88 10000 5.1 60 06:29 17.01.2020
436 Clouds 27 1007 81 0 6.09 39 04:26 17.01.2020
437 Clouds 27 1007 81 0 6.09 39 02:56 17.01.2020
438 Clouds 27 1007 81 0 6.09 39 02:31 17.01.2020
439 Clouds 27 1008 82 0 6.09 35 01:33 17.01.2020
440 Clouds 26 1008 82 0 5.69 44 00:59 17.01.2020
441 Clouds 26 1008 82 0 5.69 44 00:59 17.01.2020
442 Clouds 26 1008 82 0 5.69 44 00:35 17.01.2020
443 Clouds 27 1009 94 10000 5.1 50 23:56 16.01.2020
444 Clouds 27 1009 94 10000 5.1 50 23:38 16.01.2020
445 Clouds 27 1009 94 10000 5.1 50 23:19 16.01.2020
446 Clouds 28 1009 83 10000 5.7 50 22:40 16.01.2020
447 Clouds 28 1009 83 10000 5.7 50 22:40 16.01.2020
448 Clouds 28 1009 83 10000 5.7 50 22:21 16.01.2020
449 Clouds 28 1009 83 10000 6.2 50 21:56 16.01.2020
450 Clouds 28 1009 83 10000 6.2 60 21:37 16.01.2020
451 Clouds 28 1009 83 10000 6.2 60 21:18 16.01.2020
452 Clouds 27 1009 88 10000 5.7 50 20:56 16.01.2020
453 Clouds 27 1009 88 10000 5.7 50 20:37 16.01.2020
454 Clouds 27 1009 88 10000 5.7 50 20:18 16.01.2020
455 Clouds 27 1009 88 10000 5.7 50 19:41 16.01.2020
456 Clouds 27 1009 83 10000 6.2 60 19:23 16.01.2020
457 Clouds 27 1008 88 10000 5.1 50 18:58 16.01.2020
458 Clouds 26 1008 88 10000 4.6 50 18:39 16.01.2020
459 Clouds 26 1008 88 10000 4.6 50 18:21 16.01.2020
460 Clouds 26 1008 88 10000 5.1 50 17:59 16.01.2020
461 Clouds 26 1008 88 10000 5.1 50 17:41 16.01.2020
462 Rain 26 1008 88 10000 5.1 60 17:20 16.01.2020
463 Rain 26 1007 88 10000 6.2 50 16:43 16.01.2020
464 Rain 26 1007 88 10000 5.7 60 16:25 16.01.2020
465 Rain 26 1007 88 10000 5.7 60 15:59 16.01.2020
466 Rain 26 1007 88 10000 5.7 60 15:40 16.01.2020
467 Rain 26 1007 88 10000 6.2 60 15:21 16.01.2020
468 Rain 26 1007 88 10000 6.7 60 14:45 16.01.2020
469 Rain 26 1007 88 10000 7.2 60 14:24 16.01.2020
470 Rain 26 1007 88 10000 6.2 60 13:56 16.01.2020
471 Rain 26 1007 88 10000 6.7 60 13:37 16.01.2020
472 Rain 26 1007 88 10000 6.7 60 13:19 16.01.2020
473 Rain 26 1007 88 10000 6.7 60 13:19 16.01.2020
474 Rain 26 1008 88 10000 6.7 60 12:42 16.01.2020
475 Rain 26 1008 83 10000 6.2 60 12:22 16.01.2020
476 Drizzle 26 1008 83 10000 6.7 60 11:43 16.01.2020
477 Drizzle 26 1008 83 10000 6.7 60 11:43 16.01.2020
478 Rain 26 1009 83 10000 6.7 50 11:24 16.01.2020
479 Rain 26 1009 88 10000 6.7 50 10:59 16.01.2020
480 Drizzle 26 1009 88 10000 5.7 50 10:38 16.01.2020
481 Drizzle 26 1009 88 10000 5.7 50 10:20 16.01.2020
482 Rain 26 1009 88 10000 6.2 50 09:56 16.01.2020
483 Rain 26 1009 88 10000 6.7 50 09:37 16.01.2020
484 Rain 26 1009 88 10000 6.7 50 09:18 16.01.2020
485 Drizzle 26 1009 88 10000 6.2 50 08:44 16.01.2020
486 Drizzle 26 1009 88 10000 6.7 50 08:23 16.01.2020
487 Rain 25 1009 94 10000 6.2 50 07:43 16.01.2020
488 Rain 25 1008 94 10000 6.2 50 07:25 16.01.2020
489 Rain 25 1008 94 10000 6.7 50 06:55 16.01.2020
490 Rain 25 1008 88 9000 7.2 50 06:35 16.01.2020
491 Rain 25 1008 94 9000 7.2 60 05:56 16.01.2020
492 Rain 25 1008 88 8000 8.2 60 05:30 16.01.2020
493 Rain 25 1008 94 10000 8.2 60 04:23 16.01.2020
494 Rain 24 1008 100 3600 9.3 50 03:27 16.01.2020
495 Rain 25 1008 94 7000 6.7 50 02:24 16.01.2020
496 Rain 26 1008 83 10000 7.2 40 00:44 16.01.2020
497 Rain 26 1009 83 10000 6.2 30 00:23 16.01.2020
498 Rain 26 1009 88 10000 6.2 30 23:46 15.01.2020
499 Rain 26 1009 88 10000 6.7 20 23:22 15.01.2020
500 Rain 27 1009 83 10000 6.7 50 22:57 15.01.2020
501 Rain 26 1009 83 10000 7.2 50 22:39 15.01.2020
502 Rain 26 1009 83 10000 7.2 50 22:19 15.01.2020
503 Rain 26 1009 88 10000 6.2 50 21:56 15.01.2020
504 Rain 26 1009 88 10000 6.2 50 21:56 15.01.2020
505 Rain 26 1009 88 10000 7.7 60 21:37 15.01.2020
506 Rain 26 1009 88 10000 7.7 60 21:19 15.01.2020
507 Rain 26 1009 88 10000 7.2 60 20:55 15.01.2020
508 Rain 26 1009 88 10000 7.2 60 20:37 15.01.2020
509 Rain 26 1009 88 10000 7.2 60 20:18 15.01.2020
510 Rain 26 1009 83 10000 7.7 60 19:54 15.01.2020
511 Rain 25 1009 88 10000 8.2 60 19:36 15.01.2020
512 Rain 25 1009 88 10000 8.2 60 19:18 15.01.2020
513 Rain 25 1009 88 10000 8.2 60 19:18 15.01.2020
514 Rain 24 1009 94 10000 5.7 80 18:55 15.01.2020
515 Rain 24 1009 94 10000 5.7 80 18:55 15.01.2020
516 Rain 24 1009 94 10000 5.7 80 18:55 15.01.2020
517 Rain 24 1009 94 10000 8.7 70 18:37 15.01.2020
518 Rain 24 1009 94 10000 8.7 70 18:37 15.01.2020
519 Rain 24 1009 94 10000 8.7 70 18:19 15.01.2020
520 Rain 24 1009 88 10000 6.7 70 17:41 15.01.2020
521 Rain 24 1009 94 3800 7.2 50 17:23 15.01.2020
522 Rain 26 1008 88 10000 6.2 70 16:59 15.01.2020
523 Rain 26 1008 88 10000 6.7 60 16:39 15.01.2020
524 Rain 26 1008 88 10000 6.7 60 16:21 15.01.2020
525 Rain 26 1008 88 10000 7.2 70 15:43 15.01.2020
526 Rain 26 1008 88 10000 7.2 70 15:21 15.01.2020
527 Rain 26 1009 88 10000 7.7 70 14:57 15.01.2020
528 Rain 26 1008 88 10000 7.2 70 14:39 15.01.2020
529 Rain 26 1008 88 10000 7.2 70 14:18 15.01.2020
530 Rain 26 1009 88 10000 6.7 70 13:44 15.01.2020
531 Rain 26 1009 88 10000 6.7 70 13:44 15.01.2020
532 Rain 25 1009 88 10000 3.6 80 13:23 15.01.2020
533 Rain 24 1010 88 10000 3.6 90 12:56 15.01.2020
534 Rain 24 1010 83 10000 4.6 90 12:37 15.01.2020
535 Rain 24 1010 83 10000 4.6 90 12:19 15.01.2020
536 Rain 24 1010 83 10000 4.6 90 11:54 15.01.2020
537 Rain 23 1011 94 10000 6.2 90 11:36 15.01.2020
538 Rain 23 1011 94 10000 6.2 90 11:18 15.01.2020
539 Rain 23 1012 94 6000 10.3 70 10:41 15.01.2020
540 Rain 24 1012 94 8000 7.7 50 10:21 15.01.2020
541 Rain 24 1011 94 10000 4.1 70 09:41 15.01.2020
542 Rain 24 1011 94 7000 6.2 40 09:22 15.01.2020
543 Rain 26 1011 88 10000 5.7 80 08:45 15.01.2020
544 Rain 25 1011 94 5000 3.1 60 08:27 15.01.2020
545 Rain 24 1011 100 10000 2.6 90 07:56 15.01.2020
546 Rain 24 1011 100 10000 3.1 90 07:35 15.01.2020
547 Rain 24 1011 94 7000 4.6 50 06:57 15.01.2020
548 Rain 24 1011 94 7000 4.6 50 06:57 15.01.2020
549 Rain 24 1010 94 4000 3.6 30 06:38 15.01.2020
550 Rain 24 1010 94 6000 6.2 10 05:43 15.01.2020
551 Rain 28 1010 78 10000 7.7 70 03:35 15.01.2020
552 Rain 28 1009 78 10000 9.8 70 01:49 15.01.2020
553 Rain 28 1010 74 10000 8.7 80 01:22 15.01.2020
554 Rain 28 1010 78 10000 9.3 70 00:37 15.01.2020
555 Rain 28 1010 78 10000 9.3 70 00:19 15.01.2020
556 Rain 29 1010 74 10000 8.2 70 23:47 14.01.2020
557 Rain 28 1011 74 10000 8.2 70 23:28 14.01.2020
558 Rain 28 1011 78 10000 8.2 70 22:57 14.01.2020
559 Rain 28 1011 78 10000 8.7 80 22:39 14.01.2020
560 Rain 28 1011 78 10000 8.7 80 22:18 14.01.2020
561 Rain 28 1011 78 10000 9.8 70 21:57 14.01.2020
562 Rain 28 1011 78 10000 9.8 70 21:38 14.01.2020
563 Rain 28 1011 78 10000 9.8 70 21:19 14.01.2020
564 Rain 27 1011 83 10000 9.3 80 20:43 14.01.2020
565 Rain 27 1011 78 10000 7.7 70 20:23 14.01.2020
566 Rain 27 1011 78 10000 7.7 70 19:58 14.01.2020
567 Rain 26 1011 88 10000 7.7 80 19:40 14.01.2020
568 Rain 26 1011 88 10000 7.7 80 19:21 14.01.2020
569 Rain 26 1011 83 8000 7.2 80 18:59 14.01.2020
570 Rain 26 1011 83 8000 7.2 80 18:40 14.01.2020
571 Rain 26 1010 83 10000 5.1 80 18:19 14.01.2020
572 Rain 25 1009 88 10000 5.1 80 17:39 14.01.2020
573 Rain 25 1009 88 10000 5.1 80 17:20 14.01.2020
574 Rain 25 1009 88 10000 5.1 80 16:59 14.01.2020
575 Rain 25 1009 88 10000 5.1 80 16:41 14.01.2020
576 Rain 25 1009 83 10000 4.6 80 16:21 14.01.2020
577 Rain 25 1009 83 10000 5.1 80 15:55 14.01.2020
578 Rain 25 1009 88 10000 5.1 70 15:37 14.01.2020
579 Rain 25 1009 88 10000 5.1 70 15:18 14.01.2020
580 Rain 26 1009 83 10000 5.7 60 14:43 14.01.2020
581 Clouds 25 1010 88 10000 6.2 50 14:20 14.01.2020
582 Clouds 26 1010 83 10000 7.7 70 13:43 14.01.2020
583 Clouds 26 1010 88 10000 6.7 70 13:20 14.01.2020
584 Rain 26 1010 88 10000 5.7 70 12:59 14.01.2020
585 Rain 26 1011 88 10000 5.1 80 12:40 14.01.2020
586 Rain 26 1011 88 10000 5.1 80 12:20 14.01.2020
587 Rain 26 1011 88 10000 5.1 80 12:20 14.01.2020
588 Rain 26 1011 88 10000 5.1 80 12:20 14.01.2020
589 Rain 26 1011 88 10000 5.7 80 11:43 14.01.2020
590 Clouds 26 1011 88 10000 5.7 80 11:23 14.01.2020
591 Clouds 26 1011 88 10000 6.2 80 10:58 14.01.2020
592 Clouds 26 1011 88 10000 6.2 80 10:39 14.01.2020
593 Clouds 26 1011 88 10000 6.2 80 10:20 14.01.2020
594 Clouds 26 1011 88 10000 6.2 80 09:57 14.01.2020
595 Clouds 26 1011 88 10000 5.1 80 09:39 14.01.2020
596 Clouds 26 1011 88 10000 5.1 80 09:20 14.01.2020
597 Clouds 26 1010 83 10000 4.1 90 08:44 14.01.2020
598 Clouds 26 1010 83 10000 6.2 80 08:23 14.01.2020
599 Rain 26 1010 83 10000 5.1 90 07:53 14.01.2020
600 Rain 26 1011 78 10000 4.6 90 07:31 14.01.2020
601 Rain 26 1010 78 10000 5.1 90 06:50 14.01.2020
602 Rain 26 1010 83 10000 6.7 80 06:23 14.01.2020
603 Clouds 27 1010 78 10000 6.2 90 04:58 14.01.2020
604 Clouds 28 1009 74 10000 8.2 70 03:48 14.01.2020
605 Clouds 28 1009 74 10000 7.7 70 02:41 14.01.2020
606 Clouds 28 1010 74 10000 7.7 80 01:34 14.01.2020
607 Rain 29 1010 70 10000 8.2 70 00:49 14.01.2020
608 Rain 29 1010 74 10000 8.2 70 00:27 14.01.2020
609 Rain 29 1010 74 10000 7.7 70 23:47 13.01.2020
610 Rain 28 1011 78 10000 7.7 70 23:19 13.01.2020
611 Rain 28 1011 78 10000 8.7 80 22:58 13.01.2020
612 Rain 28 1011 78 10000 7.7 80 22:39 13.01.2020
613 Rain 28 1011 78 10000 7.7 80 22:20 13.01.2020
614 Rain 28 1011 78 10000 7.2 80 21:56 13.01.2020
615 Rain 28 1011 78 10000 7.2 80 21:56 13.01.2020
616 Rain 28 1011 74 10000 7.2 80 21:37 13.01.2020
617 Rain 28 1011 74 10000 7.2 80 21:18 13.01.2020
618 Rain 28 1011 74 10000 7.2 80 21:18 13.01.2020
619 Rain 27 1011 78 10000 7.2 80 20:56 13.01.2020
620 Rain 27 1011 78 10000 6.7 80 20:38 13.01.2020
621 Rain 27 1011 78 10000 6.7 80 20:19 13.01.2020
622 Rain 27 1011 78 10000 6.7 80 19:41 13.01.2020
623 Rain 27 1011 78 10000 5.7 80 19:21 13.01.2020
624 Rain 26 1011 83 10000 3.6 90 18:58 13.01.2020
625 Rain 25 1011 88 10000 3.6 90 18:38 13.01.2020
626 Rain 25 1011 88 10000 3.6 90 18:19 13.01.2020
627 Rain 25 1011 88 10000 3.6 90 18:19 13.01.2020
628 Rain 25 1010 88 10000 4.6 80 17:58 13.01.2020
629 Rain 25 1010 88 10000 4.1 90 17:39 13.01.2020
630 Rain 25 1010 88 10000 4.1 90 17:20 13.01.2020
631 Rain 26 1009 79 0 6.07 73 16:42 13.01.2020
632 Rain 26 1009 79 0 6.07 73 16:23 13.01.2020
633 Rain 26 1009 79 0 6.07 73 15:59 13.01.2020
634 Rain 26 1009 79 0 6.07 73 15:41 13.01.2020
635 Rain 26 1009 79 0 6.07 73 15:21 13.01.2020
636 Rain 26 1009 79 0 6.07 73 14:43 13.01.2020
637 Rain 26 1009 79 0 6.07 73 14:24 13.01.2020
638 Rain 27 1010 78 0 7.15 76 13:59 13.01.2020
639 Rain 27 1010 78 0 7.15 76 13:40 13.01.2020
640 Rain 27 1010 78 0 6.64 73 13:21 13.01.2020
641 Rain 26 1011 83 10000 5.1 80 12:56 13.01.2020
642 Rain 26 1011 83 10000 5.1 80 12:37 13.01.2020
643 Rain 26 1011 83 10000 5.1 80 12:37 13.01.2020
644 Rain 26 1011 83 10000 5.1 80 12:19 13.01.2020
645 Rain 26 1011 83 10000 5.1 80 12:19 13.01.2020
646 Rain 26 1011 83 10000 5.1 80 12:19 13.01.2020
647 Rain 26 1011 83 10000 6.2 80 11:39 13.01.2020
648 Clouds 26 1011 83 10000 6.2 80 11:20 13.01.2020
649 Clouds 26 1012 88 10000 6.7 80 10:57 13.01.2020
650 Clouds 26 1012 83 10000 5.7 80 10:39 13.01.2020
651 Clouds 26 1012 83 10000 5.7 80 10:20 13.01.2020
652 Clouds 26 1012 83 10000 5.7 80 10:20 13.01.2020
653 Clouds 26 1012 83 10000 5.1 80 09:56 13.01.2020
654 Clouds 26 1012 88 10000 5.7 80 09:38 13.01.2020
655 Clouds 26 1012 88 10000 5.7 80 09:19 13.01.2020
656 Clouds 26 1011 88 10000 6.7 80 08:39 13.01.2020
657 Rain 26 1011 88 10000 6.7 80 08:20 13.01.2020
658 Rain 26 1011 88 10000 6.7 80 08:20 13.01.2020
659 Rain 26 1011 83 6000 6.2 80 07:46 13.01.2020
660 Rain 25 1011 88 10000 5.7 80 07:27 13.01.2020
661 Rain 26 1010 83 10000 5.7 90 06:39 13.01.2020
662 Rain 26 1010 83 10000 5.7 90 06:18 13.01.2020
663 Rain 26 1010 83 10000 6.7 80 05:19 13.01.2020
664 Rain 27 1009 78 10000 7.7 80 03:46 13.01.2020
665 Rain 28 1010 74 10000 7.7 80 02:51 13.01.2020
666 Rain 28 1010 78 10000 7.2 80 02:30 13.01.2020
667 Rain 29 1011 70 10000 7.2 80 01:33 13.01.2020
668 Rain 28 1011 74 10000 6.7 80 00:48 13.01.2020
669 Rain 29 1011 66 10000 6.2 80 00:26 13.01.2020
670 Rain 29 1011 74 10000 7.7 80 23:59 12.01.2020
671 Rain 28 1012 78 10000 7.2 70 23:40 12.01.2020
672 Clouds 28 1012 78 10000 7.2 70 23:21 12.01.2020
673 Clouds 28 1012 78 10000 7.2 70 23:21 12.01.2020
674 Clouds 28 1012 74 10000 6.7 80 22:56 12.01.2020
675 Clouds 29 1011 70 10000 7.2 70 22:37 12.01.2020
676 Clouds 29 1011 70 10000 7.2 70 22:18 12.01.2020
677 Clouds 28 1012 74 10000 7.2 80 21:42 12.01.2020
678 Clouds 28 1012 74 10000 6.2 80 21:20 12.01.2020
679 Clouds 28 1012 74 10000 4.1 90 20:59 12.01.2020
680 Clouds 27 1012 78 10000 5.7 80 20:39 12.01.2020
681 Clouds 27 1012 78 10000 5.7 80 20:21 12.01.2020
682 Clouds 27 1012 78 10000 5.7 90 19:56 12.01.2020
683 Clouds 27 1012 78 10000 5.7 90 19:56 12.01.2020
684 Clouds 26 1012 83 10000 5.7 80 19:38 12.01.2020
685 Clouds 26 1012 83 10000 5.7 80 19:38 12.01.2020
686 Clouds 26 1012 83 10000 5.7 80 19:19 12.01.2020
687 Clouds 26 1012 83 10000 4.6 90 18:58 12.01.2020
688 Clouds 25 1012 83 10000 3.6 90 18:40 12.01.2020
689 Clouds 25 1012 83 10000 3.6 90 18:21 12.01.2020
690 Clouds 25 1011 88 10000 3.1 90 17:58 12.01.2020
691 Clouds 25 1011 88 10000 2.6 90 17:38 12.01.2020
692 Clouds 25 1011 88 10000 2.6 90 17:19 12.01.2020
693 Clouds 25 1010 88 10000 3.6 80 16:55 12.01.2020
694 Clouds 25 1010 88 10000 4.1 90 16:37 12.01.2020
695 Clouds 25 1010 88 10000 4.1 90 16:37 12.01.2020
696 Clouds 25 1010 88 10000 4.1 90 16:19 12.01.2020
697 Clouds 25 1010 88 10000 3.6 90 15:42 12.01.2020
698 Rain 25 1010 88 10000 3.6 90 15:24 12.01.2020
699 Rain 25 1010 94 7000 5.1 80 14:57 12.01.2020
700 Clouds 26 1010 83 10000 5.1 80 14:38 12.01.2020
701 Rain 26 1010 83 10000 5.1 80 14:19 12.01.2020
702 Rain 26 1010 83 10000 5.1 80 13:43 12.01.2020
703 Rain 26 1010 83 10000 5.7 80 13:24 12.01.2020
704 Rain 26 1011 83 10000 5.7 80 12:58 12.01.2020
705 Rain 26 1011 83 10000 6.2 80 12:39 12.01.2020
706 Rain 26 1011 83 10000 6.2 80 12:20 12.01.2020
707 Rain 26 1011 83 10000 5.7 80 11:57 12.01.2020
708 Rain 26 1012 83 10000 6.2 80 11:38 12.01.2020
709 Clouds 26 1012 83 10000 6.2 80 11:19 12.01.2020
710 Clouds 26 1012 83 10000 6.7 90 10:41 12.01.2020
711 Clouds 26 1012 83 10000 6.7 90 10:21 12.01.2020
712 Clouds 26 1012 83 10000 7.2 80 09:56 12.01.2020
713 Clouds 26 1012 88 10000 6.7 80 09:38 12.01.2020
714 Clouds 26 1012 88 10000 6.7 80 09:18 12.01.2020
715 Clouds 26 1011 83 10000 7.7 80 08:42 12.01.2020
716 Rain 26 1011 83 10000 6.7 80 08:19 12.01.2020
717 Rain 26 1011 83 10000 7.2 80 07:40 12.01.2020
718 Rain 26 1011 83 10000 7.2 80 07:21 12.01.2020
719 Rain 26 1010 83 10000 7.2 80 06:43 12.01.2020
720 Rain 26 1010 83 10000 7.2 80 06:24 12.01.2020
721 Rain 27 1010 83 10000 7.2 90 05:23 12.01.2020
722 Rain 28 1009 78 10000 8.7 80 03:47 12.01.2020
723 Rain 28 1009 74 10000 9.3 70 03:22 12.01.2020
724 Rain 28 1010 78 10000 9.8 80 02:30 12.01.2020
725 Rain 28 1010 74 10000 9.3 80 01:42 12.01.2020
726 Rain 28 1010 69 10000 9.3 70 01:22 12.01.2020
727 Rain 28 1010 69 10000 9.3 70 01:22 12.01.2020
728 Rain 28 1010 69 10000 10.3 70 00:40 12.01.2020
729 Rain 28 1010 69 10000 10.3 70 00:19 12.01.2020
730 Rain 28 1010 69 10000 9.3 80 23:42 11.01.2020
731 Rain 28 1011 74 10000 8.2 80 23:19 11.01.2020
732 Rain 27 1011 78 10000 8.2 80 22:57 11.01.2020
733 Rain 27 1011 78 10000 8.7 80 22:39 11.01.2020
734 Rain 27 1011 78 10000 8.7 80 22:20 11.01.2020
735 Rain 27 1011 83 10000 7.7 80 21:54 11.01.2020
736 Rain 27 1011 83 10000 7.7 80 21:54 11.01.2020
737 Rain 26 1011 94 10000 7.2 80 21:36 11.01.2020
738 Rain 26 1011 94 10000 7.2 80 21:18 11.01.2020
739 Rain 27 1011 78 10000 7.7 80 20:40 11.01.2020
740 Rain 27 1011 78 10000 7.7 80 20:20 11.01.2020
741 Rain 27 1011 78 10000 7.2 90 19:58 11.01.2020
742 Rain 26 1011 78 10000 5.7 80 19:38 11.01.2020
743 Rain 26 1011 78 10000 5.7 80 19:20 11.01.2020
744 Rain 26 1011 78 10000 4.1 90 18:57 11.01.2020
745 Rain 25 1011 83 10000 3.1 100 18:37 11.01.2020
746 Rain 25 1011 83 10000 3.1 100 18:19 11.01.2020
747 Rain 26 1010 78 10000 5.1 90 17:57 11.01.2020
748 Rain 26 1009 78 10000 5.1 90 17:39 11.01.2020
749 Rain 26 1009 78 10000 5.1 90 17:18 11.01.2020
750 Rain 26 1009 83 10000 4.6 90 16:44 11.01.2020
751 Rain 26 1009 78 10000 4.1 90 16:25 11.01.2020
752 Rain 25 1009 83 10000 3.6 90 15:56 11.01.2020
753 Rain 26 1009 78 10000 3.1 90 15:38 11.01.2020
754 Rain 26 1009 78 10000 3.1 90 15:20 11.01.2020
755 Rain 26 1009 78 10000 3.1 100 14:46 11.01.2020
756 Rain 26 1009 78 10000 3.1 100 14:46 11.01.2020
757 Rain 26 1010 78 10000 3.6 100 14:25 11.01.2020
758 Rain 26 1010 78 10000 2.6 100 13:57 11.01.2020
759 Rain 26 1010 78 10000 3.1 100 13:38 11.01.2020
760 Rain 26 1010 78 10000 3.1 100 13:20 11.01.2020
761 Rain 26 1010 78 10000 2.6 110 12:55 11.01.2020
762 Rain 26 1011 78 10000 2.6 100 12:36 11.01.2020
763 Rain 26 1011 78 10000 2.6 100 12:18 11.01.2020
764 Rain 26 1011 78 10000 2.6 100 11:42 11.01.2020
765 Rain 26 1011 78 10000 4.1 90 11:23 11.01.2020
766 Clouds 26 1012 78 10000 3.6 90 10:44 11.01.2020
767 Clouds 26 1012 78 10000 5.1 90 10:24 11.01.2020
768 Clouds 26 1012 78 10000 5.1 90 10:24 11.01.2020
769 Clouds 26 1012 78 10000 4.6 100 09:43 11.01.2020
770 Clouds 26 1012 78 10000 4.1 100 09:21 11.01.2020
771 Clouds 26 1012 78 10000 4.6 90 08:43 11.01.2020
772 Clouds 26 1011 78 10000 5.7 90 08:23 11.01.2020
773 Rain 26 1011 78 10000 4.6 90 07:45 11.01.2020
774 Rain 26 1011 78 10000 4.6 100 07:27 11.01.2020
775 Rain 26 1011 78 10000 5.1 100 06:56 11.01.2020
776 Rain 27 1011 74 10000 5.1 90 06:37 11.01.2020
777 Rain 27 1010 74 10000 5.1 90 05:18 11.01.2020
778 Rain 27 1010 74 10000 6.7 90 04:37 11.01.2020
779 Rain 27 1010 74 10000 6.7 90 04:19 11.01.2020
780 Rain 28 1010 74 10000 6.2 90 02:45 11.01.2020
781 Clouds 28 1010 74 10000 9.3 80 01:45 11.01.2020
782 Clouds 28 1010 69 10000 8.7 80 01:21 11.01.2020
783 Clouds 28 1011 74 10000 8.2 90 00:47 11.01.2020
784 Clouds 28 1011 74 10000 8.7 80 00:20 11.01.2020
785 Clouds 28 1011 78 10000 7.7 90 23:41 10.01.2020
786 Rain 26 1011 88 10000 5.7 80 23:23 10.01.2020
787 Clouds 28 1011 74 10000 9.8 80 22:59 10.01.2020
788 Clouds 28 1012 74 10000 8.7 80 22:41 10.01.2020
789 Clouds 28 1012 74 10000 8.7 80 22:21 10.01.2020
790 Clouds 28 1012 74 10000 8.2 90 21:58 10.01.2020
791 Clouds 27 1012 78 10000 8.2 80 21:39 10.01.2020
792 Clouds 27 1012 78 10000 8.2 80 21:19 10.01.2020
793 Clouds 27 1013 78 10000 7.2 80 20:55 10.01.2020
794 Clouds 27 1013 78 10000 6.2 80 20:37 10.01.2020
795 Rain 27 1013 78 10000 6.2 80 20:18 10.01.2020
796 Rain 26 1012 83 10000 6.2 90 19:39 10.01.2020
797 Rain 26 1012 83 10000 6.2 90 19:20 10.01.2020
798 Rain 26 1012 83 10000 6.2 90 18:44 10.01.2020
799 Rain 26 1012 83 10000 4.6 90 18:20 10.01.2020
800 Rain 26 1012 83 10000 4.6 90 18:20 10.01.2020
801 Rain 26 1012 78 10000 5.1 90 17:58 10.01.2020
802 Rain 26 1011 83 10000 5.1 90 17:40 10.01.2020
803 Rain 26 1011 83 10000 5.1 90 17:21 10.01.2020
804 Rain 26 1011 78 10000 6.7 90 16:59 10.01.2020
805 Rain 26 1011 78 10000 6.7 90 16:41 10.01.2020
806 Rain 26 1011 78 10000 6.7 90 16:21 10.01.2020
807 Rain 26 1011 78 10000 6.7 90 16:21 10.01.2020
808 Rain 25 1011 88 10000 6.7 90 15:56 10.01.2020
809 Rain 25 1011 83 10000 5.1 90 15:37 10.01.2020
810 Rain 25 1011 83 10000 5.1 90 15:19 10.01.2020
811 Rain 26 1011 78 10000 5.7 90 14:56 10.01.2020
812 Rain 26 1012 78 10000 5.7 90 14:38 10.01.2020
813 Clouds 26 1012 78 10000 5.7 90 14:19 10.01.2020
814 Clouds 26 1012 78 10000 5.7 90 13:44 10.01.2020
815 Clouds 25 1012 83 10000 4.6 90 13:26 10.01.2020
816 Clouds 26 1012 78 10000 5.7 90 12:59 10.01.2020
817 Rain 25 1013 78 10000 4.6 100 12:39 10.01.2020
818 Rain 25 1013 78 10000 4.6 100 12:21 10.01.2020
819 Clouds 26 1013 78 10000 5.7 100 11:56 10.01.2020
820 Clouds 26 1014 78 10000 4.1 100 11:38 10.01.2020
821 Rain 26 1014 78 10000 4.1 100 11:19 10.01.2020
822 Rain 26 1014 78 10000 4.1 100 10:58 10.01.2020
823 Drizzle 26 1014 78 10000 5.7 90 10:36 10.01.2020
824 Drizzle 26 1014 78 10000 5.7 90 10:18 10.01.2020
825 Rain 26 1014 78 10000 4.6 110 09:43 10.01.2020
826 Rain 26 1014 78 10000 4.6 110 09:24 10.01.2020
827 Rain 26 1014 78 10000 4.6 110 08:43 10.01.2020
828 Rain 26 1014 78 10000 5.1 100 08:24 10.01.2020
829 Clouds 26 1014 78 10000 3.6 100 07:47 10.01.2020
830 Clouds 26 1013 78 10000 4.1 100 07:28 10.01.2020
831 Clouds 26 1013 78 10000 4.1 110 06:55 10.01.2020
832 Rain 26 1013 83 10000 3.6 120 06:27 10.01.2020
833 Clouds 27 1013 74 10000 6.7 100 05:52 10.01.2020
834 Clouds 28 1012 74 10000 5.7 110 03:47 10.01.2020
835 Clouds 28 1012 74 10000 5.7 110 03:28 10.01.2020
836 Clouds 28 1013 69 10000 5.7 110 02:51 10.01.2020
837 Clouds 29 1013 70 10000 5.7 90 01:49 10.01.2020
838 Clouds 28 1013 74 10000 6.2 100 01:28 10.01.2020
839 Clouds 28 1013 74 10000 7.2 80 00:44 10.01.2020
840 Clouds 28 1014 74 10000 7.7 80 00:19 10.01.2020
841 Clouds 28 1014 69 10000 8.2 80 23:39 09.01.2020
842 Clouds 28 1014 69 10000 8.2 80 23:39 09.01.2020
843 Clouds 28 1014 69 10000 8.2 80 23:20 09.01.2020
844 Clouds 28 1014 74 10000 6.7 90 22:57 09.01.2020
845 Clouds 28 1015 74 10000 7.7 90 22:39 09.01.2020
846 Clouds 28 1015 74 10000 7.7 90 22:19 09.01.2020
847 Clouds 28 1015 74 10000 6.7 90 21:57 09.01.2020
848 Clouds 28 1015 74 10000 5.7 100 21:38 09.01.2020
849 Clouds 28 1015 74 10000 5.7 100 21:19 09.01.2020
850 Clouds 27 1015 78 10000 6.2 90 20:57 09.01.2020
851 Clouds 27 1015 78 10000 6.2 90 20:39 09.01.2020
852 Rain 27 1015 78 10000 6.2 100 20:19 09.01.2020
853 Rain 27 1015 78 10000 5.7 100 19:57 09.01.2020
854 Rain 27 1015 78 10000 5.7 100 19:37 09.01.2020
855 Rain 27 1015 78 10000 5.1 90 19:19 09.01.2020
856 Rain 26 1015 83 10000 4.6 90 18:55 09.01.2020
857 Rain 26 1015 83 10000 4.6 90 18:36 09.01.2020
858 Rain 26 1015 83 10000 4.6 90 18:18 09.01.2020
859 Rain 26 1014 83 10000 5.1 90 17:41 09.01.2020
860 Rain 26 1014 83 10000 5.1 90 17:41 09.01.2020
861 Clouds 26 1014 83 10000 5.7 90 17:18 09.01.2020
862 Clouds 26 1014 83 10000 5.1 80 16:49 09.01.2020
863 Clouds 26 1014 83 10000 4.6 80 16:24 09.01.2020
864 Clouds 26 1013 83 10000 4.6 90 15:59 09.01.2020
865 Clouds 26 1013 83 10000 4.6 90 15:40 09.01.2020
866 Clouds 26 1014 83 10000 6.2 80 15:19 09.01.2020
867 Clouds 26 1014 83 10000 5.1 90 14:42 09.01.2020
868 Clouds 26 1014 83 10000 5.1 90 14:22 09.01.2020
869 Clouds 26 1014 83 10000 5.7 90 13:57 09.01.2020
870 Clouds 26 1014 83 10000 5.7 90 13:39 09.01.2020
871 Clouds 26 1014 83 10000 6.2 90 13:20 09.01.2020
872 Clouds 26 1015 83 10000 7.2 90 12:58 09.01.2020
873 Clouds 26 1015 83 10000 7.2 90 12:58 09.01.2020
874 Clouds 26 1015 83 10000 7.2 90 12:38 09.01.2020
875 Clouds 26 1015 83 10000 7.7 90 12:19 09.01.2020
876 Clouds 26 1015 83 10000 6.2 90 11:55 09.01.2020
877 Clouds 26 1015 83 10000 6.2 90 11:37 09.01.2020
878 Clouds 26 1015 83 10000 5.1 90 11:19 09.01.2020
879 Clouds 26 1015 83 10000 4.6 100 10:42 09.01.2020
880 Clouds 27 1016 78 10000 5.1 100 10:22 09.01.2020
881 Clouds 26 1016 83 10000 4.1 100 09:49 09.01.2020
882 Clouds 27 1016 78 10000 5.1 90 09:26 09.01.2020
883 Clouds 27 1016 78 10000 4.1 90 09:00 09.01.2020
884 Clouds 27 1016 78 10000 4.1 90 08:40 09.01.2020
885 Clouds 27 1015 78 10000 4.1 90 08:22 09.01.2020
886 Clouds 27 1015 78 10000 4.6 100 07:55 09.01.2020
887 Clouds 27 1015 78 10000 4.6 100 07:35 09.01.2020
888 Clouds 27 1015 78 10000 3.6 100 06:54 09.01.2020
889 Clouds 27 1014 78 10000 4.6 90 06:32 09.01.2020
890 Clouds 27 1014 78 10000 4.6 90 05:52 09.01.2020
891 Clouds 28 1014 74 10000 6.2 90 05:28 09.01.2020
892 Clouds 28 1014 78 10000 6.2 90 04:41 09.01.2020
893 Clouds 29 1013 74 10000 6.2 90 03:28 09.01.2020
894 Clouds 29 1014 74 10000 6.7 80 02:47 09.01.2020
895 Clouds 29 1014 74 10000 7.7 90 01:42 09.01.2020
896 Clouds 29 1014 74 10000 7.7 80 01:18 09.01.2020
897 Clouds 29 1014 74 10000 7.7 80 01:18 09.01.2020
898 Clouds 28 1014 78 10000 7.2 80 00:38 09.01.2020
899 Clouds 28 1015 74 10000 7.2 80 00:19 09.01.2020
900 Clouds 28 1015 74 10000 7.2 80 00:19 09.01.2020
901 Clouds 29 1014 74 10000 7.7 80 23:40 08.01.2020
902 Clouds 28 1015 74 10000 6.7 90 23:22 08.01.2020
903 Clouds 29 1015 70 10000 6.7 80 22:56 08.01.2020
904 Clouds 29 1015 70 10000 6.7 80 22:56 08.01.2020
905 Clouds 29 1015 70 10000 6.7 80 22:37 08.01.2020
906 Clouds 29 1015 70 10000 8.2 80 22:18 08.01.2020
907 Clouds 28 1015 74 10000 6.7 80 21:55 08.01.2020
908 Clouds 28 1015 74 10000 6.7 80 21:37 08.01.2020
909 Clouds 28 1015 74 10000 6.7 80 21:37 08.01.2020
910 Clouds 29 1015 74 10000 7.2 80 21:18 08.01.2020
911 Clouds 28 1015 74 10000 7.7 80 20:41 08.01.2020
912 Clouds 27 1015 78 10000 6.2 90 20:21 08.01.2020
913 Clouds 27 1015 78 10000 6.7 80 19:58 08.01.2020
914 Clouds 27 1015 78 10000 6.7 80 19:38 08.01.2020
915 Clouds 27 1015 83 10000 5.7 90 19:19 08.01.2020
916 Clouds 26 1015 88 10000 4.6 90 18:58 08.01.2020
917 Clouds 26 1015 88 10000 4.6 90 18:39 08.01.2020
918 Clouds 26 1015 88 10000 4.6 90 18:39 08.01.2020
919 Clouds 26 1015 88 10000 4.1 90 18:19 08.01.2020
920 Clouds 26 1014 88 10000 3.6 90 17:56 08.01.2020
921 Clouds 26 1014 88 10000 3.6 90 17:38 08.01.2020
922 Rain 26 1014 88 10000 4.1 90 17:19 08.01.2020
923 Rain 26 1014 88 10000 4.1 90 16:55 08.01.2020
924 Rain 26 1014 88 10000 4.1 90 16:37 08.01.2020
925 Rain 26 1014 88 10000 4.6 90 16:18 08.01.2020
926 Rain 26 1014 88 10000 4.6 90 15:44 08.01.2020
927 Rain 26 1014 88 10000 4.6 80 15:21 08.01.2020
928 Rain 26 1014 88 10000 3.1 80 14:58 08.01.2020
929 Rain 26 1014 88 10000 3.1 80 14:58 08.01.2020
930 Rain 26 1014 88 10000 3.1 80 14:39 08.01.2020
931 Clouds 26 1014 83 10000 3.1 90 14:20 08.01.2020
932 Clouds 26 1014 83 10000 3.1 90 14:20 08.01.2020
933 Clouds 25 1014 88 10000 2.1 90 13:41 08.01.2020
934 Clouds 26 1015 83 10000 2.1 90 13:20 08.01.2020
935 Clouds 26 1015 83 10000 1.5 100 12:43 08.01.2020
936 Clouds 25 1015 88 10000 2.1 90 12:20 08.01.2020
937 Clouds 24 1015 94 10000 1 100 11:59 08.01.2020
938 Clouds 24 1015 94 10000 1 100 11:41 08.01.2020
939 Clouds 24 1016 94 10000 0.5 100 11:19 08.01.2020
940 Clouds 24 1016 94 10000 1 140 10:56 08.01.2020
941 Clouds 24 1016 94 10000 1 140 10:37 08.01.2020
942 Clouds 24 1016 94 10000 0.5 160 10:19 08.01.2020
943 Clouds 25 1016 88 10000 0.5 170 09:42 08.01.2020
944 Clouds 25 1016 88 10000 1 190 09:19 08.01.2020
945 Clouds 25 1015 88 10000 1 210 08:57 08.01.2020
946 Clouds 25 1015 88 10000 1 210 08:37 08.01.2020
947 Clouds 25 1015 88 10000 0.5 230 08:19 08.01.2020
948 Clouds 26 1015 83 10000 1 100 07:49 08.01.2020
949 Clouds 26 1015 83 10000 1.5 110 07:30 08.01.2020
950 Clouds 27 1015 78 10000 1 100 06:45 08.01.2020
951 Clouds 27 1014 83 10000 3.6 80 06:22 08.01.2020
952 Clouds 27 1014 83 10000 4.6 70 05:41 08.01.2020
953 Clouds 28 1013 78 10000 4.1 60 04:56 08.01.2020
954 Clouds 28 1013 74 10000 4.6 70 04:24 08.01.2020
955 Clouds 29 1014 74 10000 4.1 70 02:45 08.01.2020
956 Clouds 29 1014 79 10000 3.6 50 02:22 08.01.2020
957 Clouds 28 1014 78 10000 3.6 40 01:46 08.01.2020
958 Clouds 28 1014 78 10000 3.6 50 01:19 08.01.2020
959 Clouds 28 1014 78 10000 4.1 50 00:27 08.01.2020
960 Clouds 28 1014 78 10000 3.6 40 23:55 07.01.2020
961 Clouds 28 1014 78 10000 3.6 40 23:37 07.01.2020
962 Clouds 28 1015 78 10000 4.1 50 23:19 07.01.2020
963 Clouds 28 1015 78 10000 4.1 50 22:40 07.01.2020
964 Rain 28 1015 78 10000 4.1 50 22:20 07.01.2020
965 Clouds 28 1014 78 10000 4.6 60 21:55 07.01.2020
966 Clouds 28 1014 78 10000 4.6 60 21:37 07.01.2020
967 Clouds 28 1014 78 10000 4.6 60 21:19 07.01.2020
968 Clouds 28 1014 78 10000 4.6 60 20:42 07.01.2020
969 Clouds 27 1014 83 10000 4.6 60 20:24 07.01.2020
970 Clouds 27 1014 83 10000 4.1 60 19:59 07.01.2020
971 Clouds 27 1014 83 10000 4.1 60 19:38 07.01.2020
972 Clouds 27 1014 83 10000 3.6 60 19:19 07.01.2020
973 Clouds 26 1014 88 10000 2.1 90 18:57 07.01.2020
974 Clouds 26 1014 88 10000 2.1 90 18:38 07.01.2020
975 Clouds 25 1014 94 10000 2.1 90 18:18 07.01.2020
976 Clouds 24 1013 94 10000 2.1 90 17:57 07.01.2020
977 Clouds 24 1013 94 10000 2.1 90 17:37 07.01.2020
978 Clouds 25 1013 88 10000 2.6 90 17:19 07.01.2020
979 Clouds 24 1013 94 10000 2.1 70 16:55 07.01.2020
980 Clouds 24 1013 94 10000 2.1 70 16:37 07.01.2020
981 Clouds 23 1013 100 10000 2.1 80 16:18 07.01.2020
982 Clouds 23 1013 100 10000 2.1 80 15:43 07.01.2020
983 Clouds 24 1013 94 10000 2.1 70 15:24 07.01.2020
984 Clouds 24 1013 94 10000 2.1 70 15:24 07.01.2020
985 Clouds 24 1013 94 10000 2.6 80 14:58 07.01.2020
986 Clouds 24 1013 94 10000 2.6 80 14:40 07.01.2020
987 Clouds 24 1013 94 10000 2.6 80 14:21 07.01.2020
988 Clouds 24 1013 94 10000 2.6 80 13:46 07.01.2020
989 Clouds 25 1013 88 10000 2.6 90 13:21 07.01.2020
990 Clouds 24 1013 94 10000 2.6 90 12:56 07.01.2020
991 Clouds 24 1013 94 10000 2.6 90 12:37 07.01.2020
992 Clouds 24 1013 94 10000 1.5 90 12:19 07.01.2020
993 Clouds 24 1014 94 10000 1.5 110 11:41 07.01.2020
994 Clouds 24 1014 94 10000 1.5 90 11:23 07.01.2020
995 Clouds 24 1014 94 10000 1 80 10:57 07.01.2020
996 Clouds 24 1014 94 10000 1 80 10:57 07.01.2020
997 Clouds 24 1014 94 10000 1 80 10:39 07.01.2020
998 Clouds 24 1014 94 10000 1 80 10:20 07.01.2020
999 Clouds 25 1014 94 10000 1 80 09:39 07.01.2020
1000 Clouds 25 1014 94 10000 1 110 09:21 07.01.2020
1001 Clouds 25 1014 94 10000 1 110 08:57 07.01.2020
1002 Clouds 25 1014 94 10000 1 110 08:37 07.01.2020
1003 Clouds 25 1014 94 10000 1 110 08:37 07.01.2020
1004 Clouds 26 1013 88 10000 1.5 110 08:18 07.01.2020
1005 Clouds 26 1013 88 10000 1 80 07:42 07.01.2020
1006 Clouds 27 1013 83 10000 1 40 06:54 07.01.2020
1007 Clouds 27 1013 83 10000 1 40 06:35 07.01.2020
1008 Clouds 27 1012 83 10000 1.5 10 05:58 07.01.2020
1009 Clouds 27 1012 83 10000 1.5 10 05:39 07.01.2020
1010 Clouds 28 1012 78 10000 2.1 350 03:44 07.01.2020
1011 Clouds 28 1012 78 10000 2.6 350 02:38 07.01.2020
1012 Clouds 28 1012 83 10000 3.1 350 01:59 07.01.2020
1013 Clouds 28 1012 83 10000 3.1 350 01:34 07.01.2020
1014 Clouds 28 1013 78 10000 2.1 60 00:40 07.01.2020
1015 Clouds 27 1013 83 10000 1.5 40 00:20 07.01.2020
1016 Clouds 27 1013 88 10000 2.1 40 23:55 06.01.2020
1017 Clouds 27 1013 88 10000 2.1 40 23:36 06.01.2020
1018 Clouds 27 1013 88 10000 2.1 40 23:36 06.01.2020
1019 Rain 26 1014 88 10000 2.1 100 23:18 06.01.2020
1020 Rain 25 1014 88 10000 1.5 80 22:42 06.01.2020
1021 Rain 25 1014 88 10000 2.6 100 22:22 06.01.2020
1022 Rain 24 1014 94 10000 3.1 40 21:57 06.01.2020
1023 Rain 24 1014 94 10000 3.1 40 21:38 06.01.2020
1024 Rain 25 1014 88 10000 2.1 30 21:20 06.01.2020
1025 Rain 25 1014 88 10000 2.1 30 21:20 06.01.2020
1026 Rain 25 1014 88 8000 4.6 340 20:56 06.01.2020
1027 Rain 25 1014 88 8000 4.6 340 20:37 06.01.2020
1028 Clouds 26 1014 88 10000 2.1 360 20:19 06.01.2020
1029 Clouds 27 1014 88 10000 1 40 19:55 06.01.2020
1030 Clouds 27 1014 88 10000 1 40 19:37 06.01.2020
1031 Clouds 27 1013 88 10000 0.5 340 19:19 06.01.2020
1032 Clouds 26 1013 94 10000 0.5 70 18:45 06.01.2020
1033 Clouds 25 1013 100 10000 0.5 70 18:21 06.01.2020
1034 Clouds 25 1013 94 10000 1 140 17:56 06.01.2020
1035 Clouds 25 1012 100 9000 0.5 120 17:37 06.01.2020
1036 Clouds 25 1012 100 9000 0.5 120 17:18 06.01.2020
1037 Fog 25 1012 94 3300 0.5 80 16:42 06.01.2020
1038 Fog 25 1012 94 3300 0.5 80 16:42 06.01.2020
1039 Clouds 25 1012 100 7000 0.5 140 16:23 06.01.2020
1040 Clouds 25 1012 100 8000 0.5 50 15:59 06.01.2020
1041 Clouds 25 1012 100 8000 0.5 50 15:38 06.01.2020
1042 Clouds 25 1012 100 10000 1 60 15:18 06.01.2020
1043 Clouds 25 1012 100 10000 0.5 90 14:42 06.01.2020
1044 Clouds 25 1012 100 10000 0.5 150 14:23 06.01.2020
1045 Clouds 25 1012 100 10000 0.5 150 14:23 06.01.2020
1046 Clouds 25 1012 100 10000 1 190 13:59 06.01.2020
1047 Clouds 25 1012 100 10000 1 190 13:39 06.01.2020
1048 Clouds 25 1012 100 10000 1 200 13:21 06.01.2020
1049 Clouds 25 1012 100 10000 1 200 13:21 06.01.2020
1050 Clouds 26 1013 94 10000 0.5 180 12:58 06.01.2020
1051 Clouds 26 1013 94 10000 0.5 180 12:39 06.01.2020
1052 Clouds 26 1013 94 10000 0.5 220 12:19 06.01.2020
1053 Clouds 26 1013 94 10000 0.5 220 12:19 06.01.2020
1054 Clouds 26 1013 94 9000 0.5 240 11:43 06.01.2020
1055 Clouds 26 1013 94 9000 0.5 240 11:43 06.01.2020
1056 Clouds 26 1013 94 8000 0.5 270 11:24 06.01.2020
1057 Haze 26 1014 94 5000 1 340 10:59 06.01.2020
1058 Haze 26 1014 94 5000 1 340 10:41 06.01.2020
1059 Clouds 26 1014 94 10000 0.5 130 10:20 06.01.2020
1060 Clouds 26 1014 94 10000 0.5 210 09:40 06.01.2020
1061 Clouds 26 1013 94 9000 0.5 80 09:21 06.01.2020
1062 Clouds 26 1013 94 9000 1 40 08:52 06.01.2020
1063 Clouds 26 1013 94 8000 1 50 08:34 06.01.2020
1064 Clouds 26 1013 94 10000 1 100 07:57 06.01.2020
1065 Clouds 26 1013 94 10000 1 100 07:38 06.01.2020
1066 Rain 26 1013 94 7000 1.5 50 06:49 06.01.2020
1067 Rain 27 1012 88 6000 2.1 350 06:30 06.01.2020
1068 Clouds 27 1012 88 10000 2.6 360 05:48 06.01.2020
1069 Clouds 27 1012 88 10000 2.6 40 04:55 06.01.2020
1070 Clouds 27 1011 88 10000 3.1 40 04:21 06.01.2020
1071 Rain 28 1012 83 10000 3.1 50 03:25 06.01.2020
1072 Clouds 27 1012 88 10000 2.1 40 02:25 06.01.2020
1073 Clouds 28 1013 83 10000 2.1 360 01:46 06.01.2020
1074 Clouds 27 1013 88 10000 2.6 20 01:28 06.01.2020
1075 Clouds 27 1013 88 10000 2.6 20 00:44 06.01.2020
1076 Clouds 27 1014 83 10000 2.6 10 00:24 06.01.2020
1077 Clouds 27 1014 83 10000 3.1 20 23:43 05.01.2020
1078 Clouds 27 1014 83 10000 3.1 20 23:43 05.01.2020
1079 Clouds 27 1014 94 10000 3.6 50 23:23 05.01.2020
1080 Clouds 27 1014 94 10000 3.6 50 23:23 05.01.2020
1081 Rain 28 1014 88 10000 3.6 50 22:58 05.01.2020
1082 Rain 28 1014 88 10000 3.6 50 22:39 05.01.2020
1083 Rain 28 1015 88 10000 3.1 60 22:20 05.01.2020
1084 Rain 27 1014 88 10000 3.6 60 21:55 05.01.2020
1085 Rain 27 1014 88 10000 3.6 60 21:37 05.01.2020
1086 Rain 27 1014 88 10000 3.6 60 21:19 05.01.2020
1087 Rain 27 1015 88 10000 3.6 60 20:55 05.01.2020
1088 Rain 27 1015 88 10000 3.6 60 20:37 05.01.2020
1089 Rain 27 1014 88 10000 4.1 60 20:19 05.01.2020
1090 Rain 26 1015 94 10000 4.6 70 19:56 05.01.2020
1091 Rain 26 1015 94 10000 4.6 70 19:37 05.01.2020
1092 Rain 26 1015 88 10000 2.1 80 19:18 05.01.2020
1093 Rain 26 1014 88 10000 2.6 70 18:54 05.01.2020
1094 Rain 26 1014 88 10000 2.6 70 18:36 05.01.2020
1095 Rain 24 1014 100 10000 2.6 80 18:18 05.01.2020
1096 Rain 24 1014 94 10000 1 100 17:55 05.01.2020
1097 Rain 24 1014 94 10000 1 100 17:55 05.01.2020
1098 Rain 24 1014 94 10000 1 100 17:37 05.01.2020
1099 Clouds 24 1013 94 10000 1 90 17:18 05.01.2020
1100 Clouds 24 1013 94 10000 0.5 90 16:42 05.01.2020
1101 Clouds 24 1013 94 10000 1 90 16:23 05.01.2020
1102 Clouds 24 1013 94 10000 1 90 16:23 05.01.2020
1103 Clouds 24 1013 94 10000 1 90 16:23 05.01.2020
1104 Clouds 24 1013 94 10000 1 90 16:23 05.01.2020
1105 Clouds 24 1013 94 10000 1 90 16:23 05.01.2020
1106 Clouds 24 1013 94 10000 1.5 80 15:41 05.01.2020
1107 Clouds 24 1013 94 10000 1.5 90 15:23 05.01.2020
1108 Clouds 24 1013 94 10000 1 90 14:58 05.01.2020
1109 Clouds 24 1013 94 10000 1 90 14:40 05.01.2020
1110 Clouds 24 1013 94 10000 1.5 60 14:22 05.01.2020
1111 Clouds 25 1013 94 10000 1 100 13:59 05.01.2020
1112 Clouds 25 1013 94 10000 1 100 13:39 05.01.2020
1113 Clouds 25 1014 94 10000 0.5 70 13:20 05.01.2020
1114 Clouds 25 1014 94 10000 0.5 200 12:57 05.01.2020
1115 Clouds 25 1014 94 10000 0.5 200 12:38 05.01.2020
1116 Clouds 25 1014 94 10000 1.5 80 12:20 05.01.2020
1117 Clouds 25 1014 94 10000 1.5 80 12:20 05.01.2020
1118 Clouds 24 1015 94 10000 1 80 11:55 05.01.2020
1119 Clouds 24 1015 94 10000 1 80 11:36 05.01.2020
1120 Rain 25 1015 88 10000 0.5 100 11:18 05.01.2020
1121 Rain 25 1015 94 10000 0.5 80 10:41 05.01.2020
1122 Rain 25 1015 94 10000 0.5 210 10:20 05.01.2020
1123 Rain 25 1016 94 10000 0.5 170 09:55 05.01.2020
1124 Rain 25 1016 94 10000 0.5 170 09:36 05.01.2020
1125 Rain 25 1016 94 10000 1 160 09:18 05.01.2020
1126 Rain 26 1016 88 10000 0.5 110 08:44 05.01.2020
1127 Clouds 26 1015 88 10000 0.5 80 08:21 05.01.2020
1128 Rain 26 1015 88 8000 0.5 190 07:44 05.01.2020
1129 Rain 26 1015 88 8000 0.5 190 07:44 05.01.2020
1130 Rain 27 1015 83 10000 0.5 170 07:26 05.01.2020
1131 Rain 27 1014 83 10000 0.5 200 06:54 05.01.2020
1132 Rain 27 1014 88 10000 1 260 05:41 05.01.2020
1133 Rain 28 1014 83 10000 2.6 260 04:56 05.01.2020
1134 Rain 28 1013 83 10000 1.5 270 04:19 05.01.2020
1135 Rain 28 1013 83 10000 1.5 270 04:19 05.01.2020
1136 Rain 28 1014 83 10000 1.5 10 03:31 05.01.2020
1137 Rain 28 1014 83 10000 1.5 320 02:33 05.01.2020
1138 Rain 28 1014 83 10000 1.5 330 01:49 05.01.2020
1139 Rain 27 1014 88 10000 2.6 40 01:20 05.01.2020
1140 Rain 28 1015 83 10000 2.6 50 00:57 05.01.2020
1141 Rain 28 1015 83 10000 2.6 50 00:39 05.01.2020
1142 Rain 28 1015 88 10000 2.1 60 00:19 05.01.2020
1143 Rain 27 1015 94 10000 2.6 60 23:41 04.01.2020
1144 Clear 27 1015 88 10000 2.6 40 23:20 04.01.2020
1145 Clear 27 1015 83 10000 3.1 40 22:56 04.01.2020
1146 Clear 27 1015 83 10000 3.1 40 22:38 04.01.2020
1147 Clear 28 1015 83 10000 2.6 40 22:20 04.01.2020
1148 Clear 28 1015 83 10000 2.6 50 21:55 04.01.2020
1149 Clear 28 1015 83 10000 2.6 50 21:37 04.01.2020
1150 Clear 27 1015 83 10000 3.1 50 21:18 04.01.2020
1151 Rain 26 1015 88 10000 2.6 40 20:41 04.01.2020
1152 Clear 27 1015 83 10000 3.6 50 20:22 04.01.2020
1153 Clouds 26 1015 88 10000 3.1 50 19:57 04.01.2020
1154 Clouds 26 1015 88 10000 3.1 50 19:39 04.01.2020
1155 Clouds 26 1015 88 10000 2.6 90 19:21 04.01.2020
1156 Clouds 25 1015 88 10000 2.1 100 18:57 04.01.2020
1157 Clouds 25 1015 88 10000 2.1 100 18:38 04.01.2020
1158 Clouds 25 1014 88 7000 2.1 90 18:19 04.01.2020
1159 Clouds 23 1014 94 10000 2.6 80 17:42 04.01.2020
1160 Clouds 24 1014 94 10000 3.1 90 17:24 04.01.2020
1161 Rain 24 1014 94 10000 2.6 80 16:59 04.01.2020
1162 Rain 24 1014 94 10000 2.6 80 16:40 04.01.2020
1163 Rain 24 1014 94 10000 1.5 90 16:22 04.01.2020
1164 Rain 24 1013 94 10000 1.5 90 15:56 04.01.2020
1165 Rain 24 1013 94 10000 1.5 90 15:38 04.01.2020
1166 Rain 24 1013 94 10000 1.5 90 15:38 04.01.2020
1167 Rain 24 1013 94 10000 2.1 90 15:18 04.01.2020
1168 Rain 25 1013 88 10000 2.1 90 14:43 04.01.2020
1169 Clouds 24 1014 94 10000 2.1 80 14:20 04.01.2020
1170 Clouds 24 1013 94 10000 3.1 80 13:59 04.01.2020
1171 Clouds 24 1013 94 10000 3.1 80 13:39 04.01.2020
1172 Clouds 25 1014 88 10000 2.6 90 13:20 04.01.2020
1173 Clouds 25 1014 94 8000 2.6 80 12:57 04.01.2020
1174 Clouds 25 1014 94 8000 2.6 80 12:39 04.01.2020
1175 Clouds 25 1014 94 10000 3.6 90 12:19 04.01.2020
1176 Clouds 25 1014 88 10000 3.1 90 11:57 04.01.2020
1177 Clouds 25 1014 88 10000 3.1 90 11:57 04.01.2020
1178 Clouds 25 1014 88 10000 3.1 90 11:38 04.01.2020
1179 Clouds 25 1014 88 10000 3.1 90 11:38 04.01.2020
1180 Clouds 25 1015 88 10000 2.1 90 11:18 04.01.2020
1181 Clouds 25 1015 88 10000 2.6 80 10:41 04.01.2020
1182 Clouds 25 1015 88 10000 2.6 90 10:22 04.01.2020
1183 Clouds 25 1015 88 10000 3.6 80 09:48 04.01.2020
1184 Clouds 25 1015 88 10000 3.6 80 09:26 04.01.2020
1185 Clouds 25 1014 88 10000 3.1 80 08:49 04.01.2020
1186 Clear 25 1014 83 10000 3.6 90 08:29 04.01.2020
1187 Clouds 25 1014 83 10000 3.1 90 07:59 04.01.2020
1188 Clouds 25 1014 83 10000 3.1 90 07:40 04.01.2020
1189 Clouds 25 1013 83 10000 5.1 90 06:46 04.01.2020
1190 Clouds 26 1012 78 10000 7.2 80 05:59 04.01.2020
1191 Clear 27 1012 69 10000 6.2 80 04:53 04.01.2020
1192 Clear 27 1012 69 10000 7.2 70 04:32 04.01.2020
1193 Clear 27 1012 69 10000 6.7 80 03:37 04.01.2020
1194 Clear 27 1012 69 10000 7.7 70 03:18 04.01.2020
1195 Clear 28 1011 69 10000 7.7 70 02:20 04.01.2020
1196 Clear 27 1011 69 10000 6.2 80 01:51 04.01.2020
1197 Clear 28 1012 69 10000 7.2 60 01:30 04.01.2020
1198 Clear 27 1012 69 10000 7.2 70 00:30 04.01.2020
1199 Clear 28 1012 69 10000 7.7 70 23:59 03.01.2020
1200 Clear 28 1012 69 10000 7.7 70 23:37 03.01.2020
1201 Clear 27 1012 69 10000 7.2 70 23:19 03.01.2020
1202 Clear 27 1012 69 10000 5.7 60 22:41 03.01.2020
1203 Clear 27 1012 69 10000 5.7 60 22:19 03.01.2020
1204 Clear 27 1012 69 10000 6.2 70 21:57 03.01.2020
1205 Clear 27 1012 69 10000 6.2 70 21:38 03.01.2020
1206 Clear 27 1012 69 10000 3.1 90 21:19 03.01.2020
1207 Clear 27 1013 69 10000 3.1 50 20:55 03.01.2020
1208 Clear 27 1013 69 10000 3.1 50 20:37 03.01.2020
1209 Clouds 26 1013 74 10000 2.1 270 20:18 03.01.2020
1210 Clouds 26 1013 74 10000 1.5 50 19:54 03.01.2020
1211 Clouds 26 1013 74 10000 1.5 50 19:36 03.01.2020
1212 Clouds 24 1013 88 10000 0.5 340 19:18 03.01.2020
1213 Clouds 23 1012 94 10000 0.5 200 18:39 03.01.2020
1214 Clouds 23 1012 94 10000 0.5 200 18:39 03.01.2020
1215 Clouds 21 1012 100 10000 1 180 18:20 03.01.2020
1216 Clouds 20 1012 100 10000 0.5 130 17:42 03.01.2020
1217 Clouds 20 1011 94 10000 0.5 120 17:22 03.01.2020
1218 Clouds 20 1011 94 10000 0.5 100 16:59 03.01.2020
1219 Clouds 20 1011 94 10000 0.5 100 16:40 03.01.2020
1220 Clouds 20 1010 94 10000 0.5 160 16:21 03.01.2020
1221 Clouds 20 1010 94 10000 0.5 100 15:42 03.01.2020
1222 Clouds 20 1010 94 10000 0.5 150 15:19 03.01.2020
1223 Clouds 20 1010 94 10000 0.5 200 14:40 03.01.2020
1224 Clouds 20 1010 94 10000 0.5 200 14:40 03.01.2020
1225 Clouds 20 1010 100 10000 0.5 140 14:20 03.01.2020
1226 Clouds 20 1010 100 10000 1 170 13:59 03.01.2020
1227 Clouds 20 1010 100 10000 1 170 13:40 03.01.2020
1228 Clouds 20 1010 100 10000 1 150 13:21 03.01.2020
1229 Clouds 20 1011 100 10000 1.5 180 12:41 03.01.2020
1230 Clouds 21 1011 94 10000 0.5 170 12:22 03.01.2020
1231 Clouds 21 1011 94 10000 1 160 11:54 03.01.2020
1232 Clouds 21 1011 94 10000 1 160 11:35 03.01.2020
1233 Clouds 21 1011 94 10000 0.5 80 10:58 03.01.2020
1234 Clouds 21 1011 94 10000 0.5 80 10:39 03.01.2020
1235 Clouds 21 1011 94 10000 1 130 10:21 03.01.2020
1236 Clouds 21 1011 94 10000 0.5 140 09:55 03.01.2020
1237 Clouds 21 1011 94 10000 0.5 140 09:37 03.01.2020
1238 Clouds 22 1011 88 10000 0.5 140 09:19 03.01.2020
1239 Clouds 22 1011 88 10000 0.5 130 08:44 03.01.2020
1240 Clouds 23 1011 83 10000 1 170 08:22 03.01.2020
1241 Clouds 24 1010 78 10000 1.5 150 07:43 03.01.2020
1242 Clouds 24 1010 83 10000 1 120 07:19 03.01.2020
1243 Clouds 24 1010 83 10000 1 110 06:59 03.01.2020
1244 Clouds 24 1010 83 10000 1 110 06:40 03.01.2020
1245 Clouds 25 1009 78 10000 1.5 90 06:22 03.01.2020
1246 Clouds 25 1009 78 10000 1.5 90 06:22 03.01.2020
1247 Clouds 25 1009 78 10000 1.5 90 06:22 03.01.2020
1248 Clouds 26 1008 69 10000 3.1 70 04:45 03.01.2020
1249 Clouds 26 1008 74 10000 3.1 20 03:38 03.01.2020
1250 Clouds 26 1008 74 10000 2.6 40 02:53 03.01.2020
1251 Clouds 26 1008 74 10000 3.1 40 01:50 03.01.2020
1252 Clouds 26 1008 74 10000 2.1 30 01:18 03.01.2020
1253 Clouds 26 1009 74 10000 2.6 360 00:34 03.01.2020
1254 Clouds 26 1009 74 10000 3.1 40 23:59 02.01.2020
1255 Clouds 26 1009 74 10000 3.1 40 23:39 02.01.2020
1256 Clouds 27 1009 74 10000 3.6 40 23:20 02.01.2020
1257 Clouds 26 1009 74 10000 3.1 40 22:58 02.01.2020
1258 Clouds 26 1009 74 10000 3.1 40 22:39 02.01.2020
1259 Clouds 26 1009 74 10000 3.1 40 22:19 02.01.2020
1260 Clouds 27 1009 69 10000 1.5 120 21:55 02.01.2020
1261 Clouds 26 1009 74 10000 2.1 200 21:37 02.01.2020
1262 Clouds 26 1009 74 10000 2.1 200 21:18 02.01.2020
1263 Clouds 26 1009 74 10000 1 110 20:55 02.01.2020
1264 Clouds 26 1009 74 10000 1 110 20:36 02.01.2020
1265 Clouds 25 1009 73 10000 1 200 20:18 02.01.2020
1266 Clouds 24 1009 78 10000 1 190 19:54 02.01.2020
1267 Clouds 24 1009 78 10000 1 190 19:36 02.01.2020
1268 Clouds 24 1009 78 10000 1 190 19:36 02.01.2020
1269 Clouds 24 1009 83 10000 0.5 180 19:18 02.01.2020
1270 Clouds 23 1009 94 10000 0.5 190 18:42 02.01.2020
1271 Clouds 22 1008 94 10000 0.5 160 18:23 02.01.2020
1272 Clouds 21 1008 94 10000 1 120 17:58 02.01.2020
1273 Clouds 21 1008 94 10000 1 120 17:38 02.01.2020
1274 Clouds 21 1007 94 10000 0.5 150 17:19 02.01.2020
1275 Clouds 21 1007 94 10000 1 160 16:57 02.01.2020
1276 Clouds 21 1007 94 10000 1 160 16:39 02.01.2020
1277 Clouds 21 1006 94 10000 0.5 110 16:20 02.01.2020
1278 Clouds 22 1006 94 10000 1 200 15:57 02.01.2020
1279 Clouds 22 1006 94 10000 1 200 15:57 02.01.2020
1280 Clouds 22 1006 94 10000 0.5 220 15:37 02.01.2020
1281 Clouds 22 1006 94 10000 0.5 220 15:19 02.01.2020
1282 Haze 22 1006 94 4600 1 130 14:55 02.01.2020
1283 Clouds 23 1006 88 10000 1 190 14:36 02.01.2020
1284 Clouds 23 1006 88 10000 1 190 14:18 02.01.2020
1285 Clouds 23 1006 88 10000 1.5 180 13:47 02.01.2020
1286 Clouds 23 1006 94 10000 1.5 180 13:29 02.01.2020
1287 Clouds 24 1006 88 10000 1.5 190 12:45 02.01.2020
1288 Clouds 24 1007 88 10000 2.1 210 12:25 02.01.2020
1289 Clouds 24 1007 88 10000 2.1 210 12:25 02.01.2020
1290 Clouds 24 1007 88 10000 2.1 210 11:44 02.01.2020
1291 Rain 23 1007 94 10000 2.6 200 11:26 02.01.2020
1292 Clouds 24 1006 88 10000 2.6 210 10:58 02.01.2020
1293 Clouds 24 1006 88 10000 2.6 210 10:38 02.01.2020
1294 Clouds 23 1006 94 10000 3.1 210 10:19 02.01.2020
1295 Rain 23 1006 94 4400 3.1 200 09:41 02.01.2020
1296 Rain 23 1006 94 8000 3.6 200 09:22 02.01.2020
1297 Rain 24 1005 88 9000 3.6 220 08:44 02.01.2020
1298 Clouds 25 1005 83 10000 4.1 230 08:25 02.01.2020
1299 Clouds 25 1004 83 10000 4.6 230 07:49 02.01.2020
1300 Clouds 25 1004 83 10000 4.6 240 07:30 02.01.2020
1301 Clouds 25 1003 88 10000 5.1 240 06:43 02.01.2020
1302 Clouds 26 1002 83 10000 7.7 250 05:58 02.01.2020
1303 Rain 27 1001 78 8000 8.2 260 04:40 02.01.2020
1304 Rain 27 1000 78 7000 9.3 270 04:21 02.01.2020
1305 Rain 27 1000 78 6000 10.8 260 02:25 02.01.2020
1306 Rain 28 1000 74 6000 11.8 270 01:57 02.01.2020
1307 Haze 27 999 74 5000 12.9 270 01:32 02.01.2020
1308 -273 0 0 0 0 0 00:52 02.01.2020
1309 Rain 27 999 74 6000 15.9 270 00:28 02.01.2020
1310 Rain 26 998 78 6000 17 280 23:47 01.01.2020
1311 Rain 27 998 74 6000 16.5 280 23:24 01.01.2020
1312 Haze 26 997 74 5000 18 280 22:39 01.01.2020
1313 Haze 27 997 78 5000 13.4 300 22:21 01.01.2020
1314 Haze 27 997 78 5000 13.4 320 21:59 01.01.2020
1315 Haze 27 997 78 5000 13.4 320 21:40 01.01.2020
1316 Haze 27 997 78 5000 11.3 330 21:20 01.01.2020
1317 Haze 27 997 78 5000 11.3 330 21:20 01.01.2020
1318 Rain 27 997 78 6000 11.8 340 20:58 01.01.2020
1319 Rain 27 997 78 6000 11.8 340 20:38 01.01.2020
1320 Rain 27 997 78 6000 11.8 340 20:38 01.01.2020
1321 Rain 27 998 83 6000 10.3 340 20:20 01.01.2020
1322 Rain 27 998 83 6000 10.3 340 20:20 01.01.2020
1323 Rain 26 997 88 6000 12.3 350 19:57 01.01.2020
1324 Rain 26 997 88 6000 12.3 350 19:38 01.01.2020
1325 Rain 27 997 88 7000 8.2 10 19:20 01.01.2020
1326 Rain 27 998 88 8000 9.3 10 18:57 01.01.2020
1327 Rain 27 998 88 8000 9.3 10 18:37 01.01.2020
1328 Rain 27 998 88 5000 8.2 10 18:19 01.01.2020
1329 Rain 27 998 88 10000 8.2 360 17:57 01.01.2020
1330 Rain 27 998 88 10000 8.2 360 17:39 01.01.2020
1331 Rain 27 998 88 8000 7.7 10 17:19 01.01.2020
1332 Rain 27 998 88 9000 9.3 20 16:56 01.01.2020
1333 Rain 27 998 88 9000 9.3 20 16:37 01.01.2020
1334 Rain 27 997 88 10000 8.7 20 16:19 01.01.2020
1335 Rain 27 997 88 10000 8.7 20 16:19 01.01.2020
1336 Rain 27 998 88 9000 7.2 30 15:54 01.01.2020
1337 Rain 27 998 88 9000 7.2 30 15:36 01.01.2020
1338 Rain 27 998 88 10000 7.2 30 15:18 01.01.2020
1339 Rain 27 999 88 10000 7.7 30 14:41 01.01.2020
1340 Rain 27 999 88 10000 7.2 20 14:22 01.01.2020
1341 Rain 27 1000 88 10000 6.7 20 13:56 01.01.2020
1342 Rain 27 1000 88 10000 6.7 20 13:56 01.01.2020
1343 Rain 27 1000 88 10000 6.7 20 13:37 01.01.2020
1344 Rain 26 1000 94 7000 6.2 20 13:19 01.01.2020
1345 Rain 27 1001 88 10000 6.2 20 12:57 01.01.2020
1346 Rain 27 1001 88 10000 6.2 20 12:39 01.01.2020
1347 Rain 27 1001 88 10000 6.2 20 12:19 01.01.2020
1348 Rain 27 1001 88 10000 6.2 30 11:55 01.01.2020
1349 Rain 27 1001 88 10000 6.2 30 11:36 01.01.2020
1350 Rain 27 1002 88 10000 4.6 40 11:18 01.01.2020
1351 Rain 27 1003 88 10000 5.1 30 10:41 01.01.2020
1352 Rain 27 1003 88 10000 5.7 30 10:21 01.01.2020
1353 Rain 26 1003 94 10000 4.1 30 09:59 01.01.2020
1354 Rain 26 1003 94 10000 4.1 30 09:38 01.01.2020
1355 Rain 26 1003 94 10000 4.1 30 09:38 01.01.2020
1356 Rain 27 1003 88 10000 4.6 30 09:19 01.01.2020
1357 Rain 26 1003 94 10000 4.1 40 08:55 01.01.2020
1358 Rain 26 1003 94 10000 4.1 40 08:55 01.01.2020
1359 Rain 26 1003 94 10000 4.1 40 08:36 01.01.2020
1360 Rain 26 1003 94 10000 4.6 50 08:18 01.01.2020
1361 Rain 26 1003 94 10000 4.6 50 07:54 01.01.2020
1362 Rain 26 1003 94 10000 4.6 50 07:35 01.01.2020
1363 Rain 26 1003 88 10000 4.1 40 06:44 01.01.2020
1364 Rain 26 1003 88 10000 5.1 40 06:20 01.01.2020
1365 Clouds 27 1003 83 10000 5.75 7 05:21 01.01.2020
1366 Clouds 26 1003 83 10000 5.7 40 03:43 01.01.2020
1367 Clouds 26 1004 88 10000 5.1 50 03:23 01.01.2020
1368 Rain 26 1004 94 10000 5.1 50 02:57 01.01.2020
1369 Rain 26 1004 94 10000 5.1 50 02:34 01.01.2020
1370 Rain 26 1005 88 10000 4.1 60 01:55 01.01.2020
1371 Rain 26 1005 88 10000 4.1 60 01:36 01.01.2020
1372 Rain 26 1005 88 10000 5.1 50 01:18 01.01.2020
1373 Rain 26 1005 88 10000 5.1 60 00:44 01.01.2020
1374 Rain 26 1005 83 10000 4.1 50 00:24 01.01.2020
1375 Rain 26 1005 83 10000 4.6 60 23:41 31.12.2019
1376 Clouds 26 1006 83 10000 4.6 60 23:21 31.12.2019
1377 Clouds 26 1006 83 10000 4.1 50 22:57 31.12.2019
1378 Clouds 26 1006 83 10000 4.1 50 22:38 31.12.2019
1379 Clouds 26 1006 83 10000 4.1 60 22:18 31.12.2019
1380 Clouds 26 1006 78 10000 4.1 60 21:55 31.12.2019
1381 Clouds 26 1006 78 10000 4.1 60 21:36 31.12.2019
1382 Rain 26 1006 83 10000 3.6 60 21:18 31.12.2019
1383 Rain 26 1007 83 10000 2.6 40 20:40 31.12.2019
1384 Rain 26 1007 83 10000 2.6 40 20:40 31.12.2019
1385 Rain 25 1007 78 10000 1.5 60 20:21 31.12.2019
1386 Rain 25 1007 78 10000 1.5 80 19:59 31.12.2019
1387 Rain 25 1007 78 10000 1.5 80 19:40 31.12.2019
1388 Rain 24 1007 83 10000 1.5 100 19:22 31.12.2019
1389 Rain 23 1007 88 10000 2.1 100 18:57 31.12.2019
1390 Rain 23 1007 88 10000 2.1 100 18:39 31.12.2019
1391 Rain 22 1007 94 10000 1 210 18:19 31.12.2019
1392 Rain 22 1007 94 10000 0.5 220 17:56 31.12.2019
1393 Rain 22 1007 94 10000 0.5 220 17:37 31.12.2019
1394 Rain 22 1006 100 10000 0.5 120 17:19 31.12.2019
1395 Rain 22 1006 100 10000 1 180 16:56 31.12.2019
1396 Rain 22 1006 100 10000 1 180 16:37 31.12.2019
1397 Rain 22 1006 100 10000 1 170 16:19 31.12.2019
1398 Rain 22 1006 100 10000 1 180 15:56 31.12.2019
1399 Rain 22 1006 100 10000 1 180 15:38 31.12.2019
1400 Rain 22 1006 100 10000 1 180 15:19 31.12.2019
1401 Rain 22 1006 100 10000 1.5 200 14:55 31.12.2019
1402 Rain 22 1006 100 10000 1.5 200 14:37 31.12.2019
1403 Rain 22 1006 94 10000 1.5 90 14:18 31.12.2019
1404 Rain 22 1007 94 10000 0.5 170 13:56 31.12.2019
1405 Rain 22 1007 94 10000 0.5 170 13:38 31.12.2019
1406 Clouds 23 1007 88 10000 1 140 13:19 31.12.2019
1407 Rain 23 1008 88 10000 1 200 12:55 31.12.2019
1408 Rain 23 1008 88 10000 1 200 12:55 31.12.2019
1409 Rain 23 1008 88 10000 1 200 12:37 31.12.2019
1410 Rain 23 1008 88 10000 1 200 12:37 31.12.2019
1411 Clouds 22 1008 94 10000 1.5 200 12:18 31.12.2019
1412 Clouds 23 1009 88 10000 1 200 11:55 31.12.2019
1413 Clouds 23 1009 88 10000 1 200 11:36 31.12.2019
1414 Clouds 23 1009 88 10000 1.5 190 11:18 31.12.2019
1415 Clouds 22 1009 94 10000 1.5 200 10:55 31.12.2019
1416 Clouds 22 1009 94 10000 1.5 200 10:37 31.12.2019
1417 Clouds 23 1009 88 10000 1 180 10:19 31.12.2019
1418 Rain 23 1009 88 10000 0.5 160 09:55 31.12.2019
1419 Rain 23 1009 88 10000 0.5 160 09:37 31.12.2019
1420 Rain 23 1009 88 10000 0.5 160 09:37 31.12.2019
1421 Clouds 23 1009 88 10000 0.5 140 09:18 31.12.2019
1422 Clouds 23 1009 88 10000 0.5 150 08:42 31.12.2019
1423 Haze 23 1009 88 2800 0.5 150 08:22 31.12.2019
1424 Clouds 24 1008 83 10000 1 150 07:45 31.12.2019
1425 Clouds 24 1008 78 10000 0.5 150 07:22 31.12.2019
1426 Clouds 25 1008 78 9000 1 200 06:51 31.12.2019
1427 Clouds 25 1008 78 10000 1.5 190 06:27 31.12.2019
1428 Clouds 25 1007 78 10000 2.1 190 04:54 31.12.2019
1429 Rain 26 1007 74 10000 2.6 240 04:24 31.12.2019
1430 Clouds 26 1007 74 10000 2.6 260 02:57 31.12.2019
1431 Clouds 26 1007 74 10000 2.6 270 02:20 31.12.2019
1432 Clouds 26 1007 74 10000 2.6 270 01:48 31.12.2019
1433 Clouds 26 1008 74 10000 3.1 270 01:29 31.12.2019
1434 Clouds 26 1008 74 10000 3.1 250 00:48 31.12.2019
1435 Rain 26 1008 74 10000 3.6 270 00:24 31.12.2019
1436 Clouds 26 1008 74 10000 4.1 260 23:58 30.12.2019
1437 Clouds 26 1008 74 10000 4.1 260 23:38 30.12.2019
1438 Clouds 26 1009 74 10000 3.6 240 23:20 30.12.2019
1439 Clouds 27 1009 74 10000 3.6 260 22:59 30.12.2019
1440 Clouds 27 1009 74 10000 3.6 260 22:40 30.12.2019
1441 Clouds 26 1009 74 10000 3.1 240 22:20 30.12.2019
1442 Clouds 26 1009 74 10000 3.1 240 22:20 30.12.2019
1443 Clouds 26 1009 74 10000 3.1 230 21:57 30.12.2019
1444 Clouds 26 1009 74 10000 3.1 230 21:39 30.12.2019
1445 Clouds 26 1009 74 10000 3.1 230 21:39 30.12.2019
1446 Clouds 27 1009 69 10000 2.1 200 21:19 30.12.2019
1447 Clouds 25 1009 78 10000 2.1 190 20:57 30.12.2019
1448 Clouds 25 1009 78 10000 2.1 190 20:39 30.12.2019
1449 Clouds 25 1009 78 10000 2.6 190 20:20 30.12.2019
1450 Clouds 25 1009 78 10000 2.1 200 19:58 30.12.2019
1451 Clouds 25 1009 78 10000 2.1 200 19:38 30.12.2019
1452 Clouds 25 1009 78 10000 2.1 200 19:19 30.12.2019
1453 Clouds 25 1009 78 10000 2.1 180 18:57 30.12.2019
1454 Clouds 25 1009 78 10000 2.1 180 18:38 30.12.2019
1455 Clouds 23 1009 88 10000 0.5 180 18:20 30.12.2019
1456 Clouds 23 1009 88 10000 1 170 17:55 30.12.2019
1457 Clouds 23 1009 88 10000 1 170 17:37 30.12.2019
1458 Clouds 22 1009 94 10000 1 200 17:18 30.12.2019
1459 Clouds 22 1008 94 10000 1 180 16:57 30.12.2019
1460 Clouds 22 1008 94 10000 1 180 16:36 30.12.2019
1461 Clouds 22 1008 94 10000 1 180 16:36 30.12.2019
1462 Clouds 23 1008 88 10000 1 180 16:18 30.12.2019
1463 Clouds 23 1008 88 10000 1 160 15:55 30.12.2019
1464 Clouds 23 1008 88 10000 1 160 15:36 30.12.2019
1465 Clouds 24 1008 83 10000 2.1 190 15:18 30.12.2019
1466 Clouds 24 1008 83 10000 2.1 180 14:42 30.12.2019
1467 Clouds 24 1008 83 10000 2.1 180 14:42 30.12.2019
1468 Clouds 24 1008 83 10000 3.6 180 14:19 30.12.2019
1469 Clouds 24 1008 83 10000 2.6 180 13:55 30.12.2019
1470 Clouds 24 1008 83 10000 2.6 180 13:37 30.12.2019
1471 Clouds 24 1008 83 10000 2.6 180 13:18 30.12.2019
1472 Clouds 24 1008 83 10000 1.5 180 12:42 30.12.2019
1473 Clouds 24 1009 83 10000 1.5 160 12:20 30.12.2019
1474 Rain 24 1009 88 6000 1.5 160 11:58 30.12.2019
1475 Rain 24 1009 88 6000 1.5 160 11:40 30.12.2019
1476 Rain 24 1010 88 10000 2.1 160 11:19 30.12.2019
1477 Rain 25 1010 83 10000 2.1 200 10:44 30.12.2019
1478 Rain 24 1010 83 10000 2.6 160 10:21 30.12.2019
1479 Rain 25 1010 78 10000 2.1 170 09:57 30.12.2019
1480 Rain 25 1010 78 10000 2.1 170 09:37 30.12.2019
1481 Rain 25 1009 78 10000 3.1 160 09:19 30.12.2019
1482 Rain 25 1009 78 10000 2.1 180 08:49 30.12.2019
1483 Rain 25 1010 83 10000 2.1 180 08:23 30.12.2019
1484 Clouds 25 1009 83 10000 3.1 170 07:55 30.12.2019
1485 Clouds 25 1009 83 10000 3.1 170 07:33 30.12.2019
1486 Clouds 25 1008 78 10000 3.6 180 06:51 30.12.2019
1487 Clouds 26 1008 78 10000 2.1 200 04:56 30.12.2019
1488 Clouds 26 1007 78 10000 1 20 03:53 30.12.2019
1489 Clouds 25 1008 78 10000 1 170 02:50 30.12.2019
1490 Clouds 25 1009 78 10000 1.5 210 02:32 30.12.2019
1491 Haze 24 1009 88 4800 1.5 180 01:50 30.12.2019
1492 Clouds 26 1009 74 10000 1 130 01:20 30.12.2019
1493 Clouds 26 1009 69 10000 2.1 150 00:43 30.12.2019
1494 Clouds 26 1009 69 10000 2.1 70 23:59 29.12.2019
1495 Clouds 26 1009 69 10000 2.1 70 23:59 29.12.2019
1496 Clouds 26 1009 69 10000 2.1 70 23:38 29.12.2019
1497 Clouds 26 1009 69 10000 4.1 90 23:20 29.12.2019
1498 Clouds 26 1008 69 10000 4.1 110 22:42 29.12.2019
1499 Clouds 26 1008 69 10000 6.2 100 22:22 29.12.2019
1500 Clouds 26 1008 69 10000 6.2 100 22:22 29.12.2019
1501 Clouds 26 1008 69 10000 4.6 100 21:57 29.12.2019
1502 Clouds 26 1008 69 10000 4.6 100 21:39 29.12.2019
1503 Clouds 24 1009 83 10000 3.6 120 21:20 29.12.2019
1504 Clouds 25 1009 78 10000 3.6 110 20:57 29.12.2019
1505 Clouds 25 1009 78 10000 3.6 110 20:38 29.12.2019
1506 Rain 25 1009 78 10000 4.6 80 20:20 29.12.2019
1507 Rain 24 1009 78 10000 6.2 80 19:58 29.12.2019
1508 Rain 24 1009 78 10000 6.2 80 19:39 29.12.2019
1509 Rain 25 1010 78 10000 3.1 100 19:20 29.12.2019
1510 Rain 25 1009 78 10000 3.6 90 18:55 29.12.2019
1511 Rain 25 1009 78 10000 3.6 90 18:37 29.12.2019
1512 Rain 25 1009 73 10000 3.1 110 18:18 29.12.2019
1513 Rain 25 1009 73 10000 2.6 130 17:56 29.12.2019
1514 Rain 25 1009 73 10000 2.6 130 17:38 29.12.2019
1515 Rain 25 1009 73 10000 3.6 110 17:19 29.12.2019
1516 Rain 24 1009 83 10000 2.6 110 16:55 29.12.2019
1517 Rain 25 1008 78 10000 4.1 110 16:36 29.12.2019
1518 Rain 25 1008 78 10000 4.1 110 16:36 29.12.2019
1519 Rain 25 1008 78 10000 4.1 110 16:18 29.12.2019
1520 Rain 25 1009 78 10000 4.1 120 15:55 29.12.2019
1521 Rain 25 1009 78 10000 4.1 120 15:37 29.12.2019
1522 Rain 25 1009 78 10000 2.6 90 15:18 29.12.2019
1523 Rain 25 1009 73 10000 1.5 130 14:55 29.12.2019
1524 Rain 25 1009 73 10000 1.5 130 14:37 29.12.2019
1525 Clouds 25 1010 78 10000 2.1 90 14:18 29.12.2019
1526 Clouds 25 1010 78 10000 4.1 100 13:41 29.12.2019
1527 Clouds 25 1010 78 10000 4.1 100 13:22 29.12.2019
1528 Clouds 25 1010 78 10000 4.1 100 12:58 29.12.2019
1529 Clouds 25 1010 78 10000 4.1 100 12:40 29.12.2019
1530 Clouds 25 1011 78 10000 3.1 100 12:22 29.12.2019
1531 Clouds 25 1011 78 10000 3.1 100 12:22 29.12.2019
1532 Clouds 25 1011 78 10000 3.6 100 11:43 29.12.2019
1533 Clouds 25 1011 78 10000 5.1 100 11:23 29.12.2019
1534 Clouds 25 1011 78 10000 4.1 90 10:59 29.12.2019
1535 Clouds 25 1011 78 10000 4.1 90 10:40 29.12.2019
1536 Clouds 25 1012 78 10000 4.6 90 10:18 29.12.2019
1537 Clouds 25 1012 78 10000 4.1 90 09:46 29.12.2019
1538 Clouds 25 1012 78 10000 4.1 90 09:28 29.12.2019
1539 Clouds 25 1012 78 10000 3.6 100 08:56 29.12.2019
1540 Clouds 25 1012 78 10000 3.6 100 08:38 29.12.2019
1541 Clouds 25 1012 78 10000 3.1 90 08:20 29.12.2019
1542 Clouds 25 1011 78 10000 4.1 90 07:43 29.12.2019
1543 Clouds 25 1011 78 10000 4.1 90 07:25 29.12.2019
1544 Clouds 25 1011 73 10000 5.1 80 06:28 29.12.2019
1545 Clouds 26 1011 69 10000 7.2 80 05:55 29.12.2019
1546 Clouds 26 1011 74 10000 6.7 80 04:59 29.12.2019
1547 Clouds 26 1011 74 10000 6.7 70 04:30 29.12.2019
1548 Clouds 27 1011 69 10000 6.7 70 03:32 29.12.2019
1549 Clouds 27 1010 65 10000 7.2 70 02:27 29.12.2019
1550 Clouds 27 1011 69 10000 7.7 80 01:47 29.12.2019
1551 Clouds 27 1011 65 10000 7.2 90 01:28 29.12.2019
1552 Clouds 26 1011 69 10000 7.2 80 00:45 29.12.2019
1553 Clouds 27 1011 69 10000 7.2 80 00:24 29.12.2019
1554 Clouds 27 1012 69 10000 7.2 80 23:46 28.12.2019
1555 Clouds 27 1012 65 10000 8.2 70 23:19 28.12.2019
1556 Clouds 26 1012 74 10000 8.2 70 22:59 28.12.2019
1557 Clouds 26 1012 74 10000 8.2 70 22:37 28.12.2019
1558 Clouds 26 1012 69 10000 8.2 80 22:18 28.12.2019
1559 Clouds 26 1012 69 10000 7.7 70 21:55 28.12.2019
1560 Clouds 26 1012 69 10000 7.7 70 21:37 28.12.2019
1561 Clouds 26 1012 69 10000 7.2 70 21:19 28.12.2019
1562 Clouds 26 1012 69 10000 7.2 70 20:40 28.12.2019
1563 Clouds 26 1012 69 10000 7.7 70 20:22 28.12.2019
1564 Clouds 26 1012 69 10000 7.7 80 19:59 28.12.2019
1565 Clouds 26 1012 69 10000 7.7 80 19:40 28.12.2019
1566 Clouds 25 1012 78 10000 4.6 80 19:22 28.12.2019
1567 Clouds 24 1012 78 10000 2.6 100 18:59 28.12.2019
1568 Clouds 24 1012 78 10000 2.6 100 18:40 28.12.2019
1569 Clouds 23 1012 78 10000 2.1 90 18:19 28.12.2019
1570 Clouds 23 1011 78 10000 3.1 90 17:56 28.12.2019
1571 Clouds 23 1011 78 10000 3.1 90 17:38 28.12.2019
1572 Clouds 23 1011 78 10000 3.1 90 17:18 28.12.2019
1573 Clouds 23 1011 78 10000 3.1 90 17:18 28.12.2019
1574 Clouds 23 1011 78 10000 3.1 90 16:46 28.12.2019
1575 Clouds 23 1011 78 10000 3.1 90 16:26 28.12.2019
1576 Clouds 23 1011 78 10000 3.1 90 16:26 28.12.2019
1577 Clouds 23 1011 78 10000 3.1 90 16:26 28.12.2019
1578 Clouds 23 1011 78 10000 3.1 90 15:47 28.12.2019
1579 Clouds 23 1011 78 10000 4.1 90 15:24 28.12.2019
1580 Clouds 23 1010 78 10000 5.1 90 14:59 28.12.2019
1581 Clouds 23 1010 78 10000 5.1 90 14:39 28.12.2019
1582 Clouds 23 1011 78 10000 4.6 90 14:20 28.12.2019
1583 Clouds 23 1011 78 10000 5.1 90 13:56 28.12.2019
1584 Clouds 23 1011 78 10000 5.1 90 13:37 28.12.2019
1585 Clouds 23 1011 78 10000 5.1 90 13:18 28.12.2019
1586 Clouds 23 1011 78 10000 4.6 90 12:42 28.12.2019
1587 Clouds 23 1012 78 10000 5.1 90 12:23 28.12.2019
1588 Clouds 23 1012 78 10000 4.6 90 11:56 28.12.2019
1589 Clouds 23 1012 78 10000 4.6 90 11:37 28.12.2019
1590 Clouds 24 1013 69 10000 5.1 90 11:18 28.12.2019
1591 Clouds 24 1013 69 10000 5.7 90 10:43 28.12.2019
1592 Clouds 24 1013 69 10000 4.6 90 10:21 28.12.2019
1593 Clouds 24 1013 69 10000 4.6 90 09:57 28.12.2019
1594 Clouds 24 1013 69 10000 4.6 90 09:39 28.12.2019
1595 Clouds 24 1012 69 10000 4.6 90 09:19 28.12.2019
1596 Clouds 24 1012 69 10000 3.6 90 08:44 28.12.2019
1597 Clouds 24 1012 69 10000 2.1 100 08:26 28.12.2019
1598 Rain 24 1012 69 10000 4.1 100 07:49 28.12.2019
1599 Rain 24 1012 69 10000 4.1 90 07:27 28.12.2019
1600 Rain 24 1012 73 10000 3.1 100 06:21 28.12.2019
1601 Rain 26 1011 61 10000 5.7 90 03:59 28.12.2019
1602 Rain 26 1011 61 10000 5.7 90 03:38 28.12.2019
1603 Rain 26 1011 65 10000 6.7 80 02:48 28.12.2019
1604 Rain 27 1011 65 10000 6.7 70 01:59 28.12.2019
1605 Clouds 27 1011 57 10000 7.2 80 01:29 28.12.2019
1606 Rain 26 1011 61 10000 7.2 80 00:54 28.12.2019
1607 Rain 26 1011 61 10000 7.2 80 00:36 28.12.2019
1608 Rain 27 1011 65 10000 7.2 70 00:18 28.12.2019
1609 Rain 26 1012 65 10000 6.7 80 23:42 27.12.2019
1610 Clouds 26 1012 65 10000 6.7 60 23:19 27.12.2019
1611 Clouds 26 1012 65 10000 6.2 70 22:57 27.12.2019
1612 Clouds 26 1012 65 10000 6.2 70 22:38 27.12.2019
1613 Clouds 26 1012 65 10000 6.2 70 22:20 27.12.2019
1614 Clouds 26 1013 61 10000 5.1 70 21:44 27.12.2019
1615 Rain 25 1013 65 10000 5.7 70 21:25 27.12.2019
1616 Clouds 25 1013 69 10000 4.6 70 20:58 27.12.2019
1617 Clouds 25 1013 69 10000 4.6 70 20:40 27.12.2019
1618 Clear 26 1013 65 10000 3.1 100 20:21 27.12.2019
1619 Clear 25 1013 69 10000 2.1 100 19:42 27.12.2019
1620 Clear 24 1013 73 10000 3.1 100 19:20 27.12.2019
1621 Clear 23 1012 78 10000 1 140 18:58 27.12.2019
1622 Clear 23 1012 78 10000 1 140 18:37 27.12.2019
1623 Clear 21 1012 83 10000 1.5 120 18:19 27.12.2019
1624 Clear 20 1012 82 10000 1.5 120 17:56 27.12.2019
1625 Clear 20 1012 82 10000 1.5 120 17:38 27.12.2019
1626 Rain 18 1011 93 10000 1 140 17:18 27.12.2019
1627 Rain 18 1011 93 10000 1 140 16:44 27.12.2019
1628 Rain 19 1011 93 10000 1 160 16:26 27.12.2019
1629 Rain 20 1011 82 10000 1 200 15:59 27.12.2019
1630 Rain 20 1011 82 10000 1 200 15:40 27.12.2019
1631 Rain 20 1011 82 10000 0.5 110 15:20 27.12.2019
1632 Rain 22 1011 78 10000 1.5 110 14:56 27.12.2019
1633 Rain 22 1011 78 10000 1.5 110 14:38 27.12.2019
1634 Rain 22 1012 78 10000 1.5 130 14:20 27.12.2019
1635 Rain 21 1012 83 10000 1.5 110 13:47 27.12.2019
1636 Rain 21 1012 83 10000 1 140 13:24 27.12.2019
1637 Rain 22 1013 78 10000 2.1 120 12:56 27.12.2019
1638 Rain 22 1013 78 10000 2.1 120 12:37 27.12.2019
1639 Rain 21 1013 83 10000 1 130 12:18 27.12.2019
1640 Rain 21 1013 83 10000 1 130 12:18 27.12.2019
1641 Rain 21 1013 83 10000 0.5 130 11:42 27.12.2019
1642 Clear 22 1013 78 10000 1.5 130 11:20 27.12.2019
1643 Clear 22 1013 78 10000 1 140 10:47 27.12.2019
1644 Clear 23 1013 73 10000 2.1 120 10:25 27.12.2019
1645 Clear 23 1013 73 10000 2.6 120 09:59 27.12.2019
1646 Clear 23 1013 73 10000 2.6 120 09:39 27.12.2019
1647 Clear 22 1013 78 10000 1.5 120 09:21 27.12.2019
1648 Clear 22 1013 78 10000 1.5 120 08:49 27.12.2019
1649 Clear 22 1012 78 10000 1.5 110 08:30 27.12.2019
1650 Rain 22 1012 78 10000 0.5 120 07:48 27.12.2019
1651 Rain 23 1012 73 10000 1 130 07:26 27.12.2019
1652 Rain 24 1012 69 10000 3.1 90 06:33 27.12.2019
1653 Clear 25 1011 65 10000 4.6 90 04:51 27.12.2019
1654 Clear 25 1011 65 10000 3.6 100 02:35 27.12.2019
1655 Clear 26 1011 65 10000 5.7 90 01:48 27.12.2019
1656 Clear 26 1011 65 10000 6.7 90 01:23 27.12.2019
1657 Clear 25 1011 69 10000 7.7 80 00:51 27.12.2019
1658 Clear 25 1011 69 10000 7.7 80 00:33 27.12.2019
1659 Clear 25 1012 69 10000 4.1 100 23:56 26.12.2019
1660 Clear 25 1012 69 10000 4.1 100 23:38 26.12.2019
1661 Clear 25 1012 69 10000 5.1 80 23:20 26.12.2019
1662 Clear 25 1012 65 10000 6.2 90 22:41 26.12.2019
1663 Clear 25 1013 69 10000 6.2 100 22:19 26.12.2019
1664 Clear 24 1013 73 10000 4.6 110 21:40 26.12.2019
1665 Clear 24 1013 73 10000 4.1 110 21:22 26.12.2019
1666 Clear 24 1013 78 10000 1.5 120 20:59 26.12.2019
1667 Clear 24 1013 78 10000 1.5 120 20:41 26.12.2019
1668 Rain 22 1013 88 10000 1.5 50 20:22 26.12.2019
1669 Rain 23 1013 73 10000 4.1 100 19:57 26.12.2019
1670 Rain 23 1013 73 10000 4.1 100 19:38 26.12.2019
1671 Rain 23 1013 78 10000 3.1 90 19:20 26.12.2019
1672 Rain 22 1013 88 10000 1.5 100 18:57 26.12.2019
1673 Rain 22 1013 88 10000 1.5 100 18:37 26.12.2019
1674 Rain 22 1013 83 10000 2.6 110 18:18 26.12.2019
1675 Rain 22 1012 83 10000 3.1 120 17:42 26.12.2019
1676 Rain 23 1012 78 10000 1.5 140 17:22 26.12.2019
1677 Rain 22 1011 83 10000 1.5 140 16:50 26.12.2019
1678 Rain 23 1011 78 10000 1 120 16:28 26.12.2019
1679 Rain 22 1011 83 10000 1.5 120 15:59 26.12.2019
1680 Rain 22 1011 83 10000 1.5 120 15:40 26.12.2019
1681 Rain 23 1011 78 10000 2.6 100 15:19 26.12.2019
1682 Rain 23 1011 78 10000 3.1 100 14:42 26.12.2019
1683 Rain 23 1011 78 10000 3.6 100 14:23 26.12.2019
1684 Rain 23 1011 78 10000 3.6 100 13:57 26.12.2019
1685 Rain 23 1011 78 10000 3.6 100 13:39 26.12.2019
1686 Rain 24 1012 73 10000 3.6 100 13:18 26.12.2019
1687 Rain 23 1012 78 10000 2.6 90 12:45 26.12.2019
1688 Rain 24 1012 73 10000 3.1 110 12:25 26.12.2019
1689 Rain 24 1013 73 10000 4.1 100 11:59 26.12.2019
1690 Rain 24 1013 73 10000 4.1 100 11:40 26.12.2019
1691 Rain 24 1013 73 10000 4.1 100 11:21 26.12.2019
1692 Rain 24 1013 73 10000 5.1 100 10:50 26.12.2019
1693 Rain 24 1013 73 10000 2.6 110 10:27 26.12.2019
1694 Rain 23 1013 73 10000 2.1 110 09:55 26.12.2019
1695 Rain 23 1013 73 10000 2.1 110 09:36 26.12.2019
1696 Rain 24 1013 69 10000 2.6 110 09:18 26.12.2019
1697 Rain 24 1013 69 10000 3.6 100 08:39 26.12.2019
1698 Clear 24 1012 64 10000 2.6 110 08:21 26.12.2019
1699 Clear 24 1012 69 10000 2.6 110 07:41 26.12.2019
1700 Clear 24 1012 69 10000 3.1 110 07:19 26.12.2019
1701 Clear 24 1012 69 10000 2.6 110 06:37 26.12.2019
1702 Clear 25 1012 65 10000 3.1 110 06:19 26.12.2019
1703 Clear 25 1011 65 10000 4.1 100 05:41 26.12.2019
1704 Clear 25 1011 65 10000 5.7 100 04:33 26.12.2019
1705 Clear 26 1011 61 10000 5.7 100 03:31 26.12.2019
1706 Clear 26 1011 61 10000 5.7 100 02:46 26.12.2019
1707 Clear 26 1011 61 10000 6.2 100 02:27 26.12.2019
1708 Rain 26 1011 61 10000 5.7 110 01:44 26.12.2019
1709 Rain 26 1012 65 10000 5.7 100 01:24 26.12.2019
1710 Rain 27 1012 61 10000 8.7 70 00:44 26.12.2019
1711 Rain 26 1012 65 10000 7.7 80 00:23 26.12.2019
1712 Rain 26 1012 65 10000 7.7 80 23:57 25.12.2019
1713 Rain 26 1012 65 10000 7.7 80 23:36 25.12.2019
1714 Clear 26 1012 65 10000 7.2 90 23:18 25.12.2019
1715 Clear 26 1013 69 10000 7.7 90 22:55 25.12.2019
1716 Clear 26 1013 69 10000 7.7 90 22:37 25.12.2019
1717 Clear 26 1013 69 10000 5.7 90 22:18 25.12.2019
1718 Rain 24 1013 78 10000 6.2 90 21:40 25.12.2019
1719 Clear 23 1013 83 10000 5.1 80 21:22 25.12.2019
1720 Clear 24 1013 69 10000 4.6 110 20:58 25.12.2019
1721 Clear 24 1013 69 10000 4.6 110 20:40 25.12.2019
1722 Clear 24 1013 73 10000 4.1 90 20:18 25.12.2019
1723 Clear 23 1013 78 10000 5.1 100 19:44 25.12.2019
1724 Clear 23 1013 78 10000 4.6 100 19:25 25.12.2019
1725 Rain 23 1013 83 6000 6.2 100 18:59 25.12.2019
1726 Rain 23 1013 83 6000 6.2 100 18:39 25.12.2019
1727 Clear 23 1012 78 10000 4.6 110 18:20 25.12.2019
1728 Clear 23 1012 83 10000 4.6 100 17:43 25.12.2019
1729 Rain 23 1011 78 10000 3.6 120 17:21 25.12.2019
1730 Clear 23 1011 73 10000 2.1 100 16:59 25.12.2019
1731 Clear 23 1011 73 10000 2.1 100 16:39 25.12.2019
1732 Clear 24 1011 69 10000 3.6 110 16:19 25.12.2019
1733 Clear 24 1011 73 10000 4.1 100 15:57 25.12.2019
1734 Clear 24 1011 73 10000 4.1 100 15:39 25.12.2019
1735 Clear 23 1011 78 10000 2.6 100 15:20 25.12.2019
1736 Clear 24 1011 78 10000 3.6 100 14:58 25.12.2019
1737 Clear 24 1011 78 10000 3.6 100 14:39 25.12.2019
1738 Clear 24 1011 78 10000 3.6 100 14:39 25.12.2019
1739 Clear 24 1011 78 10000 3.6 100 14:39 25.12.2019
1740 Clear 24 1011 78 10000 3.6 100 14:39 25.12.2019
1741 Clear 24 1011 73 10000 3.6 100 14:20 25.12.2019
1742 Clear 24 1012 73 10000 3.6 100 13:46 25.12.2019
1743 Clear 24 1012 73 10000 4.1 100 13:22 25.12.2019
1744 Clear 24 1012 73 10000 5.1 100 12:58 25.12.2019
1745 Clear 24 1012 73 10000 5.1 100 12:38 25.12.2019
1746 Clear 24 1012 73 10000 5.7 90 12:20 25.12.2019
1747 Clear 24 1013 73 10000 6.2 90 11:43 25.12.2019
1748 Rain 23 1013 83 10000 4.6 90 11:23 25.12.2019
1749 Rain 23 1013 83 6000 5.1 100 10:59 25.12.2019
1750 Rain 23 1013 83 6000 5.1 100 10:37 25.12.2019
1751 Rain 24 1013 73 10000 4.6 90 10:19 25.12.2019
1752 Rain 24 1013 78 10000 4.6 100 09:45 25.12.2019
1753 Rain 24 1013 78 10000 5.7 100 09:27 25.12.2019
1754 Rain 24 1013 73 10000 6.7 100 08:47 25.12.2019
1755 Rain 24 1012 73 10000 6.7 90 08:28 25.12.2019
1756 Clouds 24 1012 73 10000 6.7 100 07:48 25.12.2019
1757 Clouds 25 1012 73 10000 6.7 110 07:29 25.12.2019
1758 Clouds 25 1011 69 10000 5.7 100 06:49 25.12.2019
1759 Clouds 25 1011 69 10000 4.6 100 06:22 25.12.2019
1760 Clouds 26 1010 65 10000 6.2 90 04:50 25.12.2019
1761 Clouds 26 1010 69 10000 6.7 90 04:26 25.12.2019
1762 Clouds 26 1010 69 10000 7.7 90 03:58 25.12.2019
1763 Clouds 26 1010 69 10000 7.7 90 03:40 25.12.2019
1764 Clouds 26 1010 65 10000 8.7 80 02:39 25.12.2019
1765 Clouds 26 1010 65 10000 9.8 90 01:58 25.12.2019
1766 Clouds 26 1011 74 10000 8.7 90 01:25 25.12.2019
1767 Clouds 26 1011 74 10000 8.7 90 00:48 25.12.2019
1768 Clouds 27 1011 65 10000 9.3 90 00:28 25.12.2019
1769 Clouds 27 1011 61 10000 10.3 80 23:55 24.12.2019
1770 Clouds 27 1011 61 10000 10.3 80 23:36 24.12.2019
1771 Clouds 27 1011 65 10000 9.8 90 23:18 24.12.2019
1772 Clouds 27 1011 65 10000 11.3 80 22:38 24.12.2019
1773 Clouds 26 1011 69 10000 9.8 90 22:20 24.12.2019
1774 Clouds 26 1011 69 10000 9.8 90 22:20 24.12.2019
1775 Clouds 27 1011 69 10000 9.8 90 21:42 24.12.2019
1776 Clouds 26 1011 74 10000 10.8 80 21:22 24.12.2019
1777 Clouds 26 1011 74 10000 10.8 80 20:45 24.12.2019
1778 Clouds 26 1011 74 10000 10.8 80 20:24 24.12.2019
1779 Clouds 26 1011 69 10000 10.8 80 19:57 24.12.2019
1780 Clouds 26 1011 69 10000 10.8 80 19:38 24.12.2019
1781 Clouds 25 1011 78 10000 9.8 80 19:18 24.12.2019
1782 Clouds 25 1011 73 10000 9.8 90 18:42 24.12.2019
1783 Clouds 25 1010 73 10000 8.2 90 18:19 24.12.2019
1784 Clouds 25 1010 73 10000 8.2 90 17:45 24.12.2019
1785 Clouds 24 1010 78 10000 8.7 90 17:23 24.12.2019
1786 Clouds 25 1010 73 10000 7.2 90 16:58 24.12.2019
1787 Clouds 25 1010 73 10000 7.2 90 16:58 24.12.2019
1788 Clouds 25 1010 73 10000 7.2 90 16:40 24.12.2019
1789 Clouds 25 1010 73 10000 6.7 90 16:21 24.12.2019
1790 Clouds 25 1010 73 10000 5.1 90 15:58 24.12.2019
1791 Clouds 25 1010 73 10000 5.1 90 15:37 24.12.2019
1792 Clouds 25 1010 73 10000 9.3 80 15:19 24.12.2019
1793 Clouds 25 1010 78 10000 8.2 90 14:58 24.12.2019
1794 Clouds 25 1010 78 10000 8.2 90 14:40 24.12.2019
1795 Clouds 25 1010 78 10000 8.2 90 14:40 24.12.2019
1796 Clouds 25 1010 78 10000 7.2 90 14:21 24.12.2019
1797 Clouds 25 1010 73 10000 7.2 90 13:56 24.12.2019
1798 Clouds 25 1010 73 10000 7.2 90 13:38 24.12.2019
1799 Clouds 25 1010 73 10000 5.1 90 13:19 24.12.2019
1800 Clouds 25 1010 73 10000 7.2 90 12:56 24.12.2019
1801 Clouds 25 1010 73 10000 7.2 90 12:37 24.12.2019
1802 Clouds 25 1010 73 10000 8.2 90 12:19 24.12.2019
1803 Clouds 25 1010 73 10000 8.2 90 12:19 24.12.2019
1804 Clouds 25 1011 73 10000 8.2 80 11:56 24.12.2019
1805 Clouds 25 1011 73 10000 8.2 80 11:37 24.12.2019
1806 Clouds 25 1011 73 10000 8.2 80 11:37 24.12.2019
1807 Clouds 25 1011 73 10000 8.2 80 11:37 24.12.2019
1808 Clouds 25 1011 73 10000 9.3 90 11:19 24.12.2019
1809 Clouds 25 1011 73 10000 8.2 90 10:56 24.12.2019
1810 Clouds 25 1011 73 10000 8.2 90 10:56 24.12.2019
1811 Clouds 25 1011 73 10000 8.2 90 10:37 24.12.2019
1812 Clouds 25 1011 73 10000 9.3 80 10:19 24.12.2019
1813 Clouds 25 1011 78 10000 9.3 90 09:55 24.12.2019
1814 Clouds 25 1011 78 10000 9.3 90 09:37 24.12.2019
1815 Clouds 25 1011 78 10000 9.3 90 09:37 24.12.2019
1816 Clouds 25 1010 78 10000 10.3 80 09:19 24.12.2019
1817 Clouds 25 1010 73 10000 9.8 80 08:45 24.12.2019
1818 Clouds 25 1010 73 10000 9.3 80 08:24 24.12.2019
1819 Clouds 24 1010 73 10000 7.2 90 07:46 24.12.2019
1820 Clouds 25 1010 69 10000 7.2 90 07:26 24.12.2019
1821 Clouds 24 1009 78 10000 7.7 90 06:58 24.12.2019
1822 Clouds 24 1009 78 10000 7.7 90 06:38 24.12.2019
1823 Clouds 25 1009 73 10000 8.7 80 06:19 24.12.2019
1824 Clouds 25 1008 78 10000 10.8 80 05:27 24.12.2019
1825 Clouds 25 1008 83 10000 10.3 80 04:59 24.12.2019
1826 Clouds 26 1008 74 10000 9.3 90 03:50 24.12.2019
1827 Clouds 26 1008 74 10000 12.3 80 03:22 24.12.2019
1828 Clouds 27 1008 69 10000 12.9 80 02:23 24.12.2019
1829 Rain 26 1008 78 10000 12.3 80 01:50 24.12.2019
1830 Rain 26 1009 78 10000 12.9 80 01:22 24.12.2019
1831 Rain 25 1009 73 10000 10.8 90 00:45 24.12.2019
1832 Rain 25 1010 73 10000 9.8 90 00:24 24.12.2019
1833 Rain 24 1010 83 10000 11.3 80 23:56 23.12.2019
1834 Rain 24 1010 83 10000 11.3 80 23:37 23.12.2019
1835 Rain 24 1010 83 10000 11.3 80 23:37 23.12.2019
1836 Rain 24 1010 78 10000 10.3 90 23:19 23.12.2019
1837 Rain 25 1010 83 10000 8.7 90 22:56 23.12.2019
1838 Rain 25 1010 83 10000 8.7 90 22:56 23.12.2019
1839 Rain 25 1010 83 10000 8.7 90 22:36 23.12.2019
1840 Rain 25 1010 83 10000 8.7 90 22:36 23.12.2019
1841 Rain 25 1010 73 10000 10.3 90 22:18 23.12.2019
1842 Drizzle 25 1010 78 10000 9.8 90 21:55 23.12.2019
1843 Drizzle 25 1010 78 10000 9.8 90 21:36 23.12.2019
1844 Drizzle 25 1010 78 10000 9.8 90 21:36 23.12.2019
1845 Rain 24 1010 83 8000 9.3 90 21:18 23.12.2019
1846 Rain 23 1010 94 4700 6.7 100 20:56 23.12.2019
1847 Rain 23 1010 94 4700 6.7 100 20:56 23.12.2019
1848 Rain 23 1010 94 4700 6.7 100 20:38 23.12.2019
1849 Rain 23 1010 94 4900 6.2 100 20:18 23.12.2019
1850 Rain 23 1010 94 4400 5.7 120 19:55 23.12.2019
1851 Rain 23 1010 94 4400 5.7 120 19:36 23.12.2019
1852 Rain 24 1009 88 10000 7.7 90 19:18 23.12.2019
1853 Rain 23 1009 94 10000 11.3 90 18:55 23.12.2019
1854 Rain 23 1009 94 10000 11.3 90 18:36 23.12.2019
1855 Rain 23 1008 94 3500 11.3 80 18:18 23.12.2019
1856 Rain 23 1008 100 1900 10.3 90 17:55 23.12.2019
1857 Rain 23 1008 100 1900 10.3 90 17:37 23.12.2019
1858 Rain 23 1008 100 1900 10.3 90 17:37 23.12.2019
1859 Rain 24 1008 94 3700 8.7 80 17:18 23.12.2019
1860 Rain 24 1008 94 4100 9.8 80 16:42 23.12.2019
1861 Rain 24 1008 94 5000 10.3 60 16:19 23.12.2019
1862 Rain 24 1008 94 5000 10.3 60 16:19 23.12.2019
1863 Rain 24 1008 94 8000 9.8 60 15:58 23.12.2019
1864 Rain 24 1008 94 8000 9.8 60 15:38 23.12.2019
1865 Rain 24 1008 100 9000 9.8 70 15:19 23.12.2019
1866 Rain 24 1008 94 5000 6.7 60 14:57 23.12.2019
1867 Rain 24 1008 94 5000 6.7 60 14:39 23.12.2019
1868 Rain 24 1008 94 10000 7.2 60 14:20 23.12.2019
1869 Rain 24 1008 94 10000 7.2 60 13:57 23.12.2019
1870 Rain 24 1008 94 10000 7.2 60 13:39 23.12.2019
1871 Rain 24 1009 94 8000 6.2 60 13:21 23.12.2019
1872 Rain 24 1010 94 8000 4.6 50 12:55 23.12.2019
1873 Rain 24 1010 94 8000 4.6 50 12:37 23.12.2019
1874 Rain 24 1010 94 8000 4.6 50 12:37 23.12.2019
1875 Rain 24 1010 94 10000 4.6 60 12:18 23.12.2019
1876 Rain 23 1010 100 10000 3.6 70 11:42 23.12.2019
1877 Rain 23 1010 94 10000 4.1 50 11:24 23.12.2019
1878 Rain 23 1011 94 10000 3.6 50 10:56 23.12.2019
1879 Rain 23 1011 94 10000 3.6 50 10:38 23.12.2019
1880 Rain 23 1011 94 10000 3.6 50 10:38 23.12.2019
1881 Rain 23 1011 100 10000 4.1 60 10:20 23.12.2019
1882 Rain 23 1011 100 10000 4.6 70 09:58 23.12.2019
1883 Rain 23 1011 100 10000 4.6 70 09:39 23.12.2019
1884 Rain 23 1011 100 10000 4.6 70 09:39 23.12.2019
1885 Rain 24 1010 94 10000 3.1 60 09:19 23.12.2019
1886 Rain 23 1010 100 10000 3.1 40 08:55 23.12.2019
1887 Rain 23 1010 100 10000 3.1 40 08:37 23.12.2019
1888 Rain 23 1010 100 7000 3.1 70 08:18 23.12.2019
1889 Rain 23 1010 100 5000 2.6 70 07:42 23.12.2019
1890 Rain 23 1010 100 5000 2.6 70 07:19 23.12.2019
1891 Rain 23 1010 100 10000 1 110 06:44 23.12.2019
1892 Rain 23 1009 100 10000 1 180 06:22 23.12.2019
1893 Rain 23 1009 100 8000 1 200 05:46 23.12.2019
1894 Rain 24 1008 94 5000 3.1 350 04:55 23.12.2019
1895 Rain 25 1007 94 10000 2.6 90 03:59 23.12.2019
1896 Rain 25 1008 88 10000 3.6 90 02:48 23.12.2019
1897 Rain 25 1007 88 10000 6.7 80 02:20 23.12.2019
1898 Rain 26 1008 83 10000 6.7 80 01:50 23.12.2019
1899 Rain 25 1008 94 10000 7.2 80 01:31 23.12.2019
1900 Rain 25 1008 94 7000 5.7 80 00:48 23.12.2019
1901 Rain 25 1009 94 10000 5.7 80 00:27 23.12.2019
1902 Rain 25 1009 88 10000 5.7 80 23:56 22.12.2019
1903 Rain 25 1009 88 10000 5.7 80 23:37 22.12.2019
1904 Rain 25 1009 88 10000 6.2 80 23:19 22.12.2019
1905 Rain 25 1009 88 10000 6.7 80 22:42 22.12.2019
1906 Rain 25 1009 88 10000 6.7 80 22:42 22.12.2019
1907 Rain 25 1009 88 10000 6.7 80 22:42 22.12.2019
1908 Rain 25 1009 88 10000 6.7 80 22:23 22.12.2019
1909 Rain 24 1010 88 10000 6.7 80 21:59 22.12.2019
1910 Rain 24 1010 88 10000 6.7 80 21:40 22.12.2019
1911 Rain 24 1010 94 10000 7.2 80 21:21 22.12.2019
1912 Rain 24 1010 94 10000 7.2 80 21:21 22.12.2019
1913 Drizzle 25 1010 94 10000 6.7 80 20:59 22.12.2019
1914 Drizzle 25 1010 94 10000 6.7 80 20:39 22.12.2019
1915 Rain 25 1009 94 10000 6.7 80 20:19 22.12.2019
1916 Rain 25 1009 88 10000 5.7 90 19:57 22.12.2019
1917 Rain 25 1009 88 10000 5.7 90 19:39 22.12.2019
1918 Rain 25 1009 94 10000 6.7 80 19:20 22.12.2019
1919 Rain 25 1009 88 10000 5.1 80 18:42 22.12.2019
1920 Rain 24 1009 94 10000 5.1 80 18:24 22.12.2019
1921 Drizzle 24 1008 94 10000 5.1 90 17:57 22.12.2019
1922 Drizzle 24 1008 94 10000 5.1 90 17:39 22.12.2019
1923 Rain 24 1008 94 10000 4.6 90 17:19 22.12.2019
1924 Rain 24 1008 94 10000 4.6 90 17:19 22.12.2019
1925 Rain 24 1008 94 10000 5.1 80 16:57 22.12.2019
1926 Rain 24 1008 94 10000 5.1 80 16:57 22.12.2019
1927 Rain 24 1008 94 10000 5.1 80 16:39 22.12.2019
1928 Rain 24 1008 94 10000 5.1 90 16:21 22.12.2019
1929 Rain 24 1007 94 10000 5.1 100 15:56 22.12.2019
1930 Rain 24 1007 94 10000 5.1 100 15:56 22.12.2019
1931 Rain 24 1007 94 10000 5.1 100 15:38 22.12.2019
1932 Rain 24 1007 94 10000 5.7 90 15:19 22.12.2019
1933 Rain 24 1008 94 10000 5.1 90 14:55 22.12.2019
1934 Rain 24 1008 94 10000 5.1 90 14:37 22.12.2019
1935 Rain 24 1008 94 10000 4.6 80 14:18 22.12.2019
1936 Rain 24 1008 88 10000 4.1 80 13:55 22.12.2019
1937 Rain 24 1008 88 10000 4.1 80 13:36 22.12.2019
1938 Rain 24 1008 94 10000 4.1 90 13:18 22.12.2019
1939 Rain 24 1008 94 10000 4.1 90 13:18 22.12.2019
1940 Rain 24 1009 94 10000 3.6 80 12:55 22.12.2019
1941 Rain 24 1009 94 10000 3.6 80 12:37 22.12.2019
1942 Rain 24 1009 94 10000 4.1 90 12:18 22.12.2019
1943 Rain 24 1009 94 10000 4.1 90 12:18 22.12.2019
1944 Rain 24 1009 94 10000 4.6 80 11:54 22.12.2019
1945 Rain 24 1009 94 10000 4.6 80 11:36 22.12.2019
1946 Rain 24 1010 94 10000 4.1 80 11:18 22.12.2019
1947 Rain 24 1010 94 10000 3.6 80 10:54 22.12.2019
1948 Rain 24 1010 94 10000 3.6 80 10:36 22.12.2019
1949 Rain 23 1010 100 10000 3.1 90 10:18 22.12.2019
1950 Drizzle 24 1010 94 10000 4.6 70 09:40 22.12.2019
1951 Rain 24 1010 94 10000 4.6 60 09:22 22.12.2019
1952 Rain 24 1010 94 10000 5.1 70 08:59 22.12.2019
1953 Rain 24 1010 94 10000 5.1 70 08:38 22.12.2019
1954 Rain 24 1010 94 10000 4.1 60 08:20 22.12.2019
1955 Rain 23 1010 100 10000 4.6 50 07:38 22.12.2019
1956 Rain 24 1009 94 6000 5.7 40 07:20 22.12.2019
1957 Rain 24 1009 94 6000 5.1 60 06:40 22.12.2019
1958 Rain 24 1008 94 4000 6.7 80 05:54 22.12.2019
1959 Rain 24 1008 94 9000 4.6 60 05:21 22.12.2019
1960 Rain 24 1008 100 3800 5.7 20 04:29 22.12.2019
1961 Rain 24 1007 100 10000 6.2 60 03:53 22.12.2019
1962 Drizzle 24 1007 100 6000 8.7 80 02:40 22.12.2019
1963 Rain 24 1008 100 3600 8.2 80 01:42 22.12.2019
1964 Rain 25 1008 94 9000 8.2 70 01:22 22.12.2019
1965 Rain 25 1008 94 4400 8.2 80 00:45 22.12.2019
1966 Rain 25 1008 94 4400 8.7 70 00:22 22.12.2019
1967 Rain 25 1008 94 6000 8.2 80 23:55 21.12.2019
1968 Rain 25 1008 94 6000 8.2 80 23:37 21.12.2019
1969 Rain 25 1008 94 5000 7.7 80 23:18 21.12.2019
1970 Rain 25 1008 94 10000 9.8 80 22:40 21.12.2019
1971 Rain 25 1008 94 10000 9.8 80 22:40 21.12.2019
1972 Rain 25 1008 94 8000 8.7 70 22:19 21.12.2019
1973 Rain 25 1008 94 5000 9.8 70 21:57 21.12.2019
1974 Rain 25 1008 94 5000 9.8 70 21:37 21.12.2019
1975 Rain 25 1008 94 10000 10.8 70 21:19 21.12.2019
1976 Rain 25 1008 94 10000 10.3 60 20:58 21.12.2019
1977 Rain 25 1008 94 10000 10.3 60 20:58 21.12.2019
1978 Rain 25 1008 94 10000 10.3 60 20:39 21.12.2019
1979 Rain 25 1008 94 10000 9.8 70 20:21 21.12.2019
1980 Rain 25 1008 94 10000 10.8 70 19:57 21.12.2019
1981 Rain 25 1008 94 10000 10.8 70 19:39 21.12.2019
1982 Rain 25 1007 94 10000 10.8 70 19:19 21.12.2019
1983 Rain 25 1007 88 10000 11.3 80 18:42 21.12.2019
1984 Rain 25 1006 88 10000 12.3 70 18:24 21.12.2019
1985 Rain 25 1006 88 10000 11.8 70 17:57 21.12.2019
1986 Rain 25 1006 88 10000 11.8 70 17:39 21.12.2019
1987 Rain 25 1005 88 10000 14.4 70 17:20 21.12.2019
1988 Drizzle 24 1005 94 10000 14.4 80 16:57 21.12.2019
1989 Drizzle 24 1005 94 10000 14.4 80 16:57 21.12.2019
1990 Drizzle 24 1005 94 10000 14.4 80 16:39 21.12.2019
1991 Rain 24 1004 94 3300 13.9 80 16:18 21.12.2019
1992 Rain 24 1004 94 2100 13.4 80 15:56 21.12.2019
1993 Rain 24 1004 94 2100 13.4 80 15:37 21.12.2019
1994 Rain 24 1004 94 1900 13.9 80 15:18 21.12.2019
1995 Drizzle 24 1004 94 5000 11.8 80 14:43 21.12.2019
1996 Rain 24 1003 94 3300 12.9 80 14:24 21.12.2019
1997 Rain 24 1004 94 2300 10.8 80 13:58 21.12.2019
1998 Rain 24 1004 94 2300 10.8 80 13:40 21.12.2019
1999 Drizzle 24 1004 94 5000 11.3 90 13:19 21.12.2019
2000 Drizzle 24 1004 94 4300 11.8 90 12:56 21.12.2019
2001 Drizzle 24 1004 94 4300 11.8 90 12:38 21.12.2019
2002 Drizzle 24 1004 94 4300 11.8 90 12:38 21.12.2019
2003 Drizzle 24 1004 94 4300 11.8 90 12:38 21.12.2019
2004 Rain 24 1004 94 4200 9.3 100 12:20 21.12.2019
2005 Rain 24 1004 88 4100 10.3 100 11:48 21.12.2019
2006 Rain 24 1005 94 6000 10.8 100 11:27 21.12.2019
2007 Rain 24 1005 94 2700 9.3 100 10:59 21.12.2019
2008 Rain 24 1005 94 2700 9.3 100 10:40 21.12.2019
2009 Rain 24 1005 94 5000 9.8 100 10:21 21.12.2019
2010 Drizzle 24 1005 94 10000 9.8 100 09:58 21.12.2019
2011 Drizzle 24 1005 94 10000 9.8 100 09:39 21.12.2019
2012 Drizzle 24 1005 94 10000 9.8 100 09:39 21.12.2019
2013 Rain 24 1005 94 3000 7.7 100 09:19 21.12.2019
2014 Rain 24 1005 94 2900 10.3 90 08:47 21.12.2019
2015 Rain 24 1004 94 3200 11.8 90 08:27 21.12.2019
2016 Rain 24 1005 94 6000 7.2 100 07:47 21.12.2019
2017 Rain 25 1004 88 10000 7.7 110 07:23 21.12.2019
2018 Rain 25 1004 83 10000 7.7 110 06:49 21.12.2019
2019 Rain 24 1005 88 6000 6.7 100 06:31 21.12.2019
2020 Rain 25 1004 83 10000 8.2 90 05:59 21.12.2019
2021 Rain 24 1004 88 10000 6.7 100 04:59 21.12.2019
2022 Rain 24 1004 88 10000 6.7 100 04:33 21.12.2019
2023 Rain 25 1004 83 10000 6.2 110 03:56 21.12.2019
2024 Rain 26 1005 78 10000 8.7 90 02:19 21.12.2019
2025 Rain 26 1005 83 8000 7.7 90 01:41 21.12.2019
2026 Rain 26 1005 83 10000 6.2 100 01:23 21.12.2019
2027 Rain 27 1005 78 10000 6.2 100 00:39 21.12.2019
2028 Rain 26 1005 83 10000 8.7 90 00:19 21.12.2019
2029 Rain 27 1006 78 10000 8.2 100 23:38 20.12.2019
2030 Rain 27 1006 78 10000 7.2 100 23:19 20.12.2019
2031 Rain 26 1006 78 10000 6.2 120 22:57 20.12.2019
2032 Rain 26 1006 78 10000 6.2 120 22:36 20.12.2019
2033 Rain 26 1007 78 10000 5.7 120 22:18 20.12.2019
2034 Rain 26 1007 78 10000 5.7 130 21:40 20.12.2019
2035 Rain 26 1007 78 10000 5.7 130 21:20 20.12.2019
2036 Rain 26 1007 78 10000 5.1 110 20:56 20.12.2019
2037 Rain 26 1007 78 10000 5.1 110 20:36 20.12.2019
2038 Rain 25 1007 78 10000 6.7 110 20:18 20.12.2019
2039 Rain 25 1007 83 10000 7.7 100 19:42 20.12.2019
2040 Rain 25 1007 83 10000 7.2 110 19:20 20.12.2019
2041 Rain 24 1007 88 10000 7.2 100 18:58 20.12.2019
2042 Rain 24 1007 88 10000 7.2 100 18:38 20.12.2019
2043 Rain 24 1007 88 10000 5.7 100 18:20 20.12.2019
2044 Rain 23 1007 94 6000 4.6 90 17:54 20.12.2019
2045 Rain 23 1007 94 6000 4.6 90 17:36 20.12.2019
2046 Rain 23 1007 94 6000 4.6 90 17:18 20.12.2019
2047 Rain 24 1006 88 10000 4.1 100 16:40 20.12.2019
2048 Rain 24 1006 88 10000 4.1 100 16:20 20.12.2019
2049 Rain 24 1006 88 10000 4.6 100 15:57 20.12.2019
2050 Rain 24 1006 88 10000 5.7 100 15:39 20.12.2019
2051 Rain 24 1006 88 10000 5.7 100 15:19 20.12.2019
2052 Rain 24 1006 88 10000 5.1 100 14:57 20.12.2019
2053 Drizzle 24 1006 88 10000 4.6 90 14:39 20.12.2019
2054 Drizzle 24 1006 88 10000 4.6 90 14:20 20.12.2019
2055 Rain 24 1006 88 10000 4.6 90 13:41 20.12.2019
2056 Rain 24 1007 88 10000 4.1 90 13:21 20.12.2019
2057 Rain 24 1007 88 10000 3.1 100 12:59 20.12.2019
2058 Rain 24 1007 88 10000 3.1 100 12:40 20.12.2019
2059 Rain 24 1007 88 10000 3.1 100 12:19 20.12.2019
2060 Rain 24 1007 88 10000 4.1 100 11:59 20.12.2019
2061 Rain 23 1008 94 10000 5.1 90 11:39 20.12.2019
2062 Rain 23 1008 94 10000 5.1 90 11:19 20.12.2019
2063 Rain 23 1008 94 10000 4.6 90 10:58 20.12.2019
2064 Rain 24 1008 88 10000 4.1 110 10:40 20.12.2019
2065 Rain 24 1008 88 10000 4.1 110 10:20 20.12.2019
2066 Drizzle 24 1008 88 7000 4.6 100 09:55 20.12.2019
2067 Drizzle 24 1008 88 10000 3.1 110 09:36 20.12.2019
2068 Drizzle 24 1008 88 10000 3.1 110 09:18 20.12.2019
2069 Rain 24 1008 88 10000 4.1 100 08:42 20.12.2019
2070 Rain 24 1008 88 10000 5.7 100 08:22 20.12.2019
2071 Rain 24 1008 94 10000 7.2 90 07:58 20.12.2019
2072 Rain 23 1008 100 4000 6.2 90 07:39 20.12.2019
2073 Rain 23 1008 100 4000 6.2 90 07:18 20.12.2019
2074 Rain 23 1008 100 4300 6.2 90 06:49 20.12.2019
2075 Rain 24 1007 88 5000 8.2 90 06:30 20.12.2019
2076 Rain 24 1007 88 9000 7.7 100 05:49 20.12.2019
2077 Rain 24 1007 94 4300 8.2 100 05:25 20.12.2019
2078 Rain 25 1006 88 7000 7.2 100 03:50 20.12.2019
2079 Rain 25 1006 83 10000 7.7 90 03:29 20.12.2019
2080 Rain 25 1007 88 10000 8.2 90 02:38 20.12.2019
2081 Rain 25 1008 88 10000 8.2 90 01:36 20.12.2019
2082 Rain 25 1008 88 10000 8.2 90 01:36 20.12.2019
2083 Rain 24 1008 88 10000 7.2 100 00:58 20.12.2019
2084 Rain 25 1008 88 10000 7.7 90 00:39 20.12.2019
2085 Rain 24 1008 88 10000 8.2 90 23:59 19.12.2019
2086 Rain 24 1008 88 10000 7.7 100 23:40 19.12.2019
2087 Rain 24 1008 88 10000 7.7 100 23:21 19.12.2019
2088 Rain 25 1008 78 10000 8.2 90 22:40 19.12.2019
2089 Rain 25 1008 78 10000 8.2 90 22:40 19.12.2019
2090 Rain 25 1008 78 10000 8.2 90 22:22 19.12.2019
2091 Rain 25 1009 78 10000 8.7 100 21:59 19.12.2019
2092 Rain 25 1009 78 10000 8.7 100 21:41 19.12.2019
2093 Rain 25 1009 78 10000 9.8 90 21:19 19.12.2019
2094 Rain 25 1009 73 10000 7.7 100 20:58 19.12.2019
2095 Rain 25 1009 78 10000 8.2 110 20:38 19.12.2019
2096 Rain 25 1009 78 10000 8.2 110 20:20 19.12.2019
2097 Rain 25 1009 78 10000 8.2 110 20:20 19.12.2019
2098 Rain 25 1009 73 10000 8.2 100 19:58 19.12.2019
2099 Rain 25 1008 78 10000 9.8 100 19:40 19.12.2019
2100 Rain 25 1008 78 10000 9.8 100 19:40 19.12.2019
2101 Rain 25 1008 78 10000 9.8 100 19:19 19.12.2019
2102 Rain 25 1008 78 10000 9.8 100 19:19 19.12.2019
2103 Rain 25 1008 78 10000 9.8 100 19:19 19.12.2019
2104 Rain 25 1009 73 10000 8.2 100 18:58 19.12.2019
2105 Rain 24 1008 83 10000 8.2 100 18:40 19.12.2019
2106 Rain 24 1008 83 10000 8.2 100 18:19 19.12.2019
2107 Rain 24 1008 83 10000 8.2 100 17:56 19.12.2019
2108 Rain 24 1008 83 6000 7.7 100 17:37 19.12.2019
2109 Rain 24 1008 83 6000 7.7 100 17:18 19.12.2019
2110 Rain 24 1008 83 6000 7.7 100 17:18 19.12.2019
2111 Rain 25 1008 78 10000 7.7 100 16:56 19.12.2019
2112 Drizzle 25 1008 73 10000 6.2 100 16:37 19.12.2019
2113 Drizzle 25 1008 73 10000 6.2 100 16:19 19.12.2019
2114 Rain 25 1007 73 10000 7.7 100 15:56 19.12.2019
2115 Rain 25 1008 73 10000 8.7 110 15:37 19.12.2019
2116 Rain 25 1008 73 10000 8.7 110 15:19 19.12.2019
2117 Rain 25 1008 73 10000 8.7 110 15:19 19.12.2019
2118 Rain 24 1008 83 10000 6.7 110 14:43 19.12.2019
2119 Rain 24 1008 83 10000 8.2 100 14:20 19.12.2019
2120 Rain 24 1008 83 10000 8.2 110 13:59 19.12.2019
2121 Rain 24 1008 88 8000 6.7 100 13:38 19.12.2019
2122 Rain 24 1008 88 8000 6.7 100 13:19 19.12.2019
2123 Rain 23 1009 94 1700 6.2 100 12:57 19.12.2019
2124 Rain 24 1009 88 8000 7.2 100 12:39 19.12.2019
2125 Rain 24 1009 88 8000 7.2 100 12:19 19.12.2019
2126 Rain 25 1010 78 10000 8.2 110 11:58 19.12.2019
2127 Rain 25 1010 78 10000 7.2 110 11:40 19.12.2019
2128 Rain 25 1010 78 10000 7.2 110 11:18 19.12.2019
2129 Rain 24 1010 83 7000 6.7 110 10:57 19.12.2019
2130 Rain 25 1010 78 10000 5.7 110 10:38 19.12.2019
2131 Rain 25 1010 78 10000 5.7 110 10:19 19.12.2019
2132 Rain 25 1010 83 6000 5.1 110 09:54 19.12.2019
2133 Rain 25 1010 78 10000 6.2 110 09:36 19.12.2019
2134 Rain 25 1010 78 10000 6.2 110 09:18 19.12.2019
2135 Rain 25 1010 78 10000 6.2 110 08:41 19.12.2019
2136 Rain 25 1010 78 10000 6.2 110 08:19 19.12.2019
2137 Rain 25 1010 78 10000 6.7 100 07:57 19.12.2019
2138 Rain 25 1010 78 10000 6.2 100 07:38 19.12.2019
2139 Rain 25 1010 78 10000 6.2 100 07:19 19.12.2019
2140 Rain 25 1009 83 10000 5.7 100 06:49 19.12.2019
2141 Rain 24 1009 83 10000 6.7 100 06:29 19.12.2019
2142 Haze 24 1009 88 1900 6.7 90 05:55 19.12.2019
2143 Rain 24 1009 88 10000 6.7 110 05:34 19.12.2019
2144 Drizzle 24 1009 88 5000 6.2 100 04:51 19.12.2019
2145 Clouds 26 1008 74 10000 7.2 100 02:54 19.12.2019
2146 Clouds 26 1009 74 10000 7.7 100 01:51 19.12.2019
2147 Clouds 26 1009 74 10000 7.2 100 01:22 19.12.2019
2148 Clouds 26 1009 74 10000 6.2 100 00:41 19.12.2019
2149 Clouds 26 1009 74 10000 6.2 100 00:22 19.12.2019
2150 Clouds 26 1010 78 10000 6.7 90 23:56 18.12.2019
2151 Clouds 26 1010 74 10000 6.7 110 23:38 18.12.2019
2152 Clouds 26 1010 74 10000 6.7 110 23:18 18.12.2019
2153 Clouds 26 1010 74 10000 7.2 100 22:55 18.12.2019
2154 Clouds 26 1010 74 10000 7.7 110 22:36 18.12.2019
2155 Clouds 26 1010 74 10000 7.7 110 22:18 18.12.2019
2156 Clouds 26 1010 74 10000 5.7 100 21:55 18.12.2019
2157 Clouds 26 1010 74 10000 4.6 100 21:36 18.12.2019
2158 Clouds 26 1010 74 10000 4.6 100 21:36 18.12.2019
2159 Clouds 26 1010 74 10000 4.6 100 21:18 18.12.2019
2160 Clouds 25 1011 78 10000 6.7 100 20:54 18.12.2019
2161 Clouds 25 1011 78 10000 7.7 100 20:36 18.12.2019
2162 Clouds 25 1011 78 10000 7.7 100 20:18 18.12.2019
2163 Clouds 25 1011 78 10000 6.7 90 19:54 18.12.2019
2164 Clouds 25 1011 78 10000 6.7 90 19:54 18.12.2019
2165 Clouds 25 1011 78 10000 7.2 90 19:36 18.12.2019
2166 Clouds 25 1011 78 10000 7.2 90 19:18 18.12.2019
2167 Clouds 25 1010 73 10000 6.7 100 18:43 18.12.2019
2168 Clouds 25 1010 73 10000 6.2 100 18:25 18.12.2019
2169 Clouds 25 1010 73 10000 5.7 100 17:56 18.12.2019
2170 Clouds 25 1010 73 10000 5.1 110 17:38 18.12.2019
2171 Clouds 25 1010 73 10000 5.1 110 17:38 18.12.2019
2172 Rain 25 1010 73 10000 5.1 110 17:19 18.12.2019
2173 Rain 25 1009 78 10000 5.7 110 16:43 18.12.2019
2174 Rain 25 1009 78 10000 5.7 100 16:24 18.12.2019
2175 Rain 25 1010 78 10000 4.1 110 15:59 18.12.2019
2176 Rain 25 1010 78 10000 4.1 110 15:40 18.12.2019
2177 Rain 25 1010 78 10000 7.2 100 15:21 18.12.2019
2178 Rain 25 1010 78 10000 6.2 100 14:58 18.12.2019
2179 Rain 25 1010 78 10000 6.2 100 14:40 18.12.2019
2180 Clouds 25 1010 78 10000 5.7 100 14:19 18.12.2019
2181 Clouds 25 1010 78 10000 6.2 90 13:56 18.12.2019
2182 Clouds 25 1010 78 10000 6.2 90 13:56 18.12.2019
2183 Clouds 25 1010 78 10000 6.2 90 13:37 18.12.2019
2184 Clouds 24 1011 83 10000 6.2 90 13:19 18.12.2019
2185 Rain 25 1011 78 10000 7.2 90 12:55 18.12.2019
2186 Rain 25 1011 78 10000 7.2 90 12:54 18.12.2019
2187 Rain 25 1011 78 10000 7.2 90 12:36 18.12.2019
2188 Rain 25 1011 78 10000 7.7 90 12:18 18.12.2019
2189 Rain 25 1012 73 10000 8.7 80 11:54 18.12.2019
2190 Rain 25 1012 78 10000 7.7 90 11:36 18.12.2019
2191 Clouds 25 1012 78 10000 7.7 90 11:18 18.12.2019
2192 Clouds 26 1012 69 10000 8.2 90 10:54 18.12.2019
2193 Clouds 26 1012 69 10000 8.2 90 10:54 18.12.2019
2194 Clouds 25 1012 78 10000 7.2 90 10:36 18.12.2019
2195 Clouds 25 1012 78 10000 7.2 90 10:18 18.12.2019
2196 Clouds 25 1011 78 10000 9.3 90 09:21 18.12.2019
2197 Clouds 25 1011 83 10000 7.2 90 08:57 18.12.2019
2198 Clouds 25 1011 83 10000 7.2 90 08:57 18.12.2019
2199 Clouds 25 1011 83 10000 7.2 90 08:57 18.12.2019
2200 Clouds 25 1011 83 10000 7.2 90 08:39 18.12.2019
2201 Rain 25 1011 83 10000 5.7 90 08:20 18.12.2019
2202 Rain 25 1011 83 10000 6.7 90 07:42 18.12.2019
2203 Rain 25 1011 83 10000 5.1 90 07:21 18.12.2019
2204 Rain 25 1011 83 10000 6.7 90 06:53 18.12.2019
2205 Rain 25 1010 83 10000 6.2 100 06:26 18.12.2019
2206 Rain 26 1010 78 10000 7.2 90 05:39 18.12.2019
2207 Rain 26 1010 78 10000 6.2 90 04:35 18.12.2019
2208 Rain 27 1010 74 10000 8.2 90 02:50 18.12.2019
2209 Rain 27 1010 74 10000 8.2 100 02:30 18.12.2019
2210 Rain 27 1010 74 10000 8.7 100 01:46 18.12.2019
2211 Rain 27 1011 74 10000 7.2 100 01:27 18.12.2019
2212 Rain 27 1011 74 10000 7.2 90 00:59 18.12.2019
2213 Rain 27 1011 74 10000 7.2 90 00:39 18.12.2019
2214 Rain 27 1011 74 10000 7.2 100 00:21 18.12.2019
2215 Rain 27 1011 74 10000 7.2 100 23:43 17.12.2019
2216 Rain 27 1011 74 10000 7.2 100 23:43 17.12.2019
2217 Rain 27 1012 74 10000 7.2 90 23:24 17.12.2019
2218 Rain 27 1012 74 10000 7.2 90 22:57 17.12.2019
2219 Rain 27 1012 74 10000 7.2 90 22:39 17.12.2019
2220 Rain 26 1012 78 10000 8.2 90 22:20 17.12.2019
2221 Rain 27 1012 74 10000 8.2 90 21:57 17.12.2019
2222 Rain 27 1012 74 10000 8.2 90 21:39 17.12.2019
2223 Rain 26 1012 78 10000 6.7 90 21:20 17.12.2019
2224 Rain 26 1012 78 10000 6.7 90 21:20 17.12.2019
2225 Rain 26 1012 78 10000 6.7 90 21:20 17.12.2019
2226 Rain 26 1012 78 10000 8.7 80 20:59 17.12.2019
2227 Rain 26 1012 78 10000 8.7 80 20:40 17.12.2019
2228 Rain 26 1012 78 10000 7.7 90 20:19 17.12.2019
2229 Rain 26 1012 78 10000 7.7 90 19:57 17.12.2019
2230 Rain 26 1012 78 10000 7.7 90 19:39 17.12.2019
2231 Rain 26 1012 78 10000 7.7 90 19:19 17.12.2019
2232 Rain 25 1012 78 10000 7.7 90 18:57 17.12.2019
2233 Rain 25 1012 78 10000 7.7 90 18:38 17.12.2019
2234 Rain 25 1011 83 10000 8.2 90 18:20 17.12.2019
2235 Rain 25 1011 83 10000 7.7 90 17:55 17.12.2019
2236 Rain 24 1011 88 10000 7.2 90 17:36 17.12.2019
2237 Rain 24 1011 88 10000 7.2 90 17:18 17.12.2019
2238 Rain 24 1010 88 10000 6.2 90 16:54 17.12.2019
2239 Rain 24 1010 88 10000 6.2 90 16:36 17.12.2019
2240 Rain 23 1010 94 4600 5.1 90 16:18 17.12.2019
2241 Rain 23 1011 94 10000 7.2 70 15:38 17.12.2019
2242 Rain 24 1010 88 10000 4.6 100 15:19 17.12.2019
2243 Rain 24 1011 88 10000 4.1 100 14:56 17.12.2019
2244 Rain 24 1011 88 10000 4.1 100 14:38 17.12.2019
2245 Rain 23 1011 88 10000 5.7 90 14:19 17.12.2019
2246 Rain 25 1011 78 10000 5.1 90 13:56 17.12.2019
2247 Rain 25 1011 78 10000 5.1 90 13:38 17.12.2019
2248 Rain 25 1011 78 10000 5.1 100 13:19 17.12.2019
2249 Rain 25 1012 78 10000 6.2 90 12:56 17.12.2019
2250 Rain 25 1012 78 10000 6.2 90 12:37 17.12.2019
2251 Rain 24 1012 83 10000 5.7 90 12:18 17.12.2019
2252 Rain 25 1012 78 10000 5.7 100 11:55 17.12.2019
2253 Rain 25 1013 78 10000 6.2 90 11:36 17.12.2019
2254 Rain 25 1013 78 10000 6.2 90 11:18 17.12.2019
2255 Rain 25 1013 78 10000 5.7 100 10:54 17.12.2019
2256 Rain 25 1013 78 10000 5.7 100 10:36 17.12.2019
2257 Rain 25 1013 78 10000 5.7 100 10:18 17.12.2019
2258 Rain 25 1013 73 10000 6.7 100 09:42 17.12.2019
2259 Rain 25 1013 78 10000 6.2 100 09:21 17.12.2019
2260 Rain 25 1013 78 10000 6.2 100 09:21 17.12.2019
2261 Rain 25 1013 78 10000 6.2 100 08:57 17.12.2019
2262 Rain 25 1013 78 10000 6.2 100 08:38 17.12.2019
2263 Rain 25 1013 78 10000 6.2 100 08:38 17.12.2019
2264 Rain 25 1013 78 10000 6.2 100 08:38 17.12.2019
2265 Clouds 25 1013 78 10000 5.1 100 08:20 17.12.2019
2266 Rain 24 1013 83 10000 5.1 90 07:55 17.12.2019
2267 Rain 24 1013 83 10000 5.1 90 07:36 17.12.2019
2268 Rain 24 1012 83 10000 5.7 90 07:18 17.12.2019
2269 Rain 25 1012 73 10000 4.6 100 06:35 17.12.2019
2270 Rain 26 1011 69 10000 5.1 110 05:56 17.12.2019
2271 Rain 26 1012 69 10000 5.1 110 05:36 17.12.2019
2272 Rain 26 1011 69 10000 6.2 90 04:33 17.12.2019
2273 Rain 26 1011 69 10000 8.2 90 02:45 17.12.2019
2274 Rain 27 1012 65 10000 7.2 110 01:56 17.12.2019
2275 Clear 27 1012 65 10000 5.7 110 01:18 17.12.2019
2276 Clear 27 1012 65 10000 5.1 100 00:38 17.12.2019
2277 Clear 27 1012 69 10000 8.2 80 00:19 17.12.2019
2278 Clear 27 1012 65 10000 8.2 90 23:42 16.12.2019
2279 Rain 26 1013 74 10000 8.2 80 23:19 16.12.2019
2280 Rain 26 1013 74 10000 8.2 80 23:19 16.12.2019
2281 Rain 26 1013 74 10000 8.2 80 23:19 16.12.2019
2282 Rain 26 1013 74 10000 8.2 80 23:19 16.12.2019
2283 Rain 26 1013 74 10000 6.7 90 22:56 16.12.2019
2284 Rain 26 1013 74 10000 6.7 90 22:37 16.12.2019
2285 Rain 26 1013 69 10000 6.2 100 22:19 16.12.2019
2286 Rain 26 1013 69 10000 6.2 100 22:19 16.12.2019
2287 Rain 26 1013 69 10000 6.2 100 22:19 16.12.2019
2288 Rain 26 1013 69 10000 5.7 90 21:55 16.12.2019
2289 Rain 26 1013 69 10000 5.7 90 21:55 16.12.2019
2290 Rain 26 1013 69 10000 5.7 90 21:37 16.12.2019
2291 Rain 26 1013 69 10000 6.7 100 21:19 16.12.2019
2292 Rain 25 1013 73 10000 6.2 90 20:57 16.12.2019
2293 Rain 25 1013 73 10000 6.2 90 20:37 16.12.2019
2294 Clouds 25 1013 78 10000 4.6 100 20:19 16.12.2019
2295 Clouds 25 1013 73 10000 5.7 100 19:55 16.12.2019
2296 Clouds 25 1013 73 10000 5.7 100 19:37 16.12.2019
2297 Clouds 25 1013 73 10000 5.1 110 19:18 16.12.2019
2298 Clouds 25 1013 73 10000 3.6 100 18:56 16.12.2019
2299 Clouds 25 1012 73 10000 5.7 100 18:37 16.12.2019
2300 Clouds 25 1012 73 10000 5.7 100 18:19 16.12.2019
2301 Clouds 25 1012 73 10000 5.7 100 18:19 16.12.2019
2302 Clouds 24 1012 78 10000 4.6 90 17:57 16.12.2019
2303 Clouds 24 1012 73 10000 4.1 100 17:37 16.12.2019
2304 Clouds 24 1012 73 10000 4.1 100 17:19 16.12.2019
2305 Clouds 24 1011 73 10000 3.6 100 16:55 16.12.2019
2306 Clouds 24 1011 73 10000 3.6 100 16:37 16.12.2019
2307 Clouds 24 1011 73 10000 3.6 100 16:37 16.12.2019
2308 Clouds 24 1011 78 10000 4.6 90 16:18 16.12.2019
2309 Clouds 24 1011 73 10000 4.1 100 15:55 16.12.2019
2310 Clouds 24 1011 73 10000 4.1 100 15:37 16.12.2019
2311 Clouds 24 1011 78 10000 3.6 100 15:19 16.12.2019
2312 Clouds 24 1011 73 10000 3.6 100 14:54 16.12.2019
2313 Clouds 24 1011 73 10000 3.6 100 14:36 16.12.2019
2314 Clouds 24 1012 73 10000 4.1 90 14:18 16.12.2019
2315 Clouds 24 1012 73 10000 6.2 90 13:38 16.12.2019
2316 Clouds 24 1012 78 10000 4.1 90 13:20 16.12.2019
2317 Clouds 25 1013 73 10000 4.1 100 12:59 16.12.2019
2318 Clouds 25 1013 73 10000 4.1 100 12:41 16.12.2019
2319 Clouds 25 1013 69 10000 4.1 90 12:20 16.12.2019
2320 Clouds 25 1013 69 10000 4.6 90 11:59 16.12.2019
2321 Clouds 25 1013 69 10000 4.6 90 11:41 16.12.2019
2322 Clouds 25 1013 69 10000 5.7 90 11:22 16.12.2019
2323 Clouds 25 1013 69 10000 5.7 90 10:59 16.12.2019
2324 Clouds 25 1013 69 10000 5.7 90 10:40 16.12.2019
2325 Clouds 25 1013 69 10000 4.1 90 10:21 16.12.2019
2326 Clouds 25 1013 73 10000 4.1 100 09:47 16.12.2019
2327 Clouds 25 1013 69 10000 4.6 90 09:29 16.12.2019
2328 Clouds 25 1013 69 10000 4.1 100 08:58 16.12.2019
2329 Clouds 25 1013 69 10000 4.1 100 08:38 16.12.2019
2330 Clear 25 1013 69 10000 3.1 100 08:19 16.12.2019
2331 Clear 25 1012 69 10000 4.6 110 07:49 16.12.2019
2332 Clear 25 1012 69 10000 4.6 100 07:30 16.12.2019
2333 Clear 25 1012 69 10000 4.1 100 06:46 16.12.2019
2334 Clear 25 1012 69 10000 5.1 90 06:26 16.12.2019
2335 Clear 25 1011 73 10000 5.7 90 05:54 16.12.2019
2336 Clear 26 1011 69 10000 5.1 110 05:35 16.12.2019
2337 Clear 26 1011 69 10000 4.6 90 04:33 16.12.2019
2338 Clear 27 1011 65 10000 8.2 80 02:49 16.12.2019
2339 Clouds 27 1011 69 10000 9.3 80 01:45 16.12.2019
2340 Clear 27 1012 69 10000 7.2 90 00:54 16.12.2019
2341 Clear 27 1012 65 10000 7.2 90 00:36 16.12.2019
2342 Clear 27 1012 65 10000 7.2 90 00:18 16.12.2019
2343 Clear 26 1012 69 10000 8.2 90 23:40 15.12.2019
2344 Clouds 26 1012 69 10000 7.2 90 23:21 15.12.2019
2345 Clouds 27 1012 69 10000 7.2 90 22:56 15.12.2019
2346 Clouds 27 1012 69 10000 7.2 90 22:37 15.12.2019
2347 Clouds 26 1012 69 10000 6.7 90 22:18 15.12.2019
2348 Clouds 26 1013 69 10000 5.7 110 21:56 15.12.2019
2349 Clouds 26 1013 69 10000 5.7 110 21:38 15.12.2019
2350 Clouds 26 1013 65 10000 5.1 110 21:19 15.12.2019
2351 Clouds 25 1013 69 10000 6.2 90 20:56 15.12.2019
2352 Clouds 25 1013 69 10000 6.2 90 20:37 15.12.2019
2353 Clear 25 1013 69 10000 5.1 100 20:19 15.12.2019
2354 Clear 26 1013 65 10000 5.1 110 19:57 15.12.2019
2355 Clear 26 1013 65 10000 5.1 110 19:57 15.12.2019
2356 Clear 26 1013 65 10000 5.1 110 19:38 15.12.2019
2357 Clouds 25 1013 69 10000 6.7 100 19:18 15.12.2019
2358 Clouds 25 1012 65 10000 5.7 100 18:55 15.12.2019
2359 Clouds 24 1012 69 10000 6.2 100 18:37 15.12.2019
2360 Clouds 24 1012 69 10000 6.2 100 18:18 15.12.2019
2361 Clouds 24 1012 73 10000 6.7 100 17:56 15.12.2019
2362 Clear 24 1011 73 10000 4.6 100 17:36 15.12.2019
2363 Clear 24 1011 73 10000 4.6 100 17:18 15.12.2019
2364 Clear 24 1011 73 10000 4.6 100 17:18 15.12.2019
2365 Clear 24 1011 69 10000 5.7 100 16:43 15.12.2019
2366 Clear 24 1011 73 10000 5.1 100 16:23 15.12.2019
2367 Clear 24 1011 73 10000 5.1 100 15:57 15.12.2019
2368 Clear 24 1011 73 10000 5.1 100 15:39 15.12.2019
2369 Clear 24 1011 69 10000 4.6 100 15:20 15.12.2019
2370 Clear 24 1011 69 10000 3.6 100 14:56 15.12.2019
2371 Clear 24 1011 69 10000 3.6 100 14:38 15.12.2019
2372 Clear 24 1011 69 10000 3.6 100 14:38 15.12.2019
2373 Clear 24 1011 69 10000 5.7 90 14:19 15.12.2019
2374 Clear 24 1011 73 10000 5.1 100 13:59 15.12.2019
2375 Clear 24 1011 73 10000 5.1 100 13:39 15.12.2019
2376 Clear 24 1012 73 10000 5.1 90 13:20 15.12.2019
2377 Clear 24 1012 73 10000 4.1 100 12:57 15.12.2019
2378 Clear 24 1012 73 10000 4.1 100 12:57 15.12.2019
2379 Clear 24 1012 73 10000 4.1 100 12:39 15.12.2019
2380 Clear 24 1012 73 10000 4.1 100 12:39 15.12.2019
2381 Clear 24 1012 73 10000 4.6 100 12:21 15.12.2019
2382 Clear 24 1013 73 10000 5.1 100 11:59 15.12.2019
2383 Clear 25 1013 69 10000 5.1 90 11:37 15.12.2019
2384 Clear 25 1013 69 10000 5.1 90 11:19 15.12.2019
2385 Clear 25 1013 69 10000 5.1 90 11:19 15.12.2019
2386 Clear 25 1013 69 10000 4.6 90 10:55 15.12.2019
2387 Clear 25 1013 69 10000 4.6 90 10:37 15.12.2019
2388 Clear 25 1013 69 10000 4.1 100 10:19 15.12.2019
2389 Clear 25 1013 69 10000 3.6 100 09:41 15.12.2019
2390 Clear 24 1013 73 10000 5.1 90 09:20 15.12.2019
2391 Clear 25 1012 69 10000 3.6 100 08:59 15.12.2019
2392 Clear 25 1012 69 10000 3.6 100 08:41 15.12.2019
2393 Clouds 25 1012 69 10000 3.6 100 08:22 15.12.2019
2394 Clouds 25 1012 69 10000 4.1 100 07:56 15.12.2019
2395 Clouds 25 1012 65 10000 4.6 100 07:35 15.12.2019
2396 Clouds 25 1012 69 10000 4.6 90 06:52 15.12.2019
2397 Clouds 25 1011 69 10000 5.7 90 06:20 15.12.2019
2398 Clouds 26 1011 61 10000 7.2 90 05:28 15.12.2019
2399 Clouds 26 1010 65 10000 7.7 80 04:47 15.12.2019
2400 Clouds 26 1010 74 10000 9.3 80 03:31 15.12.2019
2401 Clouds 27 1010 65 10000 9.8 80 02:34 15.12.2019
2402 Clouds 27 1011 65 10000 8.7 80 01:47 15.12.2019
2403 Clouds 27 1011 65 10000 8.2 90 01:28 15.12.2019
2404 Clouds 27 1012 65 10000 6.2 90 00:58 15.12.2019
2405 Clouds 27 1012 65 10000 6.2 90 00:40 15.12.2019
2406 Clouds 26 1012 69 10000 5.7 100 00:21 15.12.2019
2407 Clouds 26 1011 65 10000 6.2 100 23:40 14.12.2019
2408 Clouds 28 1012 65 10000 6.2 90 23:21 14.12.2019
2409 Clouds 26 1012 65 10000 5.1 90 22:58 14.12.2019
2410 Clouds 26 1012 65 10000 5.1 90 22:40 14.12.2019
2411 Clouds 26 1012 65 10000 9.3 80 22:20 14.12.2019
2412 Clouds 26 1012 65 10000 8.7 80 21:56 14.12.2019
2413 Clouds 26 1012 65 10000 8.7 80 21:37 14.12.2019
2414 Clouds 26 1013 69 10000 6.7 90 21:18 14.12.2019
2415 Clouds 25 1013 69 10000 4.6 110 20:55 14.12.2019
2416 Clouds 25 1013 69 10000 4.6 110 20:37 14.12.2019
2417 Rain 26 1012 69 10000 4.6 90 20:19 14.12.2019
2418 Rain 25 1012 73 10000 6.7 90 19:40 14.12.2019
2419 Rain 25 1012 73 10000 6.7 90 19:40 14.12.2019
2420 Rain 25 1012 73 10000 5.1 100 19:21 14.12.2019
2421 Rain 25 1012 73 10000 7.2 90 18:58 14.12.2019
2422 Rain 25 1012 73 10000 7.2 90 18:39 14.12.2019
2423 Rain 25 1012 73 10000 5.1 90 18:21 14.12.2019
2424 Rain 25 1013 73 10000 4.6 90 17:59 14.12.2019
2425 Rain 25 1013 73 10000 4.6 90 17:41 14.12.2019
2426 Clouds 25 1012 73 10000 7.2 80 17:22 14.12.2019
2427 Clouds 24 1011 73 10000 6.2 90 16:42 14.12.2019
2428 Clouds 24 1011 73 10000 6.7 90 16:19 14.12.2019
2429 Clouds 25 1011 69 10000 4.6 90 15:57 14.12.2019
2430 Clouds 25 1011 69 10000 4.6 90 15:38 14.12.2019
2431 Clouds 25 1011 69 10000 4.6 90 15:19 14.12.2019
2432 Clouds 25 1011 69 10000 5.7 90 14:57 14.12.2019
2433 Clouds 25 1011 69 10000 5.7 90 14:37 14.12.2019
2434 Clouds 25 1011 69 10000 5.7 90 14:18 14.12.2019
2435 Clouds 25 1011 69 10000 5.7 100 13:44 14.12.2019
2436 Clouds 25 1011 69 10000 6.7 80 13:19 14.12.2019
2437 Clouds 24 1012 73 10000 5.1 90 12:58 14.12.2019
2438 Clouds 24 1012 73 10000 5.1 90 12:39 14.12.2019
2439 Clouds 25 1012 69 10000 5.1 100 12:20 14.12.2019
2440 Clouds 25 1012 69 10000 4.1 90 11:58 14.12.2019
2441 Clouds 25 1013 69 10000 4.6 100 11:39 14.12.2019
2442 Rain 25 1013 69 10000 4.6 100 11:19 14.12.2019
2443 Rain 25 1013 69 10000 4.1 100 10:56 14.12.2019
2444 Rain 25 1013 69 10000 4.1 100 10:56 14.12.2019
2445 Rain 25 1013 69 10000 4.1 100 10:38 14.12.2019
2446 Rain 25 1013 69 10000 5.7 90 10:19 14.12.2019
2447 Rain 25 1013 69 10000 5.1 90 09:43 14.12.2019
2448 Rain 25 1014 69 10000 4.1 100 09:23 14.12.2019
2449 Rain 25 1013 69 10000 4.6 90 08:57 14.12.2019
2450 Rain 25 1013 69 10000 4.6 90 08:57 14.12.2019
2451 Rain 25 1013 69 10000 4.6 90 08:38 14.12.2019
2452 Rain 25 1013 69 10000 4.6 90 08:38 14.12.2019
2453 Clouds 25 1013 73 10000 3.6 100 08:19 14.12.2019
2454 Clouds 25 1013 69 10000 5.1 90 07:40 14.12.2019
2455 Clouds 25 1013 73 10000 4.6 100 07:21 14.12.2019
2456 Clouds 25 1013 73 10000 4.1 90 06:48 14.12.2019
2457 Clouds 25 1013 73 10000 5.1 100 06:30 14.12.2019
2458 Clouds 25 1012 69 10000 4.6 90 05:50 14.12.2019
2459 Clouds 25 1012 69 10000 3.6 100 03:44 14.12.2019
2460 Clouds 26 1012 65 10000 7.2 80 02:24 14.12.2019
2461 Clouds 26 1012 69 10000 6.7 80 01:44 14.12.2019
2462 Clouds 26 1012 65 10000 7.7 90 01:20 14.12.2019
2463 Clouds 27 1012 65 10000 7.7 80 00:41 14.12.2019
2464 Clouds 27 1012 65 10000 7.2 80 00:20 14.12.2019
2465 Clouds 27 1012 65 10000 7.2 90 23:41 13.12.2019
2466 Clouds 27 1013 65 10000 7.2 90 23:19 13.12.2019
2467 Clouds 27 1013 65 10000 8.2 80 22:56 13.12.2019
2468 Clouds 27 1013 65 10000 8.2 80 22:37 13.12.2019
2469 Clouds 27 1013 65 10000 6.7 80 22:18 13.12.2019
2470 Clouds 26 1013 61 10000 8.2 80 21:44 13.12.2019
2471 Clouds 26 1014 65 10000 7.2 90 21:22 13.12.2019
2472 Clouds 26 1014 65 10000 5.7 90 20:59 13.12.2019
2473 Clouds 26 1014 65 10000 5.7 90 20:39 13.12.2019
2474 Rain 26 1014 65 10000 5.7 90 20:20 13.12.2019
2475 Rain 26 1014 65 10000 5.7 90 19:56 13.12.2019
2476 Rain 25 1014 69 10000 5.1 100 19:38 13.12.2019
2477 Rain 25 1014 69 10000 5.1 100 19:19 13.12.2019
2478 Rain 24 1014 73 10000 4.1 100 18:42 13.12.2019
2479 Rain 24 1014 73 10000 4.1 100 18:20 13.12.2019
2480 Rain 24 1013 73 10000 4.1 90 18:00 13.12.2019
2481 Rain 24 1013 73 10000 5.1 90 17:39 13.12.2019
2482 Clouds 24 1013 73 10000 5.1 90 17:18 13.12.2019
2483 Clouds 24 1013 73 10000 5.1 90 17:18 13.12.2019
2484 Clouds 24 1013 73 10000 4.1 100 16:56 13.12.2019
2485 Clouds 24 1013 73 10000 4.6 100 16:38 13.12.2019
2486 Clouds 24 1013 73 10000 4.6 100 16:38 13.12.2019
2487 Clouds 24 1013 73 10000 4.6 100 16:20 13.12.2019
2488 Clouds 24 1013 73 10000 3.1 100 15:42 13.12.2019
2489 Clouds 24 1013 73 10000 3.1 100 15:42 13.12.2019
2490 Clouds 24 1012 73 10000 4.1 100 15:21 13.12.2019
2491 Clouds 24 1012 73 10000 5.1 100 14:57 13.12.2019
2492 Clouds 24 1012 73 10000 4.6 90 14:37 13.12.2019
2493 Clouds 24 1012 73 10000 4.6 90 14:19 13.12.2019
2494 Clouds 24 1012 73 10000 5.1 90 13:43 13.12.2019
2495 Clouds 24 1013 73 10000 5.1 90 13:24 13.12.2019
2496 Clouds 24 1013 73 10000 5.1 90 13:24 13.12.2019
2497 Clouds 24 1013 73 10000 4.1 90 12:57 13.12.2019
2498 Clouds 25 1014 69 10000 4.6 90 12:39 13.12.2019
2499 Clouds 25 1014 69 10000 4.6 90 12:18 13.12.2019
2500 Clouds 24 1014 73 10000 5.1 90 11:43 13.12.2019
2501 Clouds 24 1014 73 10000 5.1 90 11:24 13.12.2019
2502 Clouds 25 1014 65 10000 5.1 100 10:56 13.12.2019
2503 Clouds 25 1014 69 10000 5.7 90 10:38 13.12.2019
2504 Clouds 25 1014 69 10000 5.7 90 10:19 13.12.2019
2505 Clouds 25 1014 69 10000 5.1 90 09:42 13.12.2019
2506 Clouds 25 1014 69 10000 5.1 90 09:21 13.12.2019
2507 Clouds 25 1014 69 10000 5.7 90 08:45 13.12.2019
2508 Clouds 25 1014 69 10000 5.1 100 08:26 13.12.2019
2509 Clouds 25 1014 69 10000 5.7 90 07:48 13.12.2019
2510 Clouds 25 1014 69 10000 6.2 90 07:25 13.12.2019
2511 Clouds 25 1013 73 10000 7.2 90 06:57 13.12.2019
2512 Clouds 25 1013 69 10000 6.2 90 06:29 13.12.2019
2513 Clouds 25 1013 73 10000 6.7 90 05:51 13.12.2019
2514 Clouds 25 1012 73 10000 7.7 90 05:30 13.12.2019
2515 Clouds 26 1012 74 10000 7.2 90 04:48 13.12.2019
2516 Clouds 26 1012 78 10000 8.2 90 03:49 13.12.2019
2517 Clouds 27 1012 74 10000 9.3 80 02:35 13.12.2019
2518 Rain 27 1012 74 10000 10.3 80 01:49 13.12.2019
2519 Rain 27 1012 78 10000 10.3 70 01:19 13.12.2019
2520 Rain 26 1012 78 10000 10.8 80 00:45 13.12.2019
2521 Rain 28 1013 74 10000 10.8 70 00:22 13.12.2019
2522 Rain 26 1013 78 10000 10.3 70 23:40 12.12.2019
2523 Rain 26 1013 78 10000 10.3 70 23:22 12.12.2019
2524 Rain 26 1013 83 10000 9.8 70 22:56 12.12.2019
2525 Rain 26 1013 83 10000 9.8 80 22:37 12.12.2019
2526 Rain 26 1013 83 10000 9.8 80 22:19 12.12.2019
2527 Rain 26 1013 83 10000 7.2 80 21:55 12.12.2019
2528 Rain 26 1014 83 10000 7.2 80 21:36 12.12.2019
2529 Rain 26 1014 83 10000 7.2 80 21:36 12.12.2019
2530 Rain 26 1014 83 10000 7.2 80 21:18 12.12.2019
2531 Rain 26 1014 83 10000 5.1 90 20:55 12.12.2019
2532 Rain 26 1014 83 10000 4.1 100 20:37 12.12.2019
2533 Rain 26 1014 83 10000 4.1 100 20:19 12.12.2019
2534 Rain 25 1013 88 10000 9.3 80 19:42 12.12.2019
2535 Rain 25 1013 88 10000 9.3 80 19:23 12.12.2019
2536 Rain 25 1013 88 10000 8.2 80 18:58 12.12.2019
2537 Rain 25 1013 83 10000 6.2 90 18:40 12.12.2019
2538 Rain 25 1013 83 10000 6.2 90 18:21 12.12.2019
2539 Rain 25 1013 88 10000 5.7 90 17:58 12.12.2019
2540 Rain 25 1012 88 10000 5.1 90 17:40 12.12.2019
2541 Rain 25 1012 88 10000 5.1 90 17:21 12.12.2019
2542 Rain 25 1012 88 10000 6.2 80 16:58 12.12.2019
2543 Rain 25 1012 88 10000 6.7 90 16:39 12.12.2019
2544 Rain 25 1012 88 10000 6.7 90 16:20 12.12.2019
2545 Rain 25 1012 88 10000 7.2 80 15:56 12.12.2019
2546 Rain 25 1012 88 10000 7.2 80 15:56 12.12.2019
2547 Rain 25 1012 83 10000 6.7 80 15:38 12.12.2019
2548 Rain 25 1012 83 10000 6.7 80 15:18 12.12.2019
2549 Rain 25 1012 88 10000 6.2 80 14:38 12.12.2019
2550 Rain 25 1012 88 10000 6.2 80 14:38 12.12.2019
2551 Clouds 25 1012 88 10000 6.2 80 14:20 12.12.2019
2552 Rain 25 1012 88 10000 6.7 80 13:58 12.12.2019
2553 Clouds 25 1013 88 10000 5.7 80 13:40 12.12.2019
2554 Rain 25 1013 88 10000 5.7 80 13:21 12.12.2019
2555 Rain 25 1013 88 10000 5.1 80 12:59 12.12.2019
2556 Rain 25 1013 88 10000 5.1 80 12:40 12.12.2019
2557 Rain 25 1013 88 10000 5.1 80 12:21 12.12.2019
2558 Rain 25 1013 88 10000 6.7 80 11:56 12.12.2019
2559 Rain 25 1013 88 10000 5.1 80 11:38 12.12.2019
2560 Clouds 25 1013 88 10000 5.1 80 11:19 12.12.2019
2561 Clouds 25 1014 88 10000 4.6 90 10:55 12.12.2019
2562 Clouds 25 1014 88 10000 6.7 80 10:37 12.12.2019
2563 Clouds 25 1014 88 10000 6.7 80 10:19 12.12.2019
2564 Clouds 25 1013 88 10000 5.7 90 09:42 12.12.2019
2565 Clouds 25 1013 88 10000 5.7 90 09:24 12.12.2019
2566 Clouds 25 1013 94 10000 6.7 80 08:58 12.12.2019
2567 Rain 25 1013 88 10000 6.7 80 08:38 12.12.2019
2568 Rain 25 1013 88 10000 6.7 80 08:38 12.12.2019
2569 Rain 25 1013 88 10000 6.7 80 08:20 12.12.2019
2570 Rain 25 1012 94 9000 6.2 80 07:46 12.12.2019
2571 Rain 24 1012 94 5000 6.2 90 07:25 12.12.2019
2572 Rain 23 1012 100 5000 5.7 90 06:54 12.12.2019
2573 Rain 24 1012 94 10000 5.7 90 06:33 12.12.2019
2574 Rain 26 1012 88 10000 8.2 70 05:40 12.12.2019
2575 Rain 26 1011 88 10000 7.7 80 04:52 12.12.2019
2576 Rain 27 1011 83 10000 8.2 70 03:31 12.12.2019
2577 Rain 27 1011 83 10000 8.2 70 02:38 12.12.2019
2578 Rain 27 1011 83 10000 8.2 70 02:20 12.12.2019
2579 Rain 27 1012 83 10000 7.2 70 01:37 12.12.2019
2580 Rain 27 1012 83 10000 7.2 70 01:19 12.12.2019
2581 Rain 27 1012 83 10000 7.2 70 00:46 12.12.2019
2582 Rain 27 1012 83 10000 7.7 70 00:19 12.12.2019
2583 Rain 28 1012 78 10000 8.2 70 23:44 11.12.2019
2584 Rain 27 1013 88 10000 7.2 70 23:21 11.12.2019
2585 Rain 28 1013 78 10000 7.7 80 22:57 11.12.2019
2586 Rain 27 1013 83 10000 7.7 70 22:38 11.12.2019
2587 Rain 27 1013 83 10000 7.7 70 22:20 11.12.2019
2588 Rain 27 1013 83 10000 7.2 70 21:57 11.12.2019
2589 Rain 25 1013 88 8000 7.7 60 21:38 11.12.2019
2590 Rain 25 1013 88 8000 7.7 60 21:19 11.12.2019
2591 Rain 26 1013 88 10000 7.2 70 20:56 11.12.2019
2592 Rain 26 1013 88 10000 7.2 70 20:56 11.12.2019
2593 Rain 27 1013 83 10000 8.2 80 20:37 11.12.2019
2594 Rain 27 1013 83 10000 8.2 80 20:37 11.12.2019
2595 Rain 27 1013 83 10000 8.2 80 20:37 11.12.2019
2596 Rain 27 1013 83 10000 8.2 80 20:19 11.12.2019
2597 Rain 26 1013 83 10000 6.7 70 19:57 11.12.2019
2598 Rain 26 1013 83 10000 6.2 70 19:38 11.12.2019
2599 Rain 26 1013 83 10000 6.2 70 19:18 11.12.2019
2600 Rain 25 1012 94 10000 5.1 70 18:40 11.12.2019
2601 Rain 25 1012 94 10000 5.1 70 18:21 11.12.2019
2602 Rain 25 1012 88 10000 5.1 80 17:57 11.12.2019
2603 Rain 25 1011 88 10000 5.7 80 17:38 11.12.2019
2604 Clouds 25 1011 88 10000 5.7 80 17:18 11.12.2019
2605 Clouds 25 1011 88 10000 5.1 80 16:57 11.12.2019
2606 Clouds 25 1012 88 10000 4.6 80 16:38 11.12.2019
2607 Clouds 25 1012 88 10000 4.6 80 16:20 11.12.2019
2608 Clouds 25 1012 88 10000 5.1 80 15:58 11.12.2019
2609 Clouds 25 1012 94 10000 5.7 80 15:38 11.12.2019
2610 Clouds 25 1012 94 10000 5.7 80 15:20 11.12.2019
2611 Clouds 25 1012 88 10000 5.1 80 14:55 11.12.2019
2612 Clouds 25 1012 88 10000 4.1 80 14:37 11.12.2019
2613 Clouds 25 1012 88 10000 4.1 80 14:19 11.12.2019
2614 Clouds 25 1012 88 10000 6.2 90 13:44 11.12.2019
2615 Rain 25 1012 94 10000 5.1 80 13:24 11.12.2019
2616 Rain 25 1013 88 10000 3.6 90 12:59 11.12.2019
2617 Rain 25 1013 88 10000 3.6 90 12:59 11.12.2019
2618 Rain 25 1013 88 10000 5.7 80 12:40 11.12.2019
2619 Rain 25 1013 88 10000 5.7 80 12:22 11.12.2019
2620 Rain 25 1013 83 10000 5.7 80 11:58 11.12.2019
2621 Rain 25 1013 83 10000 6.2 80 11:39 11.12.2019
2622 Rain 25 1013 83 10000 6.2 80 11:39 11.12.2019
2623 Rain 25 1013 83 10000 6.2 80 11:19 11.12.2019
2624 Rain 26 1014 88 10000 6.2 80 10:59 11.12.2019
2625 Rain 25 1014 94 10000 6.2 80 10:40 11.12.2019
2626 Rain 25 1014 94 10000 6.2 80 10:22 11.12.2019
2627 Rain 25 1014 94 10000 4.6 80 09:57 11.12.2019
2628 Rain 25 1013 94 10000 4.6 80 09:38 11.12.2019
2629 Rain 25 1013 94 10000 4.6 80 09:19 11.12.2019
2630 Rain 25 1013 88 10000 4.1 80 08:55 11.12.2019
2631 Rain 25 1013 94 10000 3.6 90 08:36 11.12.2019
2632 Clouds 25 1013 94 10000 3.6 90 08:18 11.12.2019
2633 Clouds 25 1013 88 10000 4.1 80 07:43 11.12.2019
2634 Clouds 25 1012 88 10000 4.6 80 07:24 11.12.2019
2635 Clouds 25 1012 88 10000 4.6 80 07:24 11.12.2019
2636 Clouds 26 1012 83 10000 4.1 90 06:46 11.12.2019
2637 Clouds 26 1012 83 10000 4.6 90 06:24 11.12.2019
2638 Clouds 26 1011 83 10000 4.6 80 05:54 11.12.2019
2639 Clouds 26 1011 83 10000 6.2 80 05:34 11.12.2019
2640 Clouds 26 1011 83 10000 6.2 70 04:49 11.12.2019
2641 Clouds 27 1011 78 10000 6.2 80 03:19 11.12.2019
2642 Clouds 27 1011 83 10000 6.7 70 02:35 11.12.2019
2643 Clouds 28 1011 78 10000 5.7 50 01:22 11.12.2019
2644 Clouds 27 1011 83 10000 5.7 80 00:37 11.12.2019
2645 Clouds 27 1011 83 10000 5.7 80 00:18 11.12.2019
2646 Clouds 27 1012 83 10000 6.7 70 23:43 10.12.2019
2647 Clouds 27 1012 78 10000 6.7 70 23:22 10.12.2019
2648 Clouds 27 1012 83 10000 6.2 70 22:42 10.12.2019
2649 Clouds 27 1012 83 10000 6.7 70 22:24 10.12.2019
2650 Clouds 27 1012 83 10000 7.7 70 21:58 10.12.2019
2651 Clouds 27 1013 88 10000 6.7 70 21:39 10.12.2019
2652 Clouds 27 1013 88 10000 6.7 70 21:21 10.12.2019
2653 Clouds 27 1013 83 10000 6.2 70 20:59 10.12.2019
2654 Clouds 26 1013 88 10000 5.7 70 20:38 10.12.2019
2655 Clouds 26 1013 88 10000 5.7 70 20:38 10.12.2019
2656 Clouds 26 1013 88 10000 5.7 70 20:38 10.12.2019
2657 Rain 26 1013 88 10000 5.7 70 20:19 10.12.2019
2658 Rain 26 1013 88 10000 5.7 70 20:19 10.12.2019
2659 Rain 26 1013 88 10000 5.7 70 20:19 10.12.2019
2660 Rain 25 1013 88 10000 4.6 70 19:56 10.12.2019
2661 Rain 25 1012 88 10000 5.7 70 19:38 10.12.2019
2662 Rain 25 1012 88 10000 5.7 70 19:20 10.12.2019
2663 Rain 24 1012 94 10000 3.1 90 18:55 10.12.2019
2664 Rain 24 1012 94 10000 3.1 90 18:55 10.12.2019
2665 Rain 24 1012 88 10000 3.1 90 18:36 10.12.2019
2666 Rain 24 1012 88 10000 3.1 90 18:36 10.12.2019
2667 Rain 24 1012 88 10000 3.1 90 18:18 10.12.2019
2668 Rain 24 1011 94 10000 5.7 70 17:41 10.12.2019
2669 Clouds 24 1011 94 10000 5.7 70 17:22 10.12.2019
2670 Clouds 24 1011 94 10000 6.2 60 16:57 10.12.2019
2671 Clouds 25 1011 88 10000 5.1 70 16:39 10.12.2019
2672 Clouds 25 1011 88 10000 5.1 70 16:19 10.12.2019
2673 Clouds 25 1011 88 10000 5.1 70 16:19 10.12.2019
2674 Clouds 24 1010 94 10000 3.1 90 15:39 10.12.2019
2675 Clouds 24 1010 94 10000 3.1 90 15:18 10.12.2019
2676 Clouds 24 1010 94 10000 2.6 90 14:56 10.12.2019
2677 Clouds 24 1011 94 10000 3.6 90 14:38 10.12.2019
2678 Rain 24 1011 94 10000 3.6 90 14:20 10.12.2019
2679 Rain 24 1011 94 10000 4.6 80 13:58 10.12.2019
2680 Rain 25 1011 88 10000 4.1 70 13:40 10.12.2019
2681 Rain 25 1011 88 10000 4.1 70 13:20 10.12.2019
2682 Rain 25 1011 88 10000 5.7 60 12:48 10.12.2019
2683 Rain 24 1012 94 10000 3.1 80 12:28 10.12.2019
2684 Rain 24 1012 94 10000 3.1 90 11:56 10.12.2019
2685 Rain 24 1012 94 10000 5.1 80 11:38 10.12.2019
2686 Rain 24 1012 94 10000 5.1 80 11:19 10.12.2019
2687 Rain 24 1012 94 10000 5.1 80 11:19 10.12.2019
2688 Rain 24 1012 88 10000 4.6 80 10:43 10.12.2019
2689 Rain 24 1012 94 10000 5.7 70 10:24 10.12.2019
2690 Rain 23 1012 94 10000 4.1 80 09:57 10.12.2019
2691 Rain 23 1012 94 10000 4.1 80 09:57 10.12.2019
2692 Rain 23 1012 94 10000 5.1 80 09:39 10.12.2019
2693 Rain 23 1012 94 10000 5.1 80 09:20 10.12.2019
2694 Rain 23 1012 94 10000 5.1 80 08:58 10.12.2019
2695 Rain 23 1012 94 10000 5.7 90 08:39 10.12.2019
2696 Rain 23 1012 94 10000 5.7 90 08:39 10.12.2019
2697 Rain 23 1012 94 10000 5.7 90 08:19 10.12.2019
2698 Rain 23 1011 94 10000 7.2 80 07:44 10.12.2019
2699 Rain 23 1011 94 10000 7.2 80 07:26 10.12.2019
2700 Rain 23 1012 100 2700 6.7 40 06:50 10.12.2019
2701 Rain 24 1011 94 1800 7.2 50 06:25 10.12.2019
2702 Rain 25 1010 88 10000 7.2 60 05:56 10.12.2019
2703 Rain 25 1010 83 10000 8.2 70 05:33 10.12.2019
2704 Rain 26 1009 78 10000 7.2 60 03:54 10.12.2019
2705 Rain 26 1010 83 10000 8.2 80 02:57 10.12.2019
2706 Rain 26 1010 83 10000 8.2 80 02:57 10.12.2019
2707 Clouds 26 1010 78 10000 5.7 100 01:54 10.12.2019
2708 Clouds 26 1010 78 10000 8.2 80 01:27 10.12.2019
2709 Clouds 27 1010 74 10000 8.2 90 00:51 10.12.2019
2710 Clouds 26 1011 78 10000 7.2 90 00:24 10.12.2019
2711 Clouds 27 1012 74 10000 7.2 100 23:45 09.12.2019
2712 Clouds 27 1012 74 10000 7.2 100 23:24 09.12.2019
2713 Rain 26 1012 78 10000 7.2 90 22:58 09.12.2019
2714 Rain 27 1012 74 10000 5.1 100 22:40 09.12.2019
2715 Rain 27 1012 74 10000 5.1 100 22:21 09.12.2019
2716 Rain 26 1012 74 10000 6.2 90 21:58 09.12.2019
2717 Rain 25 1012 78 10000 5.7 100 21:39 09.12.2019
2718 Rain 25 1012 78 10000 5.7 100 21:19 09.12.2019
2719 Rain 25 1012 73 10000 6.7 100 20:57 09.12.2019
2720 Rain 25 1012 73 10000 6.7 100 20:57 09.12.2019
2721 Rain 26 1012 69 10000 6.7 100 20:39 09.12.2019
2722 Clouds 26 1012 69 10000 6.7 100 20:20 09.12.2019
2723 Clouds 26 1012 69 10000 6.7 100 20:20 09.12.2019
2724 Clouds 25 1012 73 10000 5.1 100 19:56 09.12.2019
2725 Clouds 26 1012 69 10000 5.7 90 19:38 09.12.2019
2726 Clouds 26 1012 69 10000 5.7 90 19:19 09.12.2019
2727 Clouds 25 1012 73 10000 5.1 100 18:58 09.12.2019
2728 Clouds 24 1012 78 10000 5.1 100 18:39 09.12.2019
2729 Clouds 24 1012 78 10000 5.1 100 18:20 09.12.2019
2730 Clouds 24 1012 78 10000 4.6 100 17:58 09.12.2019
2731 Clouds 24 1012 78 10000 4.6 90 17:40 09.12.2019
2732 Rain 24 1012 78 10000 4.6 90 17:21 09.12.2019
2733 Rain 24 1011 78 10000 4.1 90 16:56 09.12.2019
2734 Rain 24 1011 78 10000 4.6 100 16:38 09.12.2019
2735 Rain 24 1011 78 10000 4.6 100 16:20 09.12.2019
2736 Rain 24 1011 78 10000 3.6 110 15:55 09.12.2019
2737 Rain 24 1011 78 10000 4.6 90 15:37 09.12.2019
2738 Rain 24 1011 78 10000 4.6 90 15:19 09.12.2019
2739 Rain 24 1011 78 10000 6.2 80 14:55 09.12.2019
2740 Rain 24 1011 78 10000 6.7 90 14:37 09.12.2019
2741 Rain 24 1011 78 10000 6.7 90 14:18 09.12.2019
2742 Rain 24 1012 78 10000 4.6 90 13:40 09.12.2019
2743 Rain 24 1012 78 10000 4.6 90 13:40 09.12.2019
2744 Rain 24 1012 78 10000 4.6 90 13:20 09.12.2019
2745 Rain 24 1012 78 10000 5.7 90 12:58 09.12.2019
2746 Rain 25 1012 73 10000 6.7 90 12:39 09.12.2019
2747 Rain 25 1012 73 10000 6.7 90 12:21 09.12.2019
2748 Rain 24 1013 78 10000 4.6 90 11:59 09.12.2019
2749 Rain 25 1013 73 10000 6.2 90 11:39 09.12.2019
2750 Rain 25 1013 73 10000 6.2 90 11:39 09.12.2019
2751 Clouds 25 1013 73 10000 6.2 90 11:21 09.12.2019
2752 Clouds 24 1013 78 10000 4.6 100 10:56 09.12.2019
2753 Clouds 25 1014 73 10000 4.6 90 10:38 09.12.2019
2754 Clouds 25 1014 73 10000 4.6 90 10:18 09.12.2019
2755 Clouds 25 1014 73 10000 3.1 100 09:41 09.12.2019
2756 Clouds 25 1014 73 10000 3.1 100 09:23 09.12.2019
2757 Clouds 25 1014 73 10000 4.1 100 08:55 09.12.2019
2758 Clouds 25 1014 73 10000 4.1 110 08:37 09.12.2019
2759 Clouds 25 1014 73 10000 4.1 110 08:19 09.12.2019
2760 Clouds 24 1014 73 10000 2.1 110 07:42 09.12.2019
2761 Clouds 25 1013 69 10000 3.6 100 07:24 09.12.2019
2762 Clouds 25 1013 69 10000 4.6 100 06:54 09.12.2019
2763 Clouds 25 1013 69 10000 3.6 100 06:26 09.12.2019
2764 Clouds 25 1013 69 10000 5.7 90 05:29 09.12.2019
2765 Clouds 25 1013 69 10000 4.1 110 04:49 09.12.2019
2766 Clouds 26 1012 65 10000 8.7 80 03:45 09.12.2019
2767 Clouds 27 1013 65 10000 7.2 90 02:24 09.12.2019
2768 Rain 25 1014 78 10000 6.7 90 01:44 09.12.2019
2769 Rain 27 1014 65 10000 6.2 100 00:51 09.12.2019
2770 Rain 27 1014 69 10000 8.2 80 00:31 09.12.2019
2771 Clouds 26 1014 74 10000 7.7 80 23:43 08.12.2019
2772 Clouds 26 1015 69 10000 6.7 90 23:24 08.12.2019
2773 Clouds 26 1015 69 10000 6.7 90 23:24 08.12.2019
2774 Clouds 26 1015 69 10000 4.6 110 22:58 08.12.2019
2775 Clouds 27 1015 69 10000 7.7 90 22:39 08.12.2019
2776 Clouds 27 1015 69 10000 7.7 90 22:20 08.12.2019
2777 Clouds 26 1016 69 10000 5.1 100 21:58 08.12.2019
2778 Clouds 26 1016 74 10000 4.1 100 21:40 08.12.2019
2779 Clouds 26 1016 74 10000 4.1 100 21:21 08.12.2019
2780 Clouds 26 1016 69 10000 5.7 110 20:57 08.12.2019
2781 Clouds 26 1016 69 10000 5.7 110 20:57 08.12.2019
2782 Clouds 25 1016 73 10000 5.7 100 20:38 08.12.2019
2783 Clouds 25 1016 73 10000 5.7 100 20:20 08.12.2019
2784 Clouds 25 1016 73 10000 5.7 100 20:20 08.12.2019
2785 Clouds 25 1016 73 10000 6.2 100 19:59 08.12.2019
2786 Clouds 25 1016 73 10000 5.7 100 19:41 08.12.2019
2787 -273 0 0 0 0 0 19:23 08.12.2019
2788 Clouds 24 1016 73 10000 4.1 100 18:55 08.12.2019
2789 Clouds 24 1016 73 10000 4.1 100 18:37 08.12.2019
2790 Clouds 24 1016 73 10000 4.1 100 18:19 08.12.2019
2791 Clouds 24 1016 73 10000 4.1 100 18:19 08.12.2019
2792 Clouds 24 1016 73 10000 4.1 100 17:56 08.12.2019
2793 Clouds 24 1015 73 10000 4.1 90 17:38 08.12.2019
2794 Clouds 24 1015 73 10000 4.1 90 17:19 08.12.2019
2795 Clouds 24 1015 73 10000 5.1 90 16:56 08.12.2019
2796 Clouds 24 1014 73 10000 5.7 90 16:38 08.12.2019
2797 Clouds 24 1014 73 10000 5.7 90 16:20 08.12.2019
2798 Clouds 24 1015 73 10000 5.1 100 15:54 08.12.2019
2799 Clouds 24 1015 73 10000 6.2 100 15:36 08.12.2019
2800 Clouds 24 1015 73 10000 6.2 100 15:18 08.12.2019
2801 Clouds 24 1015 73 10000 4.1 100 14:41 08.12.2019
2802 Clouds 24 1015 73 10000 4.1 100 14:22 08.12.2019
2803 Clouds 24 1015 73 10000 3.1 110 13:57 08.12.2019
2804 Clouds 24 1015 73 10000 4.6 90 13:38 08.12.2019
2805 Clouds 24 1015 73 10000 4.6 90 13:20 08.12.2019
2806 Clouds 24 1016 73 10000 4.1 100 12:54 08.12.2019
2807 Clouds 24 1016 73 10000 3.6 100 12:36 08.12.2019
2808 Clouds 24 1016 73 10000 3.6 100 12:18 08.12.2019
2809 Clouds 24 1017 73 10000 5.1 90 11:39 08.12.2019
2810 Rain 24 1017 73 10000 5.1 90 11:20 08.12.2019
2811 Rain 24 1017 73 10000 6.2 100 10:59 08.12.2019
2812 Rain 24 1017 73 10000 5.7 100 10:38 08.12.2019
2813 Rain 24 1017 73 10000 5.7 100 10:20 08.12.2019
2814 Rain 24 1017 73 10000 6.2 90 09:56 08.12.2019
2815 Rain 25 1017 69 10000 5.1 90 09:37 08.12.2019
2816 Rain 25 1017 69 10000 5.1 90 09:19 08.12.2019
2817 Rain 25 1017 69 0 5.7 90 08:57 08.12.2019
2818 Rain 25 1017 69 0 5.7 90 08:57 08.12.2019
2819 Rain 25 1017 69 0 5.7 90 08:57 08.12.2019
2820 Rain 25 1016 69 10000 5.1 100 08:36 08.12.2019
2821 Rain 25 1016 69 10000 5.1 100 08:18 08.12.2019
2822 Rain 25 1016 69 10000 6.7 90 07:42 08.12.2019
2823 Rain 25 1016 69 10000 6.7 90 07:19 08.12.2019
2824 Rain 25 1016 73 10000 4.6 110 06:47 08.12.2019
2825 Rain 25 1016 73 10000 5.1 100 06:22 08.12.2019
2826 Rain 25 1015 78 10000 5.1 100 05:35 08.12.2019
2827 Rain 24 1015 83 10000 5.1 90 04:59 08.12.2019
2828 Rain 25 1015 83 10000 4.1 100 03:47 08.12.2019
2829 Rain 24 1016 88 7000 4.6 90 03:20 08.12.2019
2830 Rain 26 1016 74 10000 6.7 100 02:28 08.12.2019
2831 Rain 26 1016 78 10000 5.7 90 01:48 08.12.2019
2832 Rain 27 1016 74 10000 8.2 80 00:59 08.12.2019
2833 Rain 26 1017 78 10000 7.7 90 00:38 08.12.2019
2834 Rain 26 1017 78 10000 7.7 90 00:19 08.12.2019
2835 Rain 28 1017 74 10000 6.2 80 23:40 07.12.2019
2836 Rain 28 1017 74 10000 6.2 80 23:20 07.12.2019
2837 Rain 27 1017 78 10000 4.6 100 22:56 07.12.2019
2838 Rain 26 1018 74 10000 5.1 90 22:37 07.12.2019
2839 Rain 26 1018 74 10000 5.1 90 22:37 07.12.2019
2840 Rain 26 1018 74 10000 5.1 90 22:19 07.12.2019
2841 Rain 27 1018 74 10000 7.2 80 21:56 07.12.2019
2842 Rain 26 1017 74 10000 5.7 100 21:37 07.12.2019
2843 Rain 26 1017 74 10000 5.7 100 21:19 07.12.2019
2844 Rain 26 1017 74 10000 4.6 90 20:54 07.12.2019
2845 Rain 26 1017 74 10000 5.1 100 20:36 07.12.2019
2846 Rain 26 1017 74 10000 5.1 100 20:18 07.12.2019
2847 Rain 25 1017 78 10000 5.7 110 19:54 07.12.2019
2848 Rain 25 1017 73 10000 5.7 100 19:36 07.12.2019
2849 Rain 25 1017 73 10000 5.7 100 19:36 07.12.2019
2850 Rain 25 1017 73 10000 5.7 100 19:18 07.12.2019
2851 Rain 25 1017 73 10000 4.6 100 18:42 07.12.2019
2852 Rain 25 1017 73 10000 3.1 100 18:18 07.12.2019
2853 Rain 24 1017 78 10000 3.6 110 17:56 07.12.2019
2854 Drizzle 24 1016 78 10000 4.1 100 17:37 07.12.2019
2855 Drizzle 24 1016 78 10000 4.1 100 17:19 07.12.2019
2856 Clouds 24 1016 78 10000 2.6 100 16:56 07.12.2019
2857 Clouds 24 1016 78 10000 4.1 110 16:36 07.12.2019
2858 Clouds 24 1016 78 10000 4.1 110 16:18 07.12.2019
2859 Clouds 24 1016 78 10000 4.6 100 15:41 07.12.2019
2860 Clouds 24 1016 78 10000 4.6 110 15:23 07.12.2019
2861 Clouds 24 1016 78 10000 2.6 110 14:56 07.12.2019
2862 Clouds 24 1016 78 10000 4.6 100 14:38 07.12.2019
2863 Clouds 24 1016 78 10000 4.6 100 14:18 07.12.2019
2864 Clouds 25 1017 69 10000 4.1 110 13:40 07.12.2019
2865 Clouds 25 1017 69 10000 4.1 110 13:20 07.12.2019
2866 Clouds 24 1018 73 10000 3.1 100 12:55 07.12.2019
2867 Clouds 24 1018 78 10000 2.6 110 12:37 07.12.2019
2868 Clouds 24 1018 78 10000 2.6 110 12:19 07.12.2019
2869 Clouds 25 1019 73 10000 4.6 100 11:42 07.12.2019
2870 Clouds 25 1019 73 10000 4.6 100 11:24 07.12.2019
2871 Clouds 24 1019 73 10000 3.6 110 10:59 07.12.2019
2872 Clouds 25 1019 69 10000 4.1 110 10:37 07.12.2019
2873 Clouds 25 1019 69 10000 4.1 110 10:19 07.12.2019
2874 Clouds 25 1019 69 10000 2.6 130 09:40 07.12.2019
2875 Clouds 25 1019 69 10000 2.6 130 09:21 07.12.2019
2876 Clouds 25 1019 69 10000 3.6 110 08:47 07.12.2019
2877 Clouds 25 1019 69 10000 3.1 100 08:25 07.12.2019
2878 Clouds 25 1018 73 10000 4.6 100 07:54 07.12.2019
2879 Clouds 25 1018 69 10000 5.1 100 07:30 07.12.2019
2880 Clouds 25 1018 73 10000 4.6 90 06:53 07.12.2019
2881 Clouds 25 1018 73 10000 4.6 90 06:53 07.12.2019
2882 Clouds 25 1018 73 10000 3.6 110 06:28 07.12.2019
2883 Clouds 25 1018 73 10000 5.1 90 05:50 07.12.2019
2884 Clouds 26 1017 69 10000 4.6 110 04:48 07.12.2019
2885 Clouds 26 1017 69 10000 4.6 110 04:48 07.12.2019
2886 Clouds 26 1017 69 10000 4.6 100 03:51 07.12.2019
2887 Clouds 27 1017 65 10000 6.7 100 02:23 07.12.2019
2888 Clouds 26 1018 69 10000 5.7 100 01:51 07.12.2019
2889 Clouds 27 1018 69 10000 6.7 90 01:25 07.12.2019
2890 Clouds 26 1018 74 10000 7.7 90 00:36 07.12.2019
2891 Clouds 26 1018 74 10000 7.7 90 00:18 07.12.2019
2892 Clouds 26 1018 74 10000 7.7 90 00:18 07.12.2019
2893 Clouds 26 1019 74 10000 4.6 100 23:42 06.12.2019
2894 Clouds 26 1019 74 10000 4.6 100 23:20 06.12.2019
2895 Rain 25 1019 83 10000 6.7 90 22:39 06.12.2019
2896 Rain 25 1019 83 10000 6.7 90 22:39 06.12.2019
2897 Rain 25 1019 83 10000 6.7 90 22:21 06.12.2019
2898 Clouds 26 1020 74 10000 5.1 100 21:59 06.12.2019
2899 Clouds 26 1020 74 10000 5.1 100 21:41 06.12.2019
2900 Clouds 26 1019 74 10000 4.6 110 21:21 06.12.2019
2901 Rain 26 1019 74 10000 5.7 100 20:56 06.12.2019
2902 Clouds 26 1019 74 10000 5.1 100 20:38 06.12.2019
2903 Clouds 26 1019 74 10000 5.1 100 20:38 06.12.2019
2904 Clouds 26 1019 74 10000 5.1 100 20:19 06.12.2019
2905 Clouds 25 1018 78 10000 4.1 100 19:42 06.12.2019
2906 Clouds 25 1018 78 10000 4.1 100 19:42 06.12.2019
2907 Clouds 25 1018 78 10000 4.6 90 19:24 06.12.2019
2908 Clouds 25 1018 78 10000 4.6 90 19:24 06.12.2019
2909 Clouds 25 1018 78 10000 5.1 100 18:59 06.12.2019
2910 Clouds 25 1018 73 10000 4.1 110 18:40 06.12.2019
2911 Clouds 25 1018 73 10000 4.1 110 18:21 06.12.2019
2912 Clouds 25 1018 73 10000 4.1 110 18:21 06.12.2019
2913 Clouds 25 1018 78 10000 3.1 100 17:58 06.12.2019
2914 Clouds 25 1018 78 10000 4.6 100 17:40 06.12.2019
2915 Rain 25 1018 78 10000 4.6 100 17:21 06.12.2019
2916 Rain 25 1017 78 10000 4.6 100 16:56 06.12.2019
2917 Rain 24 1017 83 10000 3.6 100 16:37 06.12.2019
2918 Rain 24 1017 83 10000 3.6 100 16:18 06.12.2019
2919 Rain 24 1017 88 5000 3.6 110 15:41 06.12.2019
2920 Rain 24 1017 88 5000 3.6 110 15:22 06.12.2019
2921 Rain 25 1017 83 10000 4.6 100 14:57 06.12.2019
2922 Rain 25 1017 83 10000 3.6 100 14:39 06.12.2019
2923 Rain 25 1017 83 10000 3.6 100 14:19 06.12.2019
2924 Rain 25 1017 83 10000 4.1 90 13:46 06.12.2019
2925 Rain 25 1017 83 10000 4.1 90 13:46 06.12.2019
2926 Rain 25 1017 83 10000 2.6 100 13:26 06.12.2019
2927 Rain 25 1017 83 10000 3.6 100 12:56 06.12.2019
2928 Rain 25 1017 83 10000 4.1 90 12:38 06.12.2019
2929 Rain 25 1017 83 10000 4.1 90 12:20 06.12.2019
2930 Rain 25 1018 83 10000 5.7 90 11:42 06.12.2019
2931 -273 0 0 0 0 0 11:23 06.12.2019
2932 Rain 25 1018 83 10000 6.7 90 10:55 06.12.2019
2933 Rain 25 1018 88 10000 5.7 80 10:37 06.12.2019
2934 Rain 25 1018 88 10000 5.7 80 10:37 06.12.2019
2935 Rain 25 1018 88 10000 5.7 80 10:18 06.12.2019
2936 Rain 25 1018 88 10000 5.7 90 09:55 06.12.2019
2937 Drizzle 25 1018 88 10000 6.7 90 09:36 06.12.2019
2938 Drizzle 25 1018 88 10000 6.7 90 09:18 06.12.2019
2939 Rain 25 1017 83 10000 5.7 100 08:40 06.12.2019
2940 Rain 25 1017 83 10000 5.7 100 08:21 06.12.2019
2941 Rain 25 1017 83 10000 5.1 90 07:38 06.12.2019
2942 Rain 25 1017 83 10000 5.1 90 07:20 06.12.2019
2943 Rain 25 1017 83 10000 5.1 90 07:20 06.12.2019
2944 Rain 25 1017 88 10000 4.6 90 06:48 06.12.2019
2945 Rain 25 1017 83 10000 5.7 90 06:24 06.12.2019
2946 Rain 25 1016 88 10000 5.1 90 05:46 06.12.2019
2947 Clear 28 1015 74 10000 6.2 90 02:44 06.12.2019
2948 Rain 27 1015 78 10000 7.2 80 01:43 06.12.2019
2949 Clear 28 1016 69 10000 7.2 80 00:50 06.12.2019
2950 Clear 29 1016 70 10000 5.7 80 00:23 06.12.2019
2951 Clear 28 1016 69 10000 6.2 80 23:51 05.12.2019
2952 Clear 28 1016 69 10000 6.2 80 23:51 05.12.2019
2953 Clear 29 1017 58 10000 5.1 90 23:20 05.12.2019
2954 Clear 28 1017 61 10000 6.2 90 22:58 05.12.2019
2955 Clear 28 1017 65 10000 5.7 90 22:38 05.12.2019
2956 Clear 28 1017 65 10000 5.7 90 22:19 05.12.2019
2957 Clear 28 1017 69 10000 4.1 100 21:55 05.12.2019
2958 Clear 28 1017 69 10000 3.6 100 21:37 05.12.2019
2959 Clear 28 1017 69 10000 3.6 100 21:19 05.12.2019
2960 Clear 27 1017 78 10000 3.6 100 20:55 05.12.2019
2961 Clear 27 1017 78 10000 3.6 100 20:36 05.12.2019
2962 Clear 27 1017 78 10000 3.6 100 20:36 05.12.2019
2963 Rain 27 1017 78 10000 4.6 80 20:18 05.12.2019
2964 Rain 27 1017 78 10000 4.6 80 20:18 05.12.2019
2965 Rain 27 1017 78 10000 4.1 90 19:40 05.12.2019
2966 Rain 26 1017 78 10000 3.1 100 19:21 05.12.2019
2967 Rain 25 1017 88 10000 3.6 100 18:58 05.12.2019
2968 Rain 25 1017 88 10000 3.6 100 18:38 05.12.2019
2969 Rain 25 1016 88 10000 2.1 100 18:20 05.12.2019
2970 Rain 24 1016 94 10000 2.1 100 17:40 05.12.2019
2971 Rain 25 1015 88 10000 2.1 110 17:20 05.12.2019
2972 Rain 24 1015 88 10000 2.1 100 16:58 05.12.2019
2973 Rain 24 1015 88 10000 2.1 100 16:39 05.12.2019
2974 Rain 24 1015 88 10000 2.1 100 16:39 05.12.2019
2975 Rain 24 1015 94 10000 2.1 100 16:21 05.12.2019
2976 Rain 24 1015 88 10000 1.5 100 15:58 05.12.2019
2977 Rain 24 1015 88 10000 1.5 100 15:38 05.12.2019
2978 Rain 25 1015 88 10000 2.6 100 15:20 05.12.2019
2979 Rain 25 1015 88 10000 2.6 100 14:55 05.12.2019
2980 Rain 25 1015 88 10000 2.6 100 14:37 05.12.2019
2981 Clear 25 1015 88 10000 3.1 90 14:19 05.12.2019
2982 Clear 25 1015 88 10000 3.6 90 13:56 05.12.2019
2983 Clear 25 1015 88 10000 3.6 90 13:38 05.12.2019
2984 Clear 25 1015 88 10000 3.6 90 13:19 05.12.2019
2985 Clear 25 1015 88 10000 4.1 90 12:55 05.12.2019
2986 Clear 25 1015 88 10000 4.1 90 12:55 05.12.2019
2987 Clear 25 1015 88 10000 4.1 90 12:37 05.12.2019
2988 Clear 25 1015 88 10000 4.1 90 12:37 05.12.2019
2989 Clear 25 1016 88 10000 4.1 90 12:19 05.12.2019
2990 Clear 25 1016 88 10000 4.1 90 11:39 05.12.2019
2991 Rain 25 1016 88 10000 4.1 90 11:20 05.12.2019
2992 Clear 25 1016 88 10000 4.1 90 10:57 05.12.2019
2993 Clear 25 1016 88 10000 4.1 90 10:38 05.12.2019
2994 Rain 25 1016 88 10000 4.1 90 10:18 05.12.2019
2995 Clear 25 1016 88 10000 4.1 90 09:46 05.12.2019
2996 Clear 25 1016 88 10000 3.6 90 09:24 05.12.2019
2997 Clear 25 1016 88 10000 4.1 90 08:59 05.12.2019
2998 Clear 25 1016 88 10000 4.1 90 08:39 05.12.2019
2999 Clouds 25 1015 88 10000 4.6 90 08:20 05.12.2019
3000 Clouds 25 1015 88 10000 4.6 90 07:50 05.12.2019
3001 Clouds 26 1015 83 10000 5.7 90 07:32 05.12.2019
3002 Clouds 26 1014 78 10000 4.1 100 06:58 05.12.2019
3003 Clouds 26 1014 78 10000 4.1 100 06:40 05.12.2019
3004 Clouds 26 1014 78 10000 3.6 90 06:19 05.12.2019
3005 Clouds 26 1014 78 10000 3.1 100 05:47 05.12.2019
3006 Clear 27 1014 74 10000 3.6 100 05:23 05.12.2019
3007 Clear 27 1013 78 10000 5.7 80 03:59 05.12.2019
3008 Clear 28 1013 74 10000 6.2 90 02:43 05.12.2019
3009 Clear 28 1013 74 10000 5.7 90 02:24 05.12.2019
3010 Clear 27 1013 78 10000 6.7 80 01:52 05.12.2019
3011 Clear 28 1014 74 10000 6.7 80 01:24 05.12.2019
3012 Clear 28 1014 74 10000 6.2 80 00:50 05.12.2019
3013 Clear 28 1014 74 10000 5.7 90 00:29 05.12.2019
3014 Clear 28 1014 74 10000 6.2 80 23:57 04.12.2019
3015 Clear 28 1014 74 10000 6.2 80 23:39 04.12.2019
3016 Clear 28 1014 74 10000 7.2 70 23:20 04.12.2019
3017 Clear 27 1014 78 10000 7.2 80 22:39 04.12.2019
3018 Clear 28 1014 74 10000 5.1 90 22:21 04.12.2019
3019 Clear 27 1014 78 10000 4.1 90 21:58 04.12.2019
3020 Clear 27 1014 78 10000 4.1 90 21:40 04.12.2019
3021 Clear 28 1015 74 10000 5.1 80 21:21 04.12.2019
3022 Clear 27 1015 74 10000 6.2 80 20:59 04.12.2019
3023 Clear 27 1015 74 10000 6.2 80 20:41 04.12.2019
3024 Clear 27 1015 78 10000 3.6 80 20:22 04.12.2019
3025 Clear 27 1014 78 10000 2.1 100 19:59 04.12.2019
3026 Clear 27 1014 78 10000 2.1 100 19:39 04.12.2019
3027 Clear 26 1014 83 10000 2.6 90 19:20 04.12.2019
3028 Clear 25 1014 88 10000 1.5 80 18:57 04.12.2019
3029 Clear 25 1014 88 10000 1.5 80 18:39 04.12.2019
3030 Clear 22 1014 100 10000 0.5 180 18:20 04.12.2019
3031 Clear 22 1013 100 10000 0.5 160 17:40 04.12.2019
3032 Rain 22 1013 94 10000 1 160 17:21 04.12.2019
3033 Rain 21 1013 100 10000 0.5 120 16:59 04.12.2019
3034 Rain 21 1013 100 10000 0.5 120 16:40 04.12.2019
3035 Rain 22 1012 94 10000 1 170 16:20 04.12.2019
3036 Rain 22 1012 94 10000 0.5 160 15:55 04.12.2019
3037 Rain 22 1012 94 10000 0.5 160 15:37 04.12.2019
3038 Rain 22 1012 94 10000 0.5 160 15:19 04.12.2019
3039 Rain 22 1012 94 10000 1 200 14:44 04.12.2019
3040 Rain 22 1012 94 10000 0.5 160 14:23 04.12.2019
3041 Clouds 22 1012 94 10000 0.5 210 13:59 04.12.2019
3042 Clouds 22 1012 94 10000 0.5 210 13:38 04.12.2019
3043 Clouds 22 1012 94 10000 0.5 130 13:20 04.12.2019
3044 Clouds 22 1013 100 10000 1 190 12:45 04.12.2019
3045 Clouds 23 1013 94 10000 1 150 12:25 04.12.2019
3046 Clouds 23 1013 94 10000 1 170 11:56 04.12.2019
3047 Clouds 23 1013 94 10000 1 170 11:38 04.12.2019
3048 Clouds 23 1013 94 10000 1 170 11:38 04.12.2019
3049 Clouds 24 1013 88 10000 1.5 110 11:20 04.12.2019
3050 Clouds 24 1013 88 10000 1 110 10:44 04.12.2019
3051 Clouds 24 1013 88 10000 2.1 110 10:23 04.12.2019
3052 Clouds 24 1013 88 10000 1 140 09:57 04.12.2019
3053 Clouds 24 1013 88 10000 1 140 09:37 04.12.2019
3054 Clouds 24 1013 88 10000 1.5 110 09:19 04.12.2019
3055 Clouds 25 1013 83 10000 2.1 120 08:40 04.12.2019
3056 Clouds 24 1013 88 10000 2.1 100 08:21 04.12.2019
3057 Clouds 25 1012 83 10000 3.1 90 07:48 04.12.2019
3058 Clouds 25 1012 83 10000 2.6 100 07:30 04.12.2019
3059 Clouds 25 1012 83 10000 2.6 100 07:30 04.12.2019
3060 Clouds 25 1012 83 10000 3.6 90 06:34 04.12.2019
3061 Clouds 25 1012 83 10000 2.6 100 05:48 04.12.2019
3062 Rain 26 1011 78 10000 2.6 110 04:58 04.12.2019
3063 Rain 26 1011 78 10000 3.1 130 03:56 04.12.2019
3064 Rain 27 1011 74 10000 3.6 80 02:47 04.12.2019
3065 Clouds 27 1012 74 10000 3.1 130 00:51 04.12.2019
3066 Rain 26 1012 78 10000 2.1 120 00:25 04.12.2019
3067 Clouds 27 1012 74 10000 2.1 130 23:57 03.12.2019
3068 Clouds 27 1012 74 10000 2.1 130 23:38 03.12.2019
3069 Rain 27 1012 74 10000 2.1 130 23:19 03.12.2019
3070 Rain 27 1013 78 10000 2.6 140 22:40 03.12.2019
3071 Rain 27 1013 78 10000 2.6 120 22:19 03.12.2019
3072 Rain 27 1013 74 10000 2.6 130 21:58 03.12.2019
3073 Rain 27 1013 74 10000 2.6 130 21:38 03.12.2019
3074 Rain 27 1013 74 10000 2.6 130 21:38 03.12.2019
3075 Rain 26 1013 78 10000 2.6 90 21:19 03.12.2019
3076 Rain 26 1013 78 10000 2.1 100 20:57 03.12.2019
3077 Rain 26 1013 78 10000 2.1 100 20:39 03.12.2019
3078 Rain 25 1013 83 10000 1.5 90 20:18 03.12.2019
3079 Rain 25 1013 88 10000 1 80 19:54 03.12.2019
3080 Rain 25 1013 88 10000 1 80 19:36 03.12.2019
3081 Rain 24 1013 94 10000 1.5 110 19:18 03.12.2019
3082 Rain 24 1013 94 10000 0.5 60 18:55 03.12.2019
3083 Rain 24 1013 94 10000 0.5 60 18:37 03.12.2019
3084 Rain 24 1013 94 10000 1 90 18:19 03.12.2019
3085 Rain 24 1013 94 10000 1 90 18:19 03.12.2019
3086 Rain 24 1013 94 10000 1 90 18:19 03.12.2019
3087 Rain 24 1013 88 10000 1.5 120 17:40 03.12.2019
3088 Rain 23 1012 94 10000 1 180 17:19 03.12.2019
3089 Rain 23 1012 94 10000 0.5 310 16:59 03.12.2019
3090 Rain 23 1012 94 10000 0.5 310 16:40 03.12.2019
3091 Rain 23 1011 94 10000 1 110 16:21 03.12.2019
3092 Rain 23 1011 94 10000 0.5 30 15:59 03.12.2019
3093 Rain 23 1011 94 10000 0.5 30 15:39 03.12.2019
3094 Rain 23 1011 94 10000 0.5 30 15:39 03.12.2019
3095 Rain 24 1011 88 10000 1 110 15:20 03.12.2019
3096 Rain 24 1011 88 10000 1 110 15:20 03.12.2019
3097 Rain 24 1011 88 10000 1 110 15:20 03.12.2019
3098 Rain 24 1011 88 10000 0.5 160 14:54 03.12.2019
3099 Rain 24 1011 88 10000 0.5 160 14:36 03.12.2019
3100 Clouds 24 1011 88 10000 1 140 14:18 03.12.2019
3101 Clouds 24 1012 88 10000 1 130 13:38 03.12.2019
3102 Rain 24 1012 88 10000 2.6 120 13:20 03.12.2019
3103 Rain 23 1012 94 10000 1.5 210 12:58 03.12.2019
3104 Rain 23 1012 94 10000 1.5 210 12:37 03.12.2019
3105 Rain 23 1012 94 6000 1 100 12:18 03.12.2019
3106 Rain 23 1013 94 10000 1.5 160 11:56 03.12.2019
3107 Rain 23 1013 94 10000 1.5 160 11:56 03.12.2019
3108 Rain 23 1013 94 10000 1.5 160 11:37 03.12.2019
3109 Clouds 23 1013 94 10000 1 80 11:18 03.12.2019
3110 Clouds 23 1013 100 10000 1 190 10:43 03.12.2019
3111 Rain 23 1013 94 10000 0.5 30 10:21 03.12.2019
3112 Rain 23 1013 94 10000 0.5 30 10:21 03.12.2019
3113 Rain 24 1013 94 10000 1 210 09:59 03.12.2019
3114 Rain 24 1013 94 10000 1 210 09:40 03.12.2019
3115 Rain 24 1013 94 10000 1 180 09:22 03.12.2019
3116 Rain 24 1013 88 10000 1 140 08:55 03.12.2019
3117 Rain 24 1013 88 10000 1 140 08:37 03.12.2019
3118 Clouds 24 1013 88 10000 1.5 90 08:18 03.12.2019
3119 Clouds 24 1013 88 10000 1 110 07:49 03.12.2019
3120 Clouds 25 1013 83 10000 1.5 90 07:24 03.12.2019
3121 Clouds 25 1012 83 10000 2.1 100 06:24 03.12.2019
3122 Clouds 25 1012 83 10000 2.1 100 06:24 03.12.2019
3123 Clouds 26 1011 78 10000 2.6 90 05:59 03.12.2019
3124 Rain 26 1011 78 10000 3.1 110 04:55 03.12.2019
3125 Rain 26 1011 78 10000 4.1 90 03:40 03.12.2019
3126 Rain 27 1011 78 10000 4.1 80 03:20 03.12.2019
3127 Rain 26 1011 78 10000 2.6 90 02:49 03.12.2019
3128 Rain 27 1012 78 10000 3.6 80 02:31 03.12.2019
3129 Rain 27 1012 74 10000 3.1 110 01:46 03.12.2019
3130 Rain 27 1012 74 10000 3.1 110 01:28 03.12.2019
3131 Rain 26 1012 78 10000 3.6 110 00:56 03.12.2019
3132 Rain 26 1012 78 10000 3.6 110 00:38 03.12.2019
3133 Rain 26 1013 78 10000 3.6 120 00:20 03.12.2019
3134 Rain 27 1013 74 10000 3.1 120 23:43 02.12.2019
3135 Rain 26 1013 78 10000 2.6 120 23:20 02.12.2019
3136 Rain 26 1013 78 10000 2.6 120 23:20 02.12.2019
3137 Rain 26 1013 78 10000 3.6 90 22:42 02.12.2019
3138 Rain 27 1013 78 10000 3.6 70 22:23 02.12.2019
3139 Rain 26 1014 78 10000 4.1 80 21:59 02.12.2019
3140 Rain 26 1014 78 10000 4.1 80 21:37 02.12.2019
3141 Rain 25 1014 83 10000 5.7 70 21:19 02.12.2019
3142 Rain 26 1014 78 10000 4.1 90 20:56 02.12.2019
3143 Rain 26 1014 78 10000 4.1 90 20:38 02.12.2019
3144 Rain 26 1014 78 10000 3.1 90 20:19 02.12.2019
3145 Rain 24 1014 88 10000 3.6 90 19:43 02.12.2019
3146 Rain 24 1013 83 10000 4.6 90 19:23 02.12.2019
3147 Rain 23 1014 88 10000 2.6 90 18:59 02.12.2019
3148 Rain 23 1014 88 10000 2.6 90 18:59 02.12.2019
3149 Rain 23 1014 88 10000 2.6 90 18:41 02.12.2019
3150 Rain 23 1014 88 10000 2.1 110 18:19 02.12.2019
3151 Rain 23 1013 88 10000 3.6 90 17:57 02.12.2019
3152 Rain 23 1013 88 10000 3.6 90 17:39 02.12.2019
3153 Rain 23 1013 88 10000 3.6 100 17:19 02.12.2019
3154 Rain 23 1013 88 10000 1.5 100 16:40 02.12.2019
3155 Rain 23 1012 88 10000 3.1 90 16:19 02.12.2019
3156 Rain 23 1012 88 10000 3.1 90 15:58 02.12.2019
3157 Rain 23 1012 88 10000 3.1 90 15:39 02.12.2019
3158 Rain 23 1012 88 10000 2.1 100 15:21 02.12.2019
3159 Rain 22 1012 94 10000 3.1 100 14:59 02.12.2019
3160 Rain 22 1012 94 10000 3.1 100 14:37 02.12.2019
3161 Rain 23 1012 88 10000 2.6 100 14:19 02.12.2019
3162 Rain 23 1012 88 10000 3.6 110 13:56 02.12.2019
3163 Rain 23 1012 88 10000 3.6 110 13:38 02.12.2019
3164 Rain 22 1013 94 10000 4.6 110 13:19 02.12.2019
3165 Rain 22 1013 94 10000 6.2 120 12:42 02.12.2019
3166 Rain 23 1013 88 5000 5.7 150 12:21 02.12.2019
3167 Rain 23 1014 100 10000 2.6 200 11:58 02.12.2019
3168 Rain 23 1014 100 10000 2.6 200 11:38 02.12.2019
3169 Rain 23 1014 100 10000 2.1 190 11:19 02.12.2019
3170 Rain 23 1015 94 9000 1.5 130 10:57 02.12.2019
3171 Rain 23 1015 94 9000 1.5 130 10:57 02.12.2019
3172 Rain 23 1015 94 9000 1.5 130 10:39 02.12.2019
3173 Rain 24 1015 94 10000 2.6 80 10:21 02.12.2019
3174 Rain 24 1015 94 10000 2.6 80 10:21 02.12.2019
3175 Rain 24 1014 94 10000 3.1 90 09:55 02.12.2019
3176 Rain 24 1014 94 10000 3.1 90 09:37 02.12.2019
3177 Rain 24 1014 94 10000 3.1 80 09:18 02.12.2019
3178 Drizzle 25 1014 83 10000 1.5 100 08:41 02.12.2019
3179 Rain 25 1013 83 10000 2.1 100 08:23 02.12.2019
3180 Rain 25 1013 83 10000 1.5 90 07:59 02.12.2019
3181 Rain 25 1013 83 10000 1.5 90 07:37 02.12.2019
3182 Rain 25 1013 83 10000 0.5 110 07:18 02.12.2019
3183 Rain 25 1013 83 10000 2.6 90 06:39 02.12.2019
3184 Rain 25 1012 83 10000 3.6 90 05:42 02.12.2019
3185 Rain 25 1012 83 10000 4.6 90 04:55 02.12.2019
3186 Rain 26 1012 78 10000 3.6 100 02:58 02.12.2019
3187 Rain 26 1012 78 10000 3.6 100 02:38 02.12.2019
3188 Rain 26 1012 78 10000 7.2 80 01:30 02.12.2019
3189 Rain 26 1012 78 10000 7.2 70 00:59 02.12.2019
3190 Rain 26 1013 83 10000 7.7 70 00:30 02.12.2019
3191 Rain 26 1012 83 10000 6.2 80 23:57 01.12.2019
3192 Rain 26 1012 83 10000 6.2 80 23:57 01.12.2019
3193 Rain 26 1012 83 10000 6.2 80 23:38 01.12.2019
3194 Rain 26 1013 74 10000 5.7 80 23:19 01.12.2019
3195 Rain 26 1013 74 10000 4.6 70 22:56 01.12.2019
3196 Rain 26 1013 74 10000 4.6 70 22:37 01.12.2019
3197 Rain 26 1012 74 10000 4.1 80 22:18 01.12.2019
3198 Rain 27 1012 74 10000 4.1 80 21:55 01.12.2019
3199 Rain 27 1012 74 10000 4.1 80 21:55 01.12.2019
3200 Rain 27 1012 74 10000 4.1 80 21:37 01.12.2019
3201 Rain 26 1012 83 10000 4.1 90 21:18 01.12.2019
3202 Rain 26 1013 83 10000 2.6 90 20:56 01.12.2019
3203 Rain 26 1013 83 10000 2.6 90 20:37 01.12.2019
3204 Rain 25 1014 88 10000 3.6 90 20:19 01.12.2019
3205 Rain 24 1014 94 10000 4.6 80 19:54 01.12.2019
3206 Rain 24 1014 94 10000 4.6 80 19:36 01.12.2019
3207 Rain 24 1014 94 10000 5.1 80 19:18 01.12.2019
3208 Rain 23 1014 94 10000 3.6 90 18:54 01.12.2019
3209 Rain 23 1014 94 10000 3.6 90 18:36 01.12.2019
3210 Rain 23 1014 94 10000 3.6 90 18:18 01.12.2019
3211 Rain 23 1014 94 10000 2.1 70 17:42 01.12.2019
3212 Rain 22 1014 100 10000 0.5 160 17:24 01.12.2019
3213 Rain 23 1013 94 10000 0.5 180 16:59 01.12.2019
3214 Rain 23 1013 94 10000 0.5 180 16:41 01.12.2019
3215 Rain 22 1013 100 10000 1 110 16:22 01.12.2019
3216 Rain 22 1013 100 10000 1.5 70 15:51 01.12.2019
3217 Rain 23 1013 94 10000 1.5 190 15:32 01.12.2019
3218 Rain 23 1013 94 10000 1.5 190 15:32 01.12.2019
3219 Rain 23 1013 94 10000 1 150 14:54 01.12.2019
3220 Rain 23 1013 94 10000 1 150 14:36 01.12.2019
3221 Rain 23 1013 94 10000 0.5 220 14:18 01.12.2019
3222 Rain 23 1013 88 10000 2.1 90 13:40 01.12.2019
3223 Rain 23 1013 88 10000 2.6 90 13:20 01.12.2019
3224 Rain 23 1013 88 10000 3.6 90 12:44 01.12.2019
3225 Rain 23 1013 88 10000 2.1 80 11:59 01.12.2019
3226 Rain 23 1013 88 10000 2.1 80 11:40 01.12.2019
3227 Rain 23 1014 94 10000 1 140 11:21 01.12.2019
3228 Rain 23 1014 88 10000 0.5 110 10:44 01.12.2019
3229 Rain 24 1014 83 10000 2.1 90 10:22 01.12.2019
3230 Rain 24 1014 83 10000 2.6 90 09:58 01.12.2019
3231 Rain 24 1014 83 10000 2.6 90 09:39 01.12.2019
3232 Rain 24 1014 88 10000 2.1 90 09:20 01.12.2019
3233 Rain 24 1013 83 10000 1.5 140 08:47 01.12.2019
3234 Rain 25 1013 78 10000 0.5 80 08:20 01.12.2019
3235 Rain 25 1013 78 10000 1 150 07:51 01.12.2019
3236 Rain 25 1013 73 10000 0.5 140 07:30 01.12.2019
3237 Rain 25 1013 78 10000 1.5 110 06:56 01.12.2019
3238 Rain 25 1012 73 10000 2.6 110 06:30 01.12.2019
3239 Rain 25 1012 78 10000 2.1 90 05:47 01.12.2019
3240 Rain 26 1011 74 10000 3.6 120 04:49 01.12.2019
3241 Rain 27 1011 69 10000 2.1 110 02:48 01.12.2019
3242 Rain 26 1012 78 10000 1.5 300 02:30 01.12.2019
3243 Rain 27 1011 74 10000 1.5 110 01:57 01.12.2019
3244 Rain 27 1011 74 10000 1.5 110 01:39 01.12.2019
3245 Clouds 27 1011 74 10000 1 320 01:18 01.12.2019
3246 Clouds 26 1011 78 10000 0.5 80 00:39 01.12.2019
3247 Rain 26 1011 78 10000 1.5 110 00:20 01.12.2019
3248 Rain 26 1012 78 10000 2.1 140 23:42 30.11.2019
3249 Rain 26 1012 78 10000 2.1 130 23:23 30.11.2019
3250 Rain 26 1012 78 10000 2.1 330 22:49 30.11.2019
3251 Rain 27 1012 74 10000 2.1 300 22:30 30.11.2019
3252 Rain 27 1012 74 10000 2.1 310 21:57 30.11.2019
3253 Rain 27 1012 74 10000 2.1 310 21:39 30.11.2019
3254 Rain 27 1012 69 10000 2.1 350 21:19 30.11.2019
3255 Rain 26 1012 74 10000 1.5 310 20:55 30.11.2019
3256 Rain 26 1012 74 10000 1.5 310 20:36 30.11.2019
3257 Clouds 26 1012 69 10000 1.5 330 20:18 30.11.2019
3258 Clouds 26 1013 69 10000 1.5 270 19:54 30.11.2019
3259 Clouds 26 1013 69 10000 1.5 270 19:36 30.11.2019
3260 Clouds 26 1012 69 10000 0.5 230 19:18 30.11.2019
3261 Clouds 25 1012 78 10000 1 110 18:54 30.11.2019
3262 Clouds 25 1012 78 10000 1 110 18:36 30.11.2019
3263 Clouds 23 1012 83 10000 0.5 60 18:18 30.11.2019
3264 Clouds 22 1011 83 10000 0.5 210 17:55 30.11.2019
3265 Clouds 22 1011 83 10000 0.5 210 17:36 30.11.2019
3266 Clouds 22 1011 78 10000 1 160 17:18 30.11.2019
3267 Clouds 22 1011 78 10000 1 150 16:41 30.11.2019
3268 Clouds 22 1011 78 10000 1 150 16:41 30.11.2019
3269 Clouds 22 1010 78 10000 0.5 150 16:22 30.11.2019
3270 -273 0 0 0 0 0 15:55 30.11.2019
3271 Clouds 22 1010 78 10000 1 160 15:36 30.11.2019
3272 Clouds 21 1010 83 10000 0.5 140 15:18 30.11.2019
3273 Clouds 21 1010 83 10000 0.5 180 14:55 30.11.2019
3274 Clouds 21 1010 83 10000 0.5 180 14:37 30.11.2019
3275 Clouds 21 1010 83 10000 1 190 14:18 30.11.2019
3276 Clouds 21 1010 83 10000 1 190 14:18 30.11.2019
3277 Clouds 21 1010 83 10000 0.5 140 13:43 30.11.2019
3278 Clouds 21 1010 83 10000 1 80 13:24 30.11.2019
3279 Clouds 22 1010 73 10000 1 160 12:57 30.11.2019
3280 Clouds 22 1010 73 10000 1 160 12:39 30.11.2019
3281 Clouds 23 1011 69 10000 1.5 180 12:18 30.11.2019
3282 Clouds 22 1011 78 10000 1 180 11:41 30.11.2019
3283 Clouds 22 1011 83 10000 1 170 11:19 30.11.2019
3284 Clouds 22 1012 83 10000 1 180 10:55 30.11.2019
3285 Clouds 22 1012 83 10000 1 180 10:37 30.11.2019
3286 Clouds 22 1011 88 10000 0.5 180 10:18 30.11.2019
3287 Clouds 22 1011 88 10000 0.5 150 09:43 30.11.2019
3288 Clouds 22 1011 83 10000 0.5 130 09:21 30.11.2019
3289 Clouds 22 1011 83 10000 0.5 110 08:43 30.11.2019
3290 Clouds 22 1011 83 10000 1 170 08:20 30.11.2019
3291 Clouds 23 1011 78 10000 0.5 180 07:54 30.11.2019
3292 Clouds 23 1011 78 10000 0.5 180 07:36 30.11.2019
3293 Clouds 24 1011 69 10000 1 210 06:55 30.11.2019
3294 Clouds 25 1010 65 10000 1 110 06:28 30.11.2019
3295 Clouds 25 1010 65 10000 1 110 06:28 30.11.2019
3296 Clouds 25 1010 69 10000 2.6 80 05:40 30.11.2019
3297 Clouds 27 1009 65 10000 2.6 270 03:42 30.11.2019
3298 Clouds 26 1009 65 10000 2.1 350 02:39 30.11.2019
3299 Clouds 27 1009 65 10000 1.5 350 02:20 30.11.2019
3300 Clouds 27 1010 69 10000 3.6 40 01:25 30.11.2019
3301 Clouds 27 1010 69 10000 4.1 50 00:48 30.11.2019
3302 Clouds 26 1010 69 10000 4.1 60 00:30 30.11.2019
3303 Clouds 27 1010 74 10000 5.1 50 23:57 29.11.2019
3304 Clouds 27 1010 74 10000 5.1 50 23:38 29.11.2019
3305 Clouds 27 1010 69 10000 5.1 50 23:18 29.11.2019
3306 Clouds 27 1010 69 10000 5.1 50 22:40 29.11.2019
3307 Clouds 27 1010 74 10000 6.2 60 22:21 29.11.2019
3308 Clouds 26 1010 74 10000 6.7 60 21:43 29.11.2019
3309 Clouds 27 1010 69 10000 5.7 70 21:22 29.11.2019
3310 Clouds 27 1010 69 10000 1.5 100 20:57 29.11.2019
3311 Clouds 27 1010 69 10000 1.5 100 20:37 29.11.2019
3312 Clouds 27 1010 69 10000 1.5 310 20:18 29.11.2019
3313 Clouds 26 1010 74 10000 1.5 60 19:56 29.11.2019
3314 Clouds 26 1010 74 10000 1.5 60 19:37 29.11.2019
3315 Clouds 26 1010 74 10000 1.5 60 19:37 29.11.2019
3316 Clouds 26 1010 78 10000 2.85 125 19:19 29.11.2019
3317 Clouds 25 1010 88 10000 1 50 18:42 29.11.2019
3318 Clouds 23 1010 94 10000 1 200 18:24 29.11.2019
3319 Clouds 21 1009 94 10000 1 140 17:58 29.11.2019
3320 Clouds 21 1009 94 10000 1 140 17:58 29.11.2019
3321 Clouds 21 1009 94 10000 1 140 17:40 29.11.2019
3322 Clouds 21 1009 94 10000 0.5 160 17:21 29.11.2019
3323 Clouds 21 1009 94 10000 1 80 16:43 29.11.2019
3324 Clouds 21 1009 94 10000 1 190 16:21 29.11.2019
3325 Clouds 21 1008 94 10000 0.5 180 15:57 29.11.2019
3326 Clouds 21 1008 94 10000 0.5 180 15:39 29.11.2019
3327 Clouds 22 1008 88 10000 1 200 15:20 29.11.2019
3328 Clouds 22 1008 94 10000 1.5 190 14:40 29.11.2019
3329 Clouds 22 1008 94 10000 1.5 190 14:40 29.11.2019
3330 Clouds 22 1008 94 10000 1 200 14:21 29.11.2019
3331 Clouds 22 1009 94 10000 1 170 13:57 29.11.2019
3332 Clouds 22 1009 94 10000 1 170 13:37 29.11.2019
3333 Clouds 22 1009 94 10000 1 180 13:19 29.11.2019
3334 Clouds 22 1009 94 10000 1 190 12:42 29.11.2019
3335 Clouds 22 1009 94 10000 1 200 12:24 29.11.2019
3336 Clouds 22 1009 94 10000 0.5 90 11:56 29.11.2019
3337 Clouds 22 1009 94 10000 0.5 90 11:38 29.11.2019
3338 Clear 21 1010 94 10000 1 180 11:18 29.11.2019
3339 Clear 21 1010 94 10000 0.5 180 10:57 29.11.2019
3340 Clear 21 1010 94 10000 0.5 180 10:38 29.11.2019
3341 Clear 21 1010 94 10000 1 190 10:19 29.11.2019
3342 Clear 22 1010 88 10000 1 190 09:57 29.11.2019
3343 Clear 22 1010 88 10000 1 190 09:38 29.11.2019
3344 Clear 22 1010 88 10000 0.5 180 09:19 29.11.2019
3345 Clear 22 1010 94 10000 1.5 190 08:54 29.11.2019
3346 Clear 22 1010 94 10000 1.5 190 08:36 29.11.2019
3347 Clear 23 1010 88 10000 1 150 08:18 29.11.2019
3348 Clear 23 1009 88 10000 1 160 07:40 29.11.2019
3349 Clear 23 1009 88 10000 1 160 07:22 29.11.2019
3350 Clear 24 1009 83 6000 1 140 06:46 29.11.2019
3351 Clear 27 1008 65 10000 1 280 05:48 29.11.2019
3352 Clear 27 1008 65 10000 1.5 290 05:26 29.11.2019
3353 Clear 27 1008 65 10000 2.1 290 04:35 29.11.2019
3354 Clear 27 1008 69 10000 2.1 330 03:22 29.11.2019
3355 Clear 27 1008 69 10000 2.1 330 02:32 29.11.2019
3356 Clear 27 1008 65 10000 1.5 340 01:57 29.11.2019
3357 Clear 27 1008 69 10000 1.5 340 01:26 29.11.2019
3358 Clear 27 1008 65 10000 1.5 350 00:45 29.11.2019
3359 Clear 27 1009 69 10000 2.1 360 00:21 29.11.2019
3360 Rain 26 1009 69 10000 1.5 320 23:56 28.11.2019
3361 Rain 26 1009 69 10000 1.5 320 23:38 28.11.2019
3362 Clear 28 1009 69 10000 1.5 340 23:19 28.11.2019
3363 Clear 26 1009 69 10000 2.1 350 22:38 28.11.2019
3364 Clear 26 1009 74 10000 1.5 350 22:20 28.11.2019
3365 Clear 26 1009 69 10000 1.5 350 21:59 28.11.2019
3366 Clear 26 1009 69 10000 1.5 350 21:40 28.11.2019
3367 Clear 26 1009 74 10000 1.5 330 21:20 28.11.2019
3368 Clear 26 1009 74 10000 1.5 340 20:57 28.11.2019
3369 Clear 26 1009 74 10000 1.5 340 20:38 28.11.2019
3370 Clear 26 1009 74 10000 1.5 350 20:18 28.11.2019
3371 Clear 25 1009 78 10000 1 10 19:55 28.11.2019
3372 Clear 25 1009 78 10000 1 10 19:36 28.11.2019
3373 Clear 25 1009 83 10000 0.5 320 19:18 28.11.2019
3374 Clear 24 1009 88 10000 0.5 190 18:55 28.11.2019
3375 Clear 24 1009 88 10000 0.5 190 18:37 28.11.2019
3376 Clear 22 1008 94 10000 0.5 150 18:18 28.11.2019
3377 Clear 20 1008 100 10000 0.5 160 17:42 28.11.2019
3378 -273 0 0 0 0 0 17:23 28.11.2019
3379 Clear 20 1008 100 10000 1 160 17:23 28.11.2019
3380 Clear 20 1008 100 10000 0.5 160 16:59 28.11.2019
3381 Clear 20 1008 100 10000 0.5 160 16:38 28.11.2019
3382 Clear 20 1008 100 10000 0.5 160 16:19 28.11.2019
3383 Clear 20 1007 100 10000 1 180 15:55 28.11.2019
3384 Clear 20 1007 100 10000 1 180 15:55 28.11.2019
3385 Clear 20 1007 100 10000 1 180 15:36 28.11.2019
3386 Clear 20 1007 100 10000 0.5 160 15:18 28.11.2019
3387 Clear 20 1007 100 10000 1 170 14:41 28.11.2019
3388 Clouds 20 1007 100 10000 0.5 150 14:22 28.11.2019
3389 Clouds 20 1008 100 10000 0.5 140 13:59 28.11.2019
3390 Clouds 20 1008 100 10000 0.5 140 13:41 28.11.2019
3391 Clouds 20 1008 100 10000 0.5 130 13:21 28.11.2019
3392 Clear 20 1008 100 10000 0.5 170 12:48 28.11.2019
3393 Clear 20 1008 100 10000 0.5 150 12:29 28.11.2019
3394 Clear 21 1009 94 10000 1 110 11:59 28.11.2019
3395 Clear 21 1009 94 10000 1 110 11:40 28.11.2019
3396 Clear 21 1009 94 10000 1 90 11:21 28.11.2019
3397 Clear 21 1009 94 10000 0.5 150 10:57 28.11.2019
3398 Clear 21 1009 94 10000 0.5 150 10:38 28.11.2019
3399 Clear 21 1009 94 10000 0.5 130 10:18 28.11.2019
3400 Clear 21 1009 100 10000 0.5 130 09:41 28.11.2019
3401 Clear 21 1009 100 10000 0.5 130 09:41 28.11.2019
3402 Clear 21 1009 100 10000 0.5 160 09:22 28.11.2019
3403 Clear 21 1009 100 10000 0.5 120 08:57 28.11.2019
3404 Clear 21 1009 100 10000 0.5 120 08:38 28.11.2019
3405 Clear 22 1009 94 10000 0.5 140 08:19 28.11.2019
3406 Clear 22 1009 94 10000 0.5 170 07:42 28.11.2019
3407 Clear 23 1008 88 10000 0.5 140 07:24 28.11.2019
3408 Clear 24 1008 83 10000 1 180 06:50 28.11.2019
3409 Clear 24 1008 83 10000 1 180 06:50 28.11.2019
3410 Clear 25 1007 73 10000 1.5 240 06:29 28.11.2019
3411 Clear 26 1007 69 10000 2.6 260 05:51 28.11.2019
3412 Clear 26 1007 74 10000 2.6 250 05:18 28.11.2019
3413 Clear 26 1007 74 10000 4.1 270 02:37 28.11.2019
3414 Clear 27 1007 74 10000 4.1 260 01:47 28.11.2019
3415 Clear 27 1007 74 10000 4.6 260 00:47 28.11.2019
3416 Clear 27 1008 69 10000 4.1 260 00:22 28.11.2019
3417 Clear 26 1008 74 10000 4.1 260 23:55 27.11.2019
3418 Clear 26 1008 74 10000 4.1 260 23:36 27.11.2019
3419 Clear 27 1008 69 10000 4.1 260 23:18 27.11.2019
3420 Clear 26 1008 74 10000 4.1 270 22:39 27.11.2019
3421 Clear 26 1008 69 10000 4.1 260 22:20 27.11.2019
3422 Clear 26 1008 74 10000 3.6 260 21:56 27.11.2019
3423 Clear 26 1008 74 10000 3.6 260 21:37 27.11.2019
3424 Clear 26 1008 74 10000 3.6 240 21:19 27.11.2019
3425 Clear 26 1008 74 10000 3.6 240 21:19 27.11.2019
3426 Clear 26 1009 78 10000 4.1 250 20:58 27.11.2019
3427 Clear 26 1009 78 10000 4.1 250 20:58 27.11.2019
3428 Clear 26 1009 78 10000 4.1 250 20:39 27.11.2019
3429 Clear 25 1008 78 10000 4.6 260 20:21 27.11.2019
3430 Clear 25 1008 78 10000 4.1 260 19:57 27.11.2019
3431 Clear 25 1008 78 10000 4.1 260 19:39 27.11.2019
3432 Clear 25 1008 78 10000 4.6 260 19:19 27.11.2019
3433 Clear 25 1008 78 10000 4.6 260 19:19 27.11.2019
3434 Clear 25 1008 78 0 3.6 250 18:58 27.11.2019
3435 Clear 25 1008 78 0 3.6 250 18:37 27.11.2019
3436 Clear 23 1008 88 10000 1.5 230 18:19 27.11.2019
3437 Clear 22 1007 94 10000 1.5 230 17:56 27.11.2019
3438 Clear 22 1007 94 10000 1.5 230 17:37 27.11.2019
3439 Clear 22 1007 88 10000 1.5 220 17:19 27.11.2019
3440 Clear 21 1007 94 10000 1.5 200 16:56 27.11.2019
3441 Clear 21 1007 94 10000 1.5 200 16:55 27.11.2019
3442 Clear 21 1007 94 10000 1.5 200 16:36 27.11.2019
3443 Clear 22 1006 88 10000 1.5 210 16:18 27.11.2019
3444 Clear 22 1006 88 10000 1.5 200 15:55 27.11.2019
3445 Clear 22 1006 88 10000 1.5 200 15:37 27.11.2019
3446 Clear 22 1006 94 10000 2.1 210 15:18 27.11.2019
3447 -273 0 0 0 0 0 14:42 27.11.2019
3448 Clear 22 1006 94 10000 2.1 210 14:41 27.11.2019
3449 Clouds 22 1006 94 10000 1.5 220 14:23 27.11.2019
3450 Clouds 23 1006 88 10000 2.1 230 13:58 27.11.2019
3451 Clouds 23 1006 88 10000 2.1 230 13:39 27.11.2019
3452 Clouds 24 1007 88 10000 3.6 280 13:19 27.11.2019
3453 Clouds 24 1007 83 10000 3.6 280 12:57 27.11.2019
3454 Clouds 23 1007 94 10000 2.6 270 12:39 27.11.2019
3455 Clouds 23 1007 94 10000 2.6 270 12:19 27.11.2019
3456 Clouds 22 1008 94 10000 1 190 11:39 27.11.2019
3457 Clouds 22 1008 94 10000 1 190 11:19 27.11.2019
3458 Clouds 22 1008 94 10000 1.5 290 10:59 27.11.2019
3459 Clouds 22 1008 94 10000 1.5 290 10:41 27.11.2019
3460 Clouds 22 1008 94 8000 0.5 170 10:22 27.11.2019
3461 Clouds 22 1008 94 9000 0.5 180 09:45 27.11.2019
3462 Clouds 24 1008 88 10000 1.5 330 09:26 27.11.2019
3463 Clouds 24 1008 88 10000 2.1 320 08:57 27.11.2019
3464 Clouds 24 1008 88 10000 2.1 320 08:57 27.11.2019
3465 Clouds 24 1008 88 10000 2.1 320 08:38 27.11.2019
3466 Clouds 24 1008 83 10000 1.5 340 08:19 27.11.2019
3467 Clouds 24 1008 88 10000 2.6 340 07:45 27.11.2019
3468 Clouds 24 1007 88 10000 2.6 350 07:27 27.11.2019
3469 Clouds 24 1007 88 10000 2.1 330 06:47 27.11.2019
3470 Clouds 24 1007 88 10000 1.5 360 06:29 27.11.2019
3471 Clouds 25 1007 83 10000 2.1 360 05:27 27.11.2019
3472 Clouds 25 1006 83 10000 2.6 20 04:59 27.11.2019
3473 Clouds 25 1006 83 10000 2.6 20 04:40 27.11.2019
3474 Clouds 25 1006 83 10000 3.1 30 03:53 27.11.2019
3475 Clouds 25 1006 83 10000 2.6 30 03:22 27.11.2019
3476 Clouds 24 1006 88 10000 2.1 20 02:54 27.11.2019
3477 Clouds 24 1006 88 10000 2.6 300 01:35 27.11.2019
3478 Clouds 24 1006 83 10000 2.6 280 00:44 27.11.2019
3479 Rain 25 1007 78 10000 1 340 00:25 27.11.2019
3480 Clouds 24 1007 83 10000 2.1 240 23:48 26.11.2019
3481 Rain 24 1008 83 10000 1.5 280 23:26 26.11.2019
3482 Clouds 24 1008 83 10000 1.5 300 22:57 26.11.2019
3483 Clouds 24 1008 83 10000 1.5 300 22:38 26.11.2019
3484 Rain 24 1008 83 10000 1.5 260 22:19 26.11.2019
3485 Clouds 23 1008 94 10000 3.6 280 21:57 26.11.2019
3486 Clouds 23 1008 94 10000 3.6 280 21:37 26.11.2019
3487 Clouds 25 1008 88 10000 2.1 300 21:19 26.11.2019
3488 Clouds 25 1008 88 10000 2.1 300 21:19 26.11.2019
3489 Clouds 25 1008 88 10000 2.1 340 20:54 26.11.2019
3490 Clouds 25 1008 88 10000 2.1 340 20:36 26.11.2019
3491 Clouds 25 1008 88 10000 2.1 30 20:18 26.11.2019
3492 Clouds 25 1008 88 10000 2.1 80 19:54 26.11.2019
3493 Clouds 25 1008 88 10000 2.1 80 19:54 26.11.2019
3494 Clouds 24 1007 94 10000 2.6 70 19:36 26.11.2019
3495 Clouds 24 1007 94 10000 2.6 70 19:18 26.11.2019
3496 Clouds 23 1007 94 10000 2.6 90 18:54 26.11.2019
3497 Clouds 23 1007 94 10000 2.6 80 18:36 26.11.2019
3498 Clouds 23 1007 94 10000 2.6 80 18:18 26.11.2019
3499 Clouds 22 1006 100 10000 1.5 70 17:41 26.11.2019
3500 Clouds 22 1006 100 10000 1.5 70 17:23 26.11.2019
3501 Clouds 22 1006 100 10000 1.5 70 17:23 26.11.2019
3502 Rain 22 1006 100 10000 1 150 16:57 26.11.2019
3503 Rain 22 1006 100 10000 1 150 16:38 26.11.2019
3504 Rain 22 1006 100 10000 1 150 16:38 26.11.2019
3505 Rain 22 1006 100 10000 2.1 90 16:19 26.11.2019
3506 Rain 22 1006 100 10000 1 90 15:59 26.11.2019
3507 Rain 22 1006 100 10000 1 90 15:59 26.11.2019
3508 Rain 22 1006 100 10000 1 90 15:38 26.11.2019
3509 Rain 23 1006 94 10000 1 360 15:20 26.11.2019
3510 Rain 23 1006 94 10000 1.5 180 14:58 26.11.2019
3511 Rain 23 1006 94 10000 1.5 180 14:40 26.11.2019
3512 Rain 23 1006 94 10000 2.1 190 14:22 26.11.2019
3513 Rain 23 1006 94 7000 2.1 200 13:41 26.11.2019
3514 Rain 23 1007 94 10000 3.1 180 13:23 26.11.2019
3515 Rain 23 1007 94 10000 3.1 180 13:23 26.11.2019
3516 Rain 23 1007 94 10000 3.6 190 12:40 26.11.2019
3517 Rain 23 1007 94 10000 3.6 190 12:22 26.11.2019
3518 Rain 23 1007 94 10000 4.1 190 11:59 26.11.2019
3519 Rain 24 1007 94 10000 3.6 210 11:40 26.11.2019
3520 Rain 24 1007 94 10000 3.6 210 11:20 26.11.2019
3521 Rain 24 1008 94 10000 2.6 220 10:59 26.11.2019
3522 Rain 24 1008 94 10000 2.6 220 10:41 26.11.2019
3523 Rain 24 1008 94 10000 3.6 220 10:21 26.11.2019
3524 Rain 24 1007 94 10000 4.6 250 09:57 26.11.2019
3525 Rain 24 1007 94 10000 4.6 250 09:38 26.11.2019
3526 Rain 25 1007 94 10000 4.6 280 09:19 26.11.2019
3527 Rain 25 1007 94 10000 4.6 300 08:44 26.11.2019
3528 Rain 25 1007 94 10000 4.6 300 08:44 26.11.2019
3529 Rain 25 1007 94 10000 6.2 300 08:24 26.11.2019
3530 Rain 25 1007 94 7000 4.6 320 07:47 26.11.2019
3531 Rain 25 1007 94 4400 5.1 300 07:27 26.11.2019
3532 Rain 24 1006 94 3200 2.6 210 06:55 26.11.2019
3533 Rain 23 1006 100 1500 1.5 210 06:35 26.11.2019
3534 Rain 23 1006 100 1500 1.5 210 06:35 26.11.2019
3535 -273 0 0 0 0 0 05:53 26.11.2019
3536 Rain 23 1005 94 4900 9.8 60 04:46 26.11.2019
3537 Rain 24 1005 100 6000 7.7 60 02:52 26.11.2019
3538 Rain 23 1007 94 10000 5.1 80 01:33 26.11.2019
3539 Rain 23 1007 94 9000 5.7 60 00:52 26.11.2019
3540 Rain 25 1008 83 10000 3.1 20 00:29 26.11.2019
3541 Rain 25 1008 83 10000 3.6 40 23:41 25.11.2019
3542 Rain 25 1008 83 10000 3.6 40 23:21 25.11.2019
3543 Rain 25 1008 83 10000 3.6 40 22:59 25.11.2019
3544 Rain 25 1008 83 10000 3.6 40 22:38 25.11.2019
3545 Rain 25 1008 83 10000 4.6 60 22:18 25.11.2019
3546 Rain 24 1007 88 10000 5.1 60 21:58 25.11.2019
3547 Rain 24 1007 88 10000 5.1 60 21:39 25.11.2019
3548 Rain 25 1008 83 10000 5.1 60 21:21 25.11.2019
3549 Rain 24 1008 88 10000 5.7 60 20:56 25.11.2019
3550 Rain 24 1008 88 10000 5.7 60 20:38 25.11.2019
3551 Rain 23 1008 94 10000 3.1 100 20:19 25.11.2019
3552 Rain 22 1007 94 10000 5.1 90 19:56 25.11.2019
3553 Rain 22 1007 94 10000 5.1 90 19:56 25.11.2019
3554 Rain 22 1007 94 10000 5.1 90 19:37 25.11.2019
3555 Rain 22 1008 94 10000 3.1 80 19:18 25.11.2019
3556 Rain 22 1008 94 10000 4.1 90 18:56 25.11.2019
3557 Rain 22 1009 94 10000 3.1 90 18:38 25.11.2019
3558 Rain 22 1009 94 10000 3.1 90 18:19 25.11.2019
3559 Rain 22 1008 94 10000 4.1 90 17:56 25.11.2019
3560 Rain 21 1008 100 10000 3.6 80 17:37 25.11.2019
3561 Rain 21 1008 100 10000 3.6 80 17:18 25.11.2019
3562 Rain 22 1008 94 10000 4.1 80 16:43 25.11.2019
3563 Rain 22 1009 94 10000 3.6 80 16:25 25.11.2019
3564 Rain 22 1009 94 7000 2.1 90 15:58 25.11.2019
3565 Rain 22 1009 94 7000 2.1 90 15:39 25.11.2019
3566 Rain 22 1009 94 7000 2.1 90 15:39 25.11.2019
3567 Rain 22 1009 94 10000 2.6 90 15:20 25.11.2019
3568 Rain 22 1009 94 2100 1.5 90 14:56 25.11.2019
3569 Rain 22 1009 94 2100 1.5 90 14:37 25.11.2019
3570 Rain 22 1008 100 8000 1 160 14:19 25.11.2019
3571 Rain 22 1008 100 8000 1 180 13:39 25.11.2019
3572 Rain 22 1008 100 10000 1 210 13:21 25.11.2019
3573 Rain 23 1008 94 10000 1 110 12:59 25.11.2019
3574 Rain 23 1008 94 10000 1 110 12:40 25.11.2019
3575 Rain 23 1009 94 10000 2.1 110 12:20 25.11.2019
3576 Rain 23 1010 94 10000 1.5 120 11:56 25.11.2019
3577 Rain 23 1010 94 10000 1.5 110 11:38 25.11.2019
3578 Rain 23 1010 94 10000 1.5 110 11:38 25.11.2019
3579 Rain 23 1010 94 10000 1.5 110 11:19 25.11.2019
3580 Rain 23 1010 94 10000 2.6 100 10:42 25.11.2019
3581 Rain 24 1010 88 10000 4.1 100 10:22 25.11.2019
3582 Rain 23 1010 94 10000 4.6 90 09:55 25.11.2019
3583 Rain 23 1010 94 10000 4.6 90 09:37 25.11.2019
3584 Rain 23 1009 94 10000 4.6 90 09:18 25.11.2019
3585 Rain 23 1009 94 10000 4.6 90 09:18 25.11.2019
3586 Rain 23 1009 94 10000 6.2 70 08:39 25.11.2019
3587 Rain 23 1009 94 10000 3.1 80 08:20 25.11.2019
3588 Rain 23 1009 94 10000 2.1 100 07:42 25.11.2019
3589 Rain 23 1009 94 10000 2.1 90 07:24 25.11.2019
3590 Rain 23 1009 94 10000 2.1 80 06:48 25.11.2019
3591 Rain 23 1009 94 10000 2.1 80 06:21 25.11.2019
3592 Rain 23 1009 94 10000 2.1 80 06:21 25.11.2019
3593 Rain 24 1008 88 10000 1.5 70 05:38 25.11.2019
3594 Rain 24 1008 88 10000 3.6 70 04:50 25.11.2019
3595 Rain 24 1007 94 10000 0.5 300 02:48 25.11.2019
3596 Rain 24 1008 88 10000 1 320 02:18 25.11.2019
3597 Rain 24 1008 88 10000 2.1 260 01:38 25.11.2019
3598 Rain 23 1008 94 10000 1.5 280 01:19 25.11.2019
3599 Rain 23 1008 94 10000 3.1 150 00:21 25.11.2019
3600 Rain 23 1008 94 10000 4.6 200 23:46 24.11.2019
3601 Rain 24 1008 88 10000 2.1 170 23:21 24.11.2019
3602 Rain 23 1008 94 3000 3.1 200 22:59 24.11.2019
3603 Rain 23 1008 94 3000 3.1 200 22:59 24.11.2019
3604 Rain 23 1008 94 3000 3.1 200 22:40 24.11.2019
3605 Rain 24 1008 94 6000 3.6 210 22:20 24.11.2019
3606 Rain 26 1008 94 1500 1 310 21:58 24.11.2019
3607 Rain 26 1008 94 1500 1 310 21:40 24.11.2019
3608 Rain 27 1008 88 10000 1.5 40 21:21 24.11.2019
3609 Rain 27 1008 94 10000 2.1 50 20:58 24.11.2019
3610 Rain 27 1008 94 10000 2.1 50 20:38 24.11.2019
3611 Rain 27 1008 88 10000 2.1 60 20:19 24.11.2019
3612 Rain 26 1008 94 10000 1.5 40 19:56 24.11.2019
3613 Rain 26 1008 94 10000 1.5 40 19:38 24.11.2019
3614 Rain 26 1007 94 10000 3.6 70 19:20 24.11.2019
3615 Rain 26 1007 94 10000 3.1 90 18:58 24.11.2019
3616 Rain 26 1007 94 10000 2.6 70 18:37 24.11.2019
3617 Rain 26 1007 94 10000 2.6 70 18:19 24.11.2019
3618 Rain 26 1007 94 10000 2.6 70 18:19 24.11.2019
3619 Rain 26 1007 94 10000 3.1 90 17:55 24.11.2019
3620 Rain 25 1007 94 10000 3.1 80 17:37 24.11.2019
3621 Rain 25 1007 94 10000 3.1 80 17:19 24.11.2019
3622 Rain 25 1007 94 10000 3.1 80 17:19 24.11.2019
3623 Rain 25 1007 94 10000 2.6 90 16:57 24.11.2019
3624 Rain 25 1007 94 10000 2.6 90 16:38 24.11.2019
3625 Rain 25 1007 94 10000 3.6 90 16:19 24.11.2019
3626 Rain 25 1007 94 10000 2.6 90 15:43 24.11.2019
3627 Rain 25 1007 94 10000 2.1 90 15:25 24.11.2019
3628 Rain 25 1007 94 10000 1.5 100 14:57 24.11.2019
3629 Rain 25 1007 94 10000 1.5 100 14:38 24.11.2019
3630 Rain 25 1007 94 10000 1.5 100 14:38 24.11.2019
3631 Rain 24 1007 100 10000 2.1 80 14:18 24.11.2019
3632 Rain 24 1007 100 10000 1.5 90 13:40 24.11.2019
3633 Rain 25 1007 94 10000 2.1 100 13:22 24.11.2019
3634 Rain 25 1008 94 10000 1.5 90 12:59 24.11.2019
3635 Rain 25 1008 94 10000 2.1 100 12:39 24.11.2019
3636 Rain 25 1008 94 10000 2.1 100 12:18 24.11.2019
3637 Rain 25 1008 88 10000 2.1 90 11:55 24.11.2019
3638 Rain 25 1008 88 10000 2.6 90 11:36 24.11.2019
3639 Rain 25 1008 88 10000 2.6 90 11:18 24.11.2019
3640 Rain 25 1008 88 10000 2.6 80 10:45 24.11.2019
3641 Rain 25 1008 88 10000 2.6 80 10:27 24.11.2019
3642 Rain 25 1008 88 10000 2.6 90 09:55 24.11.2019
3643 Rain 25 1008 88 10000 2.6 90 09:36 24.11.2019
3644 Rain 25 1008 83 10000 3.1 90 09:18 24.11.2019
3645 Rain 25 1008 83 10000 3.1 90 09:18 24.11.2019
3646 Rain 25 1008 83 10000 2.6 110 08:43 24.11.2019
3647 Rain 25 1008 83 10000 3.1 80 08:21 24.11.2019
3648 Rain 25 1007 78 10000 3.1 90 07:52 24.11.2019
3649 Rain 25 1007 83 10000 2.6 100 07:34 24.11.2019
3650 Rain 24 1007 88 10000 2.1 90 06:55 24.11.2019
3651 Rain 25 1007 83 10000 2.6 90 05:47 24.11.2019
3652 Rain 25 1007 83 10000 2.6 90 05:47 24.11.2019
3653 Rain 25 1008 83 10000 3.6 60 04:45 24.11.2019
3654 Rain 25 1008 83 10000 3.6 60 04:45 24.11.2019
3655 Rain 25 1008 88 10000 3.6 40 02:49 24.11.2019
3656 Rain 25 1008 88 10000 4.1 20 01:57 24.11.2019
3657 Rain 25 1008 88 10000 4.1 20 01:37 24.11.2019
3658 Rain 25 1009 94 10000 4.1 360 01:18 24.11.2019
3659 Rain 25 1009 88 10000 3.6 10 00:42 24.11.2019
3660 Rain 25 1009 88 10000 4.1 10 00:20 24.11.2019
3661 Rain 25 1009 88 10000 4.1 10 23:44 23.11.2019
3662 Rain 25 1010 94 10000 3.6 20 23:21 23.11.2019
3663 Rain 25 1010 94 10000 3.1 20 22:57 23.11.2019
3664 Rain 25 1010 94 10000 3.1 20 22:57 23.11.2019
3665 Rain 25 1010 94 10000 3.1 20 22:37 23.11.2019
3666 Rain 25 1010 94 10000 3.6 20 22:19 23.11.2019
3667 Rain 25 1010 88 10000 2.6 40 21:57 23.11.2019
3668 Rain 25 1010 88 10000 2.6 40 21:39 23.11.2019
3669 Rain 25 1010 94 10000 3.6 40 21:20 23.11.2019
3670 Rain 25 1010 88 10000 3.1 60 20:38 23.11.2019
3671 Rain 25 1010 94 10000 2.6 50 20:20 23.11.2019
3672 Rain 24 1010 100 10000 1.5 80 19:57 23.11.2019
3673 Rain 24 1010 100 10000 1.5 80 19:57 23.11.2019
3674 Rain 24 1010 100 10000 1.5 80 19:57 23.11.2019
3675 Rain 24 1010 100 10000 1.5 80 19:57 23.11.2019
3676 Rain 24 1010 100 10000 1.5 80 19:39 23.11.2019
3677 Rain 24 1010 94 10000 2.1 90 19:19 23.11.2019
3678 Rain 24 1010 94 10000 2.1 90 19:19 23.11.2019
3679 Rain 24 1010 94 10000 1.5 70 18:57 23.11.2019
3680 Rain 24 1009 94 10000 1 100 18:38 23.11.2019
3681 Rain 24 1009 94 10000 1 100 18:19 23.11.2019
3682 Rain 24 1009 94 10000 1 100 18:19 23.11.2019
3683 Rain 22 1009 100 10000 1 150 17:43 23.11.2019
3684 Rain 22 1009 100 10000 1 150 17:21 23.11.2019
3685 Rain 22 1008 100 10000 1.5 180 16:57 23.11.2019
3686 Rain 22 1008 100 10000 1.5 180 16:38 23.11.2019
3687 Rain 22 1008 100 10000 0.5 120 16:20 23.11.2019
3688 Rain 22 1008 100 8000 2.6 80 15:58 23.11.2019
3689 Rain 22 1008 100 8000 2.6 80 15:39 23.11.2019
3690 Rain 22 1008 100 2200 1 160 15:19 23.11.2019
3691 Rain 23 1009 100 650 3.6 290 14:56 23.11.2019
3692 Rain 23 1009 100 650 3.6 290 14:38 23.11.2019
3693 Rain 23 1009 100 650 3.6 290 14:38 23.11.2019
3694 Rain 25 1008 100 7000 3.6 30 14:20 23.11.2019
3695 Rain 26 1008 94 9000 3.6 30 13:43 23.11.2019
3696 Rain 26 1008 94 10000 4.6 40 13:20 23.11.2019
3697 Rain 26 1009 94 10000 5.1 50 12:58 23.11.2019
3698 Rain 26 1009 94 10000 4.6 50 12:39 23.11.2019
3699 Rain 26 1009 94 10000 4.6 50 12:21 23.11.2019
3700 Rain 26 1010 94 10000 5.1 60 11:42 23.11.2019
3701 Rain 26 1010 94 10000 5.1 60 11:20 23.11.2019
3702 Rain 26 1010 94 10000 4.6 60 10:45 23.11.2019
3703 Rain 26 1010 94 10000 5.1 60 10:22 23.11.2019
3704 Rain 26 1010 88 10000 5.1 60 09:42 23.11.2019
3705 Rain 26 1010 88 10000 5.1 60 09:20 23.11.2019
3706 Rain 26 1010 88 10000 6.2 60 08:45 23.11.2019
3707 Rain 26 1010 88 10000 6.2 70 08:20 23.11.2019
3708 Rain 26 1010 88 10000 6.2 70 07:54 23.11.2019
3709 Rain 26 1010 88 10000 6.2 60 07:35 23.11.2019
3710 Rain 26 1009 88 10000 6.7 70 06:46 23.11.2019
3711 Rain 26 1009 88 10000 6.7 70 06:21 23.11.2019
3712 Rain 26 1009 88 10000 6.7 70 05:50 23.11.2019
3713 Rain 26 1009 88 10000 6.7 70 05:29 23.11.2019
3714 Clouds 27 1009 83 10000 6.7 70 04:48 23.11.2019
3715 Clouds 27 1008 83 10000 7.2 70 04:27 23.11.2019
3716 Clouds 27 1009 83 10000 7.2 70 02:45 23.11.2019
3717 Clouds 28 1009 83 10000 8.2 70 01:42 23.11.2019
3718 Rain 28 1010 78 10000 8.2 70 01:21 23.11.2019
3719 Rain 28 1010 83 10000 7.2 70 00:39 23.11.2019
3720 Rain 28 1010 83 10000 7.2 70 00:18 23.11.2019
3721 Rain 28 1010 83 10000 7.2 70 00:18 23.11.2019
3722 Rain 28 1011 78 10000 7.7 60 23:39 22.11.2019
3723 Rain 28 1011 78 10000 7.7 60 23:20 22.11.2019
3724 Rain 27 1011 83 10000 8.2 70 22:57 22.11.2019
3725 Rain 27 1011 83 10000 8.2 70 22:38 22.11.2019
3726 Rain 27 1012 88 10000 7.7 70 22:20 22.11.2019
3727 Rain 27 1012 88 10000 8.2 70 21:58 22.11.2019
3728 Rain 27 1012 88 10000 8.2 70 21:38 22.11.2019
3729 Rain 26 1012 94 10000 7.7 70 21:19 22.11.2019
3730 Rain 26 1012 88 10000 8.2 70 20:42 22.11.2019
3731 Rain 26 1012 88 8000 7.7 70 20:22 22.11.2019
3732 Rain 26 1012 88 10000 7.2 70 19:55 22.11.2019
3733 Rain 26 1012 88 10000 7.2 70 19:37 22.11.2019
3734 Rain 26 1013 88 10000 7.2 70 19:18 22.11.2019
3735 Rain 26 1013 88 10000 7.2 70 18:39 22.11.2019
3736 Rain 26 1012 88 10000 7.2 60 18:21 22.11.2019
3737 Rain 26 1012 88 10000 7.2 60 18:21 22.11.2019
3738 Rain 25 1012 94 10000 7.2 70 17:55 22.11.2019
3739 Rain 25 1012 94 10000 7.2 70 17:37 22.11.2019
3740 Rain 25 1012 94 10000 6.2 70 17:19 22.11.2019
3741 Rain 25 1012 94 10000 6.7 80 16:40 22.11.2019
3742 Rain 25 1011 88 10000 6.7 70 16:22 22.11.2019
3743 Rain 25 1011 94 10000 6.2 70 15:41 22.11.2019
3744 Rain 25 1012 94 10000 6.7 80 15:23 22.11.2019
3745 Drizzle 25 1012 94 10000 6.7 80 14:56 22.11.2019
3746 Drizzle 25 1012 94 10000 6.7 80 14:37 22.11.2019
3747 Clouds 25 1012 94 10000 7.2 70 14:19 22.11.2019
3748 Clouds 25 1012 94 10000 7.7 80 13:40 22.11.2019
3749 Rain 25 1013 94 10000 7.7 70 13:20 22.11.2019
3750 Rain 25 1013 94 10000 7.7 70 13:20 22.11.2019
3751 Rain 25 1013 94 10000 6.2 70 12:59 22.11.2019
3752 Rain 25 1013 94 10000 6.2 70 12:40 22.11.2019
3753 Rain 25 1013 94 10000 6.2 70 12:40 22.11.2019
3754 Rain 25 1013 94 10000 7.7 70 12:20 22.11.2019
3755 Rain 25 1013 94 10000 6.2 70 11:59 22.11.2019
3756 Rain 25 1013 94 10000 6.2 70 11:38 22.11.2019
3757 Rain 25 1014 94 10000 5.1 80 11:19 22.11.2019
3758 Rain 25 1014 94 10000 5.1 80 11:19 22.11.2019
3759 Rain 25 1014 94 10000 6.2 80 10:57 22.11.2019
3760 Rain 25 1014 94 10000 6.2 80 10:39 22.11.2019
3761 Clouds 25 1014 94 10000 6.2 80 10:21 22.11.2019
3762 Clouds 25 1014 94 10000 7.7 70 09:55 22.11.2019
3763 Clouds 25 1014 94 10000 7.7 70 09:37 22.11.2019
3764 Clouds 25 1014 94 10000 5.7 80 09:18 22.11.2019
3765 Clouds 25 1014 88 10000 5.1 90 08:42 22.11.2019
3766 Rain 25 1014 94 10000 6.7 70 08:22 22.11.2019
3767 Rain 24 1013 94 6000 6.7 80 07:44 22.11.2019
3768 Rain 25 1013 94 10000 7.2 70 07:22 22.11.2019
3769 Rain 25 1013 94 8000 5.1 90 06:49 22.11.2019
3770 Rain 25 1012 94 10000 6.7 80 06:29 22.11.2019
3771 Rain 25 1012 88 10000 7.7 80 05:44 22.11.2019
3772 Rain 26 1011 88 10000 8.2 80 04:18 22.11.2019
3773 Rain 25 1011 94 10000 7.2 80 02:48 22.11.2019
3774 Rain 25 1012 94 10000 8.7 80 02:28 22.11.2019
3775 Rain 25 1012 94 10000 8.7 80 02:28 22.11.2019
3776 Rain 27 1011 83 10000 8.2 80 01:44 22.11.2019
3777 Rain 26 1012 94 10000 8.2 80 01:19 22.11.2019
3778 Rain 26 1012 88 10000 9.8 80 00:49 22.11.2019
3779 Rain 27 1012 83 10000 8.2 80 00:23 22.11.2019
3780 Rain 26 1012 88 10000 8.7 80 23:44 21.11.2019
3781 Rain 27 1013 83 10000 8.7 90 23:25 21.11.2019
3782 Rain 27 1013 83 10000 8.7 80 22:58 21.11.2019
3783 Rain 27 1013 83 10000 8.7 80 22:38 21.11.2019
3784 Rain 26 1013 88 10000 6.7 90 22:20 21.11.2019
3785 Rain 25 1013 94 10000 8.7 80 21:55 21.11.2019
3786 Rain 25 1013 94 10000 8.7 80 21:37 21.11.2019
3787 Rain 25 1013 94 10000 8.7 80 21:37 21.11.2019
3788 Rain 26 1013 88 10000 8.2 80 21:18 21.11.2019
3789 Rain 26 1014 88 10000 8.2 80 20:57 21.11.2019
3790 Rain 26 1014 88 10000 8.2 80 20:37 21.11.2019
3791 Rain 25 1013 88 10000 7.2 80 20:18 21.11.2019
3792 Rain 26 1013 83 10000 8.2 80 19:56 21.11.2019
3793 Rain 26 1013 83 10000 8.2 80 19:37 21.11.2019
3794 Rain 26 1013 83 10000 6.7 80 19:19 21.11.2019
3795 Rain 25 1013 88 10000 7.7 80 18:42 21.11.2019
3796 Rain 25 1013 88 10000 6.2 80 18:21 21.11.2019
3797 Rain 25 1012 88 10000 6.2 90 17:58 21.11.2019
3798 Rain 25 1012 88 10000 6.2 90 17:39 21.11.2019
3799 Rain 25 1012 88 10000 6.2 90 17:39 21.11.2019
3800 Rain 24 1012 94 10000 6.7 80 17:21 21.11.2019
3801 Rain 25 1012 88 10000 5.7 80 16:57 21.11.2019
3802 Rain 25 1012 88 10000 5.7 80 16:39 21.11.2019
3803 Rain 25 1011 88 10000 7.2 80 16:20 21.11.2019
3804 Rain 25 1011 88 10000 5.7 90 15:44 21.11.2019
3805 Rain 25 1011 88 10000 6.7 80 15:21 21.11.2019
3806 Rain 25 1011 88 10000 6.2 90 14:58 21.11.2019
3807 Rain 25 1011 88 10000 6.2 90 14:38 21.11.2019
3808 Rain 25 1011 88 10000 5.1 90 14:19 21.11.2019
3809 Rain 25 1011 88 10000 6.2 90 13:57 21.11.2019
3810 Rain 25 1011 88 10000 6.2 90 13:37 21.11.2019
3811 Rain 25 1011 88 10000 6.2 90 13:18 21.11.2019
3812 Rain 25 1012 88 10000 6.7 90 12:40 21.11.2019
3813 Rain 25 1012 88 10000 6.2 90 12:22 21.11.2019
3814 Rain 25 1012 88 10000 5.7 90 11:55 21.11.2019
3815 Rain 25 1012 88 10000 5.7 90 11:37 21.11.2019
3816 Rain 25 1012 88 10000 6.2 90 11:19 21.11.2019
3817 Rain 25 1013 88 10000 5.7 80 10:42 21.11.2019
3818 Rain 25 1013 88 10000 5.1 90 10:24 21.11.2019
3819 Rain 25 1013 88 10000 5.1 90 09:57 21.11.2019
3820 Rain 25 1013 88 10000 5.1 90 09:39 21.11.2019
3821 Rain 25 1013 88 10000 5.7 90 09:20 21.11.2019
3822 Rain 25 1013 88 10000 5.7 90 09:20 21.11.2019
3823 Rain 25 1013 83 10000 5.7 90 08:44 21.11.2019
3824 Rain 25 1012 83 10000 5.1 90 08:22 21.11.2019
3825 Rain 25 1012 83 10000 4.6 90 07:44 21.11.2019
3826 Rain 25 1012 83 10000 4.1 90 07:19 21.11.2019
3827 Rain 24 1012 88 10000 4.1 90 06:58 21.11.2019
3828 Rain 24 1012 88 10000 4.1 90 06:34 21.11.2019
3829 Rain 25 1012 78 10000 3.6 90 05:42 21.11.2019
3830 Clear 27 1011 69 10000 4.6 110 03:35 21.11.2019
3831 Clear 27 1011 74 10000 4.1 100 02:42 21.11.2019
3832 Clear 27 1011 74 10000 5.7 90 02:23 21.11.2019
3833 Clear 27 1011 69 10000 4.1 100 01:45 21.11.2019
3834 Clear 28 1011 69 10000 4.1 100 01:19 21.11.2019
3835 Clear 27 1012 69 10000 4.6 100 00:38 21.11.2019
3836 Clear 27 1012 69 10000 4.6 100 00:18 21.11.2019
3837 Clear 27 1012 74 10000 4.1 100 23:41 20.11.2019
3838 Clear 27 1012 74 10000 5.7 90 23:21 20.11.2019
3839 Clear 27 1013 74 10000 5.7 90 22:56 20.11.2019
3840 Clear 27 1013 74 10000 5.7 90 22:37 20.11.2019
3841 Clear 27 1013 74 10000 6.2 80 22:19 20.11.2019
3842 Clear 27 1013 69 10000 6.2 90 21:57 20.11.2019
3843 Clear 27 1013 69 10000 6.2 90 21:37 20.11.2019
3844 Clear 27 1013 74 10000 5.7 90 21:19 20.11.2019
3845 Clear 26 1013 74 10000 6.2 90 20:55 20.11.2019
3846 Clear 26 1013 74 10000 6.2 90 20:55 20.11.2019
3847 Clear 26 1013 74 10000 6.2 90 20:37 20.11.2019
3848 Clear 26 1013 74 10000 6.2 90 20:37 20.11.2019
3849 Clear 26 1013 74 10000 6.2 90 20:37 20.11.2019
3850 Rain 26 1013 74 10000 3.6 110 20:18 20.11.2019
3851 Rain 25 1013 78 10000 4.1 100 19:55 20.11.2019
3852 Rain 25 1013 78 10000 4.1 100 19:36 20.11.2019
3853 Rain 25 1013 78 10000 4.1 100 19:36 20.11.2019
3854 Rain 25 1013 78 10000 3.1 90 19:18 20.11.2019
3855 Rain 25 1013 78 10000 3.1 90 18:55 20.11.2019
3856 Rain 24 1012 83 10000 3.1 100 18:36 20.11.2019
3857 Rain 24 1012 83 10000 3.1 100 18:18 20.11.2019
3858 Rain 24 1012 83 10000 2.6 90 17:55 20.11.2019
3859 Rain 24 1012 83 10000 2.6 90 17:36 20.11.2019
3860 Rain 23 1012 88 10000 2.1 100 17:18 20.11.2019
3861 Rain 24 1011 78 10000 3.1 100 16:41 20.11.2019
3862 Rain 24 1011 78 10000 3.1 100 16:20 20.11.2019
3863 Rain 23 1011 83 10000 1.5 100 15:57 20.11.2019
3864 Rain 23 1011 83 10000 1.5 100 15:57 20.11.2019
3865 Rain 23 1011 83 10000 1.5 100 15:39 20.11.2019
3866 Rain 24 1011 78 10000 2.6 110 15:20 20.11.2019
3867 Rain 24 1011 78 10000 3.1 100 14:56 20.11.2019
3868 Rain 24 1011 78 10000 3.1 100 14:38 20.11.2019
3869 Clear 23 1011 88 10000 3.1 90 14:18 20.11.2019
3870 Clear 24 1011 78 10000 3.6 100 13:55 20.11.2019
3871 Clear 24 1011 78 10000 3.6 100 13:36 20.11.2019
3872 Clouds 23 1011 83 10000 3.6 90 13:18 20.11.2019
3873 Clouds 24 1012 83 10000 4.1 90 12:40 20.11.2019
3874 Clouds 24 1012 83 10000 4.6 90 12:21 20.11.2019
3875 Clouds 24 1012 83 10000 3.6 90 11:46 20.11.2019
3876 Clouds 24 1012 83 10000 4.6 90 11:23 20.11.2019
3877 Rain 24 1012 83 10000 4.6 90 10:59 20.11.2019
3878 Rain 24 1012 83 10000 4.6 90 10:39 20.11.2019
3879 Rain 24 1013 83 10000 4.6 100 10:20 20.11.2019
3880 Rain 24 1012 83 10000 4.6 90 09:59 20.11.2019
3881 Rain 24 1012 83 10000 4.6 90 09:41 20.11.2019
3882 Rain 24 1012 78 10000 4.6 100 09:19 20.11.2019
3883 Rain 24 1012 78 10000 5.1 100 08:43 20.11.2019
3884 Rain 24 1012 78 10000 4.6 100 08:24 20.11.2019
3885 Rain 24 1011 78 10000 4.6 100 07:53 20.11.2019
3886 Rain 24 1011 78 10000 3.6 100 07:34 20.11.2019
3887 Rain 24 1011 78 10000 3.1 100 06:58 20.11.2019
3888 Rain 24 1011 78 10000 3.1 100 06:38 20.11.2019
3889 Rain 24 1011 78 10000 4.1 100 06:18 20.11.2019
3890 Clouds 25 1010 73 10000 4.6 100 04:41 20.11.2019
3891 Clouds 26 1010 65 10000 4.6 100 02:28 20.11.2019
3892 Rain 26 1010 69 10000 4.1 110 01:37 20.11.2019
3893 Clouds 26 1010 69 10000 4.1 100 00:46 20.11.2019
3894 Clouds 27 1010 69 10000 6.2 80 00:18 20.11.2019
3895 Clouds 26 1011 69 10000 7.2 80 23:40 19.11.2019
3896 Clouds 27 1011 69 10000 7.2 80 23:22 19.11.2019
3897 Clouds 26 1011 74 10000 6.2 90 22:54 19.11.2019
3898 Clouds 26 1011 74 10000 6.2 90 22:36 19.11.2019
3899 Clouds 27 1011 69 10000 6.2 80 22:18 19.11.2019
3900 Clouds 26 1011 69 10000 6.2 90 21:54 19.11.2019
3901 Clouds 26 1011 69 10000 6.2 90 21:36 19.11.2019
3902 Clouds 26 1011 69 10000 6.2 90 21:36 19.11.2019
3903 Clouds 26 1011 69 10000 6.2 90 21:36 19.11.2019
3904 Clouds 26 1011 69 10000 6.2 80 21:18 19.11.2019
3905 Clouds 26 1012 69 10000 5.1 90 20:54 19.11.2019
3906 Clouds 26 1012 69 10000 5.1 90 20:36 19.11.2019
3907 Clouds 25 1012 73 10000 3.6 100 20:18 19.11.2019
3908 Clouds 25 1012 73 10000 3.6 100 20:18 19.11.2019
3909 Clouds 25 1012 73 10000 4.6 90 19:41 19.11.2019
3910 Clouds 25 1012 73 10000 4.6 90 19:41 19.11.2019
3911 Clouds 25 1012 73 10000 3.6 100 19:20 19.11.2019
3912 Clouds 24 1011 78 10000 3.1 100 18:57 19.11.2019
3913 Clouds 24 1011 78 10000 3.1 100 18:39 19.11.2019
3914 Clouds 23 1011 78 10000 3.1 110 18:18 19.11.2019
3915 Clouds 23 1011 83 10000 1.5 100 17:56 19.11.2019
3916 Clouds 23 1011 83 10000 1.5 100 17:56 19.11.2019
3917 Clouds 23 1011 83 10000 1.5 100 17:37 19.11.2019
3918 Clouds 23 1010 83 10000 3.1 100 17:19 19.11.2019
3919 Clouds 23 1010 83 10000 4.1 90 16:56 19.11.2019
3920 Clouds 23 1010 83 10000 4.1 90 16:56 19.11.2019
3921 Clouds 23 1010 83 10000 4.1 90 16:37 19.11.2019
3922 Clouds 23 1010 83 10000 4.1 90 16:18 19.11.2019
3923 Clouds 23 1010 83 10000 3.1 100 15:42 19.11.2019
3924 Clouds 23 1010 83 10000 4.1 80 15:23 19.11.2019
3925 Clouds 23 1010 83 10000 3.1 90 14:57 19.11.2019
3926 Clouds 23 1010 83 10000 3.1 90 14:39 19.11.2019
3927 Rain 23 1010 83 10000 4.1 90 14:20 19.11.2019
3928 Rain 23 1010 83 10000 3.6 100 13:41 19.11.2019
3929 Rain 23 1010 83 10000 4.1 90 13:20 19.11.2019
3930 Rain 23 1011 83 10000 3.1 100 12:42 19.11.2019
3931 Rain 23 1011 83 10000 3.6 100 12:23 19.11.2019
3932 Rain 23 1011 83 10000 3.1 100 11:59 19.11.2019
3933 Rain 23 1011 83 10000 3.1 100 11:39 19.11.2019
3934 Rain 23 1012 83 10000 2.1 100 11:20 19.11.2019
3935 Rain 23 1012 83 10000 2.1 110 10:48 19.11.2019
3936 Rain 24 1012 78 10000 2.6 110 10:23 19.11.2019
3937 Rain 24 1012 78 10000 2.6 110 10:23 19.11.2019
3938 Rain 24 1012 78 10000 2.6 110 09:59 19.11.2019
3939 Rain 24 1012 78 10000 2.6 110 09:41 19.11.2019
3940 Rain 24 1012 78 10000 3.1 100 09:19 19.11.2019
3941 Rain 24 1011 78 10000 3.1 100 08:41 19.11.2019
3942 Rain 24 1011 78 10000 3.6 110 08:23 19.11.2019
3943 Clouds 24 1010 78 10000 3.6 110 07:58 19.11.2019
3944 Clouds 24 1010 78 10000 3.6 110 07:39 19.11.2019
3945 Clouds 24 1010 78 10000 3.1 100 07:20 19.11.2019
3946 Clouds 24 1010 78 10000 3.6 100 06:50 19.11.2019
3947 Clouds 24 1010 78 10000 3.6 100 06:50 19.11.2019
3948 Clouds 24 1009 78 10000 4.1 100 06:30 19.11.2019
3949 Clouds 25 1009 73 10000 4.1 100 05:39 19.11.2019
3950 Clouds 25 1009 73 10000 5.1 100 04:22 19.11.2019
3951 Clouds 26 1009 69 10000 5.1 100 03:32 19.11.2019
3952 Clouds 26 1009 69 10000 4.6 100 02:56 19.11.2019
3953 Clouds 26 1009 65 10000 5.7 100 02:22 19.11.2019
3954 Clouds 26 1009 69 10000 5.1 100 01:27 19.11.2019
3955 Clouds 26 1010 69 10000 5.1 90 00:21 19.11.2019
3956 Clouds 26 1010 69 10000 4.1 100 23:57 18.11.2019
3957 Clouds 26 1010 69 10000 4.1 100 23:37 18.11.2019
3958 Clouds 25 1010 73 10000 6.2 90 23:18 18.11.2019
3959 Clouds 26 1010 69 10000 4.1 110 22:42 18.11.2019
3960 Clouds 26 1010 69 10000 4.1 100 22:23 18.11.2019
3961 Clouds 26 1011 69 10000 4.1 100 21:55 18.11.2019
3962 Clouds 26 1011 69 10000 4.1 100 21:37 18.11.2019
3963 Clouds 26 1011 69 10000 5.1 90 21:19 18.11.2019
3964 Clouds 25 1011 69 10000 4.6 100 20:42 18.11.2019
3965 Clear 25 1011 73 10000 3.6 110 20:20 18.11.2019
3966 Clear 25 1011 73 10000 3.6 100 19:58 18.11.2019
3967 Clear 25 1011 73 10000 3.6 100 19:39 18.11.2019
3968 Clear 25 1011 73 10000 2.6 100 19:21 18.11.2019
3969 Clear 24 1010 78 10000 3.1 110 18:57 18.11.2019
3970 Clear 24 1010 78 10000 3.1 110 18:38 18.11.2019
3971 Clear 24 1010 78 10000 3.1 110 18:38 18.11.2019
3972 Clear 23 1010 83 10000 2.1 120 18:20 18.11.2019
3973 Clear 23 1010 83 10000 2.1 100 17:59 18.11.2019
3974 Clear 23 1010 83 10000 2.1 100 17:38 18.11.2019
3975 Rain 22 1010 83 10000 1.5 120 17:19 18.11.2019
3976 Rain 23 1010 78 10000 2.1 110 16:43 18.11.2019
3977 Rain 23 1010 83 10000 2.1 100 16:25 18.11.2019
3978 Rain 23 1009 83 10000 2.1 100 15:59 18.11.2019
3979 Rain 23 1009 83 10000 2.1 100 15:41 18.11.2019
3980 Rain 23 1009 78 10000 2.1 100 15:22 18.11.2019
3981 Rain 23 1009 83 10000 3.1 100 14:58 18.11.2019
3982 Rain 23 1009 83 10000 3.1 100 14:58 18.11.2019
3983 Rain 23 1009 83 10000 3.1 100 14:40 18.11.2019
3984 Rain 23 1010 83 10000 2.6 100 14:22 18.11.2019
3985 Rain 23 1010 83 10000 2.6 90 13:44 18.11.2019
3986 Rain 23 1010 83 10000 2.6 100 13:26 18.11.2019
3987 Rain 23 1010 83 10000 3.1 90 12:57 18.11.2019
3988 Rain 23 1010 83 10000 3.1 90 12:37 18.11.2019
3989 Rain 23 1010 83 10000 2.6 90 12:18 18.11.2019
3990 Rain 24 1011 78 10000 3.6 100 11:42 18.11.2019
3991 Rain 24 1011 78 10000 3.6 100 11:24 18.11.2019
3992 Rain 23 1011 78 10000 3.6 100 10:45 18.11.2019
3993 Rain 24 1012 73 10000 3.6 100 10:26 18.11.2019
3994 Rain 23 1012 78 10000 3.6 100 09:59 18.11.2019
3995 Rain 23 1012 78 10000 3.6 100 09:38 18.11.2019
3996 Rain 24 1012 73 10000 2.1 100 09:20 18.11.2019
3997 Rain 24 1012 78 10000 2.1 100 08:57 18.11.2019
3998 Rain 24 1012 78 10000 2.1 100 08:39 18.11.2019
3999 Clouds 23 1011 83 10000 2.6 90 08:19 18.11.2019
4000 Clouds 23 1011 83 10000 2.6 90 08:19 18.11.2019
4001 Clouds 24 1011 78 10000 2.1 90 07:45 18.11.2019
4002 Clouds 24 1011 78 10000 1.5 110 07:25 18.11.2019
4003 Clouds 24 1011 73 10000 0.5 290 06:49 18.11.2019
4004 Clouds 24 1010 78 10000 3.1 90 06:28 18.11.2019
4005 Clouds 25 1010 73 10000 3.6 90 05:44 18.11.2019
4006 Rain 26 1009 65 10000 5.7 80 03:59 18.11.2019
4007 Rain 27 1010 69 10000 5.7 90 01:40 18.11.2019
4008 Rain 27 1010 69 10000 5.7 80 00:54 18.11.2019
4009 Rain 27 1010 65 10000 6.7 80 00:20 18.11.2019
4010 Rain 27 1011 69 10000 5.1 80 23:41 17.11.2019
4011 Rain 27 1011 69 10000 5.7 80 23:21 17.11.2019
4012 Rain 27 1011 65 10000 5.1 80 22:57 17.11.2019
4013 Rain 27 1011 65 10000 5.1 80 22:57 17.11.2019
4014 Rain 27 1011 65 10000 5.1 80 22:39 17.11.2019
4015 Rain 27 1012 69 10000 5.7 80 22:20 17.11.2019
4016 Rain 26 1012 69 10000 5.1 110 21:56 17.11.2019
4017 Rain 26 1012 69 10000 5.1 110 21:37 17.11.2019
4018 Rain 26 1012 78 10000 4.6 80 21:18 17.11.2019
4019 Rain 26 1012 74 10000 4.6 90 20:55 17.11.2019
4020 Rain 26 1012 74 10000 4.6 90 20:36 17.11.2019
4021 Rain 26 1012 74 10000 4.6 90 20:18 17.11.2019
4022 Rain 26 1012 74 10000 4.6 90 20:18 17.11.2019
4023 Rain 25 1012 73 10000 4.1 80 19:54 17.11.2019
4024 Rain 25 1012 73 10000 4.1 80 19:36 17.11.2019
4025 Rain 25 1012 73 10000 2.6 80 19:18 17.11.2019
4026 Rain 25 1012 73 10000 1.5 100 18:54 17.11.2019
4027 Rain 25 1012 73 10000 1.5 100 18:54 17.11.2019
4028 Rain 25 1012 73 10000 1.5 100 18:36 17.11.2019
4029 Rain 24 1011 78 10000 1.5 100 18:18 17.11.2019
4030 Rain 24 1011 78 10000 1.5 100 18:18 17.11.2019
4031 Rain 21 1011 94 10000 1.5 70 17:56 17.11.2019
4032 Rain 21 1011 94 10000 1.5 70 17:56 17.11.2019
4033 Rain 21 1011 94 10000 1.5 70 17:38 17.11.2019
4034 Clear 22 1011 88 10000 1 120 17:18 17.11.2019
4035 Clear 22 1011 88 10000 1.5 80 16:42 17.11.2019
4036 Clear 22 1010 88 10000 1 110 16:22 17.11.2019
4037 Clear 23 1010 83 10000 2.1 100 15:57 17.11.2019
4038 Clear 23 1010 83 10000 2.1 100 15:39 17.11.2019
4039 Clear 23 1010 83 10000 1.5 110 15:19 17.11.2019
4040 Clear 23 1010 83 10000 2.6 90 14:57 17.11.2019
4041 Clear 23 1010 83 10000 2.6 90 14:39 17.11.2019
4042 Clear 23 1010 83 10000 2.6 90 14:39 17.11.2019
4043 Clear 24 1010 78 10000 3.1 100 14:20 17.11.2019
4044 Clear 24 1010 78 10000 3.1 100 13:58 17.11.2019
4045 Clear 24 1010 78 10000 3.1 100 13:39 17.11.2019
4046 Clear 24 1011 78 10000 3.6 100 13:19 17.11.2019
4047 Clear 24 1011 78 10000 3.6 100 12:45 17.11.2019
4048 -273 0 0 0 0 0 12:23 17.11.2019
4049 Clear 24 1012 83 10000 2.1 100 11:58 17.11.2019
4050 Clear 24 1012 83 10000 2.1 100 11:39 17.11.2019
4051 Clear 24 1012 83 10000 2.1 90 11:20 17.11.2019
4052 Clear 24 1012 83 10000 1.5 100 10:45 17.11.2019
4053 Clear 24 1012 83 10000 1.5 100 10:24 17.11.2019
4054 Clear 24 1012 83 10000 2.1 110 09:58 17.11.2019
4055 Clear 24 1012 83 10000 2.1 110 09:58 17.11.2019
4056 Clear 24 1012 83 10000 2.1 110 09:39 17.11.2019
4057 Clear 24 1012 78 10000 1.5 120 09:21 17.11.2019
4058 Clear 24 1012 78 10000 2.6 110 08:41 17.11.2019
4059 Clear 24 1012 78 10000 1.5 130 08:22 17.11.2019
4060 Clear 24 1012 78 10000 2.1 120 07:55 17.11.2019
4061 Clear 24 1012 78 10000 2.1 120 07:37 17.11.2019
4062 Clear 24 1012 78 10000 2.6 100 07:18 17.11.2019
4063 Clear 24 1012 78 10000 1.5 150 06:44 17.11.2019
4064 Clear 24 1012 78 10000 1 110 06:25 17.11.2019
4065 Rain 26 1011 74 10000 5.7 80 04:24 17.11.2019
4066 Rain 26 1011 69 10000 5.1 80 03:51 17.11.2019
4067 Rain 26 1011 74 10000 4.1 80 03:32 17.11.2019
4068 Rain 27 1011 69 10000 5.1 90 02:28 17.11.2019
4069 Rain 28 1012 69 10000 5.7 50 01:41 17.11.2019
4070 Clear 26 1012 78 10000 7.2 70 00:54 17.11.2019
4071 Clear 27 1013 74 10000 7.2 70 00:22 17.11.2019
4072 Clear 27 1013 74 10000 6.2 60 23:47 16.11.2019
4073 Clear 27 1013 69 10000 5.7 60 23:20 16.11.2019
4074 Clear 27 1013 69 10000 5.7 60 22:59 16.11.2019
4075 Clear 27 1013 69 10000 5.7 60 22:40 16.11.2019
4076 Clear 27 1013 69 10000 5.7 60 22:40 16.11.2019
4077 Clear 26 1014 78 10000 5.7 50 22:19 16.11.2019
4078 Clear 26 1014 78 10000 5.1 60 21:42 16.11.2019
4079 Clear 26 1014 78 10000 4.6 70 21:24 16.11.2019
4080 Clear 25 1014 83 10000 5.1 80 20:59 16.11.2019
4081 Clear 25 1014 83 10000 5.1 80 20:41 16.11.2019
4082 Rain 25 1014 83 10000 5.7 80 20:20 16.11.2019
4083 Rain 25 1014 83 10000 5.1 80 19:57 16.11.2019
4084 Rain 25 1014 83 10000 5.1 80 19:39 16.11.2019
4085 Rain 24 1014 88 10000 5.7 80 19:20 16.11.2019
4086 Rain 24 1014 88 10000 4.1 90 18:45 16.11.2019
4087 Rain 24 1013 88 10000 3.1 90 18:27 16.11.2019
4088 Rain 23 1013 94 10000 2.6 100 17:56 16.11.2019
4089 Rain 23 1013 94 10000 2.6 100 17:38 16.11.2019
4090 Rain 23 1013 94 8000 4.1 90 17:19 16.11.2019
4091 Rain 23 1013 94 10000 2.6 100 16:47 16.11.2019
4092 Rain 23 1012 94 10000 2.6 100 16:29 16.11.2019
4093 Rain 23 1012 94 10000 2.1 110 15:58 16.11.2019
4094 Rain 23 1012 94 10000 2.1 110 15:39 16.11.2019
4095 Rain 23 1012 94 10000 1.5 120 15:20 16.11.2019
4096 Rain 23 1012 94 10000 1.5 120 15:20 16.11.2019
4097 Rain 23 1012 94 10000 1.5 110 14:42 16.11.2019
4098 Clouds 23 1013 94 10000 1.5 120 14:22 16.11.2019
4099 Clouds 23 1013 88 10000 1 90 13:58 16.11.2019
4100 Clouds 23 1013 88 10000 1 90 13:39 16.11.2019
4101 Clouds 23 1013 88 10000 1 90 13:39 16.11.2019
4102 Clouds 23 1013 94 10000 2.1 100 13:19 16.11.2019
4103 Clouds 23 1013 94 10000 2.1 100 13:19 16.11.2019
4104 Rain 24 1013 88 10000 2.1 90 12:59 16.11.2019
4105 Rain 24 1013 88 10000 2.1 90 12:41 16.11.2019
4106 Clouds 24 1014 88 10000 3.1 90 12:20 16.11.2019
4107 Clouds 24 1014 88 10000 3.1 90 11:46 16.11.2019
4108 Clouds 24 1014 88 10000 3.1 90 11:28 16.11.2019
4109 Clouds 24 1015 88 10000 3.1 90 10:58 16.11.2019
4110 Clouds 24 1015 88 10000 3.1 90 10:40 16.11.2019
4111 Clouds 24 1015 88 10000 5.1 80 10:21 16.11.2019
4112 Clouds 25 1015 83 10000 5.1 80 09:45 16.11.2019
4113 Clouds 24 1015 88 10000 3.1 90 09:22 16.11.2019
4114 Clouds 25 1015 83 10000 4.1 80 08:59 16.11.2019
4115 Clouds 25 1015 83 10000 4.1 80 08:40 16.11.2019
4116 Rain 24 1015 88 10000 5.7 70 08:19 16.11.2019
4117 Rain 24 1015 88 10000 5.7 70 08:19 16.11.2019
4118 Rain 25 1015 83 10000 5.1 80 07:43 16.11.2019
4119 Rain 25 1014 83 10000 4.6 80 07:21 16.11.2019
4120 Rain 25 1014 88 10000 3.1 90 06:55 16.11.2019
4121 Rain 25 1014 88 10000 3.1 90 06:34 16.11.2019
4122 Rain 25 1014 83 10000 3.1 90 05:42 16.11.2019
4123 Rain 27 1013 74 10000 6.2 70 04:20 16.11.2019
4124 Rain 27 1013 78 10000 6.7 80 03:25 16.11.2019
4125 Rain 27 1014 78 10000 6.7 70 01:55 16.11.2019
4126 Rain 27 1014 74 10000 6.2 70 01:21 16.11.2019
4127 Rain 27 1014 74 10000 5.7 70 00:46 16.11.2019
4128 Rain 27 1015 78 10000 5.7 70 00:27 16.11.2019
4129 Rain 28 1015 74 10000 6.2 70 23:40 15.11.2019
4130 Rain 27 1015 78 10000 5.7 70 23:21 15.11.2019
4131 Rain 27 1015 78 10000 6.2 70 22:57 15.11.2019
4132 Rain 27 1015 78 10000 6.2 70 22:38 15.11.2019
4133 Rain 26 1015 83 10000 7.2 70 22:18 15.11.2019
4134 Rain 27 1016 78 10000 6.2 70 21:42 15.11.2019
4135 Rain 26 1016 83 10000 5.1 60 21:21 15.11.2019
4136 Rain 27 1016 74 10000 4.1 70 20:59 15.11.2019
4137 Rain 27 1016 74 10000 4.1 70 20:40 15.11.2019
4138 Rain 27 1016 78 10000 4.6 70 20:22 15.11.2019
4139 Rain 27 1016 78 10000 4.6 70 20:22 15.11.2019
4140 Rain 25 1016 88 10000 3.6 80 19:59 15.11.2019
4141 Rain 25 1016 88 10000 3.6 80 19:59 15.11.2019
4142 Rain 25 1016 88 10000 3.6 80 19:41 15.11.2019
4143 Rain 26 1016 83 10000 4.6 70 19:21 15.11.2019
4144 Rain 25 1015 88 10000 3.6 80 18:59 15.11.2019
4145 Rain 25 1015 88 10000 3.6 80 18:41 15.11.2019
4146 Rain 25 1015 88 10000 3.6 80 18:41 15.11.2019
4147 Rain 24 1015 94 10000 3.6 90 18:22 15.11.2019
4148 Rain 24 1015 88 10000 3.6 90 17:54 15.11.2019
4149 Rain 24 1015 88 10000 3.6 90 17:36 15.11.2019
4150 Rain 24 1015 94 10000 4.1 90 17:18 15.11.2019
4151 Rain 24 1014 88 10000 2.6 90 16:39 15.11.2019
4152 Rain 24 1014 88 10000 2.6 90 16:20 15.11.2019
4153 Rain 23 1014 94 10000 2.1 90 15:39 15.11.2019
4154 Rain 23 1014 88 10000 1 120 15:21 15.11.2019
4155 Rain 23 1014 88 10000 0.5 130 14:58 15.11.2019
4156 Rain 23 1014 88 10000 0.5 130 14:40 15.11.2019
4157 Clouds 23 1014 94 10000 2.6 80 14:21 15.11.2019
4158 Clouds 24 1014 83 10000 2.6 90 13:59 15.11.2019
4159 Clouds 24 1014 83 10000 2.6 90 13:40 15.11.2019
4160 Rain 24 1014 83 10000 2.1 100 13:21 15.11.2019
4161 Rain 24 1015 83 10000 2.1 100 12:59 15.11.2019
4162 Rain 24 1015 83 10000 2.1 100 12:40 15.11.2019
4163 Rain 24 1015 88 10000 3.1 90 12:21 15.11.2019
4164 Rain 24 1015 88 10000 3.6 90 11:59 15.11.2019
4165 Rain 24 1015 88 10000 3.6 90 11:39 15.11.2019
4166 Clear 24 1015 88 10000 2.6 90 11:20 15.11.2019
4167 Clear 24 1015 88 10000 2.6 90 10:56 15.11.2019
4168 Clear 24 1015 88 10000 2.6 90 10:38 15.11.2019
4169 Clear 24 1015 83 10000 2.6 100 10:18 15.11.2019
4170 Clear 24 1015 88 10000 2.1 100 09:41 15.11.2019
4171 Clear 24 1015 83 10000 2.1 90 09:20 15.11.2019
4172 Clear 23 1015 88 10000 0.5 180 08:44 15.11.2019
4173 Clouds 24 1015 83 10000 2.6 100 08:23 15.11.2019
4174 Clouds 24 1014 88 10000 4.1 90 07:49 15.11.2019
4175 Clouds 24 1014 88 10000 4.1 90 07:49 15.11.2019
4176 Clouds 24 1014 83 10000 3.1 90 07:28 15.11.2019
4177 Clouds 24 1014 88 10000 2.6 90 06:50 15.11.2019
4178 Clouds 25 1014 83 10000 4.1 90 06:31 15.11.2019
4179 Clouds 25 1013 83 10000 5.1 90 05:42 15.11.2019
4180 Clouds 25 1013 78 10000 6.2 80 05:23 15.11.2019
4181 Clear 27 1013 74 10000 3.6 90 03:53 15.11.2019
4182 Clear 27 1013 74 10000 6.2 80 03:23 15.11.2019
4183 Clear 28 1013 74 10000 6.2 70 02:19 15.11.2019
4184 Clear 27 1013 74 10000 5.7 60 01:33 15.11.2019
4185 Clear 27 1013 74 10000 6.7 80 00:51 15.11.2019
4186 Clear 27 1014 74 10000 7.7 70 00:32 15.11.2019
4187 Clear 27 1014 74 10000 7.2 70 23:52 14.11.2019
4188 Clear 27 1014 74 10000 5.7 70 23:28 14.11.2019
4189 Clear 27 1014 78 10000 6.2 70 22:58 14.11.2019
4190 Clear 27 1014 78 10000 6.2 70 22:39 14.11.2019
4191 Clear 27 1014 78 10000 5.1 60 22:21 14.11.2019
4192 Clear 27 1014 74 10000 4.6 70 21:55 14.11.2019
4193 Clear 27 1014 74 10000 4.6 70 21:36 14.11.2019
4194 Clear 26 1014 78 10000 5.1 90 21:18 14.11.2019
4195 Clear 26 1014 78 10000 5.7 80 20:41 14.11.2019
4196 Clear 26 1014 78 10000 5.1 70 20:22 14.11.2019
4197 Clear 26 1014 78 10000 4.6 80 19:58 14.11.2019
4198 Clear 26 1014 78 10000 4.6 80 19:40 14.11.2019
4199 Clear 25 1014 83 10000 3.6 90 19:18 14.11.2019
4200 Clear 25 1014 83 10000 3.6 80 18:54 14.11.2019
4201 Clear 24 1014 83 10000 3.1 90 18:36 14.11.2019
4202 Clear 24 1014 83 10000 3.1 90 18:18 14.11.2019
4203 Clear 23 1013 88 10000 2.6 100 17:38 14.11.2019
4204 Clear 23 1013 88 10000 2.6 100 17:20 14.11.2019
4205 Clear 22 1013 94 10000 2.6 90 16:58 14.11.2019
4206 Clear 22 1013 94 10000 2.6 90 16:39 14.11.2019
4207 Clear 23 1013 88 10000 2.6 100 16:20 14.11.2019
4208 Clear 23 1012 88 10000 2.6 90 15:58 14.11.2019
4209 Clear 23 1012 88 10000 2.6 90 15:39 14.11.2019
4210 Clear 22 1012 94 10000 2.1 80 15:20 14.11.2019
4211 Clear 23 1012 88 10000 2.6 90 14:57 14.11.2019
4212 Clear 23 1012 88 10000 2.6 90 14:39 14.11.2019
4213 Rain 23 1012 88 10000 2.6 90 14:20 14.11.2019
4214 Rain 23 1012 88 10000 2.6 90 13:42 14.11.2019
4215 Rain 23 1013 88 10000 2.6 90 13:23 14.11.2019
4216 Rain 23 1013 88 10000 3.6 90 12:57 14.11.2019
4217 Rain 23 1013 88 10000 3.6 90 12:39 14.11.2019
4218 Rain 23 1013 88 10000 3.6 80 12:21 14.11.2019
4219 Rain 23 1013 88 10000 3.6 80 11:55 14.11.2019
4220 Rain 23 1013 88 10000 3.6 80 11:37 14.11.2019
4221 Rain 23 1013 88 10000 3.6 80 11:18 14.11.2019
4222 Rain 23 1014 88 10000 3.6 90 10:56 14.11.2019
4223 Rain 23 1014 88 10000 3.6 90 10:56 14.11.2019
4224 Rain 23 1014 88 10000 3.6 90 10:37 14.11.2019
4225 Rain 23 1014 88 10000 3.6 90 10:37 14.11.2019
4226 Rain 23 1014 88 10000 4.1 90 10:19 14.11.2019
4227 Rain 23 1014 88 10000 4.1 90 10:19 14.11.2019
4228 Rain 23 1014 94 10000 3.6 90 09:42 14.11.2019
4229 Rain 23 1013 88 10000 4.1 90 09:23 14.11.2019
4230 Rain 23 1013 88 10000 4.1 90 08:56 14.11.2019
4231 Rain 23 1013 88 10000 4.1 90 08:38 14.11.2019
4232 Rain 23 1013 94 10000 6.2 60 08:19 14.11.2019
4233 Rain 23 1013 94 10000 4.1 80 07:41 14.11.2019
4234 Rain 23 1012 94 10000 4.6 90 07:22 14.11.2019
4235 Rain 24 1012 88 10000 5.1 70 06:46 14.11.2019
4236 Rain 24 1012 83 10000 4.1 90 06:19 14.11.2019
4237 Rain 24 1012 83 10000 4.1 90 06:19 14.11.2019
4238 Rain 25 1012 78 10000 4.6 70 05:20 14.11.2019
4239 Rain 25 1012 83 0 6.35 68 04:35 14.11.2019
4240 Rain 23 1011 88 10000 3.6 80 02:50 14.11.2019
4241 Rain 23 1011 94 10000 4.1 80 02:29 14.11.2019
4242 Rain 21 1012 94 2600 1.5 150 01:40 14.11.2019
4243 Rain 22 1012 88 10000 3.6 210 00:55 14.11.2019
4244 Rain 22 1012 88 10000 3.6 210 00:36 14.11.2019
4245 Rain 21 1012 83 10000 5.1 120 00:18 14.11.2019
4246 Rain 21 1013 88 7000 3.1 220 23:37 13.11.2019
4247 Rain 25 1012 88 10000 4.6 120 23:19 13.11.2019
4248 Rain 25 1012 88 10000 5.7 90 22:41 13.11.2019
4249 Rain 25 1012 88 10000 6.7 70 22:23 13.11.2019
4250 Rain 25 1013 88 10000 6.2 60 21:57 13.11.2019
4251 Rain 25 1013 88 10000 6.2 60 21:39 13.11.2019
4252 Rain 25 1013 88 10000 6.2 60 21:20 13.11.2019
4253 Rain 25 1013 83 10000 6.7 60 20:58 13.11.2019
4254 Rain 25 1013 83 10000 6.7 60 20:38 13.11.2019
4255 Rain 25 1013 88 10000 6.7 60 20:19 13.11.2019
4256 Rain 24 1013 94 10000 6.7 70 19:58 13.11.2019
4257 Rain 24 1013 94 10000 6.7 70 19:40 13.11.2019
4258 Rain 24 1013 88 10000 8.2 60 19:18 13.11.2019
4259 Rain 24 1012 94 9000 5.1 20 18:55 13.11.2019
4260 Rain 24 1012 94 9000 5.1 20 18:36 13.11.2019
4261 Rain 24 1012 88 4200 8.2 60 18:18 13.11.2019
4262 Rain 24 1012 88 4200 8.2 60 18:18 13.11.2019
4263 Rain 24 1012 88 4200 8.2 60 18:18 13.11.2019
4264 Clouds 24 1011 88 10000 8.2 70 17:55 13.11.2019
4265 Clouds 24 1011 88 10000 8.2 70 17:36 13.11.2019
4266 Clouds 24 1011 88 10000 8.7 60 17:18 13.11.2019
4267 Clouds 24 1011 83 10000 9.3 60 16:41 13.11.2019
4268 Clouds 24 1011 83 10000 9.3 60 16:41 13.11.2019
4269 Clouds 24 1011 83 10000 8.7 70 16:22 13.11.2019
4270 Clouds 24 1011 83 10000 8.2 70 15:59 13.11.2019
4271 Clouds 24 1011 83 10000 8.2 70 15:41 13.11.2019
4272 Clouds 24 1011 83 10000 8.7 70 15:23 13.11.2019
4273 Clouds 24 1011 83 10000 9.3 70 14:59 13.11.2019
4274 Clouds 24 1011 83 10000 9.3 70 14:59 13.11.2019
4275 Clouds 24 1011 83 10000 9.3 70 14:37 13.11.2019
4276 Clouds 24 1011 83 10000 8.7 70 14:19 13.11.2019
4277 Clouds 24 1012 83 10000 10.3 70 13:37 13.11.2019
4278 Clouds 24 1012 83 10000 10.3 70 13:19 13.11.2019
4279 Clouds 24 1012 88 10000 9.3 70 12:58 13.11.2019
4280 Clouds 24 1012 88 10000 9.3 70 12:38 13.11.2019
4281 Clouds 24 1012 88 10000 9.8 70 12:20 13.11.2019
4282 Clouds 24 1012 88 10000 9.8 70 12:20 13.11.2019
4283 Clouds 23 1013 94 10000 7.2 80 11:41 13.11.2019
4284 Clouds 24 1013 88 9000 7.7 80 11:22 13.11.2019
4285 Rain 24 1013 88 10000 8.2 80 10:59 13.11.2019
4286 Rain 24 1013 88 10000 8.2 80 10:41 13.11.2019
4287 Clouds 24 1014 88 10000 8.2 80 10:21 13.11.2019
4288 Clouds 24 1014 88 10000 8.7 80 09:59 13.11.2019
4289 Clouds 24 1014 88 10000 8.7 80 09:39 13.11.2019
4290 Clouds 24 1013 88 10000 7.2 80 09:20 13.11.2019
4291 Clouds 24 1013 88 10000 7.2 80 09:20 13.11.2019
4292 Rain 24 1013 88 10000 7.2 80 08:40 13.11.2019
4293 Rain 24 1013 88 10000 7.2 80 08:21 13.11.2019
4294 Rain 24 1013 88 10000 7.2 80 07:43 13.11.2019
4295 Rain 24 1013 88 10000 7.7 80 07:22 13.11.2019
4296 Rain 24 1013 88 10000 6.7 80 06:47 13.11.2019
4297 Rain 24 1012 88 10000 6.7 80 06:19 13.11.2019
4298 Rain 24 1012 88 10000 6.7 80 06:19 13.11.2019
4299 Rain 24 1012 88 10000 6.7 80 06:19 13.11.2019
4300 Rain 24 1012 88 10000 6.7 80 06:19 13.11.2019
4301 Rain 24 1012 88 10000 7.7 80 05:57 13.11.2019
4302 Rain 24 1012 88 10000 7.7 80 05:38 13.11.2019
4303 Rain 25 1012 83 10000 8.2 70 04:44 13.11.2019
4304 Rain 24 1013 88 10000 5.7 80 02:28 13.11.2019
4305 Rain 26 1013 83 10000 9.3 70 01:46 13.11.2019
4306 Rain 26 1013 78 10000 8.7 80 00:57 13.11.2019
4307 Rain 26 1013 78 10000 8.7 80 00:36 13.11.2019
4308 Rain 26 1014 78 10000 8.7 80 23:42 12.11.2019
4309 Rain 25 1014 83 10000 5.7 90 23:22 12.11.2019
4310 Rain 26 1014 78 10000 7.2 80 22:58 12.11.2019
4311 Rain 26 1014 78 10000 7.2 80 22:40 12.11.2019
4312 Rain 27 1015 78 10000 7.7 80 22:18 12.11.2019
4313 Rain 26 1015 78 10000 7.7 80 21:44 12.11.2019
4314 Rain 26 1015 78 10000 7.7 80 21:44 12.11.2019
4315 Rain 26 1015 78 10000 7.7 80 21:25 12.11.2019
4316 Rain 26 1015 78 10000 7.2 80 20:58 12.11.2019
4317 Rain 26 1015 78 10000 7.2 80 20:37 12.11.2019
4318 Rain 25 1015 83 10000 8.2 80 20:19 12.11.2019
4319 Rain 25 1015 83 10000 7.2 80 19:57 12.11.2019
4320 Rain 25 1015 83 10000 7.2 80 19:39 12.11.2019
4321 Rain 25 1014 83 10000 6.2 80 19:19 12.11.2019
4322 Rain 24 1014 88 10000 6.2 80 18:58 12.11.2019
4323 Rain 24 1014 88 10000 6.2 80 18:39 12.11.2019
4324 Rain 24 1014 83 10000 4.6 90 18:21 12.11.2019
4325 Rain 23 1014 88 10000 5.1 90 17:57 12.11.2019
4326 Rain 23 1014 88 10000 5.1 90 17:39 12.11.2019
4327 Clouds 23 1014 88 10000 4.6 90 17:21 12.11.2019
4328 Clouds 23 1014 88 10000 5.1 80 16:56 12.11.2019
4329 Clouds 23 1014 88 10000 5.1 80 16:38 12.11.2019
4330 Clouds 23 1013 88 10000 5.1 90 16:20 12.11.2019
4331 Clouds 23 1013 88 10000 5.1 90 15:41 12.11.2019
4332 Clouds 23 1014 88 10000 5.1 90 15:21 12.11.2019
4333 Clouds 23 1014 88 10000 4.1 90 14:56 12.11.2019
4334 Clouds 23 1014 88 10000 4.1 90 14:37 12.11.2019
4335 Clear 23 1014 88 10000 4.6 90 14:18 12.11.2019
4336 Clear 23 1014 88 10000 5.1 90 13:55 12.11.2019
4337 Clear 23 1014 88 10000 5.1 90 13:36 12.11.2019
4338 Clear 23 1014 88 10000 4.6 90 13:18 12.11.2019
4339 Clear 23 1015 88 10000 5.7 80 12:42 12.11.2019
4340 Clear 23 1015 88 10000 5.7 90 12:19 12.11.2019
4341 Clear 23 1015 88 10000 5.1 90 11:57 12.11.2019
4342 Clear 23 1015 88 10000 5.1 90 11:39 12.11.2019
4343 Clear 23 1015 88 10000 5.7 90 11:21 12.11.2019
4344 Clear 23 1015 88 10000 6.7 90 10:55 12.11.2019
4345 Clear 23 1015 88 10000 6.7 80 10:37 12.11.2019
4346 Clear 23 1015 88 10000 6.7 80 10:19 12.11.2019
4347 Clear 24 1015 83 10000 6.2 80 09:40 12.11.2019
4348 Clear 24 1015 83 10000 4.6 90 09:20 12.11.2019
4349 Clear 23 1015 88 10000 4.6 100 08:51 12.11.2019
4350 Clear 24 1015 83 10000 4.6 90 08:30 12.11.2019
4351 Clouds 24 1015 83 10000 4.6 90 07:43 12.11.2019
4352 Clouds 24 1015 83 10000 5.1 90 07:25 12.11.2019
4353 Clouds 24 1014 78 10000 4.1 90 06:54 12.11.2019
4354 Clouds 24 1014 83 10000 4.6 90 06:29 12.11.2019
4355 Clouds 24 1014 83 10000 4.6 90 05:57 12.11.2019
4356 Clouds 25 1014 78 10000 5.1 100 04:59 12.11.2019
4357 Clouds 25 1014 78 10000 5.1 100 04:37 12.11.2019
4358 Clouds 26 1014 78 10000 5.7 90 02:41 12.11.2019
4359 Clouds 26 1014 74 10000 8.7 80 01:27 12.11.2019
4360 Clear 26 1014 78 10000 7.2 90 00:57 12.11.2019
4361 Clear 26 1014 78 10000 7.2 90 00:57 12.11.2019
4362 Clear 26 1014 78 10000 7.2 90 00:39 12.11.2019
4363 Clear 26 1015 78 10000 6.7 90 23:56 11.11.2019
4364 Clear 26 1015 78 10000 6.7 90 23:38 11.11.2019
4365 Clear 26 1015 74 10000 6.7 90 23:19 11.11.2019
4366 Clear 26 1015 78 10000 6.2 80 22:39 11.11.2019
4367 Clear 26 1015 74 10000 6.7 90 22:20 11.11.2019
4368 Rain 25 1016 83 10000 6.2 80 21:58 11.11.2019
4369 Rain 25 1016 83 10000 6.2 80 21:39 11.11.2019
4370 Clear 25 1016 78 10000 5.1 80 21:20 11.11.2019
4371 Clear 25 1016 78 10000 5.1 80 21:20 11.11.2019
4372 Clear 25 1016 78 10000 5.1 80 21:20 11.11.2019
4373 Clear 25 1016 78 10000 3.6 100 20:56 11.11.2019
4374 Clear 25 1016 78 10000 3.6 100 20:37 11.11.2019
4375 Clouds 25 1016 73 10000 3.1 100 20:19 11.11.2019
4376 Clouds 24 1016 78 10000 3.1 100 19:42 11.11.2019
4377 Clouds 24 1016 78 10000 3.1 110 19:20 11.11.2019
4378 Clouds 23 1015 83 10000 2.1 100 18:58 11.11.2019
4379 Clouds 23 1015 83 10000 2.1 100 18:40 11.11.2019
4380 Rain 23 1015 83 10000 2.1 110 18:20 11.11.2019
4381 Clouds 22 1015 88 10000 1.5 110 17:45 11.11.2019
4382 Clouds 22 1015 88 10000 2.6 110 17:27 11.11.2019
4383 Clouds 21 1014 94 10000 1 180 16:56 11.11.2019
4384 Clouds 21 1014 94 10000 1 180 16:38 11.11.2019
4385 Clouds 21 1014 94 10000 0.5 180 16:20 11.11.2019
4386 Clouds 22 1014 88 10000 1 140 15:41 11.11.2019
4387 Clouds 22 1014 88 10000 1.5 110 15:20 11.11.2019
4388 Clouds 22 1014 88 10000 1.5 110 15:20 11.11.2019
4389 Clouds 22 1014 88 10000 1.5 140 14:55 11.11.2019
4390 Clouds 22 1014 88 10000 1.5 140 14:37 11.11.2019
4391 Clouds 22 1014 88 10000 2.1 120 14:18 11.11.2019
4392 Clouds 22 1014 88 10000 2.1 120 14:18 11.11.2019
4393 Rain 22 1015 88 10000 1.5 120 13:40 11.11.2019
4394 Rain 22 1015 88 10000 2.6 120 13:21 11.11.2019
4395 Rain 22 1015 88 10000 3.6 100 12:58 11.11.2019
4396 Rain 22 1015 88 10000 3.6 100 12:58 11.11.2019
4397 Rain 22 1015 88 10000 3.6 100 12:40 11.11.2019
4398 Rain 23 1015 83 10000 3.1 100 12:22 11.11.2019
4399 Rain 23 1015 83 10000 3.6 100 11:57 11.11.2019
4400 Rain 23 1015 83 10000 3.6 100 11:57 11.11.2019
4401 Rain 23 1015 83 10000 3.6 100 11:38 11.11.2019
4402 Rain 23 1016 83 10000 2.1 110 11:20 11.11.2019
4403 Rain 22 1016 88 10000 2.1 110 10:42 11.11.2019
4404 Clouds 23 1015 83 10000 4.1 100 10:18 11.11.2019
4405 Clouds 23 1015 83 10000 3.1 120 09:56 11.11.2019
4406 Clouds 23 1015 83 10000 3.1 120 09:37 11.11.2019
4407 Clouds 23 1015 83 10000 3.6 110 09:18 11.11.2019
4408 Clouds 23 1015 83 10000 3.6 110 09:18 11.11.2019
4409 Clouds 23 1015 78 10000 4.1 110 08:41 11.11.2019
4410 Rain 23 1015 83 10000 2.1 110 08:21 11.11.2019
4411 Rain 22 1015 88 10000 3.6 120 07:57 11.11.2019
4412 Rain 22 1015 88 10000 3.6 120 07:37 11.11.2019
4413 Rain 22 1015 88 10000 2.6 110 07:18 11.11.2019
4414 Rain 22 1014 88 10000 3.1 120 06:46 11.11.2019
4415 Rain 23 1014 83 10000 3.1 110 06:22 11.11.2019
4416 Rain 22 1014 88 10000 3.6 110 05:50 11.11.2019
4417 Drizzle 24 1013 78 10000 2.6 120 04:29 11.11.2019
4418 Clouds 24 1013 78 10000 5.1 100 03:23 11.11.2019
4419 Rain 24 1013 83 10000 5.1 100 02:22 11.11.2019
4420 Rain 24 1013 83 6000 4.6 100 01:55 11.11.2019
4421 Rain 24 1013 83 6000 4.6 100 01:34 11.11.2019
4422 Rain 24 1014 78 10000 4.6 110 00:47 11.11.2019
4423 Rain 23 1014 88 9000 4.6 100 00:19 11.11.2019
4424 Rain 23 1014 88 9000 4.6 100 00:19 11.11.2019
4425 Rain 24 1014 83 10000 5.1 100 23:39 10.11.2019
4426 Rain 24 1014 88 10000 3.6 110 23:20 10.11.2019
4427 Rain 24 1015 88 5000 4.1 90 22:57 10.11.2019
4428 Rain 24 1015 88 5000 4.1 90 22:38 10.11.2019
4429 Rain 24 1015 83 10000 3.6 110 22:20 10.11.2019
4430 Rain 23 1015 88 5000 3.6 110 21:57 10.11.2019
4431 Rain 23 1015 88 5000 3.6 110 21:39 10.11.2019
4432 Rain 23 1015 88 7000 3.1 120 21:20 10.11.2019
4433 Rain 23 1015 88 7000 2.6 130 20:43 10.11.2019
4434 Rain 23 1015 88 10000 2.6 120 20:22 10.11.2019
4435 Rain 23 1015 88 10000 2.6 120 20:22 10.11.2019
4436 Rain 23 1015 88 10000 2.6 120 20:22 10.11.2019
4437 Rain 24 1014 83 10000 2.6 110 19:57 10.11.2019
4438 Rain 24 1014 83 10000 2.6 110 19:38 10.11.2019
4439 Rain 24 1014 83 10000 2.6 110 19:38 10.11.2019
4440 Rain 23 1014 88 7000 2.6 120 19:19 10.11.2019
4441 Rain 23 1014 88 10000 2.1 90 18:58 10.11.2019
4442 Rain 23 1014 88 10000 2.1 90 18:58 10.11.2019
4443 Rain 23 1014 88 10000 2.1 90 18:40 10.11.2019
4444 Rain 22 1014 94 10000 1 150 18:20 10.11.2019
4445 Drizzle 22 1013 88 10000 2.1 100 17:57 10.11.2019
4446 Drizzle 22 1013 88 10000 2.1 100 17:39 10.11.2019
4447 Rain 21 1013 94 10000 0.5 210 17:20 10.11.2019
4448 Rain 21 1013 94 10000 1 160 16:58 10.11.2019
4449 Rain 21 1013 94 10000 1 160 16:39 10.11.2019
4450 Rain 22 1013 88 10000 1 90 16:21 10.11.2019
4451 Rain 22 1012 88 10000 1 120 15:56 10.11.2019
4452 Rain 22 1012 88 10000 1 120 15:36 10.11.2019
4453 Rain 22 1012 88 10000 3.1 110 15:18 10.11.2019
4454 Rain 22 1013 94 10000 2.6 100 14:55 10.11.2019
4455 Rain 22 1013 94 10000 2.6 100 14:36 10.11.2019
4456 Rain 22 1013 88 10000 2.6 110 14:18 10.11.2019
4457 Rain 23 1013 88 10000 3.6 90 13:41 10.11.2019
4458 Rain 22 1013 94 10000 2.6 100 13:20 10.11.2019
4459 Rain 23 1014 88 10000 4.1 90 12:54 10.11.2019
4460 Rain 23 1014 88 10000 4.1 90 12:36 10.11.2019
4461 Rain 22 1014 94 10000 3.1 100 12:18 10.11.2019
4462 Rain 23 1014 88 10000 3.1 90 11:54 10.11.2019
4463 Rain 23 1014 88 10000 3.1 90 11:36 10.11.2019
4464 Rain 23 1014 88 10000 3.6 100 11:18 10.11.2019
4465 Rain 23 1015 88 10000 4.6 90 10:41 10.11.2019
4466 Rain 23 1015 83 10000 3.1 100 10:20 10.11.2019
4467 Rain 23 1015 83 10000 4.1 100 09:44 10.11.2019
4468 Rain 23 1015 83 10000 4.1 100 09:24 10.11.2019
4469 Rain 23 1014 83 10000 3.1 100 08:56 10.11.2019
4470 Rain 23 1014 83 10000 3.1 100 08:36 10.11.2019
4471 Rain 23 1014 88 10000 3.6 100 08:18 10.11.2019
4472 Rain 24 1014 78 10000 5.1 100 07:42 10.11.2019
4473 Rain 23 1013 83 10000 2.6 100 07:23 10.11.2019
4474 Rain 24 1013 78 10000 3.1 110 06:31 10.11.2019
4475 Rain 24 1013 78 10000 4.6 90 05:32 10.11.2019
4476 Rain 25 1012 73 10000 4.6 90 03:22 10.11.2019
4477 Rain 26 1013 74 10000 4.1 110 01:45 10.11.2019
4478 Clouds 26 1012 74 10000 4.6 100 01:19 10.11.2019
4479 Clouds 26 1013 74 10000 3.1 110 00:40 10.11.2019
4480 Clouds 25 1014 78 10000 4.1 110 23:46 09.11.2019
4481 Clouds 26 1014 74 10000 5.1 100 23:21 09.11.2019
4482 Clouds 26 1014 74 10000 4.1 90 22:59 09.11.2019
4483 Clouds 26 1014 74 10000 4.1 90 22:40 09.11.2019
4484 Clouds 25 1014 78 10000 4.1 100 22:20 09.11.2019
4485 Clouds 24 1014 78 10000 4.6 90 21:55 09.11.2019
4486 Clouds 24 1014 78 10000 4.6 90 21:37 09.11.2019
4487 Clouds 24 1014 78 10000 5.1 100 21:19 09.11.2019
4488 Clouds 25 1014 78 10000 4.6 90 20:41 09.11.2019
4489 Rain 24 1014 78 10000 1 100 20:22 09.11.2019
4490 Rain 24 1014 78 10000 3.1 110 19:57 09.11.2019
4491 Rain 24 1014 78 10000 3.1 110 19:38 09.11.2019
4492 Rain 23 1013 83 10000 5.7 90 19:19 09.11.2019
4493 Rain 23 1013 83 10000 3.1 100 18:40 09.11.2019
4494 Rain 22 1013 88 10000 2.6 110 18:19 09.11.2019
4495 Rain 22 1013 94 10000 1.5 140 17:58 09.11.2019
4496 Rain 22 1013 94 10000 1.5 140 17:58 09.11.2019
4497 Rain 22 1013 94 10000 1.5 140 17:40 09.11.2019
4498 Rain 22 1013 88 10000 0.5 20 17:22 09.11.2019
4499 Rain 23 1012 83 10000 3.6 110 16:42 09.11.2019
4500 Rain 23 1012 83 10000 1.5 110 16:21 09.11.2019
4501 Rain 22 1012 88 10000 1.5 90 15:57 09.11.2019
4502 Rain 22 1012 88 10000 1.5 90 15:39 09.11.2019
4503 Rain 23 1012 83 10000 3.1 90 15:20 09.11.2019
4504 Rain 23 1012 83 10000 3.1 100 14:42 09.11.2019
4505 Rain 23 1012 83 10000 3.1 100 14:42 09.11.2019
4506 Rain 23 1012 83 10000 3.6 90 14:22 09.11.2019
4507 Rain 23 1013 83 10000 2.6 90 13:57 09.11.2019
4508 Rain 23 1013 83 10000 2.6 90 13:37 09.11.2019
4509 Rain 23 1013 83 10000 2.6 100 13:19 09.11.2019
4510 Rain 23 1013 88 10000 3.6 90 12:50 09.11.2019
4511 Rain 23 1014 83 10000 2.6 90 12:29 09.11.2019
4512 Rain 23 1014 83 10000 2.1 100 11:57 09.11.2019
4513 Rain 23 1014 83 10000 2.1 100 11:39 09.11.2019
4514 Rain 23 1014 83 10000 4.1 90 11:19 09.11.2019
4515 Rain 23 1014 83 10000 2.6 80 10:42 09.11.2019
4516 Rain 23 1014 83 10000 3.6 100 10:20 09.11.2019
4517 Rain 23 1014 88 10000 4.1 100 09:59 09.11.2019
4518 Rain 23 1014 88 10000 4.1 100 09:41 09.11.2019
4519 Rain 24 1014 78 10000 5.1 100 09:20 09.11.2019
4520 Rain 23 1014 83 10000 4.1 100 08:43 09.11.2019
4521 Rain 23 1014 83 10000 4.1 100 08:24 09.11.2019
4522 Rain 23 1014 83 10000 5.1 100 07:49 09.11.2019
4523 Rain 24 1014 78 10000 4.1 100 07:25 09.11.2019
4524 Rain 23 1014 83 10000 4.1 100 06:57 09.11.2019
4525 Rain 23 1014 83 10000 4.1 100 06:39 09.11.2019
4526 Rain 23 1013 83 10000 5.1 90 06:20 09.11.2019
4527 Rain 23 1013 83 10000 3.6 100 05:38 09.11.2019
4528 Rain 23 1013 83 10000 4.1 100 03:57 09.11.2019
4529 Rain 24 1013 78 10000 3.6 100 02:47 09.11.2019
4530 Rain 24 1013 83 10000 4.1 90 02:24 09.11.2019
4531 Rain 24 1013 83 10000 4.1 90 02:24 09.11.2019
4532 Rain 25 1013 73 10000 5.1 90 01:18 09.11.2019
4533 Rain 26 1014 74 10000 5.1 90 00:39 09.11.2019
4534 Rain 26 1014 74 10000 5.1 90 00:21 09.11.2019
4535 Rain 25 1014 73 10000 6.2 90 23:40 08.11.2019
4536 Rain 25 1015 73 10000 5.1 100 23:22 08.11.2019
4537 Rain 25 1015 78 10000 5.7 90 22:54 08.11.2019
4538 Rain 25 1015 78 10000 6.2 100 22:22 08.11.2019
4539 Rain 24 1015 83 10000 5.1 100 21:59 08.11.2019
4540 Rain 24 1015 83 10000 5.1 100 21:41 08.11.2019
4541 Rain 24 1015 78 10000 5.1 110 21:22 08.11.2019
4542 Rain 24 1015 78 10000 4.6 100 20:57 08.11.2019
4543 Rain 24 1015 78 10000 4.6 100 20:38 08.11.2019
4544 Rain 23 1015 83 10000 4.1 100 20:18 08.11.2019
4545 Rain 23 1015 83 10000 4.1 100 19:40 08.11.2019
4546 Rain 23 1015 88 10000 5.1 90 19:19 08.11.2019
4547 Rain 23 1015 83 10000 4.1 100 18:56 08.11.2019
4548 Rain 23 1015 83 10000 4.1 100 18:38 08.11.2019
4549 Rain 22 1015 94 10000 3.1 110 18:20 08.11.2019
4550 Rain 23 1014 88 10000 3.6 110 17:56 08.11.2019
4551 Rain 23 1014 88 10000 3.6 110 17:38 08.11.2019
4552 Drizzle 23 1014 88 10000 3.1 110 17:20 08.11.2019
4553 Rain 23 1013 88 10000 3.1 130 16:58 08.11.2019
4554 Rain 23 1013 88 10000 3.1 130 16:39 08.11.2019
4555 Rain 23 1013 88 10000 3.1 130 16:39 08.11.2019
4556 Rain 23 1013 88 10000 3.1 130 16:39 08.11.2019
4557 Rain 23 1013 88 10000 2.1 120 16:20 08.11.2019
4558 Rain 23 1013 88 10000 2.1 120 16:20 08.11.2019
4559 Rain 22 1014 94 10000 1 100 15:59 08.11.2019
4560 Rain 22 1014 94 10000 1 100 15:40 08.11.2019
4561 Rain 22 1013 94 10000 0.5 160 15:22 08.11.2019
4562 Rain 23 1013 88 10000 3.6 80 14:56 08.11.2019
4563 Rain 23 1013 88 10000 3.6 80 14:37 08.11.2019
4564 Rain 22 1013 94 10000 1 90 14:18 08.11.2019
4565 Rain 22 1013 94 10000 1 90 14:18 08.11.2019
4566 Rain 22 1014 94 10000 2.6 80 13:57 08.11.2019
4567 Rain 22 1014 94 10000 2.6 80 13:38 08.11.2019
4568 Rain 22 1014 94 10000 2.6 80 13:38 08.11.2019
4569 Rain 22 1014 94 10000 1 100 13:19 08.11.2019
4570 Rain 22 1015 94 10000 1.5 170 12:42 08.11.2019
4571 Rain 22 1015 94 10000 1.5 200 12:24 08.11.2019
4572 Rain 22 1015 94 10000 0.5 210 11:57 08.11.2019
4573 Rain 22 1015 94 10000 0.5 210 11:38 08.11.2019
4574 Rain 22 1015 94 10000 1 130 11:20 08.11.2019
4575 Rain 22 1016 94 10000 1.5 90 10:56 08.11.2019
4576 Rain 22 1016 94 10000 1.5 90 10:38 08.11.2019
4577 Rain 22 1016 94 10000 2.1 100 10:20 08.11.2019
4578 Rain 23 1016 88 10000 2.6 100 09:41 08.11.2019
4579 Rain 23 1015 88 10000 6.2 80 09:20 08.11.2019
4580 Rain 22 1016 100 5000 7.2 70 08:54 08.11.2019
4581 Rain 22 1016 100 5000 7.2 70 08:36 08.11.2019
4582 Clouds 24 1015 83 10000 5.7 90 08:18 08.11.2019
4583 Clouds 24 1014 83 10000 7.7 80 07:39 08.11.2019
4584 Drizzle 24 1015 83 10000 5.7 90 07:20 08.11.2019
4585 Clouds 24 1015 78 10000 4.6 90 06:40 08.11.2019
4586 Clouds 24 1015 78 10000 4.6 80 06:20 08.11.2019
4587 Clouds 24 1015 78 10000 4.1 90 05:40 08.11.2019
4588 Clouds 24 1014 78 10000 3.6 90 04:43 08.11.2019
4589 Clouds 24 1014 78 10000 3.6 90 03:44 08.11.2019
4590 Clouds 25 1014 69 10000 4.6 100 03:20 08.11.2019
4591 Clouds 26 1014 65 10000 6.2 80 02:26 08.11.2019
4592 Clouds 26 1014 65 10000 4.1 100 01:46 08.11.2019
4593 Rain 26 1015 65 10000 5.1 90 00:59 08.11.2019
4594 Rain 27 1015 61 10000 4.6 100 00:24 08.11.2019
4595 Rain 26 1015 65 10000 5.7 90 23:56 07.11.2019
4596 Rain 26 1015 65 10000 5.7 90 23:36 07.11.2019
4597 Rain 26 1016 65 10000 4.6 110 23:18 07.11.2019
4598 Rain 26 1016 69 10000 4.1 100 22:41 07.11.2019
4599 Rain 25 1016 78 10000 5.7 80 22:21 07.11.2019
4600 Rain 26 1016 74 10000 4.1 100 21:55 07.11.2019
4601 Rain 26 1016 74 10000 4.1 100 21:37 07.11.2019
4602 Rain 25 1016 73 10000 5.1 80 21:18 07.11.2019
4603 Rain 26 1016 74 10000 5.1 80 20:55 07.11.2019
4604 Rain 26 1016 74 10000 5.1 80 20:37 07.11.2019
4605 Rain 26 1016 74 10000 5.1 80 20:37 07.11.2019
4606 Clouds 25 1016 78 10000 2.1 80 20:18 07.11.2019
4607 Clouds 24 1016 78 10000 1 120 19:41 07.11.2019
4608 Clouds 24 1016 83 10000 2.1 90 19:23 07.11.2019
4609 Clouds 23 1016 88 10000 2.6 90 18:58 07.11.2019
4610 Clouds 23 1016 88 10000 2.6 90 18:39 07.11.2019
4611 Clouds 22 1016 94 10000 1 130 18:19 07.11.2019
4612 Clouds 19 1015 100 10000 0.5 130 17:59 07.11.2019
4613 Clouds 19 1015 100 10000 0.5 130 17:38 07.11.2019
4614 Clear 19 1015 100 10000 0.5 130 17:20 07.11.2019
4615 Clear 19 1015 100 10000 1 160 16:56 07.11.2019
4616 Clear 19 1015 100 10000 1 130 16:37 07.11.2019
4617 Clear 19 1015 100 10000 1 130 16:19 07.11.2019
4618 Clear 19 1015 100 10000 1 160 15:43 07.11.2019
4619 Clear 19 1015 100 10000 1 160 15:21 07.11.2019
4620 Clear 19 1014 100 10000 1 180 14:59 07.11.2019
4621 Clear 19 1014 100 10000 0.5 150 14:39 07.11.2019
4622 Clear 19 1014 100 10000 0.5 150 14:21 07.11.2019
4623 Clear 19 1014 100 10000 1 150 13:55 07.11.2019
4624 Clear 20 1014 94 10000 0.5 190 13:37 07.11.2019
4625 Clear 20 1014 94 10000 0.5 190 13:19 07.11.2019
4626 Clear 20 1015 100 10000 1 160 12:57 07.11.2019
4627 Clear 20 1015 94 10000 1 110 12:38 07.11.2019
4628 Clear 20 1015 94 10000 1 110 12:18 07.11.2019
4629 Clear 21 1016 94 10000 1 130 11:42 07.11.2019
4630 Clear 21 1016 94 10000 1 130 11:23 07.11.2019
4631 Clear 21 1016 94 10000 1 130 11:23 07.11.2019
4632 Clear 22 1016 88 10000 2.1 100 10:43 07.11.2019
4633 Clear 22 1016 88 10000 2.1 100 10:19 07.11.2019
4634 Clear 22 1016 88 10000 3.1 90 09:56 07.11.2019
4635 Clear 22 1016 88 10000 3.1 90 09:38 07.11.2019
4636 Clear 22 1016 88 10000 3.1 90 09:20 07.11.2019
4637 Clear 22 1016 88 10000 3.1 90 09:20 07.11.2019
4638 Clear 22 1016 88 10000 4.1 80 08:45 07.11.2019
4639 Clear 22 1016 88 10000 3.1 90 08:24 07.11.2019
4640 Clear 22 1016 88 10000 3.1 90 08:23 07.11.2019
4641 Clear 22 1016 88 10000 3.1 90 08:23 07.11.2019
4642 Clear 22 1016 88 10000 3.6 90 07:57 07.11.2019
4643 -273 0 0 0 0 0 07:39 07.11.2019
4644 -273 0 0 0 0 0 07:38 07.11.2019
4645 Clear 22 1016 88 10000 4.1 90 07:38 07.11.2019
4646 Clear 22 1016 88 10000 4.1 90 07:19 07.11.2019
4647 Clear 22 1015 88 10000 3.6 80 06:44 07.11.2019
4648 Clear 23 1015 83 10000 4.1 90 06:23 07.11.2019
4649 Clear 23 1015 83 10000 4.1 90 06:23 07.11.2019
4650 Clear 23 1015 83 10000 4.6 80 05:48 07.11.2019
4651 Clear 24 1014 78 10000 2.6 100 05:30 07.11.2019
4652 Rain 24 1014 78 10000 3.1 120 04:50 07.11.2019
4653 Rain 24 1014 78 10000 2.6 100 04:28 07.11.2019
4654 Clouds 25 1014 78 10000 4.6 50 01:27 07.11.2019
4655 Clouds 25 1015 78 10000 3.6 60 00:27 07.11.2019
4656 Clouds 25 1015 73 10000 3.1 40 23:50 06.11.2019
4657 Clear 25 1015 78 10000 2.6 50 23:23 06.11.2019
4658 Clear 25 1015 73 10000 2.1 360 22:59 06.11.2019
4659 Clear 25 1016 73 10000 2.1 340 22:39 06.11.2019
4660 Clear 25 1016 73 10000 2.1 340 22:20 06.11.2019
4661 Clear 25 1016 73 10000 2.1 340 21:57 06.11.2019
4662 Clear 25 1016 73 10000 1.5 20 21:38 06.11.2019
4663 Clear 25 1016 73 10000 1.5 20 21:19 06.11.2019
4664 Clear 25 1016 73 10000 1.5 20 20:55 06.11.2019
4665 Clear 25 1015 73 10000 1 30 20:37 06.11.2019
4666 Clouds 25 1015 73 10000 1 30 20:18 06.11.2019
4667 Clouds 24 1015 83 10000 1.5 40 19:40 06.11.2019
4668 Clouds 24 1015 83 10000 1.5 40 19:22 06.11.2019
4669 Clouds 22 1015 94 10000 3.44 118 18:59 06.11.2019
4670 Clouds 22 1015 94 10000 3.44 118 18:59 06.11.2019
4671 Clouds 20 1014 94 10000 0.5 140 18:39 06.11.2019
4672 Clouds 20 1014 94 10000 0.5 140 18:19 06.11.2019
4673 Clouds 20 1014 94 10000 0.5 130 17:59 06.11.2019
4674 Clouds 20 1014 94 10000 0.5 130 17:40 06.11.2019
4675 Clouds 20 1014 100 10000 0.5 150 17:21 06.11.2019
4676 Clouds 20 1014 100 10000 0.5 150 17:21 06.11.2019
4677 Rain 21 1014 94 10000 2.1 120 16:56 06.11.2019
4678 Rain 21 1014 94 10000 2.1 120 16:37 06.11.2019
4679 Clouds 21 1014 94 10000 2.1 80 16:18 06.11.2019
4680 Clouds 21 1014 94 10000 2.6 80 15:56 06.11.2019
4681 Clouds 21 1014 94 10000 2.6 80 15:37 06.11.2019
4682 Clouds 21 1013 94 10000 0.5 120 15:18 06.11.2019
4683 Clouds 21 1013 94 10000 3.21 175 14:56 06.11.2019
4684 Clouds 21 1013 94 10000 3.21 175 14:56 06.11.2019
4685 Clouds 21 1013 94 10000 3.21 175 14:37 06.11.2019
4686 Clouds 22 1013 88 10000 2.6 80 14:19 06.11.2019
4687 Clouds 21 1013 100 10000 2.1 210 13:40 06.11.2019
4688 Clouds 21 1013 100 10000 2.1 210 13:40 06.11.2019
4689 Rain 22 1013 94 10000 2.1 270 13:22 06.11.2019
4690 Rain 22 1013 88 10000 2.1 160 12:58 06.11.2019
4691 Rain 22 1013 88 10000 2.1 160 12:39 06.11.2019
4692 Rain 22 1013 88 10000 2.1 120 12:21 06.11.2019
4693 Rain 21 1014 94 8000 4.6 260 11:58 06.11.2019
4694 Rain 21 1014 94 8000 4.6 260 11:38 06.11.2019
4695 Rain 22 1014 88 10000 3.1 110 11:18 06.11.2019
4696 Rain 22 1014 94 10000 2.1 110 10:56 06.11.2019
4697 Rain 22 1014 94 10000 2.1 110 10:38 06.11.2019
4698 Rain 22 1014 94 10000 4.1 100 10:19 06.11.2019
4699 Rain 22 1014 94 10000 7.2 80 09:44 06.11.2019
4700 Rain 22 1013 94 10000 7.7 80 09:23 06.11.2019
4701 Rain 22 1013 94 10000 7.7 80 08:59 06.11.2019
4702 Rain 22 1013 94 10000 7.7 80 08:38 06.11.2019
4703 Rain 22 1014 88 10000 5.1 90 08:20 06.11.2019
4704 Rain 22 1015 88 10000 1.5 100 07:56 06.11.2019
4705 Rain 22 1015 88 10000 1.5 100 07:37 06.11.2019
4706 Rain 22 1015 88 10000 1.5 100 07:37 06.11.2019
4707 Rain 22 1014 88 10000 1 100 07:19 06.11.2019
4708 Rain 22 1014 88 10000 3.1 100 06:42 06.11.2019
4709 Rain 22 1014 88 10000 3.1 90 06:23 06.11.2019
4710 Clouds 23 1012 78 10000 5.1 80 03:58 06.11.2019
4711 Rain 24 1013 78 10000 3.6 80 02:19 06.11.2019
4712 Clouds 24 1013 73 10000 2.1 40 01:31 06.11.2019
4713 Clouds 24 1014 69 10000 1 320 00:35 06.11.2019
4714 Clouds 24 1013 73 10000 2.1 20 23:57 05.11.2019
4715 Clouds 24 1013 73 10000 2.1 20 23:37 05.11.2019
4716 Clouds 24 1014 69 10000 2.1 30 23:18 05.11.2019
4717 Clouds 24 1014 69 10000 2.1 30 22:42 05.11.2019
4718 Clouds 24 1014 69 10000 2.1 30 22:42 05.11.2019
4719 Clouds 24 1014 69 10000 2.1 20 22:19 05.11.2019
4720 Clouds 24 1014 69 10000 3.1 50 21:57 05.11.2019
4721 Clouds 24 1014 69 10000 3.1 50 21:39 05.11.2019
4722 Clouds 24 1014 73 10000 2.6 60 21:20 05.11.2019
4723 Clouds 25 1014 65 10000 0.5 100 20:56 05.11.2019
4724 Clouds 25 1014 65 10000 0.5 100 20:38 05.11.2019
4725 Clouds 25 1014 65 10000 0.5 100 20:38 05.11.2019
4726 Clouds 23 1014 73 10000 1 100 20:20 05.11.2019
4727 Clouds 22 1014 83 10000 1.5 110 19:54 05.11.2019
4728 Clouds 22 1014 83 10000 1.5 110 19:54 05.11.2019
4729 Clouds 22 1014 83 10000 1.5 110 19:36 05.11.2019
4730 Clouds 22 1014 83 10000 1.5 100 19:18 05.11.2019
4731 Clouds 22 1013 78 10000 2.1 90 18:55 05.11.2019
4732 Clouds 22 1013 78 10000 2.1 90 18:37 05.11.2019
4733 Clouds 22 1013 78 10000 2.1 30 18:18 05.11.2019
4734 Clouds 21 1012 77 10000 1.5 110 17:39 05.11.2019
4735 Clouds 21 1012 77 10000 1.5 110 17:21 05.11.2019
4736 Clouds 20 1012 88 10000 1 120 16:59 05.11.2019
4737 Clouds 20 1012 88 10000 1 120 16:41 05.11.2019
4738 Clouds 20 1011 82 10000 0.5 110 16:20 05.11.2019
4739 Clouds 20 1011 82 10000 1 110 15:41 05.11.2019
4740 Clouds 20 1011 82 10000 1 70 15:20 05.11.2019
4741 Clouds 21 1012 77 10000 0.5 120 14:59 05.11.2019
4742 Clouds 21 1012 77 10000 0.5 120 14:41 05.11.2019
4743 Clouds 21 1012 83 10000 1.5 190 14:22 05.11.2019
4744 Clouds 21 1011 77 10000 1.5 190 13:58 05.11.2019
4745 Clouds 21 1011 77 10000 1.5 190 13:40 05.11.2019
4746 Clouds 21 1011 77 10000 1.5 120 13:22 05.11.2019
4747 Clouds 21 1011 77 10000 1.5 100 12:40 05.11.2019
4748 Clouds 21 1011 77 10000 1.5 110 12:21 05.11.2019
4749 Clouds 20 1011 82 10000 2.1 110 11:56 05.11.2019
4750 Clouds 20 1011 82 10000 2.1 110 11:38 05.11.2019
4751 Clouds 19 1012 88 10000 1 90 11:19 05.11.2019
4752 Clouds 18 1011 93 10000 1 80 10:48 05.11.2019
4753 Clouds 19 1012 88 10000 1 110 10:27 05.11.2019
4754 Clouds 19 1012 93 10000 0.5 150 09:59 05.11.2019
4755 Clouds 19 1012 93 10000 0.5 150 09:59 05.11.2019
4756 Clouds 19 1012 93 10000 0.5 150 09:41 05.11.2019
4757 Clouds 19 1011 93 10000 1 180 09:20 05.11.2019
4758 Clouds 19 1011 88 10000 1 170 08:56 05.11.2019
4759 Clouds 19 1011 88 10000 1 170 08:37 05.11.2019
4760 Clouds 20 1011 88 10000 0.5 130 08:18 05.11.2019
4761 Clouds 20 1011 82 10000 0.5 180 07:44 05.11.2019
4762 Clouds 20 1011 82 10000 0.5 190 07:25 05.11.2019
4763 Haze 21 1010 77 2900 0.5 150 06:51 05.11.2019
4764 Clouds 22 1010 73 10000 0.5 170 06:26 05.11.2019
4765 Clouds 22 1010 73 10000 1 180 05:39 05.11.2019
4766 Clouds 23 1009 69 10000 1.5 270 05:19 05.11.2019
4767 Clouds 23 1009 64 10000 1.5 270 04:20 05.11.2019
4768 Clouds 23 1010 64 10000 3.1 260 03:24 05.11.2019
4769 Clouds 23 1009 60 10000 2.1 270 02:42 05.11.2019
4770 Clouds 23 1009 64 10000 3.1 260 01:52 05.11.2019
4771 Clouds 23 1009 64 10000 3.1 260 01:52 05.11.2019
4772 Clouds 23 1009 64 10000 3.1 260 01:52 05.11.2019
4773 Clouds 24 1010 64 10000 3.1 260 00:43 05.11.2019
4774 Clouds 23 1010 64 10000 3.1 240 00:23 05.11.2019
4775 Clouds 23 1011 73 10000 3.1 210 23:41 04.11.2019
4776 Clouds 23 1011 73 10000 3.1 210 23:19 04.11.2019
4777 Rain 23 1011 69 10000 2.6 180 22:55 04.11.2019
4778 Rain 23 1011 69 10000 2.6 180 22:37 04.11.2019
4779 Rain 23 1011 69 10000 2.6 180 22:37 04.11.2019
4780 Clouds 22 1011 68 10000 3.1 280 22:19 04.11.2019
4781 Clouds 23 1011 64 10000 2.6 250 21:54 04.11.2019
4782 Clouds 23 1011 64 10000 2.6 250 21:54 04.11.2019
4783 Clouds 23 1011 64 10000 2.6 250 21:36 04.11.2019
4784 Clouds 24 1011 64 10000 2.1 250 21:18 04.11.2019
4785 Clouds 23 1011 64 10000 2.1 220 20:54 04.11.2019
4786 Clouds 23 1011 64 10000 2.1 220 20:36 04.11.2019
4787 Clouds 22 1011 73 10000 2.1 190 20:18 04.11.2019
4788 Clouds 22 1010 73 10000 2.6 170 19:42 04.11.2019
4789 Clouds 22 1010 68 10000 1 190 19:23 04.11.2019
4790 Clouds 21 1009 73 10000 1 160 18:58 04.11.2019
4791 Clouds 21 1009 73 10000 1 160 18:39 04.11.2019
4792 Clouds 21 1010 73 10000 1.5 180 18:21 04.11.2019
4793 Clouds 20 1009 77 10000 1 180 17:56 04.11.2019
4794 Clouds 20 1009 77 10000 1 180 17:36 04.11.2019
4795 Clouds 20 1009 77 10000 1 190 17:18 04.11.2019
4796 Clouds 19 1009 82 10000 1 180 16:41 04.11.2019
4797 Clouds 19 1009 82 10000 0.5 160 16:23 04.11.2019
4798 Clouds 19 1009 77 10000 0.5 180 15:57 04.11.2019
4799 Clouds 19 1009 77 10000 0.5 180 15:39 04.11.2019
4800 Clouds 19 1008 77 10000 1 150 15:21 04.11.2019
4801 Clouds 20 1008 72 10000 1 180 14:57 04.11.2019
4802 Clouds 20 1008 72 10000 1 180 14:39 04.11.2019
4803 Clouds 20 1008 72 10000 1 190 14:19 04.11.2019
4804 Clouds 20 1008 72 10000 1 170 13:56 04.11.2019
4805 Clouds 20 1008 72 10000 1 170 13:38 04.11.2019
4806 Clouds 20 1009 72 10000 1 160 13:19 04.11.2019
4807 Clouds 20 1009 72 10000 1.5 170 12:44 04.11.2019
4808 Clouds 20 1009 72 10000 1 180 12:25 04.11.2019
4809 Clouds 20 1009 68 10000 1 150 11:58 04.11.2019
4810 Clouds 20 1009 68 10000 1 150 11:58 04.11.2019
4811 Clouds 20 1009 68 10000 1 150 11:40 04.11.2019
4812 Clouds 21 1010 64 10000 1.5 190 11:21 04.11.2019
4813 Clouds 21 1010 68 10000 1 180 10:47 04.11.2019
4814 Clouds 20 1010 68 10000 1.5 170 10:26 04.11.2019
4815 Clouds 21 1010 64 10000 1 180 09:56 04.11.2019
4816 Clouds 21 1010 64 10000 1 180 09:38 04.11.2019
4817 Clouds 21 1010 64 10000 1.5 170 09:19 04.11.2019
4818 Clouds 21 1010 64 10000 1.5 170 09:19 04.11.2019
4819 Clouds 21 1010 64 10000 2.1 200 08:42 04.11.2019
4820 Clouds 21 1009 64 10000 1.5 200 08:21 04.11.2019
4821 Clouds 22 1009 60 10000 2.1 220 07:49 04.11.2019
4822 Clouds 21 1009 64 10000 1.5 190 07:25 04.11.2019
4823 Clouds 22 1009 60 9000 2.1 200 06:59 04.11.2019
4824 Clouds 22 1009 60 9000 2.1 200 06:38 04.11.2019
4825 Clouds 22 1008 60 10000 2.1 200 05:59 04.11.2019
4826 Clouds 22 1008 60 10000 3.6 220 05:23 04.11.2019
4827 Clouds 23 1008 53 10000 4.1 220 04:25 04.11.2019
4828 Clouds 23 1008 56 10000 4.6 220 03:23 04.11.2019
4829 Clouds 24 1009 50 10000 5.7 240 01:23 04.11.2019
4830 Clouds 24 1009 50 10000 4.1 220 00:52 04.11.2019
4831 Clouds 24 1009 50 10000 4.6 230 00:21 04.11.2019
4832 Clouds 24 1009 50 10000 4.1 220 23:58 03.11.2019
4833 Clouds 24 1009 50 10000 4.1 220 23:36 03.11.2019
4834 Clouds 24 1009 53 10000 4.6 220 23:18 03.11.2019
4835 Clouds 23 1010 56 10000 4.6 240 22:55 03.11.2019
4836 Clouds 23 1010 56 10000 4.6 240 22:37 03.11.2019
4837 Clouds 23 1010 53 10000 3.6 230 22:18 03.11.2019
4838 Clouds 23 1010 53 10000 3.6 230 21:42 03.11.2019
4839 Clouds 23 1010 49 10000 4.1 220 21:21 03.11.2019
4840 Clouds 22 1010 53 10000 3.1 220 20:57 03.11.2019
4841 Clouds 22 1010 53 10000 3.1 220 20:37 03.11.2019
4842 Clouds 22 1010 56 10000 3.6 220 20:18 03.11.2019
4843 Clouds 22 1010 56 10000 3.6 220 20:18 03.11.2019
4844 Clouds 22 1010 56 10000 3.6 220 19:56 03.11.2019
4845 Clouds 22 1010 56 10000 3.6 220 19:38 03.11.2019
4846 Clouds 22 1010 53 10000 3.6 220 19:19 03.11.2019
4847 Clouds 22 1010 53 10000 4.1 220 18:39 03.11.2019
4848 Clouds 21 1010 52 10000 3.6 220 18:19 03.11.2019
4849 Clouds 21 1009 52 10000 5.1 220 17:59 03.11.2019
4850 Clouds 21 1009 52 10000 5.1 220 17:40 03.11.2019
4851 Clouds 21 1009 56 10000 4.6 210 17:19 03.11.2019
4852 Clouds 21 1009 56 10000 4.1 210 16:55 03.11.2019
4853 Clouds 21 1009 56 10000 4.1 210 16:37 03.11.2019
4854 Clouds 21 1009 60 10000 4.6 220 16:19 03.11.2019
4855 Clouds 21 1009 60 10000 4.1 220 15:56 03.11.2019
4856 Clouds 21 1009 60 10000 4.1 220 15:38 03.11.2019
4857 Clouds 21 1009 60 10000 4.6 220 15:20 03.11.2019
4858 Clouds 21 1008 60 10000 4.6 220 14:40 03.11.2019
4859 Rain 21 1008 56 10000 4.6 220 14:19 03.11.2019
4860 Rain 21 1008 56 10000 4.6 220 14:19 03.11.2019
4861 Rain 21 1008 56 10000 4.6 220 14:19 03.11.2019
4862 Rain 21 1008 60 10000 4.6 220 13:55 03.11.2019
4863 Rain 21 1008 60 10000 4.6 220 13:36 03.11.2019
4864 Rain 21 1008 60 10000 4.6 220 13:36 03.11.2019
4865 Clouds 21 1009 60 10000 5.7 220 13:18 03.11.2019
4866 Clouds 22 1009 56 10000 5.1 220 12:38 03.11.2019
4867 Clouds 22 1009 60 10000 5.1 220 12:19 03.11.2019
4868 Clouds 21 1009 64 10000 6.2 220 11:55 03.11.2019
4869 Clouds 21 1009 64 10000 6.2 220 11:37 03.11.2019
4870 Rain 22 1009 64 10000 4.6 220 11:19 03.11.2019
4871 Rain 22 1009 64 10000 4.6 210 10:40 03.11.2019
4872 Rain 22 1009 68 10000 4.6 210 10:22 03.11.2019
4873 Rain 22 1009 68 10000 4.6 210 10:22 03.11.2019
4874 Rain 22 1009 68 10000 4.6 210 10:22 03.11.2019
4875 Rain 22 1009 68 10000 4.6 210 10:22 03.11.2019
4876 Rain 22 1009 68 10000 5.7 220 09:57 03.11.2019
4877 Rain 22 1009 68 10000 5.7 220 09:39 03.11.2019
4878 Rain 22 1009 73 10000 4.6 220 09:21 03.11.2019
4879 Rain 22 1009 73 10000 4.6 210 08:41 03.11.2019
4880 Rain 23 1008 69 10000 4.6 220 08:22 03.11.2019
4881 Rain 23 1008 69 10000 4.6 220 07:46 03.11.2019
4882 Rain 23 1008 69 10000 5.7 230 07:28 03.11.2019
4883 Rain 24 1008 60 10000 6.7 230 06:50 03.11.2019
4884 Rain 24 1008 60 10000 7.2 230 06:31 03.11.2019
4885 Rain 24 1007 64 10000 6.7 240 05:40 03.11.2019
4886 Clouds 24 1007 69 10000 6.2 230 04:58 03.11.2019
4887 Clouds 24 1007 69 10000 6.2 230 04:36 03.11.2019
4888 Clouds 26 1007 65 10000 7.2 250 03:31 03.11.2019
4889 Clouds 25 1008 61 10000 7.7 250 02:42 03.11.2019
4890 Clouds 26 1008 65 10000 7.2 250 02:19 03.11.2019
4891 Clouds 25 1008 65 10000 6.7 240 01:38 03.11.2019
4892 Clouds 26 1008 65 10000 7.2 250 01:20 03.11.2019
4893 Clouds 26 1008 65 10000 6.7 240 00:43 03.11.2019
4894 Clouds 26 1008 61 10000 7.2 250 00:25 03.11.2019
4895 Clouds 26 1009 65 10000 6.2 250 23:57 02.11.2019
4896 Clouds 26 1009 65 10000 6.2 250 23:38 02.11.2019
4897 Rain 26 1009 69 10000 5.7 240 23:18 02.11.2019
4898 Rain 26 1009 65 10000 6.7 240 22:55 02.11.2019
4899 Rain 26 1009 65 10000 6.7 240 22:37 02.11.2019
4900 Rain 26 1009 65 10000 7.7 250 22:18 02.11.2019
4901 Rain 26 1009 65 10000 7.7 250 22:18 02.11.2019
4902 Rain 26 1010 65 10000 7.7 250 21:55 02.11.2019
4903 Rain 26 1010 65 10000 7.7 250 21:37 02.11.2019
4904 Rain 25 1010 69 10000 7.7 260 21:18 02.11.2019
4905 Rain 25 1010 65 10000 7.2 250 20:56 02.11.2019
4906 Rain 25 1010 65 10000 7.2 250 20:38 02.11.2019
4907 Clouds 25 1010 65 10000 7.7 260 20:19 02.11.2019
4908 Clouds 24 1010 69 10000 6.7 260 19:40 02.11.2019
4909 Clouds 24 1010 73 10000 5.7 260 19:21 02.11.2019
4910 Clouds 24 1010 69 10000 5.7 260 18:56 02.11.2019
4911 Clouds 24 1010 69 10000 5.7 260 18:56 02.11.2019
4912 Clouds 24 1010 69 10000 5.7 260 18:37 02.11.2019
4913 Clouds 24 1009 69 10000 5.1 250 18:19 02.11.2019
4914 Clouds 24 1009 69 10000 5.1 260 17:56 02.11.2019
4915 Clouds 24 1009 69 10000 5.1 260 17:56 02.11.2019
4916 Clouds 24 1009 69 10000 5.1 260 17:37 02.11.2019
4917 Clouds 23 1009 73 10000 5.1 260 17:18 02.11.2019
4918 Clouds 23 1009 73 10000 4.6 250 16:40 02.11.2019
4919 Clouds 23 1009 73 10000 4.6 250 16:40 02.11.2019
4920 Clouds 23 1009 73 10000 3.6 250 16:21 02.11.2019
4921 Clouds 23 1009 73 10000 4.1 250 15:44 02.11.2019
4922 Clouds 23 1009 73 10000 3.6 240 15:22 02.11.2019
4923 Clouds 23 1009 78 10000 3.1 240 14:59 02.11.2019
4924 Clouds 23 1009 78 10000 3.1 240 14:41 02.11.2019
4925 Clouds 23 1009 78 10000 2.6 250 14:22 02.11.2019
4926 Clouds 22 1009 83 10000 2.1 240 13:55 02.11.2019
4927 Clouds 22 1009 83 10000 2.1 240 13:37 02.11.2019
4928 Clouds 22 1010 83 10000 3.1 240 13:18 02.11.2019
4929 Clouds 21 1010 94 10000 1.5 220 12:40 02.11.2019
4930 Clouds 21 1010 94 10000 1.5 220 12:22 02.11.2019
4931 Clouds 21 1011 94 10000 1.5 210 11:56 02.11.2019
4932 Clouds 21 1011 94 10000 1.5 210 11:38 02.11.2019
4933 Clouds 21 1011 94 10000 1 180 11:19 02.11.2019
4934 Clouds 21 1011 94 10000 1 190 10:43 02.11.2019
4935 Clouds 21 1012 100 10000 1 170 10:24 02.11.2019
4936 Clouds 21 1012 100 10000 0.5 140 09:54 02.11.2019
4937 Clouds 21 1012 100 10000 0.5 140 09:54 02.11.2019
4938 Clouds 21 1012 100 10000 0.5 140 09:36 02.11.2019
4939 Clouds 21 1012 94 10000 0.5 210 09:18 02.11.2019
4940 Clouds 21 1012 94 10000 1 150 08:42 02.11.2019
4941 Rain 21 1012 94 10000 1 150 08:20 02.11.2019
4942 Rain 22 1012 88 10000 0.5 210 07:47 02.11.2019
4943 Rain 22 1011 88 10000 0.5 100 07:27 02.11.2019
4944 Clouds 22 1012 88 6000 1 190 06:52 02.11.2019
4945 Rain 22 1011 88 10000 1 200 06:25 02.11.2019
4946 Clouds 23 1011 83 10000 2.14 295 05:54 02.11.2019
4947 Rain 24 1011 73 10000 2.1 260 04:46 02.11.2019
4948 Rain 24 1011 73 10000 1.5 220 04:19 02.11.2019
4949 Rain 24 1011 78 10000 1.5 270 03:45 02.11.2019
4950 Rain 24 1010 73 10000 1 150 02:32 02.11.2019
4951 Rain 24 1011 73 10000 1 130 01:41 02.11.2019
4952 Rain 25 1012 69 10000 1.5 270 01:19 02.11.2019
4953 Drizzle 24 1012 73 10000 2.1 210 00:42 02.11.2019
4954 Rain 25 1012 69 10000 3.1 210 00:22 02.11.2019
4955 Rain 25 1012 73 10000 3.1 210 23:42 01.11.2019
4956 Rain 25 1012 73 10000 2.1 170 23:20 01.11.2019
4957 Rain 25 1012 73 10000 2.6 210 22:43 01.11.2019
4958 Rain 25 1012 69 10000 2.1 130 22:21 01.11.2019
4959 Rain 25 1012 69 10000 2.1 130 22:21 01.11.2019
4960 Rain 25 1012 73 10000 2.1 200 21:56 01.11.2019
4961 Rain 25 1012 73 10000 2.1 200 21:37 01.11.2019
4962 Rain 25 1013 73 10000 3.1 220 21:18 01.11.2019
4963 Rain 24 1013 78 10000 1 160 20:42 01.11.2019
4964 Rain 24 1012 83 10000 0.5 170 20:24 01.11.2019
4965 Rain 24 1013 83 10000 0.5 230 19:59 01.11.2019
4966 Rain 24 1013 83 10000 0.5 230 19:41 01.11.2019
4967 Rain 24 1012 78 10000 1 230 19:21 01.11.2019
4968 Rain 23 1012 83 10000 0.5 210 18:42 01.11.2019
4969 Rain 23 1012 83 10000 1 180 18:21 01.11.2019
4970 Rain 23 1011 83 10000 1.5 180 17:59 01.11.2019
4971 Rain 23 1011 83 10000 1.5 180 17:41 01.11.2019
4972 Clouds 23 1011 83 10000 1 170 17:23 01.11.2019
4973 Clouds 23 1010 83 10000 1.5 200 16:41 01.11.2019
4974 Clouds 23 1010 83 10000 1.5 200 16:41 01.11.2019
4975 Clouds 23 1010 83 10000 1 170 16:21 01.11.2019
4976 Clouds 23 1010 83 10000 1 160 15:58 01.11.2019
4977 Clouds 23 1010 83 10000 1 160 15:40 01.11.2019
4978 Clouds 23 1010 83 10000 1 180 15:22 01.11.2019
4979 Clouds 23 1010 83 10000 1.5 190 14:44 01.11.2019
4980 Clouds 23 1010 83 10000 1.5 210 14:25 01.11.2019
4981 Clouds 23 1010 83 10000 1.5 210 13:59 01.11.2019
4982 Clouds 23 1010 83 10000 1.5 210 13:40 01.11.2019
4983 Clouds 23 1010 88 10000 2.1 220 13:21 01.11.2019
4984 Clouds 23 1010 88 10000 2.1 220 13:21 01.11.2019
4985 Clouds 23 1010 88 10000 1.5 220 12:55 01.11.2019
4986 Clouds 23 1010 88 10000 1.5 220 12:55 01.11.2019
4987 Clouds 23 1010 88 10000 1.5 220 12:37 01.11.2019
4988 Clouds 23 1010 88 10000 1.5 210 12:19 01.11.2019
4989 Clouds 22 1011 94 10000 1.5 200 11:41 01.11.2019
4990 Clouds 22 1011 94 10000 1.5 200 11:41 01.11.2019
4991 Clouds 22 1011 94 10000 1 210 11:23 01.11.2019
4992 Clouds 22 1011 94 10000 1.5 200 10:44 01.11.2019
4993 Clouds 22 1011 94 10000 1 200 10:25 01.11.2019
4994 Clouds 22 1011 94 10000 1 190 09:59 01.11.2019
4995 Clouds 22 1011 94 10000 1 190 09:59 01.11.2019
4996 Clouds 22 1011 94 10000 1 190 09:41 01.11.2019
4997 Clouds 22 1011 94 10000 1 200 09:21 01.11.2019
4998 Clouds 22 1011 94 10000 1 200 08:46 01.11.2019
4999 Clouds 23 1011 88 8000 1 190 08:23 01.11.2019
5000 Clouds 23 1010 88 7000 1 190 07:57 01.11.2019
5001 Clouds 23 1010 88 7000 1 190 07:57 01.11.2019
5002 Clouds 23 1010 88 7000 1 190 07:39 01.11.2019
5003 Clouds 23 1010 88 6000 1 190 07:20 01.11.2019
5004 Haze 24 1010 83 3400 0.5 170 06:47 01.11.2019
5005 Clouds 25 1009 78 10000 1 230 06:22 01.11.2019
5006 Clouds 26 1009 74 10000 2.1 240 05:44 01.11.2019
5007 Clouds 26 1009 74 10000 2.1 240 05:44 01.11.2019
5008 Clouds 26 1008 78 10000 3.1 230 04:28 01.11.2019
5009 Clouds 27 1008 78 10000 4.1 240 03:24 01.11.2019
5010 Rain 27 1008 74 10000 3.6 220 01:35 01.11.2019
5011 Rain 27 1008 78 10000 4.1 220 00:42 01.11.2019
5012 Rain 28 1008 78 10000 4.1 240 00:18 01.11.2019
5013 Rain 27 1009 83 10000 3.6 240 23:43 31.10.2019
5014 Rain 26 1009 83 10000 4.6 240 23:23 31.10.2019
5015 Rain 26 1009 88 10000 4.1 230 22:56 31.10.2019
5016 Rain 26 1009 88 10000 4.1 230 22:56 31.10.2019
5017 Rain 26 1009 88 10000 4.1 230 22:38 31.10.2019
5018 Rain 25 1009 88 10000 4.1 240 22:19 31.10.2019
5019 Rain 27 1009 88 10000 4.6 290 21:43 31.10.2019
5020 Rain 27 1009 88 10000 3.6 300 21:20 31.10.2019
5021 Rain 26 1009 94 10000 4.1 300 20:57 31.10.2019
5022 Rain 26 1009 94 10000 4.1 300 20:39 31.10.2019
5023 Rain 26 1009 94 10000 3.6 300 20:20 31.10.2019
5024 Rain 26 1009 94 10000 3.6 310 19:41 31.10.2019
5025 Rain 26 1009 88 6000 4.1 300 19:21 31.10.2019
5026 Rain 25 1009 94 10000 4.6 310 18:56 31.10.2019
5027 Rain 25 1009 94 10000 4.6 310 18:38 31.10.2019
5028 Rain 26 1008 88 10000 4.6 320 18:19 31.10.2019
5029 Rain 25 1007 94 10000 4.1 310 17:41 31.10.2019
5030 Rain 25 1007 94 10000 3.1 330 17:22 31.10.2019
5031 Rain 25 1007 94 10000 3.1 350 16:58 31.10.2019
5032 Rain 25 1007 94 10000 3.1 350 16:39 31.10.2019
5033 Rain 26 1007 94 10000 3.1 340 16:20 31.10.2019
5034 Rain 25 1007 94 9000 2.6 330 15:54 31.10.2019
5035 Rain 25 1007 94 9000 2.6 330 15:36 31.10.2019
5036 Rain 25 1006 94 10000 3.6 320 15:18 31.10.2019
5037 Rain 25 1007 94 10000 3.6 330 14:41 31.10.2019
5038 Rain 25 1006 94 10000 4.6 20 14:23 31.10.2019
5039 Rain 25 1006 94 10000 6.2 20 13:59 31.10.2019
5040 Rain 25 1006 94 10000 6.2 20 13:39 31.10.2019
5041 Rain 25 1006 94 10000 6.2 20 13:19 31.10.2019
5042 Rain 25 1007 94 10000 4.6 10 12:57 31.10.2019
5043 Rain 25 1007 94 10000 4.6 10 12:38 31.10.2019
5044 Drizzle 25 1008 94 10000 4.6 30 12:20 31.10.2019
5045 Rain 25 1008 94 10000 5.1 40 11:46 31.10.2019
5046 Rain 24 1009 94 10000 6.7 50 11:21 31.10.2019
5047 Rain 24 1009 94 10000 6.7 50 11:21 31.10.2019
5048 Rain 24 1010 94 10000 6.7 50 10:58 31.10.2019
5049 Rain 24 1010 94 10000 6.7 50 10:58 31.10.2019
5050 Rain 24 1010 94 10000 6.7 50 10:39 31.10.2019
5051 Rain 24 1010 94 10000 6.7 50 10:39 31.10.2019
5052 Rain 24 1010 94 10000 6.2 40 10:21 31.10.2019
5053 Rain 24 1010 94 10000 7.2 40 09:54 31.10.2019
5054 Rain 24 1010 94 10000 7.2 40 09:36 31.10.2019
5055 Rain 24 1010 94 10000 8.2 40 09:18 31.10.2019
5056 Rain 24 1009 94 10000 8.2 40 08:43 31.10.2019
5057 Rain 24 1009 94 9000 7.2 40 08:24 31.10.2019
5058 Rain 23 1009 100 4400 12.3 40 07:48 31.10.2019
5059 Rain 24 1009 100 3100 8.7 50 07:26 31.10.2019
5060 Rain 24 1009 100 6000 8.7 60 06:53 31.10.2019
5061 Rain 24 1008 100 7000 8.7 60 06:32 31.10.2019
5062 Rain 24 1008 100 7000 9.8 60 05:20 31.10.2019
5063 Rain 24 1008 100 7000 9.8 60 05:20 31.10.2019
5064 Rain 25 1008 88 10000 9.3 70 02:50 31.10.2019
5065 Rain 25 1007 94 10000 10.8 60 02:25 31.10.2019
5066 Rain 24 1008 94 10000 11.3 60 01:20 31.10.2019
5067 Rain 25 1009 94 9000 9.8 70 00:26 31.10.2019
5068 Rain 25 1010 88 10000 10.3 70 23:42 30.10.2019
5069 Rain 24 1009 94 10000 11.8 70 23:23 30.10.2019
5070 Rain 25 1010 88 10000 10.3 80 22:42 30.10.2019
5071 Rain 25 1010 88 10000 9.8 70 22:19 30.10.2019
5072 Rain 25 1010 88 10000 9.8 80 21:55 30.10.2019
5073 Rain 25 1010 88 10000 9.8 80 21:37 30.10.2019
5074 Rain 24 1011 94 10000 9.3 80 21:18 30.10.2019
5075 Rain 25 1011 88 10000 9.8 80 20:58 30.10.2019
5076 Rain 25 1011 88 10000 9.8 80 20:39 30.10.2019
5077 Rain 25 1011 88 10000 9.8 80 20:20 30.10.2019
5078 Rain 24 1011 94 10000 8.7 80 19:43 30.10.2019
5079 Rain 24 1010 88 10000 8.7 80 19:25 30.10.2019
5080 Rain 24 1010 88 10000 7.7 80 19:00 30.10.2019
5081 Rain 24 1010 88 10000 7.7 80 18:38 30.10.2019
5082 Rain 24 1010 88 10000 8.7 80 18:19 30.10.2019
5083 Rain 23 1010 94 10000 8.2 80 17:56 30.10.2019
5084 Rain 23 1010 94 10000 8.2 80 17:37 30.10.2019
5085 Rain 23 1010 94 5000 8.2 80 17:18 30.10.2019
5086 Rain 23 1010 94 5000 8.2 80 17:18 30.10.2019
5087 Rain 24 1010 88 10000 8.2 80 16:54 30.10.2019
5088 Rain 24 1010 88 10000 8.2 80 16:36 30.10.2019
5089 Rain 24 1009 88 10000 9.3 80 16:18 30.10.2019
5090 Rain 24 1009 83 10000 7.7 80 15:41 30.10.2019
5091 Rain 24 1009 83 10000 8.7 80 15:21 30.10.2019
5092 Rain 24 1010 88 10000 9.3 80 14:59 30.10.2019
5093 Rain 24 1010 88 10000 9.3 80 14:41 30.10.2019
5094 Clouds 24 1010 88 10000 9.3 80 14:22 30.10.2019
5095 Clouds 24 1010 83 10000 8.2 80 13:55 30.10.2019
5096 Clouds 24 1010 83 10000 8.2 80 13:37 30.10.2019
5097 Clouds 24 1010 83 10000 8.2 80 13:37 30.10.2019
5098 Clouds 24 1011 83 10000 8.2 80 13:19 30.10.2019
5099 Clouds 24 1012 83 10000 7.7 80 12:45 30.10.2019
5100 Clouds 24 1012 83 10000 8.7 80 12:27 30.10.2019
5101 Clouds 24 1012 83 10000 8.2 80 11:58 30.10.2019
5102 Clouds 24 1012 83 10000 8.2 80 11:40 30.10.2019
5103 Clouds 24 1012 83 10000 8.2 80 11:21 30.10.2019
5104 Clouds 24 1013 83 10000 9.3 80 10:43 30.10.2019
5105 Clouds 24 1012 78 10000 8.2 80 10:23 30.10.2019
5106 Clouds 24 1013 78 10000 8.2 80 09:42 30.10.2019
5107 Clouds 24 1012 78 10000 7.2 90 09:24 30.10.2019
5108 Clouds 23 1012 83 10000 8.7 80 08:57 30.10.2019
5109 Clouds 23 1012 83 10000 8.7 80 08:39 30.10.2019
5110 Clouds 23 1013 83 10000 6.7 90 08:20 30.10.2019
5111 Clouds 23 1013 83 10000 7.2 90 07:46 30.10.2019
5112 Clouds 23 1012 83 10000 7.7 90 07:21 30.10.2019
5113 Clouds 23 1012 83 10000 7.7 90 06:42 30.10.2019
5114 Clouds 23 1012 78 10000 7.2 90 06:20 30.10.2019
5115 Clouds 23 1012 78 10000 8.2 90 05:41 30.10.2019
5116 Rain 23 1011 78 10000 7.7 90 04:42 30.10.2019
5117 Rain 24 1011 69 10000 7.7 90 03:43 30.10.2019
5118 Rain 24 1012 73 10000 6.2 100 02:51 30.10.2019
5119 Clouds 25 1013 65 10000 5.1 100 01:55 30.10.2019
5120 Clouds 25 1013 65 10000 7.7 90 00:55 30.10.2019
5121 Clouds 25 1013 65 10000 9.3 80 00:28 30.10.2019
5122 Clouds 24 1014 69 10000 5.7 100 23:42 29.10.2019
5123 Clouds 22 1015 79 0 10.05 114 23:22 29.10.2019
5124 Clouds 22 1015 79 0 10.05 114 22:46 29.10.2019
5125 Clouds 22 1015 79 0 10.05 114 22:20 29.10.2019
5126 Clouds 22 1015 79 0 10.05 114 21:56 29.10.2019
5127 Clouds 22 1015 79 0 10.05 114 21:38 29.10.2019
5128 Clouds 22 1015 79 0 10.05 114 21:20 29.10.2019
5129 Clouds 22 1015 79 0 10.05 114 20:54 29.10.2019
5130 Clouds 22 1015 79 0 9.96 116 20:36 29.10.2019
5131 Clouds 23 1015 69 10000 5.1 100 20:18 29.10.2019
5132 Clouds 23 1015 69 10000 5.1 100 19:41 29.10.2019
5133 Clouds 23 1015 69 10000 5.1 100 19:22 29.10.2019
5134 Clouds 22 1015 73 10000 4.6 100 18:59 29.10.2019
5135 Clouds 22 1015 73 10000 4.6 100 18:40 29.10.2019
5136 Clouds 22 1014 73 10000 5.1 100 18:21 29.10.2019
5137 Clouds 22 1014 73 10000 5.1 90 17:58 29.10.2019
5138 Clouds 22 1014 73 10000 5.1 90 17:40 29.10.2019
5139 Clouds 22 1014 73 10000 3.1 110 17:21 29.10.2019
5140 Clouds 22 1014 73 10000 3.6 110 16:57 29.10.2019
5141 Clouds 22 1014 73 10000 3.6 110 16:38 29.10.2019
5142 Clouds 22 1013 73 10000 2.6 110 16:18 29.10.2019
5143 Rain 22 1013 73 10000 3.6 100 15:42 29.10.2019
5144 Rain 22 1013 73 10000 4.1 110 15:22 29.10.2019
5145 Clouds 22 1013 73 10000 3.6 110 14:58 29.10.2019
5146 Clouds 22 1013 73 10000 3.6 110 14:39 29.10.2019
5147 Clouds 22 1013 73 10000 3.6 110 14:39 29.10.2019
5148 Clouds 22 1013 73 10000 3.6 110 14:39 29.10.2019
5149 Clouds 22 1014 73 10000 4.1 110 14:21 29.10.2019
5150 Clouds 22 1014 73 10000 4.1 120 13:57 29.10.2019
5151 Rain 22 1014 73 10000 4.1 120 13:38 29.10.2019
5152 Rain 22 1015 73 10000 3.6 120 13:20 29.10.2019
5153 Rain 22 1014 73 10000 3.6 130 12:42 29.10.2019
5154 Rain 22 1015 73 10000 2.6 130 12:24 29.10.2019
5155 Rain 22 1015 73 10000 3.1 120 11:55 29.10.2019
5156 Rain 22 1015 73 10000 3.1 120 11:36 29.10.2019
5157 Clouds 22 1016 73 10000 3.6 140 11:18 29.10.2019
5158 Clouds 22 1016 73 10000 2.1 130 10:56 29.10.2019
5159 Clouds 22 1016 73 10000 2.1 130 10:37 29.10.2019
5160 Clouds 22 1016 73 10000 2.1 130 10:19 29.10.2019
5161 Clouds 22 1016 73 10000 3.1 130 09:41 29.10.2019
5162 Clouds 22 1015 73 10000 2.6 110 09:23 29.10.2019
5163 Clouds 22 1015 73 10000 3.1 110 08:55 29.10.2019
5164 Clouds 22 1015 73 10000 3.1 110 08:36 29.10.2019
5165 Clouds 22 1016 73 10000 3.6 130 08:18 29.10.2019
5166 Clouds 22 1015 73 10000 3.1 110 07:47 29.10.2019
5167 Clouds 22 1014 73 10000 2.6 110 07:19 29.10.2019
5168 Clouds 22 1015 73 10000 2.6 110 06:47 29.10.2019
5169 Clouds 22 1014 73 10000 3.1 110 06:28 29.10.2019
5170 Clouds 22 1014 73 10000 3.1 110 05:52 29.10.2019
5171 Clouds 23 1014 69 10000 2.1 110 05:34 29.10.2019
5172 Clouds 23 1013 69 10000 3.1 110 04:33 29.10.2019
5173 Clouds 23 1014 69 10000 2.1 140 02:34 29.10.2019
5174 Clouds 23 1014 69 10000 2.6 130 01:54 29.10.2019
5175 Clouds 23 1014 69 10000 2.6 120 01:23 29.10.2019
5176 Clouds 23 1014 73 10000 2.6 130 00:50 29.10.2019
5177 Clouds 24 1015 69 10000 2.6 120 23:58 28.10.2019
5178 Clouds 24 1015 69 10000 2.6 120 23:36 28.10.2019
5179 Clouds 24 1015 69 10000 3.1 130 23:18 28.10.2019
5180 Clouds 24 1015 69 10000 3.6 90 22:39 28.10.2019
5181 Clouds 25 1015 65 10000 1.5 180 22:18 28.10.2019
5182 Clouds 23 1014 69 10000 4.6 80 21:56 28.10.2019
5183 Clouds 23 1014 69 10000 4.6 80 21:38 28.10.2019
5184 Clouds 23 1015 69 10000 2.1 110 21:20 28.10.2019
5185 Clouds 23 1015 64 10000 1.5 140 20:54 28.10.2019
5186 Clouds 23 1015 64 10000 1.5 140 20:36 28.10.2019
5187 Clouds 23 1015 64 10000 1.5 60 20:18 28.10.2019
5188 Clouds 22 1015 68 10000 1.5 120 19:40 28.10.2019
5189 Clouds 22 1015 73 10000 1 170 19:21 28.10.2019
5190 Clouds 21 1015 77 10000 1 160 18:59 28.10.2019
5191 Clouds 21 1015 77 10000 1 160 18:59 28.10.2019
5192 Clouds 21 1015 77 10000 1 160 18:41 28.10.2019
5193 Clouds 21 1014 77 10000 1 100 18:21 28.10.2019
5194 Clouds 21 1014 73 10000 1.5 140 17:57 28.10.2019
5195 Clouds 21 1014 73 10000 1.5 140 17:39 28.10.2019
5196 Clouds 20 1014 77 10000 0.5 110 17:20 28.10.2019
5197 Clouds 21 1013 73 10000 1 90 16:57 28.10.2019
5198 Clouds 21 1013 73 10000 1 90 16:57 28.10.2019
5199 Clouds 21 1013 73 10000 1 90 16:39 28.10.2019
5200 Clouds 22 1013 64 10000 1 150 16:21 28.10.2019
5201 Clouds 22 1013 64 10000 1 150 16:21 28.10.2019
5202 Clouds 22 1013 64 10000 2.6 150 15:58 28.10.2019
5203 Clouds 22 1013 64 10000 2.6 150 15:39 28.10.2019
5204 Clouds 22 1013 64 10000 2.6 150 15:20 28.10.2019
5205 Clouds 22 1013 68 10000 2.1 160 14:57 28.10.2019
5206 Clouds 22 1013 68 10000 2.1 160 14:38 28.10.2019
5207 Clouds 22 1013 68 10000 2.6 150 14:18 28.10.2019
5208 Clouds 22 1014 68 10000 2.1 150 13:55 28.10.2019
5209 Clouds 22 1014 68 10000 2.1 150 13:37 28.10.2019
5210 Clouds 21 1014 77 10000 1.5 140 13:18 28.10.2019
5211 Clouds 20 1014 82 10000 1 140 12:42 28.10.2019
5212 Clouds 20 1014 82 10000 0.5 140 12:20 28.10.2019
5213 Clouds 21 1014 77 10000 1.5 100 11:40 28.10.2019
5214 Clouds 21 1014 77 10000 1.5 120 11:21 28.10.2019
5215 Clouds 21 1015 73 10000 1 140 10:57 28.10.2019
5216 Clouds 21 1015 73 10000 1 140 10:38 28.10.2019
5217 Clouds 21 1015 77 10000 1.5 160 10:20 28.10.2019
5218 Clouds 20 1015 82 10000 0.5 130 09:55 28.10.2019
5219 Clouds 20 1015 82 10000 0.5 130 09:55 28.10.2019
5220 Clouds 20 1015 82 10000 0.5 130 09:37 28.10.2019
5221 Clouds 21 1014 77 10000 1.5 120 09:18 28.10.2019
5222 Clouds 22 1014 73 10000 1 120 08:56 28.10.2019
5223 Clouds 22 1014 73 10000 1 120 08:37 28.10.2019
5224 Clouds 22 1014 73 10000 1 120 08:37 28.10.2019
5225 Clouds 22 1014 68 10000 1.5 150 08:18 28.10.2019
5226 Clouds 22 1014 68 10000 1.5 150 07:43 28.10.2019
5227 Clouds 22 1014 73 10000 1.5 150 07:23 28.10.2019
5228 Clouds 22 1013 73 10000 1 100 06:59 28.10.2019
5229 Clouds 22 1013 73 10000 1 100 06:37 28.10.2019
5230 Clouds 23 1013 69 10000 1 130 05:19 28.10.2019
5231 Clouds 23 1012 64 10000 2.1 120 03:44 28.10.2019
5232 Clouds 23 1012 64 10000 2.6 110 02:45 28.10.2019
5233 Clouds 24 1012 60 10000 2.6 150 01:36 28.10.2019
5234 Clouds 25 1013 61 10000 1.5 160 00:47 28.10.2019
5235 Clouds 24 1013 60 10000 2.6 120 00:24 28.10.2019
5236 Clouds 25 1013 61 10000 1 120 23:44 27.10.2019
5237 Clouds 25 1013 65 10000 2.1 140 23:21 27.10.2019
5238 Clouds 24 1014 64 10000 2.6 120 22:56 27.10.2019
5239 Clouds 24 1014 64 10000 2.6 120 22:37 27.10.2019
5240 Clouds 24 1014 60 10000 3.1 150 22:19 27.10.2019
5241 Clouds 24 1014 60 10000 3.1 150 22:19 27.10.2019
5242 Clouds 24 1014 64 10000 3.1 120 21:40 27.10.2019
5243 Clouds 24 1013 64 10000 2.1 100 21:22 27.10.2019
5244 Clouds 25 1014 61 10000 1.5 150 20:59 27.10.2019
5245 Clouds 25 1014 61 10000 1.5 150 20:40 27.10.2019
5246 Clouds 24 1013 60 10000 2.1 100 20:22 27.10.2019
5247 Clouds 24 1013 64 10000 1.5 100 19:57 27.10.2019
5248 Clouds 24 1013 64 10000 1.5 100 19:37 27.10.2019
5249 Clouds 24 1013 64 10000 1.5 100 19:37 27.10.2019
5250 Clouds 23 1013 69 10000 1 220 19:19 27.10.2019
5251 Clouds 22 1013 78 10000 0.5 120 18:56 27.10.2019
5252 Clouds 22 1013 78 10000 0.5 120 18:38 27.10.2019
5253 Clouds 22 1012 73 10000 1 70 18:19 27.10.2019
5254 Clouds 21 1012 77 10000 1 160 17:54 27.10.2019
5255 Clouds 21 1012 77 10000 1 160 17:36 27.10.2019
5256 Clouds 19 1012 93 10000 1 180 17:18 27.10.2019
5257 Clouds 19 1011 93 10000 0.5 90 16:41 27.10.2019
5258 Clouds 19 1012 93 10000 1 190 16:23 27.10.2019
5259 Clouds 19 1011 93 10000 1 160 15:58 27.10.2019
5260 Clouds 19 1011 93 10000 1 160 15:40 27.10.2019
5261 Clouds 19 1011 93 10000 0.5 140 15:20 27.10.2019
5262 Clouds 19 1011 88 10000 1 170 14:59 27.10.2019
5263 Clouds 19 1011 88 10000 1 170 14:40 27.10.2019
5264 Clouds 19 1011 93 10000 1 160 14:18 27.10.2019
5265 Clouds 19 1011 93 10000 1 170 13:54 27.10.2019
5266 Clouds 19 1011 93 10000 1 170 13:36 27.10.2019
5267 Clouds 20 1011 88 10000 1 120 13:18 27.10.2019
5268 Clouds 20 1012 88 10000 0.5 160 12:41 27.10.2019
5269 Clouds 20 1012 88 10000 0.5 170 12:23 27.10.2019
5270 Clouds 20 1012 88 10000 1.5 170 11:43 27.10.2019
5271 Clouds 20 1012 88 10000 0.5 110 11:25 27.10.2019
5272 Clouds 20 1012 94 10000 0.5 150 10:57 27.10.2019
5273 Clouds 20 1012 94 10000 0.5 150 10:38 27.10.2019
5274 Clouds 20 1012 94 10000 0.5 150 10:38 27.10.2019
5275 Clouds 20 1013 94 10000 1 160 10:19 27.10.2019
5276 Clouds 20 1013 88 10000 1 150 09:43 27.10.2019
5277 Clouds 19 1013 93 10000 1 150 09:19 27.10.2019
5278 Clouds 19 1013 93 10000 1 150 08:57 27.10.2019
5279 Clouds 19 1013 93 10000 1 150 08:37 27.10.2019
5280 Rain 19 1013 93 10000 0.5 160 08:19 27.10.2019
5281 Rain 19 1012 93 10000 0.5 220 07:45 27.10.2019
5282 Rain 20 1012 94 10000 1 170 07:25 27.10.2019
5283 Rain 20 1012 94 10000 0.5 110 06:52 27.10.2019
5284 Rain 21 1012 88 10000 1 160 06:29 27.10.2019
5285 Rain 21 1012 88 10000 0.5 260 05:46 27.10.2019
5286 Rain 22 1011 83 10000 1 330 04:56 27.10.2019
5287 Rain 22 1010 83 10000 2.1 40 03:34 27.10.2019
5288 Rain 23 1011 83 10000 2.1 50 02:21 27.10.2019
5289 Rain 21 1011 77 10000 1.5 200 01:54 27.10.2019
5290 Rain 21 1011 83 10000 3.6 190 01:23 27.10.2019
5291 Rain 21 1012 88 10000 4.6 200 00:51 27.10.2019
5292 Rain 22 1012 88 10000 3.1 200 00:28 27.10.2019
5293 Rain 22 1012 94 8000 3.6 190 23:57 26.10.2019
5294 Rain 22 1012 94 8000 3.6 190 23:38 26.10.2019
5295 Rain 22 1012 100 3500 3.1 210 23:20 26.10.2019
5296 Rain 23 1012 94 3700 6.2 260 22:56 26.10.2019
5297 Rain 23 1012 94 3700 6.2 260 22:37 26.10.2019
5298 Rain 24 1012 94 6000 5.1 290 22:18 26.10.2019
5299 Rain 24 1012 94 10000 5.1 290 21:43 26.10.2019
5300 Clouds 24 1012 94 10000 7.7 300 21:21 26.10.2019
5301 Clouds 25 1011 88 10000 5.7 270 20:57 26.10.2019
5302 Clouds 25 1011 88 10000 5.7 270 20:36 26.10.2019
5303 Clouds 25 1011 88 10000 5.7 270 20:36 26.10.2019
5304 Rain 25 1011 88 7000 2.6 280 20:18 26.10.2019
5305 Clouds 25 1010 83 10000 2.6 290 19:42 26.10.2019
5306 Clouds 25 1010 78 10000 4.1 280 19:20 26.10.2019
5307 Clouds 24 1010 83 10000 2.6 260 18:57 26.10.2019
5308 Clouds 24 1010 83 10000 2.6 260 18:38 26.10.2019
5309 -273 0 0 0 0 0 18:19 26.10.2019
5310 Rain 25 1010 88 10000 4.1 300 17:56 26.10.2019
5311 Rain 25 1010 88 10000 4.1 300 17:37 26.10.2019
5312 Rain 25 1009 83 10000 3.6 300 17:18 26.10.2019
5313 Rain 25 1009 88 10000 3.6 320 16:43 26.10.2019
5314 Rain 25 1009 88 10000 3.6 310 16:24 26.10.2019
5315 Rain 25 1010 94 10000 3.6 320 15:44 26.10.2019
5316 Clouds 25 1009 88 10000 3.6 330 15:21 26.10.2019
5317 Clouds 25 1010 94 10000 3.1 330 14:58 26.10.2019
5318 Clouds 25 1010 94 10000 3.1 330 14:37 26.10.2019
5319 Clouds 25 1010 88 10000 3.1 320 14:18 26.10.2019
5320 Clouds 25 1010 84 0 6.98 334 13:42 26.10.2019
5321 Clouds 25 1010 84 0 6.98 334 13:22 26.10.2019
5322 Clouds 25 1010 84 0 6.98 334 12:49 26.10.2019
5323 Clouds 25 1011 88 10000 3.1 340 12:25 26.10.2019
5324 Rain 25 1011 88 10000 3.1 340 11:56 26.10.2019
5325 Rain 25 1011 88 10000 3.1 340 11:36 26.10.2019
5326 Rain 25 1011 88 10000 3.1 340 11:36 26.10.2019
5327 Rain 25 1011 88 10000 3.1 340 11:18 26.10.2019
5328 Rain 25 1011 83 10000 3.1 350 10:42 26.10.2019
5329 Rain 25 1011 88 10000 2.1 360 10:23 26.10.2019
5330 Rain 25 1011 88 10000 3.1 350 09:45 26.10.2019
5331 Rain 25 1011 83 10000 2.1 20 09:27 26.10.2019
5332 Rain 26 1011 83 10000 2.6 20 08:44 26.10.2019
5333 Rain 26 1011 83 10000 2.6 10 08:25 26.10.2019
5334 Rain 26 1010 83 10000 2.6 40 07:55 26.10.2019
5335 Rain 26 1010 83 10000 3.1 20 07:31 26.10.2019
5336 Rain 26 1010 83 10000 3.1 20 06:46 26.10.2019
5337 Rain 26 1010 83 10000 3.1 50 06:27 26.10.2019
5338 Rain 26 1010 83 10000 2.6 40 05:21 26.10.2019
5339 Rain 26 1010 83 10000 2.6 40 04:30 26.10.2019
5340 Rain 26 1011 83 10000 4.1 20 02:49 26.10.2019
5341 Rain 26 1011 78 10000 4.6 40 01:56 26.10.2019
5342 Rain 26 1012 78 10000 4.6 50 01:29 26.10.2019
5343 Rain 26 1012 78 10000 5.1 50 00:25 26.10.2019
5344 Clouds 26 1013 78 10000 5.7 60 23:44 25.10.2019
5345 Clouds 26 1013 78 10000 5.7 60 23:20 25.10.2019
5346 Clouds 25 1013 83 10000 6.2 60 22:41 25.10.2019
5347 Clouds 26 1013 78 10000 6.2 60 22:23 25.10.2019
5348 Clouds 26 1013 78 10000 6.2 60 21:58 25.10.2019
5349 Clouds 26 1013 78 10000 6.2 60 21:40 25.10.2019
5350 Clouds 25 1013 83 10000 6.7 70 21:19 25.10.2019
5351 Clouds 25 1013 83 10000 6.7 70 21:19 25.10.2019
5352 Clouds 25 1013 78 10000 6.7 70 20:55 25.10.2019
5353 Clouds 25 1013 78 10000 6.7 70 20:37 25.10.2019
5354 Clouds 25 1013 78 10000 7.2 70 20:18 25.10.2019
5355 Clouds 24 1012 73 10000 6.2 80 19:43 25.10.2019
5356 Clouds 24 1012 69 10000 5.7 80 19:23 25.10.2019
5357 Clouds 23 1012 78 10000 5.1 80 18:44 25.10.2019
5358 Clouds 23 1011 83 10000 4.6 80 18:22 25.10.2019
5359 Clouds 23 1011 83 10000 4.6 80 17:41 25.10.2019
5360 Clouds 23 1011 83 10000 4.6 80 17:41 25.10.2019
5361 Clouds 23 1011 83 10000 3.6 80 17:21 25.10.2019
5362 Clouds 23 1011 78 10000 4.1 80 16:54 25.10.2019
5363 Clouds 23 1011 78 10000 4.1 80 16:36 25.10.2019
5364 Clouds 22 1011 83 10000 2.1 70 16:18 25.10.2019
5365 Clouds 22 1011 83 10000 2.1 70 16:18 25.10.2019
5366 Clouds 22 1011 83 10000 2.1 80 15:40 25.10.2019
5367 Clouds 23 1011 78 10000 1.5 90 15:21 25.10.2019
5368 Clouds 23 1011 78 10000 2.1 90 14:57 25.10.2019
5369 Clouds 23 1011 78 10000 2.1 90 14:39 25.10.2019
5370 Clouds 22 1011 83 10000 2.1 100 14:20 25.10.2019
5371 Clouds 23 1012 78 10000 1.5 110 13:41 25.10.2019
5372 Clouds 23 1012 78 10000 2.6 70 13:23 25.10.2019
5373 Clouds 23 1012 78 10000 1.5 100 12:55 25.10.2019
5374 Clouds 23 1012 78 10000 1.5 100 12:37 25.10.2019
5375 Clouds 23 1012 78 10000 1.5 60 12:18 25.10.2019
5376 Clouds 23 1013 73 10000 2.1 90 11:40 25.10.2019
5377 Clouds 23 1013 78 10000 3.1 90 11:22 25.10.2019
5378 Clouds 22 1013 83 10000 1 80 10:57 25.10.2019
5379 Clouds 22 1013 83 10000 1 80 10:36 25.10.2019
5380 Clouds 22 1013 83 10000 1 80 10:36 25.10.2019
5381 Clouds 22 1013 88 10000 1 160 10:18 25.10.2019
5382 Clouds 22 1013 88 10000 0.5 190 09:41 25.10.2019
5383 Clouds 22 1013 88 10000 1 160 09:20 25.10.2019
5384 Clouds 22 1013 88 10000 0.5 170 08:52 25.10.2019
5385 Rain 22 1013 88 10000 0.5 150 08:33 25.10.2019
5386 Haze 22 1012 88 4100 1 160 07:58 25.10.2019
5387 Haze 22 1012 88 4100 1 160 07:40 25.10.2019
5388 Rain 23 1012 83 10000 2.1 80 07:22 25.10.2019
5389 Rain 24 1012 73 10000 1.5 100 06:36 25.10.2019
5390 Clouds 25 1012 65 10000 1.5 130 05:48 25.10.2019
5391 Clouds 25 1011 69 10000 1.5 300 05:21 25.10.2019
5392 Clouds 26 1011 69 10000 2.1 360 03:59 25.10.2019
5393 Clouds 26 1012 69 10000 3.1 30 02:22 25.10.2019
5394 Clouds 26 1012 69 10000 2.1 20 01:51 25.10.2019
5395 Rain 25 1013 73 10000 2.6 220 00:26 25.10.2019
5396 Clouds 25 1013 73 10000 3.1 240 23:41 24.10.2019
5397 Clouds 25 1013 73 10000 3.1 250 23:23 24.10.2019
5398 Clouds 25 1013 73 10000 2.6 310 22:56 24.10.2019
5399 Clouds 25 1013 73 10000 2.6 310 22:37 24.10.2019
5400 Clouds 25 1013 73 10000 3.1 270 22:19 24.10.2019
5401 Clouds 25 1013 73 10000 3.1 270 22:19 24.10.2019
5402 Clouds 25 1013 73 10000 2.6 280 21:57 24.10.2019
5403 Clouds 25 1013 73 10000 2.6 280 21:38 24.10.2019
5404 Clouds 25 1013 73 10000 1 310 21:19 24.10.2019
5405 Clouds 24 1013 78 10000 1.5 40 20:57 24.10.2019
5406 Clouds 24 1013 78 10000 1.5 40 20:38 24.10.2019
5407 Clouds 24 1013 78 10000 1 80 20:20 24.10.2019
5408 Clouds 23 1013 88 10000 0.5 80 19:45 24.10.2019
5409 Clouds 22 1012 94 10000 0.5 150 19:27 24.10.2019
5410 Clouds 22 1012 88 10000 1 200 18:59 24.10.2019
5411 Clouds 22 1012 88 10000 1 200 18:40 24.10.2019
5412 Clouds 22 1012 88 10000 1 200 18:40 24.10.2019
5413 Clear 21 1012 94 10000 1.5 140 18:21 24.10.2019
5414 Clear 21 1011 94 10000 1 110 17:59 24.10.2019
5415 Clear 21 1011 94 10000 1 110 17:39 24.10.2019
5416 Clear 21 1011 94 10000 1 190 17:19 24.10.2019
5417 Clear 21 1011 94 10000 1 100 16:55 24.10.2019
5418 Clear 21 1011 94 10000 1 100 16:37 24.10.2019
5419 Clear 21 1011 94 10000 1 200 16:18 24.10.2019
5420 Clear 20 1011 100 10000 1.5 190 15:54 24.10.2019
5421 Clear 20 1011 100 10000 1.5 190 15:36 24.10.2019
5422 Clear 20 1011 94 10000 1 180 15:18 24.10.2019
5423 Clouds 21 1012 94 10000 1.5 200 14:42 24.10.2019
5424 Clouds 21 1012 94 10000 1 200 14:23 24.10.2019
5425 Clouds 20 1012 94 10000 0.5 150 13:58 24.10.2019
5426 Clouds 20 1012 94 10000 0.5 150 13:37 24.10.2019
5427 Clouds 20 1012 94 10000 1 170 13:18 24.10.2019
5428 Clouds 21 1012 88 10000 1.5 190 12:55 24.10.2019
5429 Clouds 21 1012 88 10000 1.5 190 12:37 24.10.2019
5430 Clear 20 1012 94 10000 1 190 12:18 24.10.2019
5431 Clear 20 1013 94 10000 1 180 11:54 24.10.2019
5432 Clear 20 1013 94 10000 1 180 11:36 24.10.2019
5433 Clear 20 1013 94 10000 0.5 150 11:18 24.10.2019
5434 Clear 21 1013 88 10000 1 140 10:41 24.10.2019
5435 Clear 21 1013 88 10000 0.5 180 10:23 24.10.2019
5436 Clouds 21 1013 94 10000 1 180 09:39 24.10.2019
5437 Clouds 21 1013 94 10000 1 180 09:39 24.10.2019
5438 Clouds 22 1013 88 10000 1 90 09:19 24.10.2019
5439 Clouds 22 1013 83 10000 0.5 90 08:57 24.10.2019
5440 Clouds 22 1013 83 10000 0.5 90 08:38 24.10.2019
5441 Clouds 23 1012 78 10000 1 250 08:18 24.10.2019
5442 Clouds 23 1012 78 10000 1 250 08:18 24.10.2019
5443 Clouds 23 1012 78 10000 2.1 210 07:46 24.10.2019
5444 Clouds 24 1012 73 10000 2.1 190 07:23 24.10.2019
5445 Clouds 24 1012 73 10000 2.6 200 06:48 24.10.2019
5446 Clouds 25 1012 73 10000 2.1 220 06:26 24.10.2019
5447 Clouds 26 1011 69 10000 1.5 200 05:52 24.10.2019
5448 Clouds 25 1011 73 10000 1.5 200 05:29 24.10.2019
5449 Clouds 25 1011 73 10000 1.5 200 05:29 24.10.2019
5450 Clouds 26 1011 74 10000 3.1 220 03:38 24.10.2019
5451 Rain 25 1012 73 10000 4.1 210 03:18 24.10.2019
5452 Rain 26 1012 74 10000 3.1 210 02:26 24.10.2019
5453 Rain 26 1012 74 10000 2.6 220 01:52 24.10.2019
5454 Rain 25 1013 78 10000 4.6 210 01:28 24.10.2019
5455 Rain 26 1013 78 10000 3.6 220 00:44 24.10.2019
5456 Rain 26 1013 78 10000 3.6 220 00:44 24.10.2019
5457 Rain 25 1013 78 10000 3.1 200 00:23 24.10.2019
5458 Rain 25 1013 83 10000 3.6 190 23:43 23.10.2019
5459 Rain 25 1013 83 10000 3.6 190 23:43 23.10.2019
5460 Rain 24 1014 83 10000 3.1 220 23:23 23.10.2019
5461 Rain 24 1014 83 10000 3.1 220 23:23 23.10.2019
5462 Rain 25 1014 83 10000 3.6 220 22:57 23.10.2019
5463 Rain 25 1014 83 10000 3.6 220 22:38 23.10.2019
5464 Rain 25 1014 78 10000 2.1 190 22:19 23.10.2019
5465 Rain 25 1014 83 10000 2.1 210 21:57 23.10.2019
5466 Rain 25 1014 83 10000 2.1 210 21:38 23.10.2019
5467 Rain 24 1014 83 10000 3.1 210 21:19 23.10.2019
5468 Rain 24 1013 83 10000 3.1 250 20:56 23.10.2019
5469 Rain 24 1013 83 10000 3.1 250 20:38 23.10.2019
5470 Rain 23 1013 88 10000 1.5 200 20:20 23.10.2019
5471 Rain 23 1013 88 10000 1.5 210 19:55 23.10.2019
5472 Rain 23 1013 88 10000 1.5 210 19:36 23.10.2019
5473 Rain 23 1013 94 10000 1.5 220 19:18 23.10.2019
5474 Rain 23 1012 88 10000 1 240 18:40 23.10.2019
5475 Clouds 23 1012 88 10000 1 220 18:19 23.10.2019
5476 Clouds 22 1012 100 10000 1 150 17:59 23.10.2019
5477 Clouds 22 1012 100 10000 1 150 17:41 23.10.2019
5478 Clouds 22 1012 94 10000 1 180 17:19 23.10.2019
5479 Clouds 22 1012 94 10000 1 180 17:19 23.10.2019
5480 Clouds 22 1012 94 10000 1 80 16:54 23.10.2019
5481 Clouds 22 1012 94 10000 1 80 16:36 23.10.2019
5482 Clouds 22 1012 94 10000 0.5 120 16:18 23.10.2019
5483 Clouds 22 1012 94 10000 1 180 15:40 23.10.2019
5484 Clouds 22 1012 94 10000 0.5 200 15:21 23.10.2019
5485 Clouds 22 1012 94 10000 0.5 150 14:57 23.10.2019
5486 Clouds 22 1012 94 10000 0.5 150 14:38 23.10.2019
5487 Clouds 22 1012 94 10000 1 200 14:19 23.10.2019
5488 Clouds 22 1012 94 10000 1 200 14:19 23.10.2019
5489 Clouds 22 1012 94 10000 0.5 170 13:54 23.10.2019
5490 Clouds 22 1012 94 10000 0.5 170 13:36 23.10.2019
5491 Clouds 23 1013 94 10000 0.5 190 13:18 23.10.2019
5492 Rain 23 1013 94 10000 1.5 200 12:41 23.10.2019
5493 Clouds 24 1013 88 10000 2.1 200 12:20 23.10.2019
5494 Clouds 24 1014 88 10000 1.5 190 11:58 23.10.2019
5495 Clouds 24 1014 88 10000 1.5 190 11:40 23.10.2019
5496 Clouds 24 1014 88 10000 2.1 200 11:21 23.10.2019
5497 Clouds 24 1014 88 10000 1.5 180 10:59 23.10.2019
5498 Clouds 24 1014 88 10000 1.5 180 10:40 23.10.2019
5499 Clouds 24 1014 88 10000 1.5 190 10:22 23.10.2019
5500 Clouds 23 1013 94 10000 1 200 09:40 23.10.2019
5501 Clouds 23 1013 94 10000 0.5 150 09:22 23.10.2019
5502 Clouds 25 1014 76 0 1.9 184 08:55 23.10.2019
5503 Clouds 25 1014 76 0 1.9 184 08:55 23.10.2019
5504 Clouds 25 1014 76 0 1.9 184 08:37 23.10.2019
5505 Clouds 25 1014 76 0 1.9 184 08:18 23.10.2019
5506 Clouds 26 1012 78 10000 2.6 230 07:44 23.10.2019
5507 Clouds 26 1012 78 10000 2.6 230 07:20 23.10.2019
5508 Clouds 26 1012 78 10000 2.6 230 06:43 23.10.2019
5509 Clouds 26 1012 78 10000 3.1 240 06:19 23.10.2019
5510 Clouds 26 1012 78 10000 3.1 240 05:20 23.10.2019
5511 Clouds 27 1012 74 10000 4.1 270 03:47 23.10.2019
5512 Clouds 27 1012 74 10000 4.1 260 02:44 23.10.2019
5513 Clouds 26 1013 78 10000 2.6 270 01:41 23.10.2019
5514 Haze 27 1013 78 1600 2.6 290 01:18 23.10.2019
5515 Haze 26 1013 78 1800 2.6 310 00:34 23.10.2019
5516 Clouds 26 1014 78 10000 2.6 310 23:56 22.10.2019
5517 Clouds 26 1014 78 10000 2.6 310 23:37 22.10.2019
5518 Clouds 26 1014 83 10000 2.1 340 23:18 22.10.2019
5519 Clouds 26 1014 83 10000 2.1 340 23:18 22.10.2019
5520 Clouds 26 1014 78 10000 1.5 350 22:40 22.10.2019
5521 Clouds 26 1014 78 10000 1 350 22:22 22.10.2019
5522 Clouds 26 1014 83 10000 1.5 360 21:57 22.10.2019
5523 Clouds 26 1014 83 10000 1.5 360 21:38 22.10.2019
5524 Clouds 26 1014 78 10000 1 40 21:19 22.10.2019
5525 Clouds 25 1014 83 10000 1.5 60 20:58 22.10.2019
5526 Clouds 25 1014 83 10000 1.5 60 20:40 22.10.2019
5527 Clouds 25 1013 83 10000 1 50 20:22 22.10.2019
5528 Clouds 24 1013 94 10000 0.5 100 19:56 22.10.2019
5529 Clouds 24 1013 94 10000 0.5 100 19:38 22.10.2019
5530 Clouds 22 1013 100 10000 0.5 180 19:20 22.10.2019
5531 Clouds 20 1013 100 10000 0.5 100 18:54 22.10.2019
5532 Clouds 20 1013 100 10000 0.5 100 18:36 22.10.2019
5533 Clouds 20 1012 100 10000 0.5 130 18:18 22.10.2019
5534 Fog 20 1012 100 3700 1 90 17:39 22.10.2019
5535 Clouds 21 1012 94 10000 1 80 17:20 22.10.2019
5536 Clouds 21 1012 94 10000 1 80 17:20 22.10.2019
5537 Clouds 21 1012 100 10000 1 100 16:58 22.10.2019
5538 Clouds 21 1012 100 10000 1 100 16:39 22.10.2019
5539 Clouds 21 1012 94 10000 1.5 110 16:19 22.10.2019
5540 Clouds 21 1012 100 10000 1.5 120 15:58 22.10.2019
5541 Clouds 21 1012 100 10000 1.5 120 15:39 22.10.2019
5542 Clear 21 1012 94 10000 0.5 110 15:18 22.10.2019
5543 Clear 20 1013 100 10000 0.5 140 14:43 22.10.2019
5544 Clear 21 1013 94 10000 0.5 130 14:20 22.10.2019
5545 Clear 21 1013 94 10000 0.5 100 13:43 22.10.2019
5546 Clear 21 1014 94 10000 0.5 160 13:22 22.10.2019
5547 Clear 21 1014 94 10000 0.5 160 13:22 22.10.2019
5548 Clear 21 1014 94 10000 0.5 120 12:59 22.10.2019
5549 Clear 21 1014 94 10000 0.5 120 12:40 22.10.2019
5550 Clear 21 1014 94 10000 0.5 110 12:21 22.10.2019
5551 Clear 21 1014 100 10000 1 120 11:56 22.10.2019
5552 Clear 21 1014 100 10000 1 120 11:38 22.10.2019
5553 Clear 22 1015 94 10000 1 190 11:20 22.10.2019
5554 Clear 22 1015 94 10000 1 170 10:56 22.10.2019
5555 Clear 22 1015 94 10000 1 170 10:37 22.10.2019
5556 Clear 22 1015 94 10000 0.5 170 10:18 22.10.2019
5557 Clear 22 1014 94 10000 1 170 09:44 22.10.2019
5558 Clear 22 1014 94 10000 0.5 170 09:22 22.10.2019
5559 Clear 23 1014 88 10000 0.5 130 08:59 22.10.2019
5560 Clear 23 1014 88 10000 0.5 130 08:41 22.10.2019
5561 Clear 23 1014 88 10000 1.5 110 08:20 22.10.2019
5562 Clear 24 1014 83 10000 1.5 100 07:45 22.10.2019
5563 Clear 24 1013 83 10000 2.1 100 07:26 22.10.2019
5564 Clear 24 1013 83 10000 3.6 80 06:47 22.10.2019
5565 Clear 25 1013 78 10000 4.1 70 06:29 22.10.2019
5566 Clear 25 1013 83 10000 4.6 60 05:50 22.10.2019
5567 Clear 25 1012 78 10000 4.6 50 05:18 22.10.2019
5568 Clear 27 1013 74 10000 5.7 50 02:32 22.10.2019
5569 Clear 26 1014 78 10000 5.7 60 01:50 22.10.2019
5570 Clear 26 1014 78 10000 6.2 70 01:24 22.10.2019
5571 Clear 27 1014 74 10000 5.7 60 00:56 22.10.2019
5572 Clear 27 1014 74 10000 5.7 60 00:38 22.10.2019
5573 Clear 27 1015 74 10000 5.1 70 00:19 22.10.2019
5574 Clear 26 1015 78 10000 6.2 70 23:39 21.10.2019
5575 Clear 26 1015 78 10000 5.7 70 23:19 21.10.2019
5576 Clear 26 1015 78 10000 3.6 90 22:59 21.10.2019
5577 Clear 26 1015 78 10000 3.6 90 22:39 21.10.2019
5578 Clear 26 1015 83 10000 6.2 70 22:20 21.10.2019
5579 Clear 25 1015 83 10000 5.7 70 21:58 21.10.2019
5580 Clear 25 1015 83 10000 5.7 70 21:38 21.10.2019
5581 Rain 25 1015 78 10000 2.6 80 21:20 21.10.2019
5582 Rain 25 1015 83 10000 2.6 100 20:57 21.10.2019
5583 Rain 25 1015 83 10000 2.6 100 20:38 21.10.2019
5584 Rain 24 1015 88 10000 2.1 100 20:20 21.10.2019
5585 Rain 23 1015 94 10000 2.6 90 19:55 21.10.2019
5586 Rain 23 1015 94 10000 2.6 90 19:37 21.10.2019
5587 Rain 21 1014 100 10000 1.5 70 19:19 21.10.2019
5588 Rain 21 1014 100 10000 1.5 70 18:55 21.10.2019
5589 Rain 21 1014 100 10000 1.5 70 18:55 21.10.2019
5590 Rain 21 1014 100 10000 1.5 70 18:36 21.10.2019
5591 Rain 21 1014 100 10000 1.5 70 18:36 21.10.2019
5592 Clouds 21 1014 100 10000 1.5 90 18:18 21.10.2019
5593 Clouds 21 1014 100 10000 1.5 90 18:18 21.10.2019
5594 Clouds 21 1014 100 10000 1.5 90 18:18 21.10.2019
5595 Clouds 21 1013 100 10000 2.1 90 17:39 21.10.2019
5596 Clouds 21 1013 100 10000 2.1 90 17:39 21.10.2019
5597 Clouds 21 1013 100 10000 1.5 70 17:19 21.10.2019
5598 Clouds 22 1013 94 10000 0.5 110 16:58 21.10.2019
5599 Clouds 22 1013 94 10000 0.5 110 16:40 21.10.2019
5600 Clouds 22 1013 94 10000 0.5 50 16:22 21.10.2019
5601 Clouds 22 1013 94 10000 1 100 15:58 21.10.2019
5602 Clouds 22 1013 94 10000 1 100 15:39 21.10.2019
5603 Rain 22 1014 100 10000 2.1 110 15:19 21.10.2019
5604 Rain 22 1014 100 10000 2.1 70 14:40 21.10.2019
5605 Rain 23 1014 94 10000 2.6 80 14:21 21.10.2019
5606 Rain 23 1015 94 10000 4.6 60 13:59 21.10.2019
5607 Rain 23 1015 94 10000 4.6 60 13:40 21.10.2019
5608 Rain 24 1015 88 10000 3.1 90 13:20 21.10.2019
5609 Rain 24 1015 88 10000 4.1 90 12:57 21.10.2019
5610 Rain 24 1015 88 10000 4.1 90 12:39 21.10.2019
5611 Rain 24 1015 88 10000 4.1 90 12:39 21.10.2019
5612 Rain 24 1015 88 10000 4.6 80 12:19 21.10.2019
5613 Rain 24 1015 88 10000 4.1 90 11:40 21.10.2019
5614 Rain 24 1016 88 10000 4.1 90 11:22 21.10.2019
5615 Rain 24 1016 88 10000 4.1 90 10:58 21.10.2019
5616 Rain 24 1016 88 10000 4.1 90 10:38 21.10.2019
5617 Rain 24 1015 88 10000 3.6 90 10:19 21.10.2019
5618 Rain 24 1015 88 10000 3.6 90 10:19 21.10.2019
5619 Rain 24 1015 88 10000 4.1 90 09:54 21.10.2019
5620 Rain 24 1015 88 10000 4.1 90 09:36 21.10.2019
5621 Rain 24 1015 88 10000 3.6 90 09:18 21.10.2019
5622 Rain 24 1015 88 10000 3.6 90 08:40 21.10.2019
5623 Rain 24 1015 88 10000 4.1 90 08:22 21.10.2019
5624 Rain 24 1015 88 10000 3.6 90 07:45 21.10.2019
5625 Rain 24 1015 88 10000 3.1 90 07:22 21.10.2019
5626 Rain 24 1014 88 10000 3.6 90 06:58 21.10.2019
5627 Rain 24 1014 88 10000 3.6 90 06:39 21.10.2019
5628 Rain 25 1014 83 10000 4.1 90 05:57 21.10.2019
5629 Rain 25 1014 83 10000 4.1 90 05:57 21.10.2019
5630 Rain 26 1014 78 10000 6.2 80 04:50 21.10.2019
5631 Rain 26 1014 78 10000 7.2 80 03:38 21.10.2019
5632 Rain 25 1014 83 10000 6.2 70 02:37 21.10.2019
5633 Rain 26 1015 83 10000 7.2 80 02:19 21.10.2019
5634 Rain 26 1015 83 10000 7.2 70 01:38 21.10.2019
5635 Rain 26 1016 78 10000 7.2 70 00:51 21.10.2019
5636 Rain 27 1016 74 10000 6.2 70 00:27 21.10.2019
5637 Rain 26 1016 78 10000 6.7 80 23:43 20.10.2019
5638 Rain 26 1016 78 10000 7.7 70 23:22 20.10.2019
5639 Rain 25 1016 83 10000 7.2 80 22:57 20.10.2019
5640 Rain 25 1016 83 10000 7.2 80 22:39 20.10.2019
5641 Rain 26 1017 78 10000 7.2 70 22:19 20.10.2019
5642 Rain 25 1017 83 10000 4.6 90 21:59 20.10.2019
5643 Rain 25 1017 83 10000 4.6 90 21:39 20.10.2019
5644 Clouds 26 1017 78 10000 5.1 90 21:21 20.10.2019
5645 Rain 25 1017 83 10000 3.6 90 20:42 20.10.2019
5646 Rain 25 1017 83 10000 3.6 90 20:20 20.10.2019
5647 Rain 24 1017 83 10000 2.6 90 19:57 20.10.2019
5648 Rain 24 1017 83 10000 2.6 90 19:57 20.10.2019
5649 Rain 24 1017 83 10000 2.6 90 19:39 20.10.2019
5650 Rain 23 1016 88 10000 1.5 100 19:20 20.10.2019
5651 Rain 23 1016 88 10000 1.5 100 19:20 20.10.2019
5652 Rain 23 1016 88 10000 1.5 110 18:56 20.10.2019
5653 Rain 23 1016 88 10000 1.5 110 18:56 20.10.2019
5654 Rain 23 1016 88 10000 1.5 110 18:38 20.10.2019
5655 Rain 23 1016 88 10000 1.5 110 18:38 20.10.2019
5656 Rain 23 1016 88 10000 1 120 18:19 20.10.2019
5657 Rain 23 1016 88 10000 2.1 80 17:54 20.10.2019
5658 Rain 23 1016 88 10000 2.1 80 17:36 20.10.2019
5659 Rain 23 1015 88 10000 2.1 110 17:18 20.10.2019
5660 Rain 23 1015 88 10000 1.5 100 16:41 20.10.2019
5661 Rain 23 1015 88 10000 2.1 90 16:23 20.10.2019
5662 Rain 24 1016 83 10000 2.1 110 15:57 20.10.2019
5663 Rain 24 1016 83 10000 2.1 110 15:38 20.10.2019
5664 Clouds 23 1016 88 10000 3.1 90 15:19 20.10.2019
5665 Clouds 23 1016 88 10000 3.1 90 14:57 20.10.2019
5666 Clouds 23 1016 88 10000 3.1 90 14:37 20.10.2019
5667 Clouds 23 1017 88 10000 4.1 90 14:18 20.10.2019
5668 Clouds 23 1017 88 10000 3.1 90 13:55 20.10.2019
5669 Clouds 23 1017 88 10000 3.1 90 13:36 20.10.2019
5670 Clouds 23 1017 88 10000 2.6 100 13:18 20.10.2019
5671 Clouds 23 1017 88 10000 3.1 100 12:55 20.10.2019
5672 Clouds 23 1017 88 10000 3.1 100 12:37 20.10.2019
5673 Clear 23 1018 88 10000 3.6 100 12:18 20.10.2019
5674 Clear 23 1017 88 10000 4.1 90 11:41 20.10.2019
5675 Clear 23 1018 88 10000 4.1 90 11:23 20.10.2019
5676 Clear 23 1018 88 10000 3.1 100 10:59 20.10.2019
5677 Clear 23 1018 88 10000 3.1 100 10:39 20.10.2019
5678 Clear 23 1018 88 10000 3.1 100 10:39 20.10.2019
5679 Clear 23 1018 88 10000 3.6 90 10:21 20.10.2019
5680 Clear 23 1018 88 10000 3.6 90 10:21 20.10.2019
5681 Clear 23 1018 88 10000 3.6 100 09:56 20.10.2019
5682 Clear 23 1018 88 10000 3.6 100 09:56 20.10.2019
5683 Clear 23 1018 88 10000 3.6 100 09:37 20.10.2019
5684 Clouds 23 1018 88 10000 3.6 100 09:19 20.10.2019
5685 Clouds 23 1017 88 10000 4.6 90 08:40 20.10.2019
5686 Clouds 23 1017 88 10000 4.1 90 08:21 20.10.2019
5687 Clouds 23 1017 88 10000 3.6 90 07:48 20.10.2019
5688 Clouds 23 1017 88 10000 3.6 90 07:28 20.10.2019
5689 Clouds 24 1016 83 10000 4.1 90 06:31 20.10.2019
5690 Rain 24 1016 83 10000 4.6 90 04:30 20.10.2019
5691 Clouds 24 1016 83 10000 4.6 90 03:51 20.10.2019
5692 Rain 24 1016 83 10000 4.1 90 03:22 20.10.2019
5693 Clouds 24 1017 83 10000 4.1 90 02:49 20.10.2019
5694 Clouds 24 1017 83 10000 7.2 90 02:22 20.10.2019
5695 Clouds 24 1017 78 10000 6.7 90 01:49 20.10.2019
5696 Rain 23 1017 83 10000 4.6 90 01:21 20.10.2019
5697 Rain 23 1018 83 10000 5.1 90 00:48 20.10.2019
5698 Rain 23 1017 88 10000 7.2 80 00:20 20.10.2019
5699 Rain 23 1017 88 10000 6.2 90 23:44 19.10.2019
5700 Rain 23 1018 88 10000 5.7 90 23:24 19.10.2019
5701 Rain 23 1018 83 10000 4.6 110 22:59 19.10.2019
5702 Rain 23 1018 83 10000 4.6 110 22:40 19.10.2019
5703 Rain 23 1018 83 10000 5.1 90 22:20 19.10.2019
5704 Rain 23 1018 78 10000 5.7 100 21:54 19.10.2019
5705 Rain 23 1018 78 10000 5.7 100 21:36 19.10.2019
5706 Rain 23 1019 83 10000 1.5 100 21:18 19.10.2019
5707 Rain 22 1019 88 10000 2.1 100 20:41 19.10.2019
5708 Rain 23 1018 88 10000 4.1 100 20:20 19.10.2019
5709 Rain 23 1018 88 10000 3.6 110 19:41 19.10.2019
5710 Rain 23 1017 88 10000 3.1 110 19:23 19.10.2019
5711 Rain 23 1016 88 10000 5.1 90 18:54 19.10.2019
5712 Rain 23 1016 88 10000 5.1 90 18:54 19.10.2019
5713 Rain 23 1016 88 10000 5.1 90 18:36 19.10.2019
5714 Rain 23 1016 88 10000 5.7 100 18:18 19.10.2019
5715 Rain 23 1016 88 10000 5.7 100 18:18 19.10.2019
5716 Rain 23 1016 88 10000 5.7 100 18:18 19.10.2019
5717 Rain 23 1017 88 10000 3.6 100 17:40 19.10.2019
5718 Clouds 24 1016 83 10000 5.7 90 17:21 19.10.2019
5719 Clouds 23 1016 94 10000 5.7 100 16:55 19.10.2019
5720 Clouds 23 1016 94 10000 5.7 100 16:37 19.10.2019
5721 Clouds 23 1016 88 10000 5.7 90 16:18 19.10.2019
5722 Clouds 23 1016 88 10000 5.7 90 16:18 19.10.2019
5723 Clouds 23 1016 88 10000 5.1 90 15:40 19.10.2019
5724 Rain 22 1016 94 10000 6.2 90 15:22 19.10.2019
5725 Rain 22 1016 94 10000 8.2 90 14:38 19.10.2019
5726 Rain 21 1017 100 10000 7.2 90 14:20 19.10.2019
5727 Rain 22 1017 94 4700 7.7 90 13:56 19.10.2019
5728 Rain 22 1017 94 4700 7.7 90 13:38 19.10.2019
5729 Rain 22 1017 94 9000 6.2 100 13:18 19.10.2019
5730 Rain 22 1017 100 10000 7.2 90 12:55 19.10.2019
5731 Rain 22 1017 100 10000 7.2 90 12:36 19.10.2019
5732 Rain 22 1018 100 6000 5.7 90 12:18 19.10.2019
5733 Rain 22 1017 100 10000 7.7 90 11:40 19.10.2019
5734 Rain 22 1017 100 10000 9.8 80 11:22 19.10.2019
5735 Rain 22 1018 100 9000 8.2 90 10:54 19.10.2019
5736 Rain 22 1018 100 9000 8.2 90 10:36 19.10.2019
5737 Rain 22 1018 100 10000 6.7 90 10:18 19.10.2019
5738 Rain 22 1018 100 10000 7.2 90 09:41 19.10.2019
5739 Rain 22 1018 100 10000 7.2 90 09:41 19.10.2019
5740 Rain 22 1017 100 10000 7.7 90 09:23 19.10.2019
5741 Rain 22 1017 100 6000 6.7 90 08:58 19.10.2019
5742 Rain 22 1017 100 6000 6.7 90 08:58 19.10.2019
5743 Rain 22 1017 100 6000 6.7 90 08:39 19.10.2019
5744 Rain 23 1017 94 6000 5.7 90 08:20 19.10.2019
5745 Rain 23 1017 94 10000 5.1 90 07:43 19.10.2019
5746 Rain 23 1016 94 8000 5.1 90 07:24 19.10.2019
5747 Rain 23 1016 94 5000 6.2 90 06:45 19.10.2019
5748 Rain 23 1015 94 10000 5.7 90 05:55 19.10.2019
5749 Rain 24 1015 88 10000 5.1 100 05:27 19.10.2019
5750 Rain 23 1016 94 6000 4.6 80 03:25 19.10.2019
5751 Rain 24 1016 94 6000 7.7 70 02:35 19.10.2019
5752 Rain 24 1016 88 10000 5.7 90 01:50 19.10.2019
5753 Rain 25 1016 83 10000 4.6 100 00:59 19.10.2019
5754 Rain 25 1016 83 10000 4.6 100 00:41 19.10.2019
5755 Rain 25 1017 78 10000 4.6 100 00:21 19.10.2019
5756 Rain 24 1017 88 10000 4.6 100 23:40 18.10.2019
5757 Rain 24 1017 88 9000 4.6 100 23:21 18.10.2019
5758 Rain 24 1017 83 10000 4.6 100 22:55 18.10.2019
5759 Rain 24 1017 83 10000 4.6 100 22:37 18.10.2019
5760 Rain 24 1017 83 10000 4.6 100 22:37 18.10.2019
5761 Rain 24 1017 83 10000 5.1 100 22:18 18.10.2019
5762 Rain 24 1017 83 10000 4.6 90 21:56 18.10.2019
5763 Clouds 24 1017 83 10000 4.6 90 21:36 18.10.2019
5764 Clouds 25 1017 83 10000 4.6 100 21:18 18.10.2019
5765 Clouds 23 1017 88 10000 3.6 110 20:43 18.10.2019
5766 Clouds 23 1017 88 10000 4.1 90 20:23 18.10.2019
5767 Clouds 23 1017 88 10000 5.1 100 19:58 18.10.2019
5768 Clouds 23 1017 88 10000 5.1 100 19:58 18.10.2019
5769 Clouds 23 1017 88 10000 5.1 100 19:40 18.10.2019
5770 Clouds 23 1016 88 10000 4.6 100 19:22 18.10.2019
5771 Clouds 23 1016 83 10000 5.1 100 18:59 18.10.2019
5772 Clouds 23 1016 83 10000 5.1 100 18:59 18.10.2019
5773 Clouds 23 1016 83 10000 5.1 100 18:41 18.10.2019
5774 Clouds 23 1016 83 10000 2.6 100 18:22 18.10.2019
5775 Clouds 23 1016 88 10000 3.1 110 17:56 18.10.2019
5776 Clouds 23 1016 88 10000 3.1 110 17:37 18.10.2019
5777 Clouds 23 1015 88 10000 4.6 110 17:19 18.10.2019
5778 Clouds 23 1015 83 10000 3.6 110 16:40 18.10.2019
5779 Clouds 23 1015 88 10000 3.6 110 16:21 18.10.2019
5780 Rain 22 1015 94 10000 5.1 100 15:57 18.10.2019
5781 Rain 22 1015 94 10000 5.1 100 15:38 18.10.2019
5782 Rain 22 1016 94 10000 3.6 90 15:19 18.10.2019
5783 Rain 23 1016 88 10000 2.6 110 14:56 18.10.2019
5784 Rain 23 1016 88 10000 2.6 110 14:38 18.10.2019
5785 Rain 23 1016 88 10000 3.1 90 14:19 18.10.2019
5786 Drizzle 23 1016 88 10000 3.1 100 13:55 18.10.2019
5787 Drizzle 23 1016 88 10000 3.1 100 13:36 18.10.2019
5788 Clouds 24 1017 78 10000 3.1 110 13:18 18.10.2019
5789 Clouds 24 1017 78 10000 3.6 100 12:40 18.10.2019
5790 Rain 24 1017 83 10000 2.6 110 12:22 18.10.2019
5791 Rain 23 1017 88 10000 3.1 110 11:59 18.10.2019
5792 Rain 23 1017 88 10000 3.1 110 11:41 18.10.2019
5793 Rain 23 1017 88 10000 4.1 100 11:20 18.10.2019
5794 Rain 23 1017 88 10000 4.1 100 10:57 18.10.2019
5795 Rain 23 1017 88 10000 4.1 100 10:38 18.10.2019
5796 Rain 23 1017 88 10000 4.1 100 10:19 18.10.2019
5797 Rain 23 1017 88 10000 3.6 100 09:55 18.10.2019
5798 -273 0 0 0 0 0 09:37 18.10.2019
5799 Clouds 23 1017 88 10000 4.1 90 09:18 18.10.2019
5800 Clouds 23 1017 88 10000 3.1 100 08:42 18.10.2019
5801 Clouds 23 1017 88 10000 3.1 100 08:23 18.10.2019
5802 Drizzle 23 1017 88 10000 3.6 90 07:48 18.10.2019
5803 Clouds 24 1016 83 10000 2.6 100 07:29 18.10.2019
5804 Clouds 24 1016 83 10000 3.6 90 06:41 18.10.2019
5805 Clouds 25 1016 78 10000 5.1 80 06:22 18.10.2019
5806 Clouds 25 1015 78 10000 6.2 80 05:58 18.10.2019
5807 Clouds 25 1015 78 10000 5.7 80 05:24 18.10.2019
5808 Clouds 25 1015 78 10000 6.2 80 04:49 18.10.2019
5809 Clouds 26 1015 69 10000 5.7 70 03:33 18.10.2019
5810 Clouds 27 1015 69 10000 6.7 80 02:35 18.10.2019
5811 Clouds 26 1016 74 10000 6.2 80 01:55 18.10.2019
5812 Clouds 26 1016 74 10000 7.7 70 01:30 18.10.2019
5813 Clouds 26 1016 74 10000 7.2 70 00:46 18.10.2019
5814 Clouds 27 1016 69 10000 7.2 70 00:21 18.10.2019
5815 Clouds 27 1016 69 10000 7.2 70 00:21 18.10.2019
5816 Clouds 26 1017 69 10000 7.7 80 23:57 17.10.2019
5817 Clouds 26 1017 69 10000 7.7 80 23:38 17.10.2019
5818 Clouds 26 1017 74 10000 6.2 70 23:19 17.10.2019
5819 Clouds 26 1017 69 10000 6.2 70 22:55 17.10.2019
5820 Clouds 26 1017 69 10000 6.2 70 22:37 17.10.2019
5821 Clouds 26 1017 69 10000 6.2 70 22:18 17.10.2019
5822 Clouds 25 1017 73 10000 7.2 70 21:55 17.10.2019
5823 Clouds 25 1017 73 10000 7.2 70 21:55 17.10.2019
5824 Clouds 25 1017 73 10000 7.2 70 21:37 17.10.2019
5825 Rain 25 1017 73 10000 6.7 80 21:19 17.10.2019
5826 Rain 24 1017 78 10000 5.7 80 20:56 17.10.2019
5827 Rain 24 1017 78 10000 5.7 80 20:37 17.10.2019
5828 Rain 24 1017 78 10000 5.1 80 20:18 17.10.2019
5829 Rain 23 1016 83 10000 3.1 90 19:42 17.10.2019
5830 Rain 23 1016 88 10000 3.6 90 19:20 17.10.2019
5831 Rain 23 1016 88 10000 4.6 90 18:59 17.10.2019
5832 Rain 23 1016 88 10000 4.6 90 18:39 17.10.2019
5833 Rain 23 1016 83 10000 3.6 90 18:20 17.10.2019
5834 Clouds 23 1016 83 10000 4.1 90 17:43 17.10.2019
5835 Clouds 23 1016 83 10000 4.1 90 17:43 17.10.2019
5836 Clouds 23 1015 83 10000 3.6 90 17:24 17.10.2019
5837 Clouds 23 1015 83 10000 5.7 70 16:58 17.10.2019
5838 Clouds 23 1015 83 10000 5.7 70 16:40 17.10.2019
5839 Clouds 23 1015 83 10000 5.7 70 16:40 17.10.2019
5840 Clouds 22 1015 94 10000 3.1 90 16:18 17.10.2019
5841 Rain 22 1015 94 9000 4.6 80 15:56 17.10.2019
5842 Rain 22 1015 94 9000 4.6 80 15:38 17.10.2019
5843 Rain 23 1016 88 10000 4.1 90 15:20 17.10.2019
5844 Rain 23 1016 88 10000 3.6 90 14:55 17.10.2019
5845 Clouds 23 1016 88 10000 3.6 90 14:37 17.10.2019
5846 Clouds 23 1017 83 10000 4.1 90 14:18 17.10.2019
5847 Clouds 22 1017 94 10000 3.1 90 13:39 17.10.2019
5848 Rain 21 1017 94 5000 3.1 90 13:19 17.10.2019
5849 Clouds 23 1017 83 10000 4.1 90 12:55 17.10.2019
5850 Clouds 23 1017 83 10000 4.1 90 12:55 17.10.2019
5851 Clouds 23 1017 83 10000 4.1 90 12:36 17.10.2019
5852 Clouds 23 1017 83 10000 5.1 90 12:18 17.10.2019
5853 -273 0 0 0 0 0 11:41 17.10.2019
5854 Clouds 23 1018 78 10000 2.6 100 11:21 17.10.2019
5855 Clouds 23 1018 78 10000 3.6 100 10:57 17.10.2019
5856 Clouds 23 1018 78 10000 3.6 100 10:39 17.10.2019
5857 Clouds 23 1018 78 10000 4.1 90 10:19 17.10.2019
5858 Clouds 23 1018 78 10000 3.6 100 09:55 17.10.2019
5859 Clouds 23 1018 78 10000 3.6 100 09:36 17.10.2019
5860 Clouds 23 1018 78 10000 3.6 100 09:18 17.10.2019
5861 Clouds 23 1018 78 10000 3.1 100 08:46 17.10.2019
5862 Clouds 23 1017 78 10000 3.6 100 08:26 17.10.2019
5863 Clouds 23 1017 78 10000 3.6 100 07:56 17.10.2019
5864 Clouds 23 1017 78 10000 3.6 100 07:38 17.10.2019
5865 Clouds 23 1017 78 10000 3.1 100 07:18 17.10.2019
5866 Clouds 23 1017 78 10000 3.1 100 07:18 17.10.2019
5867 Clouds 24 1016 73 10000 3.6 100 06:40 17.10.2019
5868 Clouds 24 1016 73 10000 3.6 100 06:21 17.10.2019
5869 Clouds 24 1016 73 10000 3.6 110 05:57 17.10.2019
5870 Clouds 25 1015 69 10000 5.1 100 05:32 17.10.2019
5871 Clouds 25 1015 69 10000 3.6 100 04:55 17.10.2019
5872 Clouds 25 1015 73 10000 5.7 90 03:55 17.10.2019
5873 Clouds 26 1016 69 10000 5.7 90 02:37 17.10.2019
5874 Clouds 25 1016 69 10000 5.1 100 01:27 17.10.2019
5875 Clouds 25 1017 69 10000 6.7 90 00:38 17.10.2019
5876 Clouds 25 1017 73 10000 6.7 80 00:19 17.10.2019
5877 Clouds 25 1017 73 10000 6.7 80 23:42 16.10.2019
5878 Clouds 25 1018 73 10000 6.2 90 23:21 16.10.2019
5879 Clouds 25 1018 73 10000 6.2 90 22:56 16.10.2019
5880 Clouds 25 1018 73 10000 6.2 90 22:37 16.10.2019
5881 Clouds 25 1018 73 10000 5.1 90 22:18 16.10.2019
5882 Clouds 24 1018 78 10000 5.1 100 21:56 16.10.2019
5883 Clouds 24 1018 78 10000 5.1 100 21:37 16.10.2019
5884 Clouds 24 1018 78 10000 5.1 100 21:18 16.10.2019
5885 Rain 24 1018 78 10000 3.6 100 20:57 16.10.2019
5886 Rain 24 1018 78 10000 3.6 100 20:38 16.10.2019
5887 Clouds 23 1018 78 10000 4.1 100 20:20 16.10.2019
5888 Clouds 23 1018 78 10000 4.1 100 20:20 16.10.2019
5889 Clouds 23 1018 78 10000 4.1 100 19:57 16.10.2019
5890 Clouds 23 1018 78 10000 4.1 100 19:38 16.10.2019
5891 Rain 22 1017 88 10000 2.6 110 19:20 16.10.2019
5892 Clouds 22 1017 83 10000 3.6 100 18:39 16.10.2019
5893 Clouds 22 1017 83 10000 3.6 100 18:39 16.10.2019
5894 Rain 22 1017 83 10000 3.6 100 18:19 16.10.2019
5895 Rain 21 1017 88 10000 1.5 110 17:56 16.10.2019
5896 Rain 21 1017 88 10000 1.5 110 17:38 16.10.2019
5897 Rain 21 1017 88 10000 2.1 110 17:19 16.10.2019
5898 Rain 21 1017 94 10000 1.5 120 16:58 16.10.2019
5899 Rain 21 1017 94 10000 1.5 120 16:58 16.10.2019
5900 Rain 21 1017 94 10000 1.5 120 16:39 16.10.2019
5901 Rain 21 1017 94 10000 2.1 90 16:20 16.10.2019
5902 Rain 21 1016 94 8000 1.5 90 15:55 16.10.2019
5903 Rain 21 1016 94 8000 1.5 90 15:36 16.10.2019
5904 Clouds 22 1016 83 10000 2.1 110 15:18 16.10.2019
5905 Clouds 22 1016 83 10000 2.1 110 15:18 16.10.2019
5906 Clouds 22 1016 83 10000 2.1 110 14:55 16.10.2019
5907 Clouds 22 1016 83 10000 2.1 110 14:55 16.10.2019
5908 Clouds 22 1016 83 10000 2.1 110 14:36 16.10.2019
5909 Clouds 22 1017 83 10000 1 120 14:18 16.10.2019
5910 Clouds 21 1017 88 10000 1 120 13:42 16.10.2019
5911 Clouds 21 1017 88 10000 1 120 13:23 16.10.2019
5912 Clouds 22 1017 83 10000 1 120 12:44 16.10.2019
5913 Clouds 22 1018 83 10000 2.1 100 12:20 16.10.2019
5914 Clouds 22 1018 78 10000 1 130 11:59 16.10.2019
5915 Clouds 22 1018 78 10000 1 130 11:41 16.10.2019
5916 Clouds 22 1018 78 10000 1 80 11:18 16.10.2019
5917 Clouds 23 1018 78 10000 3.6 100 10:37 16.10.2019
5918 Clouds 23 1018 78 10000 3.1 100 10:19 16.10.2019
5919 Clouds 23 1018 73 10000 2.6 100 09:41 16.10.2019
5920 Clouds 23 1017 73 10000 2.6 120 09:22 16.10.2019
5921 Clouds 23 1017 73 10000 2.6 110 08:58 16.10.2019
5922 Clouds 23 1017 73 10000 2.6 110 08:40 16.10.2019
5923 Clouds 23 1017 73 10000 2.6 110 08:21 16.10.2019
5924 Clouds 23 1016 73 10000 2.6 100 07:45 16.10.2019
5925 Clouds 23 1016 73 10000 3.6 100 07:24 16.10.2019
5926 Clouds 24 1016 69 10000 3.6 100 06:56 16.10.2019
5927 Clouds 24 1016 69 10000 3.6 100 06:56 16.10.2019
5928 Clouds 24 1016 69 10000 4.1 100 06:35 16.10.2019
5929 Clouds 25 1015 65 10000 4.1 100 05:23 16.10.2019
5930 Clouds 26 1016 65 10000 5.1 80 02:57 16.10.2019
5931 Clouds 26 1016 57 10000 5.1 100 01:39 16.10.2019
5932 Clouds 26 1017 57 10000 4.1 100 01:18 16.10.2019
5933 Clouds 26 1017 61 10000 5.1 80 00:45 16.10.2019
5934 Clouds 26 1017 61 10000 4.6 90 23:59 15.10.2019
5935 Clouds 26 1017 61 10000 4.6 90 23:39 15.10.2019
5936 Clouds 25 1017 65 10000 5.1 90 23:21 15.10.2019
5937 Clouds 25 1017 65 10000 5.1 90 23:21 15.10.2019
5938 Clouds 25 1017 65 10000 5.7 90 22:55 15.10.2019
5939 Clouds 25 1017 65 10000 5.7 90 22:55 15.10.2019
5940 Clouds 25 1017 65 10000 5.7 90 22:55 15.10.2019
5941 Clouds 25 1017 65 10000 5.7 90 22:37 15.10.2019
5942 Clouds 25 1017 65 10000 4.6 90 22:19 15.10.2019
5943 Clouds 25 1018 65 10000 4.1 100 21:55 15.10.2019
5944 Clear 25 1018 65 10000 4.1 100 21:36 15.10.2019
5945 Clear 24 1018 69 10000 3.6 90 21:18 15.10.2019
5946 Clear 23 1018 78 10000 2.6 110 20:55 15.10.2019
5947 Clear 23 1018 78 10000 2.6 110 20:37 15.10.2019
5948 Clear 23 1017 78 10000 1.5 100 20:19 15.10.2019
5949 Clear 21 1017 88 10000 0.5 200 19:55 15.10.2019
5950 Clear 21 1017 88 10000 0.5 200 19:55 15.10.2019
5951 Clear 21 1017 88 10000 0.5 200 19:55 15.10.2019
5952 Clear 21 1017 88 10000 0.5 200 19:36 15.10.2019
5953 Clear 20 1017 88 10000 1 170 19:18 15.10.2019
5954 Clear 19 1017 93 10000 1 170 18:43 15.10.2019
5955 -273 0 0 0 0 0 18:25 15.10.2019
5956 Clear 19 1016 93 10000 1 170 17:55 15.10.2019
5957 Clear 19 1016 93 10000 1 170 17:37 15.10.2019
5958 Clear 20 1016 88 10000 1 170 17:18 15.10.2019
5959 Clear 21 1015 83 10000 1 130 16:43 15.10.2019
5960 Clear 21 1015 83 10000 1 130 16:22 15.10.2019
5961 Clear 21 1015 83 10000 1.5 100 15:57 15.10.2019
5962 Clear 21 1015 83 10000 1.5 100 15:57 15.10.2019
5963 Clear 21 1015 83 10000 1.5 100 15:39 15.10.2019
5964 Clear 21 1016 88 10000 1.5 130 15:19 15.10.2019
5965 Clear 21 1016 88 10000 2.1 110 14:55 15.10.2019
5966 Clear 21 1016 88 10000 2.1 110 14:36 15.10.2019
5967 Clear 21 1016 88 10000 1.5 110 14:18 15.10.2019
5968 Clear 21 1016 88 10000 2.6 100 13:43 15.10.2019
5969 Clear 21 1016 88 10000 2.6 100 13:43 15.10.2019
5970 Clear 21 1016 88 10000 3.1 90 13:20 15.10.2019
5971 Clear 21 1016 88 10000 3.1 90 13:20 15.10.2019
5972 Clear 21 1016 88 10000 2.1 100 12:56 15.10.2019
5973 Clear 21 1016 88 10000 2.1 100 12:37 15.10.2019
5974 Clear 21 1016 88 10000 2.1 100 12:37 15.10.2019
5975 Clear 20 1017 88 10000 1 110 12:18 15.10.2019
5976 Clear 20 1017 88 10000 0.5 180 11:42 15.10.2019
5977 Clear 21 1017 83 10000 1 120 11:20 15.10.2019
5978 Clear 21 1017 83 10000 1 130 10:55 15.10.2019
5979 Clear 21 1017 83 10000 1 130 10:37 15.10.2019
5980 Clear 22 1017 78 10000 1 130 10:18 15.10.2019
5981 Clear 22 1017 78 10000 1.5 100 09:40 15.10.2019
5982 Clear 22 1017 78 10000 1.5 100 09:40 15.10.2019
5983 Clouds 22 1017 78 10000 2.1 100 09:21 15.10.2019
5984 Clear 22 1016 78 10000 2.6 90 08:58 15.10.2019
5985 -273 0 0 0 0 0 08:58 15.10.2019
5986 Clear 23 1016 73 10000 1.5 110 08:40 15.10.2019
5987 Clear 23 1016 73 10000 1.5 110 08:20 15.10.2019
5988 Clear 23 1016 73 10000 2.1 100 07:44 15.10.2019
5989 Clear 23 1015 78 10000 3.6 100 07:23 15.10.2019
5990 Clear 24 1015 73 10000 3.1 90 06:57 15.10.2019
5991 Clear 24 1015 73 10000 3.1 90 06:39 15.10.2019
5992 Clear 25 1015 65 10000 4.6 80 05:56 15.10.2019
5993 Clear 25 1015 65 10000 4.6 80 05:36 15.10.2019
5994 Clear 25 1014 69 10000 6.2 70 04:48 15.10.2019
5995 Clear 25 1014 69 10000 6.2 80 04:18 15.10.2019
5996 Clear 26 1014 65 10000 6.2 70 03:35 15.10.2019
5997 Clear 26 1014 65 10000 6.2 70 03:35 15.10.2019
5998 Rain 25 1015 69 10000 5.7 80 01:52 15.10.2019
5999 Rain 25 1015 69 10000 5.7 80 01:52 15.10.2019
6000 Rain 25 1015 73 10000 5.7 90 01:31 15.10.2019
6001 Rain 25 1015 69 10000 5.1 100 00:59 15.10.2019
6002 Rain 25 1016 73 10000 5.1 90 00:25 15.10.2019
6003 Rain 25 1016 73 10000 5.7 80 23:58 14.10.2019
6004 Rain 25 1016 73 10000 5.7 80 23:37 14.10.2019
6005 Rain 25 1016 73 10000 5.7 80 23:37 14.10.2019
6006 Rain 25 1016 73 10000 5.7 80 23:37 14.10.2019
6007 Rain 25 1016 69 10000 4.1 90 23:18 14.10.2019
6008 Rain 25 1016 73 10000 4.1 110 22:39 14.10.2019
6009 Rain 24 1016 78 10000 4.6 100 22:20 14.10.2019
6010 Rain 23 1016 83 10000 4.1 90 21:57 14.10.2019
6011 Rain 23 1016 83 10000 4.1 90 21:39 14.10.2019
6012 Rain 23 1016 83 10000 3.6 90 21:20 14.10.2019
6013 Rain 23 1016 83 10000 4.1 80 20:56 14.10.2019
6014 Rain 23 1016 83 10000 4.1 80 20:38 14.10.2019
6015 Rain 23 1016 83 10000 4.1 80 20:38 14.10.2019
6016 Rain 22 1016 88 10000 3.1 80 20:18 14.10.2019
6017 Clouds 22 1015 88 10000 2.1 100 19:43 14.10.2019
6018 Rain 21 1015 94 10000 2.1 110 19:24 14.10.2019
6019 Rain 21 1015 94 10000 2.1 110 19:24 14.10.2019
6020 Rain 21 1015 88 9000 2.6 60 18:59 14.10.2019
6021 Rain 21 1015 88 9000 2.6 60 18:39 14.10.2019
6022 Clouds 21 1014 88 10000 2.6 110 18:20 14.10.2019
6023 Clouds 21 1014 88 10000 2.6 110 18:20 14.10.2019
6024 Clouds 21 1014 88 10000 2.6 110 18:20 14.10.2019
6025 Clouds 21 1014 88 10000 2.1 90 17:58 14.10.2019
6026 Clouds 21 1014 88 10000 2.1 90 17:39 14.10.2019
6027 Clouds 21 1014 88 10000 2.1 100 17:21 14.10.2019
6028 Rain 21 1014 88 10000 2.1 100 16:44 14.10.2019
6029 Clouds 22 1014 78 10000 2.1 100 16:21 14.10.2019
6030 Clouds 22 1014 78 10000 2.6 90 15:54 14.10.2019
6031 Clouds 22 1014 78 10000 2.6 90 15:36 14.10.2019
6032 Clouds 22 1014 78 10000 2.6 90 15:18 14.10.2019
6033 Clouds 22 1014 78 10000 2.6 90 14:43 14.10.2019
6034 Clouds 22 1014 78 10000 2.1 100 14:23 14.10.2019
6035 Clouds 22 1014 78 10000 2.1 100 13:45 14.10.2019
6036 Clouds 22 1014 78 10000 1.5 110 13:22 14.10.2019
6037 Clouds 22 1015 73 10000 2.1 110 12:59 14.10.2019
6038 Clouds 22 1015 73 10000 2.1 110 12:40 14.10.2019
6039 Clouds 23 1014 69 10000 3.1 90 12:19 14.10.2019
6040 Clouds 23 1015 69 10000 2.6 100 11:46 14.10.2019
6041 Clouds 22 1015 68 10000 3.6 90 11:26 14.10.2019
6042 Clouds 22 1015 68 10000 3.6 90 11:26 14.10.2019
6043 Clouds 22 1015 68 10000 3.1 100 10:58 14.10.2019
6044 Clouds 22 1015 68 10000 3.1 100 10:58 14.10.2019
6045 Clouds 22 1015 68 10000 3.1 100 10:38 14.10.2019
6046 Clouds 22 1015 73 10000 2.6 100 10:20 14.10.2019
6047 Clouds 22 1015 73 10000 3.1 100 09:55 14.10.2019
6048 Clouds 22 1015 73 10000 2.6 100 09:36 14.10.2019
6049 Clouds 22 1015 73 10000 2.6 100 09:18 14.10.2019
6050 Clouds 22 1015 78 10000 3.6 90 08:43 14.10.2019
6051 Clouds 22 1014 78 10000 4.1 90 08:22 14.10.2019
6052 Clouds 22 1014 73 10000 4.1 90 07:42 14.10.2019
6053 Clouds 23 1014 69 10000 4.6 90 07:19 14.10.2019
6054 Clouds 23 1013 69 10000 4.6 90 06:38 14.10.2019
6055 Clouds 24 1013 64 10000 4.6 100 06:20 14.10.2019
6056 Clouds 23 1013 64 10000 4.1 90 05:46 14.10.2019
6057 Clouds 24 1013 64 10000 6.2 80 04:42 14.10.2019
6058 Clouds 25 1013 61 10000 6.7 70 03:27 14.10.2019
6059 Clouds 24 1014 64 10000 6.7 80 02:42 14.10.2019
6060 Clear 25 1015 61 10000 5.1 90 01:23 14.10.2019
6061 Clear 25 1015 65 10000 6.2 90 00:53 14.10.2019
6062 Clear 25 1015 65 10000 6.2 90 00:53 14.10.2019
6063 Clear 25 1015 61 10000 5.1 80 00:19 14.10.2019
6064 Clear 26 1015 57 10000 6.2 70 23:44 13.10.2019
6065 Clear 25 1016 61 10000 6.2 70 23:20 13.10.2019
6066 Clear 25 1016 61 10000 4.1 80 22:58 13.10.2019
6067 Clear 25 1016 61 10000 4.1 80 22:40 13.10.2019
6068 Clear 24 1016 60 10000 6.2 80 22:21 13.10.2019
6069 Clear 24 1016 60 10000 4.6 90 21:58 13.10.2019
6070 Clear 24 1016 60 10000 4.6 90 21:37 13.10.2019
6071 Clear 24 1016 60 10000 4.6 90 21:37 13.10.2019
6072 Rain 24 1017 64 10000 5.1 80 21:18 13.10.2019
6073 Rain 24 1017 64 10000 5.1 80 21:18 13.10.2019
6074 Rain 24 1017 64 10000 5.1 80 21:18 13.10.2019
6075 Rain 23 1017 69 10000 6.2 80 20:57 13.10.2019
6076 Rain 23 1017 69 10000 6.2 80 20:57 13.10.2019
6077 Rain 23 1017 69 10000 6.2 80 20:38 13.10.2019
6078 Rain 23 1016 69 10000 5.1 90 20:19 13.10.2019
6079 Rain 22 1016 73 10000 2.6 100 19:57 13.10.2019
6080 Rain 22 1016 73 10000 2.6 100 19:39 13.10.2019
6081 Rain 20 1016 82 10000 0.5 150 19:20 13.10.2019
6082 Rain 20 1016 82 10000 1 150 18:55 13.10.2019
6083 Rain 21 1016 77 10000 2.1 110 18:36 13.10.2019
6084 Rain 21 1016 77 10000 2.1 110 18:18 13.10.2019
6085 Rain 21 1016 77 10000 1.5 120 17:44 13.10.2019
6086 Rain 20 1016 82 10000 1.5 160 17:25 13.10.2019
6087 Rain 20 1016 82 10000 1.5 160 17:25 13.10.2019
6088 Rain 20 1016 82 10000 1.5 160 17:25 13.10.2019
6089 Rain 21 1016 73 10000 1.5 140 16:54 13.10.2019
6090 Rain 21 1015 77 10000 1.5 120 16:36 13.10.2019
6091 Rain 21 1015 77 10000 1.5 120 16:18 13.10.2019
6092 Rain 21 1016 77 10000 2.6 80 15:40 13.10.2019
6093 Rain 21 1016 73 10000 2.6 110 15:22 13.10.2019
6094 Rain 21 1016 73 10000 2.6 100 14:59 13.10.2019
6095 Rain 21 1016 73 10000 2.6 100 14:40 13.10.2019
6096 Rain 21 1016 73 10000 3.1 110 14:22 13.10.2019
6097 Rain 21 1016 73 10000 2.1 110 13:59 13.10.2019
6098 Rain 21 1016 73 10000 2.1 110 13:38 13.10.2019
6099 Rain 21 1016 73 10000 2.1 110 13:38 13.10.2019
6100 Rain 21 1017 77 10000 2.1 120 13:20 13.10.2019
6101 Rain 21 1017 77 10000 3.1 100 12:56 13.10.2019
6102 Rain 21 1017 77 10000 3.1 100 12:38 13.10.2019
6103 Rain 21 1017 77 10000 3.1 100 12:19 13.10.2019
6104 Rain 21 1017 77 10000 3.6 110 11:56 13.10.2019
6105 Rain 21 1017 77 10000 3.6 110 11:38 13.10.2019
6106 Rain 21 1017 77 10000 3.6 110 11:18 13.10.2019
6107 Rain 21 1017 77 10000 3.1 110 10:41 13.10.2019
6108 Rain 21 1017 73 10000 2.6 110 10:23 13.10.2019
6109 Rain 21 1017 73 10000 4.6 100 09:41 13.10.2019
6110 Clouds 21 1017 73 10000 3.1 110 09:22 13.10.2019
6111 Clouds 21 1017 73 10000 3.1 110 08:59 13.10.2019
6112 Clouds 21 1017 73 10000 3.1 110 08:40 13.10.2019
6113 Clouds 21 1017 73 10000 2.6 110 08:21 13.10.2019
6114 Clouds 21 1017 73 10000 2.1 120 07:46 13.10.2019
6115 Clouds 21 1017 73 10000 2.1 120 07:21 13.10.2019
6116 Clouds 22 1017 68 10000 3.1 130 06:41 13.10.2019
6117 Clouds 22 1017 68 10000 3.1 130 06:41 13.10.2019
6118 Clouds 23 1016 64 10000 3.1 110 05:46 13.10.2019
6119 Clouds 23 1016 60 10000 5.1 90 04:46 13.10.2019
6120 Clouds 23 1016 60 10000 5.1 90 03:51 13.10.2019
6121 Clouds 24 1016 53 10000 4.6 90 02:41 13.10.2019
6122 Clouds 24 1017 57 10000 4.6 100 01:53 13.10.2019
6123 Clouds 24 1018 50 10000 5.1 80 01:26 13.10.2019
6124 Clouds 24 1018 53 10000 4.6 90 00:47 13.10.2019
6125 Clouds 24 1019 53 10000 4.1 80 00:21 13.10.2019
6126 Clouds 24 1019 47 10000 3.6 90 23:55 12.10.2019
6127 Clouds 24 1019 47 10000 3.6 90 23:36 12.10.2019
6128 Clouds 24 1019 50 10000 4.6 90 23:18 12.10.2019
6129 Clouds 24 1019 50 10000 4.1 100 22:56 12.10.2019
6130 Clouds 24 1019 50 10000 4.1 100 22:37 12.10.2019
6131 Clouds 24 1019 50 10000 4.1 100 22:37 12.10.2019
6132 Clouds 24 1020 47 10000 4.6 100 22:19 12.10.2019
6133 Clouds 24 1020 47 10000 4.1 100 21:42 12.10.2019
6134 Clouds 22 1020 49 10000 4.6 110 21:24 12.10.2019
6135 Clouds 22 1020 53 10000 2.6 110 20:58 12.10.2019
6136 Clouds 22 1020 53 10000 2.6 110 20:58 12.10.2019
6137 Clouds 22 1020 53 10000 2.6 110 20:39 12.10.2019
6138 Clouds 21 1020 60 10000 2.1 130 20:20 12.10.2019
6139 Clouds 21 1020 56 10000 2.1 140 19:37 12.10.2019
6140 Clouds 21 1020 56 10000 2.1 150 19:19 12.10.2019
6141 Clouds 21 1019 52 10000 2.6 160 18:46 12.10.2019
6142 Clouds 20 1019 56 10000 2.1 140 18:27 12.10.2019
6143 Clouds 20 1019 60 10000 2.1 140 17:58 12.10.2019
6144 Clouds 20 1019 60 10000 2.1 140 17:40 12.10.2019
6145 Clouds 20 1018 60 10000 2.1 140 17:18 12.10.2019
6146 Clouds 20 1018 60 10000 2.1 130 16:41 12.10.2019
6147 Clouds 20 1018 60 10000 2.1 130 16:41 12.10.2019
6148 Clouds 20 1018 60 10000 2.1 140 16:21 12.10.2019
6149 Clouds 20 1018 56 10000 2.6 150 15:58 12.10.2019
6150 Clouds 20 1018 56 10000 2.6 150 15:38 12.10.2019
6151 Clouds 20 1018 56 10000 3.6 120 15:19 12.10.2019
6152 Clouds 20 1019 60 10000 2.1 120 14:41 12.10.2019
6153 Clouds 21 1019 56 10000 3.1 130 14:21 12.10.2019
6154 Clouds 21 1019 60 10000 2.1 130 13:52 12.10.2019
6155 Clouds 21 1020 60 10000 2.6 130 13:33 12.10.2019
6156 Clouds 21 1020 60 10000 2.1 130 12:59 12.10.2019
6157 Clouds 21 1020 60 10000 2.1 130 12:38 12.10.2019
6158 Clouds 20 1020 64 10000 2.1 110 12:20 12.10.2019
6159 Clouds 21 1020 56 10000 2.6 110 11:47 12.10.2019
6160 Clouds 21 1020 56 10000 3.6 110 11:24 12.10.2019
6161 Clouds 21 1020 56 10000 2.6 110 10:58 12.10.2019
6162 Clouds 21 1020 56 10000 2.6 110 10:40 12.10.2019
6163 Clouds 21 1020 60 10000 3.1 120 10:20 12.10.2019
6164 Clouds 21 1020 60 10000 2.1 120 09:57 12.10.2019
6165 -273 0 0 0 0 0 09:57 12.10.2019
6166 Clouds 21 1020 60 10000 2.1 120 09:38 12.10.2019
6167 Clear 21 1020 60 10000 3.6 110 09:19 12.10.2019
6168 Clear 21 1020 60 10000 3.6 110 08:44 12.10.2019
6169 Clear 21 1020 60 10000 3.1 110 08:25 12.10.2019
6170 Clear 21 1019 60 10000 3.6 110 07:57 12.10.2019
6171 Clear 21 1019 64 10000 2.6 110 07:31 12.10.2019
6172 Clear 22 1019 60 10000 4.1 110 06:28 12.10.2019
6173 Clear 22 1018 60 10000 5.7 90 05:43 12.10.2019
6174 Clear 23 1018 56 10000 5.1 100 04:34 12.10.2019
6175 Clear 24 1018 53 10000 4.1 120 03:54 12.10.2019
6176 Clear 24 1018 50 10000 4.6 110 02:50 12.10.2019
6177 Clear 23 1019 53 10000 7.7 90 01:33 12.10.2019
6178 Clear 24 1019 50 10000 6.7 100 00:56 12.10.2019
6179 Clear 24 1019 50 10000 6.7 100 00:37 12.10.2019
6180 Clouds 23 1020 53 10000 4.1 120 23:55 11.10.2019
6181 Clouds 23 1020 53 10000 4.1 120 23:36 11.10.2019
6182 Clouds 23 1020 56 10000 3.6 120 23:18 11.10.2019
6183 Clouds 23 1020 56 10000 4.1 120 22:37 11.10.2019
6184 Clouds 23 1020 56 10000 5.1 130 22:19 11.10.2019
6185 Clouds 23 1020 56 10000 5.1 120 21:42 11.10.2019
6186 Rain 23 1021 56 10000 4.1 130 21:21 11.10.2019
6187 Rain 22 1020 60 10000 3.6 140 20:57 11.10.2019
6188 Rain 22 1020 60 10000 3.6 140 20:38 11.10.2019
6189 Rain 22 1020 64 10000 3.6 120 20:19 11.10.2019
6190 Rain 21 1020 68 10000 3.1 130 19:55 11.10.2019
6191 Rain 21 1020 68 10000 3.1 130 19:36 11.10.2019
6192 Rain 21 1019 64 10000 3.1 140 19:18 11.10.2019
6193 Rain 21 1019 68 10000 3.1 120 18:39 11.10.2019
6194 Rain 21 1019 68 10000 3.6 110 18:19 11.10.2019
6195 Rain 21 1018 64 10000 2.1 130 17:59 11.10.2019
6196 Rain 21 1018 64 10000 2.1 130 17:38 11.10.2019
6197 Rain 20 1018 68 10000 2.1 130 17:20 11.10.2019
6198 Rain 21 1018 64 10000 2.6 120 16:59 11.10.2019
6199 Rain 21 1018 64 10000 2.6 120 16:39 11.10.2019
6200 Rain 21 1018 64 10000 2.6 120 16:19 11.10.2019
6201 Rain 21 1018 64 10000 3.1 120 15:55 11.10.2019
6202 Rain 21 1018 64 10000 3.1 120 15:36 11.10.2019
6203 Drizzle 21 1018 68 10000 2.1 130 15:18 11.10.2019
6204 Drizzle 21 1018 68 10000 2.1 130 15:18 11.10.2019
6205 Rain 21 1018 68 10000 2.6 120 14:42 11.10.2019
6206 Rain 21 1018 68 10000 2.6 110 14:21 11.10.2019
6207 Rain 21 1019 68 10000 2.1 120 13:46 11.10.2019
6208 Rain 21 1019 68 10000 3.1 120 13:26 11.10.2019
6209 Rain 20 1019 72 10000 1.5 130 12:58 11.10.2019
6210 Rain 20 1019 72 10000 1.5 130 12:39 11.10.2019
6211 Clear 20 1019 72 10000 2.1 130 12:20 11.10.2019
6212 Clear 21 1019 64 10000 2.1 120 11:58 11.10.2019
6213 Clear 21 1019 64 10000 2.1 120 11:39 11.10.2019
6214 Clear 21 1019 64 10000 2.1 120 11:38 11.10.2019
6215 Clear 21 1019 64 10000 2.1 120 11:38 11.10.2019
6216 Clear 21 1020 64 10000 2.6 110 11:20 11.10.2019
6217 Clear 21 1020 64 10000 2.1 120 10:55 11.10.2019
6218 Clear 21 1020 64 10000 2.1 120 10:36 11.10.2019
6219 Clear 21 1020 68 10000 1.5 120 10:18 11.10.2019
6220 Clear 21 1019 68 10000 2.6 130 09:42 11.10.2019
6221 Clear 21 1019 68 10000 2.1 120 09:21 11.10.2019
6222 Clear 21 1019 68 10000 2.1 130 08:57 11.10.2019
6223 Clear 21 1019 68 10000 2.1 130 08:38 11.10.2019
6224 Clear 21 1019 68 10000 2.1 120 08:20 11.10.2019
6225 Clear 21 1018 68 10000 1.5 120 07:51 11.10.2019
6226 Clear 21 1018 68 10000 2.1 110 07:33 11.10.2019
6227 Clear 22 1018 64 10000 3.6 90 06:50 11.10.2019
6228 Clear 22 1017 60 10000 5.7 90 06:25 11.10.2019
6229 Clear 23 1017 60 10000 4.1 90 05:46 11.10.2019
6230 Clear 23 1017 60 10000 4.1 120 05:27 11.10.2019
6231 Clear 23 1017 56 10000 5.7 110 04:47 11.10.2019
6232 Clouds 24 1017 60 10000 5.1 130 02:59 11.10.2019
6233 Clouds 24 1018 60 10000 7.2 90 00:52 11.10.2019
6234 Clouds 24 1018 60 10000 5.7 100 00:30 11.10.2019
6235 Clear 23 1018 64 10000 5.7 100 23:50 10.10.2019
6236 Clear 23 1018 64 10000 6.7 90 23:24 10.10.2019
6237 Clear 23 1019 64 10000 5.7 100 22:59 10.10.2019
6238 Clear 23 1019 64 10000 5.7 100 22:40 10.10.2019
6239 Clear 23 1019 69 10000 4.6 110 22:21 10.10.2019
6240 Clear 23 1019 69 10000 4.6 110 22:21 10.10.2019
6241 Clear 23 1019 69 10000 4.6 100 21:59 10.10.2019
6242 Clear 23 1019 69 10000 4.6 100 21:40 10.10.2019
6243 Clear 23 1019 69 10000 4.6 100 21:40 10.10.2019
6244 Clouds 23 1019 69 10000 5.1 110 21:22 10.10.2019
6245 Clouds 22 1018 73 10000 5.1 100 20:57 10.10.2019
6246 Clouds 22 1018 73 10000 5.1 100 20:39 10.10.2019
6247 Clouds 22 1018 73 10000 5.1 100 20:18 10.10.2019
6248 Clouds 22 1018 73 10000 5.1 100 20:18 10.10.2019
6249 Clouds 21 1018 77 10000 3.6 100 19:54 10.10.2019
6250 Clouds 21 1018 77 10000 3.6 100 19:54 10.10.2019
6251 Clouds 21 1018 77 10000 3.6 100 19:36 10.10.2019
6252 Clouds 21 1017 77 10000 3.1 100 19:18 10.10.2019
6253 Clouds 21 1017 77 10000 3.1 110 18:41 10.10.2019
6254 Clouds 21 1017 73 10000 3.1 100 18:20 10.10.2019
6255 Clouds 21 1016 73 10000 4.1 110 17:55 10.10.2019
6256 Clouds 21 1016 73 10000 4.1 110 17:55 10.10.2019
6257 Clouds 21 1016 73 10000 4.1 110 17:37 10.10.2019
6258 Clouds 21 1016 77 10000 3.1 110 17:18 10.10.2019
6259 Clouds 21 1016 77 10000 3.1 100 16:46 10.10.2019
6260 Clouds 21 1016 77 10000 3.1 100 16:26 10.10.2019
6261 Clouds 21 1016 77 10000 3.6 100 15:57 10.10.2019
6262 Clouds 21 1016 77 10000 3.6 100 15:37 10.10.2019
6263 Clouds 21 1016 77 10000 3.1 100 15:19 10.10.2019
6264 Clouds 21 1016 77 10000 3.1 100 14:55 10.10.2019
6265 Clouds 21 1016 77 10000 3.1 100 14:36 10.10.2019
6266 Clouds 22 1016 73 10000 3.6 100 14:18 10.10.2019
6267 Clouds 22 1017 73 10000 4.1 100 13:41 10.10.2019
6268 Clouds 22 1017 73 10000 3.6 100 13:23 10.10.2019
6269 Clouds 22 1017 73 10000 3.6 100 12:57 10.10.2019
6270 Clouds 22 1017 73 10000 3.6 100 12:39 10.10.2019
6271 Clouds 22 1017 73 10000 3.1 100 12:20 10.10.2019
6272 Clouds 22 1018 73 10000 5.1 100 11:55 10.10.2019
6273 Clouds 22 1018 73 10000 5.1 100 11:37 10.10.2019
6274 Clouds 22 1018 73 10000 4.6 100 11:18 10.10.2019
6275 Clouds 22 1018 73 10000 4.1 100 10:44 10.10.2019
6276 Clouds 22 1018 73 10000 4.6 100 10:25 10.10.2019
6277 Clouds 22 1018 73 10000 4.6 100 09:56 10.10.2019
6278 Clouds 22 1018 73 10000 4.6 100 09:37 10.10.2019
6279 Clouds 22 1018 73 10000 4.6 100 09:19 10.10.2019
6280 Clouds 22 1017 73 10000 5.7 100 08:41 10.10.2019
6281 Clouds 22 1017 73 10000 5.1 100 08:23 10.10.2019
6282 Clouds 22 1017 73 10000 4.1 110 07:58 10.10.2019
6283 Clouds 22 1017 73 10000 4.1 110 07:38 10.10.2019
6284 Clouds 21 1016 77 10000 5.1 100 07:19 10.10.2019
6285 Clouds 21 1016 77 10000 4.1 100 06:45 10.10.2019
6286 Rain 21 1015 83 10000 4.6 100 05:57 10.10.2019
6287 Clouds 21 1015 83 10000 5.1 110 05:23 10.10.2019
6288 Rain 22 1015 83 10000 4.6 100 04:37 10.10.2019
6289 Clouds 23 1016 73 10000 6.2 100 02:49 10.10.2019
6290 Clouds 22 1016 78 10000 5.7 100 01:41 10.10.2019
6291 Clouds 22 1017 78 10000 5.7 100 01:22 10.10.2019
6292 Rain 22 1017 78 10000 5.1 110 00:41 10.10.2019
6293 Rain 20 1017 88 5000 6.2 90 00:19 10.10.2019
6294 Rain 22 1018 73 10000 4.1 110 23:38 09.10.2019
6295 Clouds 23 1018 69 10000 4.6 100 23:18 09.10.2019
6296 Clouds 22 1017 73 10000 5.7 110 22:42 09.10.2019
6297 Clouds 22 1017 73 10000 5.7 100 22:23 09.10.2019
6298 Clouds 22 1017 78 10000 3.6 100 21:58 09.10.2019
6299 Clouds 22 1017 78 10000 3.6 100 21:39 09.10.2019
6300 Rain 21 1018 83 10000 2.6 140 21:19 09.10.2019
6301 Rain 20 1017 82 10000 3.1 110 20:55 09.10.2019
6302 Rain 20 1017 82 10000 3.1 110 20:37 09.10.2019
6303 Rain 20 1017 82 10000 4.6 100 20:18 09.10.2019
6304 Rain 20 1017 82 10000 3.1 110 19:44 09.10.2019
6305 Rain 20 1017 88 5000 2.6 110 19:23 09.10.2019
6306 Rain 20 1017 88 6000 1.5 120 18:56 09.10.2019
6307 Rain 20 1017 88 6000 1.5 120 18:37 09.10.2019
6308 Rain 21 1016 77 10000 2.1 120 18:18 09.10.2019
6309 Rain 21 1016 77 10000 2.6 110 17:40 09.10.2019
6310 Rain 21 1016 77 10000 3.6 110 17:22 09.10.2019
6311 Rain 22 1015 73 10000 3.6 100 16:58 09.10.2019
6312 Rain 22 1015 73 10000 3.6 100 16:40 09.10.2019
6313 Rain 21 1015 68 10000 2.6 110 16:21 09.10.2019
6314 Rain 22 1016 64 10000 2.1 100 15:57 09.10.2019
6315 Rain 22 1016 64 10000 2.1 100 15:38 09.10.2019
6316 Rain 22 1016 64 10000 2.1 100 15:38 09.10.2019
6317 Rain 22 1016 64 10000 2.6 100 15:19 09.10.2019
6318 Rain 22 1016 64 10000 3.1 90 14:55 09.10.2019
6319 Rain 22 1016 64 10000 3.1 90 14:36 09.10.2019
6320 Rain 22 1016 64 10000 3.1 90 14:36 09.10.2019
6321 Rain 22 1016 64 10000 2.6 100 14:18 09.10.2019
6322 Rain 22 1017 64 10000 3.1 100 13:38 09.10.2019
6323 Clouds 22 1017 64 10000 3.1 90 13:19 09.10.2019
6324 Clouds 22 1017 64 10000 3.1 90 12:55 09.10.2019
6325 Clouds 22 1017 64 10000 3.1 90 12:37 09.10.2019
6326 Clouds 22 1017 64 10000 4.6 90 12:18 09.10.2019
6327 Clouds 22 1018 60 10000 4.1 90 11:40 09.10.2019
6328 Clouds 22 1018 60 10000 4.1 90 11:40 09.10.2019
6329 Clouds 22 1018 64 10000 2.1 110 11:21 09.10.2019
6330 Clouds 22 1018 64 10000 3.6 90 10:59 09.10.2019
6331 Clouds 22 1018 64 10000 3.6 90 10:40 09.10.2019
6332 Clouds 22 1017 64 10000 3.6 90 10:19 09.10.2019
6333 Clouds 22 1017 64 10000 3.6 90 10:19 09.10.2019
6334 Clouds 22 1017 64 10000 5.7 90 09:43 09.10.2019
6335 Clouds 21 1017 64 10000 4.6 90 09:20 09.10.2019
6336 Clouds 21 1017 60 10000 3.6 100 08:58 09.10.2019
6337 Clouds 21 1017 60 10000 3.6 100 08:39 09.10.2019
6338 Clouds 21 1017 60 10000 3.1 100 08:19 09.10.2019
6339 Clouds 21 1017 60 10000 3.1 100 08:19 09.10.2019
6340 Clouds 21 1017 60 10000 2.6 110 07:47 09.10.2019
6341 Clouds 21 1017 56 10000 3.1 100 07:24 09.10.2019
6342 Clouds 22 1016 60 10000 4.6 120 06:56 09.10.2019
6343 Clouds 22 1016 60 10000 4.6 120 06:34 09.10.2019
6344 Clouds 22 1017 60 10000 3.1 130 05:51 09.10.2019
6345 Clouds 22 1016 64 10000 4.1 110 04:41 09.10.2019
6346 Clouds 23 1016 60 10000 5.1 110 03:43 09.10.2019
6347 Clouds 23 1016 60 10000 5.1 110 03:43 09.10.2019
6348 Rain 23 1017 56 10000 4.6 110 01:55 09.10.2019
6349 Rain 24 1017 53 10000 5.1 90 01:22 09.10.2019
6350 Rain 23 1018 56 10000 6.7 80 00:59 09.10.2019
6351 Rain 23 1018 56 10000 6.7 80 00:40 09.10.2019
6352 Rain 24 1018 57 10000 4.1 110 00:22 09.10.2019
6353 Rain 24 1018 57 10000 4.1 110 00:22 09.10.2019
6354 Rain 23 1018 56 10000 7.2 80 23:57 08.10.2019
6355 Rain 23 1018 56 10000 7.2 80 23:37 08.10.2019
6356 Rain 23 1019 60 10000 5.1 110 23:18 08.10.2019
6357 Rain 23 1019 60 10000 5.1 90 22:39 08.10.2019
6358 Rain 23 1019 56 10000 5.1 110 22:20 08.10.2019
6359 Rain 22 1019 60 10000 5.1 110 21:58 08.10.2019
6360 Rain 22 1019 60 10000 5.1 110 21:39 08.10.2019
6361 Rain 23 1019 53 10000 4.1 120 21:19 08.10.2019
6362 Rain 22 1019 56 10000 5.1 100 20:57 08.10.2019
6363 Rain 22 1019 56 10000 5.1 100 20:57 08.10.2019
6364 Rain 22 1019 56 10000 5.1 100 20:57 08.10.2019
6365 Clouds 22 1019 56 10000 5.1 100 20:39 08.10.2019
6366 Clouds 22 1019 56 10000 4.1 110 20:21 08.10.2019
6367 Clouds 21 1018 60 10000 3.6 100 19:58 08.10.2019
6368 Clouds 21 1018 60 10000 3.6 100 19:40 08.10.2019
6369 Clouds 21 1018 60 10000 4.1 100 19:21 08.10.2019
6370 Clouds 21 1018 60 10000 4.1 100 19:21 08.10.2019
6371 -273 0 0 0 0 0 18:55 08.10.2019
6372 Clouds 21 1017 60 10000 4.6 100 18:55 08.10.2019
6373 Clouds 21 1017 60 10000 4.6 100 18:36 08.10.2019
6374 Clouds 21 1018 60 10000 2.6 110 18:18 08.10.2019
6375 Clouds 21 1018 60 10000 2.6 110 17:40 08.10.2019
6376 Clouds 21 1018 60 10000 2.1 120 17:21 08.10.2019
6377 Clouds 21 1017 60 10000 2.6 120 16:58 08.10.2019
6378 Clouds 21 1017 60 10000 2.6 120 16:39 08.10.2019
6379 Clouds 21 1017 60 10000 2.6 130 16:21 08.10.2019
6380 Clouds 21 1017 64 10000 3.1 120 15:41 08.10.2019
6381 Clouds 21 1017 64 10000 3.1 120 15:41 08.10.2019
6382 Clouds 20 1018 68 10000 2.6 120 15:21 08.10.2019
6383 Clouds 21 1018 60 10000 2.6 120 14:58 08.10.2019
6384 Clouds 21 1018 60 10000 2.6 120 14:58 08.10.2019
6385 Clouds 21 1018 60 10000 2.6 120 14:39 08.10.2019
6386 Clouds 20 1018 64 10000 2.6 120 14:20 08.10.2019
6387 Clouds 21 1019 60 10000 3.1 110 13:57 08.10.2019
6388 Clouds 21 1019 60 10000 3.1 110 13:38 08.10.2019
6389 Clouds 21 1019 60 10000 2.6 120 13:19 08.10.2019
6390 Clouds 21 1019 60 10000 2.6 120 13:19 08.10.2019
6391 Clouds 21 1019 60 10000 2.6 110 12:58 08.10.2019
6392 Clouds 21 1019 60 10000 2.6 110 12:37 08.10.2019
6393 Clouds 21 1019 60 10000 2.6 110 12:37 08.10.2019
6394 Clouds 20 1019 64 10000 3.1 110 12:18 08.10.2019
6395 Clouds 20 1019 64 10000 3.1 110 11:41 08.10.2019
6396 Clouds 20 1019 64 10000 3.1 110 11:41 08.10.2019
6397 Clouds 20 1019 64 10000 2.1 120 11:23 08.10.2019
6398 Clouds 20 1019 60 10000 1.5 110 10:56 08.10.2019
6399 Clouds 20 1019 60 10000 1.5 110 10:36 08.10.2019
6400 Clouds 20 1019 60 10000 2.6 110 10:18 08.10.2019
6401 Clouds 21 1019 56 10000 3.1 110 09:41 08.10.2019
6402 Clouds 20 1019 60 10000 2.1 130 09:23 08.10.2019
6403 Clouds 20 1019 60 10000 2.6 110 08:59 08.10.2019
6404 Clouds 20 1019 60 10000 2.6 110 08:41 08.10.2019
6405 Clouds 21 1019 56 10000 3.1 100 08:22 08.10.2019
6406 Clouds 21 1019 60 10000 3.1 120 07:42 08.10.2019
6407 Clouds 21 1018 60 10000 3.1 130 07:21 08.10.2019
6408 Clouds 21 1018 60 10000 3.6 120 06:49 08.10.2019
6409 Clouds 21 1018 60 10000 3.1 110 06:26 08.10.2019
6410 Clouds 22 1018 56 10000 3.6 120 05:45 08.10.2019
6411 Clouds 23 1017 56 10000 4.6 130 05:24 08.10.2019
6412 Clouds 22 1017 60 10000 5.7 100 03:32 08.10.2019
6413 Clouds 22 1017 56 10000 5.7 90 02:46 08.10.2019
6414 Clouds 23 1018 53 10000 6.7 90 02:26 08.10.2019
6415 Clouds 23 1018 49 10000 5.1 100 01:42 08.10.2019
6416 Clouds 23 1018 49 10000 6.2 100 01:19 08.10.2019
6417 Clouds 23 1019 46 10000 5.7 100 00:36 08.10.2019
6418 Clouds 23 1019 53 10000 5.1 90 00:18 08.10.2019
6419 Clouds 23 1019 53 10000 5.1 90 23:38 07.10.2019
6420 Clouds 23 1020 49 10000 5.7 90 23:19 07.10.2019
6421 Clouds 22 1020 56 10000 2.6 140 22:55 07.10.2019
6422 Clouds 22 1020 56 10000 2.6 140 22:37 07.10.2019
6423 Clouds 22 1020 53 10000 4.1 100 22:19 07.10.2019
6424 Clouds 23 1020 56 10000 3.1 110 21:54 07.10.2019
6425 Clouds 23 1020 56 10000 3.1 110 21:36 07.10.2019
6426 Clouds 22 1020 56 10000 6.2 100 21:18 07.10.2019
6427 Clouds 22 1020 56 10000 4.1 120 20:56 07.10.2019
6428 Clouds 22 1020 56 10000 4.1 120 20:56 07.10.2019
6429 Clouds 22 1020 56 10000 4.1 120 20:37 07.10.2019
6430 Clouds 21 1019 60 10000 3.6 130 20:18 07.10.2019
6431 Clouds 21 1019 64 10000 3.1 110 19:42 07.10.2019
6432 Clouds 20 1019 68 10000 3.1 130 19:21 07.10.2019
6433 Clouds 20 1018 64 10000 2.6 140 18:59 07.10.2019
6434 Clouds 20 1018 64 10000 2.6 140 18:59 07.10.2019
6435 Clouds 20 1018 64 10000 2.6 140 18:40 07.10.2019
6436 Clouds 20 1018 64 10000 3.1 120 18:19 07.10.2019
6437 Clouds 20 1018 64 10000 3.1 120 18:19 07.10.2019
6438 Clouds 20 1018 64 10000 3.1 120 17:55 07.10.2019
6439 Clouds 20 1018 64 10000 3.1 120 17:37 07.10.2019
6440 Clouds 20 1018 64 10000 2.6 130 17:18 07.10.2019
6441 Clouds 20 1018 64 10000 3.1 130 16:43 07.10.2019
6442 Clouds 20 1018 64 10000 3.1 140 16:25 07.10.2019
6443 Clouds 20 1018 60 10000 3.1 140 15:46 07.10.2019
6444 Clouds 20 1019 64 10000 2.1 130 15:27 07.10.2019
6445 Rain 20 1018 64 10000 3.1 120 14:59 07.10.2019
6446 Rain 20 1018 64 10000 3.1 120 14:59 07.10.2019
6447 Rain 20 1018 64 10000 3.1 120 14:41 07.10.2019
6448 Rain 20 1019 64 10000 3.1 110 14:22 07.10.2019
6449 Rain 20 1020 60 10000 2.1 130 13:44 07.10.2019
6450 Rain 20 1020 60 10000 2.6 120 13:21 07.10.2019
6451 Rain 20 1020 60 10000 3.1 120 12:57 07.10.2019
6452 Rain 20 1020 60 10000 3.1 120 12:39 07.10.2019
6453 Clouds 20 1020 64 10000 2.6 110 12:20 07.10.2019
6454 Clouds 20 1020 64 10000 2.6 110 12:20 07.10.2019
6455 Clouds 21 1020 56 10000 3.6 120 11:59 07.10.2019
6456 Clouds 21 1020 56 10000 3.6 120 11:39 07.10.2019
6457 Clouds 21 1020 60 10000 2.6 130 11:20 07.10.2019
6458 Clouds 20 1020 64 10000 1.5 110 10:42 07.10.2019
6459 Clouds 20 1020 64 10000 2.1 110 10:21 07.10.2019
6460 Clouds 21 1020 60 10000 2.1 130 09:56 07.10.2019
6461 Clouds 21 1020 60 10000 2.1 130 09:38 07.10.2019
6462 Clouds 21 1020 60 10000 3.1 120 09:19 07.10.2019
6463 Rain 21 1020 64 10000 1.5 120 08:42 07.10.2019
6464 Rain 21 1019 64 10000 2.6 120 08:20 07.10.2019
6465 Rain 21 1019 56 10000 3.1 110 07:46 07.10.2019
6466 Rain 20 1019 64 10000 2.6 110 07:27 07.10.2019
6467 Rain 21 1019 60 10000 4.1 110 06:56 07.10.2019
6468 Rain 21 1019 60 10000 4.1 110 06:37 07.10.2019
6469 Rain 22 1018 53 10000 4.1 100 05:54 07.10.2019
6470 Rain 22 1018 56 10000 5.7 100 05:25 07.10.2019
6471 Rain 23 1018 49 10000 5.1 120 04:44 07.10.2019
6472 Rain 24 1018 53 10000 4.6 100 03:45 07.10.2019
6473 Rain 24 1018 53 10000 4.6 100 03:45 07.10.2019
6474 Clouds 24 1018 53 10000 4.6 100 03:23 07.10.2019
6475 Clouds 23 1019 53 10000 4.6 130 02:23 07.10.2019
6476 Clouds 24 1019 47 10000 4.1 120 01:57 07.10.2019
6477 Clouds 22 1019 53 10000 4.6 110 01:22 07.10.2019
6478 Clouds 23 1019 49 10000 4.6 110 00:45 07.10.2019
6479 Clouds 22 1019 53 10000 3.6 130 00:23 07.10.2019
6480 Clouds 22 1020 53 10000 3.6 150 23:56 06.10.2019
6481 Clouds 22 1020 53 10000 3.6 150 23:38 06.10.2019
6482 Clouds 23 1020 49 10000 3.6 140 23:18 06.10.2019
6483 Clouds 23 1019 46 10000 3.1 110 22:42 06.10.2019
6484 Clouds 22 1020 49 10000 4.1 120 22:22 06.10.2019
6485 Clouds 23 1020 53 10000 3.6 110 21:58 06.10.2019
6486 Clouds 23 1020 53 10000 3.6 110 21:58 06.10.2019
6487 Clouds 23 1020 53 10000 3.6 110 21:38 06.10.2019
6488 Clouds 22 1020 56 10000 3.6 130 21:19 06.10.2019
6489 Clouds 22 1019 56 10000 3.6 110 20:59 06.10.2019
6490 Clouds 22 1019 56 10000 3.6 110 20:59 06.10.2019
6491 Clouds 22 1019 56 10000 3.6 110 20:40 06.10.2019
6492 Clouds 21 1019 60 10000 3.6 130 20:21 06.10.2019
6493 Clouds 21 1019 49 10000 2.6 130 19:58 06.10.2019
6494 Clouds 21 1019 49 10000 2.6 130 19:38 06.10.2019
6495 Clouds 19 1019 59 10000 1.5 110 19:20 06.10.2019
6496 Clouds 20 1018 49 10000 1.5 160 18:57 06.10.2019
6497 Clouds 20 1018 49 10000 1.5 160 18:39 06.10.2019
6498 Clouds 20 1018 49 10000 2.1 130 18:20 06.10.2019
6499 Clouds 19 1018 55 10000 1.5 110 17:59 06.10.2019
6500 Clouds 19 1018 55 10000 1.5 110 17:39 06.10.2019
6501 Clouds 20 1018 52 10000 2.1 140 17:19 06.10.2019
6502 Clouds 20 1018 52 10000 2.6 140 16:43 06.10.2019
6503 Clouds 20 1018 56 10000 3.6 140 16:24 06.10.2019
6504 Clouds 20 1018 56 10000 3.6 140 16:24 06.10.2019
6505 Clouds 20 1018 56 10000 3.1 140 15:59 06.10.2019
6506 Clouds 20 1018 56 10000 3.1 140 15:41 06.10.2019
6507 Clouds 18 1018 72 10000 1 160 15:18 06.10.2019
6508 Clouds 19 1018 68 10000 1 110 14:43 06.10.2019
6509 Clouds 18 1018 72 10000 1.5 140 14:24 06.10.2019
6510 Clouds 16 1018 77 10000 1 160 13:58 06.10.2019
6511 Clouds 16 1018 77 10000 1 160 13:39 06.10.2019
6512 Clouds 17 1018 72 10000 1.5 160 13:20 06.10.2019
6513 Clouds 16 1019 77 10000 1 150 12:57 06.10.2019
6514 Clouds 16 1019 77 10000 1 150 12:57 06.10.2019
6515 Clouds 16 1019 77 10000 1 150 12:57 06.10.2019
6516 Clouds 16 1019 77 10000 1 150 12:39 06.10.2019
6517 Clouds 16 1019 72 10000 1 140 12:20 06.10.2019
6518 Clouds 18 1019 59 10000 1.5 150 11:56 06.10.2019
6519 Clouds 18 1019 59 10000 1.5 150 11:37 06.10.2019
6520 Clouds 19 1019 52 10000 2.1 130 11:18 06.10.2019
6521 Clouds 17 1019 63 10000 1 150 10:43 06.10.2019
6522 Clouds 19 1019 52 10000 1.5 130 10:25 06.10.2019
6523 Clouds 19 1019 52 10000 1.5 130 09:58 06.10.2019
6524 Clouds 19 1019 52 10000 1.5 130 09:39 06.10.2019
6525 Clouds 19 1019 52 10000 1.5 140 09:18 06.10.2019
6526 Clouds 20 1019 49 10000 2.1 130 08:43 06.10.2019
6527 Clouds 20 1018 56 10000 2.1 130 08:20 06.10.2019
6528 Haze 19 1018 63 4000 1 160 07:44 06.10.2019
6529 Clouds 20 1018 52 10000 1.5 150 07:19 06.10.2019
6530 Clouds 21 1017 49 10000 2.1 140 06:20 06.10.2019
6531 Clouds 22 1017 49 10000 2.6 120 05:33 06.10.2019
6532 Clouds 22 1017 56 10000 2.6 130 03:41 06.10.2019
6533 Clouds 23 1017 46 10000 3.6 110 02:42 06.10.2019
6534 Clouds 23 1017 49 10000 3.6 150 02:20 06.10.2019
6535 Clouds 23 1017 49 10000 3.6 150 01:40 06.10.2019
6536 Clouds 23 1017 49 10000 3.1 130 01:21 06.10.2019
6537 Clouds 23 1018 53 10000 3.6 120 00:46 06.10.2019
6538 Clouds 23 1018 56 10000 4.1 120 00:25 06.10.2019
6539 Clouds 23 1018 53 10000 3.1 120 23:44 05.10.2019
6540 Clouds 23 1018 49 10000 4.1 100 23:22 05.10.2019
6541 Clouds 23 1018 49 10000 2.6 130 22:58 05.10.2019
6542 Clouds 23 1018 49 10000 2.6 130 22:39 05.10.2019
6543 Clouds 24 1018 47 10000 2.1 130 22:20 05.10.2019
6544 Clouds 23 1018 49 10000 3.1 120 21:43 05.10.2019
6545 Clouds 22 1018 49 10000 1.5 140 21:24 05.10.2019
6546 Clouds 22 1018 49 10000 1.5 140 20:59 05.10.2019
6547 Clouds 22 1018 49 10000 1.5 140 20:40 05.10.2019
6548 Clouds 21 1018 52 10000 2.6 160 20:20 05.10.2019
6549 Clouds 21 1018 56 10000 2.1 150 19:58 05.10.2019
6550 Clouds 21 1017 56 10000 2.6 160 19:37 05.10.2019
6551 Clouds 21 1017 56 10000 2.6 160 19:18 05.10.2019
6552 Clouds 21 1017 60 10000 3.6 150 18:55 05.10.2019
6553 Clouds 21 1017 60 10000 3.6 150 18:36 05.10.2019
6554 Rain 21 1016 60 10000 3.6 150 18:18 05.10.2019
6555 Rain 21 1016 60 10000 2.6 150 17:42 05.10.2019
6556 Rain 21 1016 60 10000 3.6 160 17:22 05.10.2019
6557 Rain 21 1016 64 10000 3.1 170 16:56 05.10.2019
6558 Rain 20 1016 68 10000 2.1 170 16:37 05.10.2019
6559 Rain 20 1016 68 10000 2.1 170 16:18 05.10.2019
6560 Rain 20 1016 68 10000 2.1 170 16:18 05.10.2019
6561 Rain 21 1016 60 10000 2.6 160 15:55 05.10.2019
6562 Rain 21 1016 60 10000 2.6 160 15:37 05.10.2019
6563 Clouds 21 1016 64 10000 3.1 160 15:18 05.10.2019
6564 Clouds 21 1016 64 10000 3.6 160 14:42 05.10.2019
6565 Rain 21 1016 68 10000 4.1 160 14:23 05.10.2019
6566 Clouds 21 1016 64 10000 2.6 160 13:44 05.10.2019
6567 Clouds 21 1016 64 10000 3.1 160 13:26 05.10.2019
6568 Clouds 22 1017 60 10000 3.6 170 12:58 05.10.2019
6569 Clouds 22 1017 60 10000 3.6 170 12:40 05.10.2019
6570 Clouds 22 1017 64 10000 1.5 180 12:19 05.10.2019
6571 Clouds 22 1017 60 10000 1.5 180 11:39 05.10.2019
6572 Clouds 22 1017 64 10000 1.5 190 11:20 05.10.2019
6573 Clouds 22 1017 60 10000 1.5 170 10:55 05.10.2019
6574 Clouds 22 1016 60 10000 1.5 180 10:37 05.10.2019
6575 Clouds 22 1016 60 10000 1.5 180 10:18 05.10.2019
6576 Clouds 22 1016 64 10000 2.6 180 09:40 05.10.2019
6577 Clouds 22 1016 64 10000 1 140 09:22 05.10.2019
6578 Clouds 22 1016 64 10000 4.1 180 08:42 05.10.2019
6579 Clouds 22 1015 73 10000 2.6 180 08:22 05.10.2019
6580 Clouds 22 1015 68 10000 3.1 170 07:59 05.10.2019
6581 Clouds 22 1015 68 10000 3.1 170 07:38 05.10.2019
6582 Rain 22 1015 68 10000 4.1 170 07:19 05.10.2019
6583 Clouds 21 1014 73 10000 2.1 180 06:29 05.10.2019
6584 Rain 21 1014 77 10000 2.6 170 05:59 05.10.2019
6585 Drizzle 21 1013 83 10000 4.1 180 04:42 05.10.2019
6586 Clouds 21 1013 88 10000 4.6 190 03:29 05.10.2019
6587 Rain 21 1013 94 6000 5.1 190 01:55 05.10.2019
6588 Rain 22 1013 94 4500 4.1 200 01:23 05.10.2019
6589 Rain 23 1014 88 8000 3.1 200 00:46 05.10.2019
6590 Rain 22 1014 94 5000 3.1 220 00:27 05.10.2019
6591 Rain 23 1014 94 3100 3.1 250 23:45 04.10.2019
6592 Rain 23 1014 94 10000 2.6 220 23:26 04.10.2019
6593 Rain 23 1014 94 7000 3.1 230 22:59 04.10.2019
6594 Rain 23 1014 94 7000 3.1 230 22:40 04.10.2019
6595 Drizzle 23 1014 94 2900 2.6 220 22:22 04.10.2019
6596 Rain 25 1014 78 10000 4.6 300 21:57 04.10.2019
6597 Rain 25 1014 78 10000 4.6 300 21:39 04.10.2019
6598 Clouds 25 1014 78 10000 4.1 310 21:20 04.10.2019
6599 Clouds 25 1014 78 10000 4.1 320 20:57 04.10.2019
6600 Clouds 25 1014 78 10000 4.1 320 20:57 04.10.2019
6601 Clouds 25 1014 78 10000 4.1 320 20:38 04.10.2019
6602 Clouds 24 1014 78 10000 4.1 320 20:20 04.10.2019
6603 Clouds 24 1014 83 10000 5.1 320 19:48 04.10.2019
6604 Clouds 24 1013 83 10000 4.1 340 19:29 04.10.2019
6605 Clouds 24 1013 78 10000 3.6 330 18:59 04.10.2019
6606 Clouds 24 1013 78 10000 3.6 330 18:38 04.10.2019
6607 Clouds 24 1013 78 10000 3.6 330 18:19 04.10.2019
6608 Clouds 24 1013 78 10000 3.6 340 17:54 04.10.2019
6609 Clouds 24 1012 78 10000 4.1 330 17:36 04.10.2019
6610 Clouds 24 1012 78 10000 4.1 330 17:18 04.10.2019
6611 Clouds 24 1012 78 10000 3.6 320 16:41 04.10.2019
6612 Clouds 24 1012 78 10000 3.1 320 16:19 04.10.2019
6613 Clouds 24 1012 78 10000 3.1 320 16:19 04.10.2019
6614 Clouds 24 1012 78 10000 2.6 340 15:58 04.10.2019
6615 Clouds 24 1012 78 10000 2.6 340 15:39 04.10.2019
6616 Clouds 24 1012 78 10000 3.1 350 15:21 04.10.2019
6617 Clouds 24 1013 78 10000 2.6 340 14:58 04.10.2019
6618 Clouds 24 1013 78 10000 2.6 340 14:58 04.10.2019
6619 Clouds 24 1013 78 10000 2.6 340 14:39 04.10.2019
6620 Clouds 24 1013 78 10000 2.6 340 14:21 04.10.2019
6621 Clouds 24 1013 78 10000 3.1 340 13:45 04.10.2019
6622 Clouds 24 1013 78 10000 2.6 340 13:23 04.10.2019
6623 Clouds 24 1013 78 10000 2.1 10 12:58 04.10.2019
6624 Clouds 24 1013 78 10000 2.1 10 12:40 04.10.2019
6625 Clouds 24 1013 78 10000 2.6 20 12:21 04.10.2019
6626 Clouds 24 1013 78 10000 2.6 30 11:42 04.10.2019
6627 Clouds 24 1013 78 10000 2.6 30 11:42 04.10.2019
6628 Clouds 24 1014 78 10000 2.1 30 11:21 04.10.2019
6629 Clouds 24 1014 73 10000 2.1 30 10:42 04.10.2019
6630 Clouds 24 1014 73 10000 2.1 10 10:21 04.10.2019
6631 Clouds 24 1014 73 10000 2.1 10 10:21 04.10.2019
6632 Clouds 24 1014 73 10000 2.1 20 09:58 04.10.2019
6633 Clouds 24 1014 73 10000 2.1 20 09:58 04.10.2019
6634 Clouds 24 1014 73 10000 2.1 20 09:40 04.10.2019
6635 Clouds 24 1014 73 10000 2.1 10 09:22 04.10.2019
6636 Clouds 24 1013 73 10000 2.1 10 08:44 04.10.2019
6637 Clouds 24 1013 73 10000 2.1 350 08:25 04.10.2019
6638 Clouds 24 1013 73 10000 2.1 350 07:47 04.10.2019
6639 Clouds 24 1013 73 10000 2.6 350 07:24 04.10.2019
6640 Clouds 25 1013 69 10000 2.6 350 06:56 04.10.2019
6641 Clouds 25 1013 69 10000 2.6 350 06:56 04.10.2019
6642 Clouds 25 1013 69 10000 2.6 350 06:37 04.10.2019
6643 Clouds 25 1012 69 10000 2.6 350 06:18 04.10.2019
6644 Clouds 25 1012 69 10000 3.1 360 05:19 04.10.2019
6645 Clouds 25 1012 69 10000 3.1 10 04:25 04.10.2019
6646 Clouds 26 1013 65 10000 3.6 360 02:56 04.10.2019
6647 Clouds 26 1013 65 10000 3.6 360 02:56 04.10.2019
6648 Clouds 26 1013 65 10000 3.6 360 02:37 04.10.2019
6649 Clouds 26 1013 69 10000 3.6 360 01:43 04.10.2019
6650 Clouds 26 1013 69 10000 3.6 10 01:24 04.10.2019
6651 Clouds 26 1014 65 10000 3.6 360 00:24 04.10.2019
6652 Clouds 25 1014 69 10000 3.6 10 23:38 03.10.2019
6653 Clouds 26 1014 65 10000 3.6 10 23:18 03.10.2019
6654 Clouds 25 1015 69 10000 4.6 20 22:57 03.10.2019
6655 Clouds 25 1015 69 10000 4.6 20 22:57 03.10.2019
6656 Clouds 25 1015 69 10000 4.6 20 22:39 03.10.2019
6657 Clouds 26 1015 69 10000 4.6 20 22:21 03.10.2019
6658 Clouds 26 1015 69 10000 4.6 20 22:21 03.10.2019
6659 Clouds 25 1015 69 10000 3.6 20 21:56 03.10.2019
6660 Clouds 25 1015 69 10000 3.6 20 21:37 03.10.2019
6661 Clouds 25 1015 69 10000 3.6 10 21:19 03.10.2019
6662 Clouds 25 1015 69 10000 3.1 20 20:56 03.10.2019
6663 Clouds 25 1015 69 10000 3.1 20 20:37 03.10.2019
6664 Clouds 24 1015 73 10000 3.1 20 20:19 03.10.2019
6665 Clouds 24 1014 73 10000 3.1 20 19:54 03.10.2019
6666 -273 0 0 0 0 0 19:54 03.10.2019
6667 Clouds 24 1014 73 10000 3.1 20 19:36 03.10.2019
6668 Clouds 23 1014 73 10000 2.1 60 19:18 03.10.2019
6669 Clouds 22 1014 78 10000 2.1 90 18:40 03.10.2019
6670 Clouds 20 1014 82 10000 2.1 80 18:19 03.10.2019
6671 Clouds 20 1014 88 10000 1.5 90 17:59 03.10.2019
6672 Clouds 20 1014 88 10000 1.5 90 17:59 03.10.2019
6673 Clouds 20 1014 88 10000 1.5 90 17:41 03.10.2019
6674 Clouds 21 1013 77 10000 2.1 80 17:19 03.10.2019
6675 Clouds 23 1013 73 10000 3.6 50 16:43 03.10.2019
6676 Clouds 23 1013 73 10000 3.6 50 16:25 03.10.2019
6677 Clouds 20 1013 82 10000 2.6 70 15:56 03.10.2019
6678 Clouds 20 1013 82 10000 2.6 70 15:38 03.10.2019
6679 Clouds 20 1014 82 10000 2.6 80 15:38 03.10.2019
6680 Clouds 20 1014 82 10000 2.6 80 15:19 03.10.2019
6681 Clouds 20 1014 82 10000 2.6 80 14:45 03.10.2019
6682 Clouds 21 1014 77 10000 2.6 90 14:26 03.10.2019
6683 Clouds 21 1014 77 10000 3.1 90 13:57 03.10.2019
6684 Clouds 21 1014 77 10000 3.1 90 13:39 03.10.2019
6685 Clouds 21 1015 77 10000 3.1 90 13:19 03.10.2019
6686 Clouds 21 1015 77 10000 2.6 80 12:55 03.10.2019
6687 Clouds 21 1015 77 10000 2.6 80 12:36 03.10.2019
6688 Clouds 21 1015 77 10000 2.6 80 12:18 03.10.2019
6689 Clouds 22 1015 78 10000 2.6 80 11:41 03.10.2019
6690 Clouds 21 1015 77 10000 3.6 80 11:22 03.10.2019
6691 Clouds 20 1016 82 10000 3.1 80 10:58 03.10.2019
6692 Clouds 20 1016 82 10000 3.1 80 10:40 03.10.2019
6693 Clouds 21 1016 77 10000 2.6 90 10:18 03.10.2019
6694 Clouds 21 1016 77 10000 2.6 90 09:57 03.10.2019
6695 Clouds 21 1016 77 10000 2.6 90 09:39 03.10.2019
6696 Clouds 20 1015 82 10000 2.6 80 09:20 03.10.2019
6697 Clouds 21 1016 77 10000 1.5 90 08:43 03.10.2019
6698 Clouds 22 1015 73 10000 1.5 100 08:25 03.10.2019
6699 Clouds 22 1015 73 10000 1.5 100 07:56 03.10.2019
6700 Clouds 22 1015 73 10000 1.5 100 07:37 03.10.2019
6701 Clouds 22 1015 73 10000 1.5 100 07:37 03.10.2019
6702 Clouds 22 1015 73 10000 3.1 70 07:19 03.10.2019
6703 Clouds 24 1015 64 10000 3.1 60 06:35 03.10.2019
6704 Clouds 25 1014 61 10000 3.1 60 05:55 03.10.2019
6705 Clouds 25 1014 61 10000 4.1 50 05:37 03.10.2019
6706 Clouds 25 1014 57 10000 3.6 50 04:48 03.10.2019
6707 Clouds 25 1014 57 10000 3.6 60 04:24 03.10.2019
6708 Clouds 25 1014 57 10000 4.1 40 03:20 03.10.2019
6709 Clouds 26